<?xml version="1.0" encoding="UTF-8" standalone="no" ?>
<gpx xmlns="http://www.topografix.com/GPX/1/1" xmlns:xsi="http://www.w3.org/2001/XMLSchema-instance" xsi:schemaLocation="http://www.topografix.com/GPX/1/1 http://www.topografix.com/GPX/1/1/gpx.xsd" version="1.1" creator="VisuGPX - https://www.visugpx.com">
  <metadata>
    <name>Col de l\'Arc</name>
    <desc><![CDATA[Rando d\'hier pépère !]]></desc>
  </metadata>
  <trk>
    <name><![CDATA[2011-07-24T12:50:06Z]]></name>
    <trkseg>
      <trkpt lat="45.07339" lon="5.65624">
        <ele>333.3</ele>
        <time>2011-07-24T12:50:06Z</time>
      </trkpt>
      <trkpt lat="45.07339" lon="5.6562">
        <ele>284.4</ele>
        <time>2011-07-24T12:50:09Z</time>
      </trkpt>
      <trkpt lat="45.07339" lon="5.65616">
        <ele>284.2</ele>
        <time>2011-07-24T12:50:11Z</time>
      </trkpt>
      <trkpt lat="45.07337" lon="5.65609">
        <ele>283.6</ele>
        <time>2011-07-24T12:50:15Z</time>
      </trkpt>
      <trkpt lat="45.07335" lon="5.656">
        <ele>283.2</ele>
        <time>2011-07-24T12:50:18Z</time>
      </trkpt>
      <trkpt lat="45.07334" lon="5.65598">
        <ele>283</ele>
        <time>2011-07-24T12:50:19Z</time>
      </trkpt>
      <trkpt lat="45.07335" lon="5.65592">
        <ele>282.6</ele>
        <time>2011-07-24T12:50:26Z</time>
      </trkpt>
      <trkpt lat="45.07333" lon="5.65583">
        <ele>284.8</ele>
        <time>2011-07-24T12:50:36Z</time>
      </trkpt>
      <trkpt lat="45.07327" lon="5.65579">
        <ele>289.8</ele>
        <time>2011-07-24T12:50:46Z</time>
      </trkpt>
      <trkpt lat="45.07313" lon="5.65588">
        <ele>300.6</ele>
        <time>2011-07-24T12:50:56Z</time>
      </trkpt>
      <trkpt lat="45.07302" lon="5.65591">
        <ele>314.2</ele>
        <time>2011-07-24T12:51:07Z</time>
      </trkpt>
      <trkpt lat="45.073" lon="5.6559">
        <ele>316.6</ele>
        <time>2011-07-24T12:51:09Z</time>
      </trkpt>
      <trkpt lat="45.07299" lon="5.65586">
        <ele>323.6</ele>
        <time>2011-07-24T12:51:17Z</time>
      </trkpt>
      <trkpt lat="45.07302" lon="5.65576">
        <ele>327.4</ele>
        <time>2011-07-24T12:51:24Z</time>
      </trkpt>
      <trkpt lat="45.07306" lon="5.6557">
        <ele>329</ele>
        <time>2011-07-24T12:51:28Z</time>
      </trkpt>
      <trkpt lat="45.0731" lon="5.65562">
        <ele>330.4</ele>
        <time>2011-07-24T12:51:33Z</time>
      </trkpt>
      <trkpt lat="45.07316" lon="5.65548">
        <ele>331.8</ele>
        <time>2011-07-24T12:51:41Z</time>
      </trkpt>
      <trkpt lat="45.07317" lon="5.65547">
        <ele>332</ele>
        <time>2011-07-24T12:51:42Z</time>
      </trkpt>
      <trkpt lat="45.07324" lon="5.65525">
        <ele>333.2</ele>
        <time>2011-07-24T12:51:54Z</time>
      </trkpt>
      <trkpt lat="45.07324" lon="5.65523">
        <ele>333.4</ele>
        <time>2011-07-24T12:51:55Z</time>
      </trkpt>
      <trkpt lat="45.07326" lon="5.65505">
        <ele>333.8</ele>
        <time>2011-07-24T12:52:04Z</time>
      </trkpt>
      <trkpt lat="45.07327" lon="5.655">
        <ele>333.8</ele>
        <time>2011-07-24T12:52:07Z</time>
      </trkpt>
      <trkpt lat="45.07332" lon="5.6549">
        <ele>333.8</ele>
        <time>2011-07-24T12:52:13Z</time>
      </trkpt>
      <trkpt lat="45.07338" lon="5.6548">
        <ele>333.6</ele>
        <time>2011-07-24T12:52:20Z</time>
      </trkpt>
      <trkpt lat="45.07343" lon="5.65473">
        <ele>333.2</ele>
        <time>2011-07-24T12:52:25Z</time>
      </trkpt>
      <trkpt lat="45.0735" lon="5.6546">
        <ele>332.6</ele>
        <time>2011-07-24T12:52:33Z</time>
      </trkpt>
      <trkpt lat="45.07352" lon="5.6546">
        <ele>332.6</ele>
        <time>2011-07-24T12:52:34Z</time>
      </trkpt>
      <trkpt lat="45.07361" lon="5.6545">
        <ele>331.4</ele>
        <time>2011-07-24T12:52:41Z</time>
      </trkpt>
      <trkpt lat="45.07361" lon="5.6545">
        <ele>331.2</ele>
        <time>2011-07-24T12:52:42Z</time>
      </trkpt>
      <trkpt lat="45.07365" lon="5.65445">
        <ele>330.6</ele>
        <time>2011-07-24T12:52:46Z</time>
      </trkpt>
      <trkpt lat="45.07369" lon="5.65429">
        <ele>330</ele>
        <time>2011-07-24T12:52:54Z</time>
      </trkpt>
      <trkpt lat="45.07372" lon="5.65419">
        <ele>329.6</ele>
        <time>2011-07-24T12:52:58Z</time>
      </trkpt>
      <trkpt lat="45.07374" lon="5.65415">
        <ele>329.4</ele>
        <time>2011-07-24T12:53:01Z</time>
      </trkpt>
      <trkpt lat="45.07379" lon="5.65397">
        <ele>329</ele>
        <time>2011-07-24T12:53:11Z</time>
      </trkpt>
      <trkpt lat="45.0738" lon="5.65395">
        <ele>329</ele>
        <time>2011-07-24T12:53:12Z</time>
      </trkpt>
      <trkpt lat="45.07388" lon="5.65381">
        <ele>328.4</ele>
        <time>2011-07-24T12:53:22Z</time>
      </trkpt>
      <trkpt lat="45.07392" lon="5.65377">
        <ele>327.8</ele>
        <time>2011-07-24T12:53:26Z</time>
      </trkpt>
      <trkpt lat="45.07399" lon="5.65365">
        <ele>326.6</ele>
        <time>2011-07-24T12:53:34Z</time>
      </trkpt>
      <trkpt lat="45.07404" lon="5.65356">
        <ele>325.4</ele>
        <time>2011-07-24T12:53:40Z</time>
      </trkpt>
      <trkpt lat="45.07406" lon="5.65351">
        <ele>324.8</ele>
        <time>2011-07-24T12:53:43Z</time>
      </trkpt>
      <trkpt lat="45.07413" lon="5.65331">
        <ele>322.6</ele>
        <time>2011-07-24T12:53:54Z</time>
      </trkpt>
      <trkpt lat="45.07414" lon="5.65327">
        <ele>322.2</ele>
        <time>2011-07-24T12:53:56Z</time>
      </trkpt>
      <trkpt lat="45.07416" lon="5.65308">
        <ele>321</ele>
        <time>2011-07-24T12:54:05Z</time>
      </trkpt>
      <trkpt lat="45.07417" lon="5.65306">
        <ele>320.8</ele>
        <time>2011-07-24T12:54:06Z</time>
      </trkpt>
      <trkpt lat="45.07419" lon="5.65283">
        <ele>320</ele>
        <time>2011-07-24T12:54:17Z</time>
      </trkpt>
      <trkpt lat="45.0742" lon="5.65279">
        <ele>320</ele>
        <time>2011-07-24T12:54:19Z</time>
      </trkpt>
      <trkpt lat="45.07422" lon="5.65263">
        <ele>320</ele>
        <time>2011-07-24T12:54:27Z</time>
      </trkpt>
      <trkpt lat="45.07424" lon="5.65253">
        <ele>320.4</ele>
        <time>2011-07-24T12:54:32Z</time>
      </trkpt>
      <trkpt lat="45.07425" lon="5.65246">
        <ele>320.8</ele>
        <time>2011-07-24T12:54:36Z</time>
      </trkpt>
      <trkpt lat="45.07431" lon="5.65237">
        <ele>320.6</ele>
        <time>2011-07-24T12:54:42Z</time>
      </trkpt>
      <trkpt lat="45.07432" lon="5.6523">
        <ele>321</ele>
        <time>2011-07-24T12:54:46Z</time>
      </trkpt>
      <trkpt lat="45.07437" lon="5.6522">
        <ele>322.4</ele>
        <time>2011-07-24T12:54:51Z</time>
      </trkpt>
      <trkpt lat="45.07442" lon="5.65205">
        <ele>324.2</ele>
        <time>2011-07-24T12:54:59Z</time>
      </trkpt>
      <trkpt lat="45.07442" lon="5.65203">
        <ele>324.4</ele>
        <time>2011-07-24T12:55:00Z</time>
      </trkpt>
      <trkpt lat="45.07444" lon="5.65184">
        <ele>326</ele>
        <time>2011-07-24T12:55:10Z</time>
      </trkpt>
      <trkpt lat="45.07444" lon="5.65178">
        <ele>326.2</ele>
        <time>2011-07-24T12:55:13Z</time>
      </trkpt>
      <trkpt lat="45.07445" lon="5.65172">
        <ele>326.4</ele>
        <time>2011-07-24T12:55:17Z</time>
      </trkpt>
      <trkpt lat="45.07438" lon="5.65152">
        <ele>329.4</ele>
        <time>2011-07-24T12:55:25Z</time>
      </trkpt>
      <trkpt lat="45.07439" lon="5.65142">
        <ele>331.8</ele>
        <time>2011-07-24T12:55:30Z</time>
      </trkpt>
      <trkpt lat="45.0744" lon="5.65138">
        <ele>332.2</ele>
        <time>2011-07-24T12:55:31Z</time>
      </trkpt>
      <trkpt lat="45.07444" lon="5.65127">
        <ele>335.2</ele>
        <time>2011-07-24T12:55:37Z</time>
      </trkpt>
      <trkpt lat="45.07445" lon="5.65125">
        <ele>335.6</ele>
        <time>2011-07-24T12:55:38Z</time>
      </trkpt>
      <trkpt lat="45.0745" lon="5.6512">
        <ele>336.8</ele>
        <time>2011-07-24T12:55:42Z</time>
      </trkpt>
      <trkpt lat="45.07452" lon="5.65117">
        <ele>337.4</ele>
        <time>2011-07-24T12:55:44Z</time>
      </trkpt>
      <trkpt lat="45.07457" lon="5.6511">
        <ele>339.8</ele>
        <time>2011-07-24T12:55:50Z</time>
      </trkpt>
      <trkpt lat="45.07458" lon="5.65109">
        <ele>339.8</ele>
        <time>2011-07-24T12:55:51Z</time>
      </trkpt>
      <trkpt lat="45.07463" lon="5.65106">
        <ele>340.2</ele>
        <time>2011-07-24T12:55:54Z</time>
      </trkpt>
      <trkpt lat="45.07465" lon="5.65106">
        <ele>340.2</ele>
        <time>2011-07-24T12:55:55Z</time>
      </trkpt>
      <trkpt lat="45.07471" lon="5.65102">
        <ele>340.2</ele>
        <time>2011-07-24T12:55:58Z</time>
      </trkpt>
      <trkpt lat="45.07476" lon="5.65099">
        <ele>340</ele>
        <time>2011-07-24T12:56:00Z</time>
      </trkpt>
      <trkpt lat="45.07476" lon="5.65099">
        <ele>340</ele>
        <time>2011-07-24T12:56:01Z</time>
      </trkpt>
      <trkpt lat="45.0748" lon="5.65095">
        <ele>339.8</ele>
        <time>2011-07-24T12:56:02Z</time>
      </trkpt>
      <trkpt lat="45.07485" lon="5.65093">
        <ele>339.4</ele>
        <time>2011-07-24T12:56:07Z</time>
      </trkpt>
      <trkpt lat="45.0748" lon="5.65083">
        <ele>339.6</ele>
        <time>2011-07-24T12:56:11Z</time>
      </trkpt>
      <trkpt lat="45.07477" lon="5.65079">
        <ele>340</ele>
        <time>2011-07-24T12:56:13Z</time>
      </trkpt>
      <trkpt lat="45.07474" lon="5.65071">
        <ele>340.6</ele>
        <time>2011-07-24T12:56:18Z</time>
      </trkpt>
      <trkpt lat="45.07473" lon="5.65067">
        <ele>340.8</ele>
        <time>2011-07-24T12:56:20Z</time>
      </trkpt>
      <trkpt lat="45.07472" lon="5.6506">
        <ele>340.6</ele>
        <time>2011-07-24T12:56:25Z</time>
      </trkpt>
      <trkpt lat="45.07471" lon="5.65053">
        <ele>340.6</ele>
        <time>2011-07-24T12:56:29Z</time>
      </trkpt>
      <trkpt lat="45.07469" lon="5.65044">
        <ele>340.4</ele>
        <time>2011-07-24T12:56:34Z</time>
      </trkpt>
      <trkpt lat="45.0747" lon="5.6504">
        <ele>340.2</ele>
        <time>2011-07-24T12:56:36Z</time>
      </trkpt>
      <trkpt lat="45.07472" lon="5.65037">
        <ele>340.2</ele>
        <time>2011-07-24T12:56:38Z</time>
      </trkpt>
      <trkpt lat="45.07473" lon="5.65035">
        <ele>340.2</ele>
        <time>2011-07-24T12:56:39Z</time>
      </trkpt>
      <trkpt lat="45.07474" lon="5.65033">
        <ele>340.2</ele>
        <time>2011-07-24T12:56:41Z</time>
      </trkpt>
      <trkpt lat="45.0748" lon="5.65027">
        <ele>343.4</ele>
        <time>2011-07-24T12:56:48Z</time>
      </trkpt>
      <trkpt lat="45.07488" lon="5.65022">
        <ele>346</ele>
        <time>2011-07-24T12:56:53Z</time>
      </trkpt>
      <trkpt lat="45.0749" lon="5.65022">
        <ele>346.6</ele>
        <time>2011-07-24T12:56:54Z</time>
      </trkpt>
      <trkpt lat="45.075" lon="5.6502">
        <ele>349.6</ele>
        <time>2011-07-24T12:56:59Z</time>
      </trkpt>
      <trkpt lat="45.07508" lon="5.65025">
        <ele>352</ele>
        <time>2011-07-24T12:57:03Z</time>
      </trkpt>
      <trkpt lat="45.07512" lon="5.65026">
        <ele>352.8</ele>
        <time>2011-07-24T12:57:05Z</time>
      </trkpt>
      <trkpt lat="45.07522" lon="5.6503">
        <ele>356</ele>
        <time>2011-07-24T12:57:11Z</time>
      </trkpt>
      <trkpt lat="45.07526" lon="5.65028">
        <ele>356.8</ele>
        <time>2011-07-24T12:57:13Z</time>
      </trkpt>
      <trkpt lat="45.07532" lon="5.65028">
        <ele>358.2</ele>
        <time>2011-07-24T12:57:16Z</time>
      </trkpt>
      <trkpt lat="45.07541" lon="5.65026">
        <ele>360.4</ele>
        <time>2011-07-24T12:57:21Z</time>
      </trkpt>
      <trkpt lat="45.07545" lon="5.65026">
        <ele>361.2</ele>
        <time>2011-07-24T12:57:23Z</time>
      </trkpt>
      <trkpt lat="45.07549" lon="5.65024">
        <ele>362.6</ele>
        <time>2011-07-24T12:57:26Z</time>
      </trkpt>
      <trkpt lat="45.07558" lon="5.65025">
        <ele>364.2</ele>
        <time>2011-07-24T12:57:32Z</time>
      </trkpt>
      <trkpt lat="45.07563" lon="5.65027">
        <ele>364.8</ele>
        <time>2011-07-24T12:57:35Z</time>
      </trkpt>
      <trkpt lat="45.07569" lon="5.6503">
        <ele>365</ele>
        <time>2011-07-24T12:57:40Z</time>
      </trkpt>
      <trkpt lat="45.07579" lon="5.65035">
        <ele>365</ele>
        <time>2011-07-24T12:57:46Z</time>
      </trkpt>
      <trkpt lat="45.07581" lon="5.65035">
        <ele>365</ele>
        <time>2011-07-24T12:57:47Z</time>
      </trkpt>
      <trkpt lat="45.07588" lon="5.65038">
        <ele>365.2</ele>
        <time>2011-07-24T12:57:52Z</time>
      </trkpt>
      <trkpt lat="45.07598" lon="5.65041">
        <ele>365</ele>
        <time>2011-07-24T12:58:00Z</time>
      </trkpt>
      <trkpt lat="45.07599" lon="5.65041">
        <ele>365</ele>
        <time>2011-07-24T12:58:01Z</time>
      </trkpt>
      <trkpt lat="45.076" lon="5.65041">
        <ele>365</ele>
        <time>2011-07-24T12:58:02Z</time>
      </trkpt>
      <trkpt lat="45.07602" lon="5.65041">
        <ele>365</ele>
        <time>2011-07-24T12:58:04Z</time>
      </trkpt>
      <trkpt lat="45.07604" lon="5.65041">
        <ele>365</ele>
        <time>2011-07-24T12:58:05Z</time>
      </trkpt>
      <trkpt lat="45.0761" lon="5.65041">
        <ele>365</ele>
        <time>2011-07-24T12:58:09Z</time>
      </trkpt>
      <trkpt lat="45.07613" lon="5.65042">
        <ele>365</ele>
        <time>2011-07-24T12:58:11Z</time>
      </trkpt>
      <trkpt lat="45.07616" lon="5.65042">
        <ele>364.8</ele>
        <time>2011-07-24T12:58:13Z</time>
      </trkpt>
      <trkpt lat="45.07619" lon="5.65042">
        <ele>364.8</ele>
        <time>2011-07-24T12:58:15Z</time>
      </trkpt>
      <trkpt lat="45.07623" lon="5.65044">
        <ele>365</ele>
        <time>2011-07-24T12:58:17Z</time>
      </trkpt>
      <trkpt lat="45.07636" lon="5.6505">
        <ele>366.4</ele>
        <time>2011-07-24T12:58:21Z</time>
      </trkpt>
      <trkpt lat="45.07639" lon="5.65052">
        <ele>366.4</ele>
        <time>2011-07-24T12:58:22Z</time>
      </trkpt>
      <trkpt lat="45.07647" lon="5.65057">
        <ele>367.8</ele>
        <time>2011-07-24T12:58:26Z</time>
      </trkpt>
      <trkpt lat="45.07657" lon="5.65061">
        <ele>369.8</ele>
        <time>2011-07-24T12:58:30Z</time>
      </trkpt>
      <trkpt lat="45.07659" lon="5.65062">
        <ele>370</ele>
        <time>2011-07-24T12:58:31Z</time>
      </trkpt>
      <trkpt lat="45.07667" lon="5.6507">
        <ele>371.2</ele>
        <time>2011-07-24T12:58:36Z</time>
      </trkpt>
      <trkpt lat="45.07672" lon="5.65074">
        <ele>371.8</ele>
        <time>2011-07-24T12:58:38Z</time>
      </trkpt>
      <trkpt lat="45.07679" lon="5.65078">
        <ele>372.4</ele>
        <time>2011-07-24T12:58:41Z</time>
      </trkpt>
      <trkpt lat="45.07688" lon="5.65088">
        <ele>373.8</ele>
        <time>2011-07-24T12:58:46Z</time>
      </trkpt>
      <trkpt lat="45.0769" lon="5.65089">
        <ele>373.8</ele>
        <time>2011-07-24T12:58:47Z</time>
      </trkpt>
      <trkpt lat="45.07703" lon="5.65097">
        <ele>373.8</ele>
        <time>2011-07-24T12:58:52Z</time>
      </trkpt>
      <trkpt lat="45.07706" lon="5.65098">
        <ele>373.6</ele>
        <time>2011-07-24T12:58:53Z</time>
      </trkpt>
      <trkpt lat="45.07716" lon="5.65104">
        <ele>373.6</ele>
        <time>2011-07-24T12:58:58Z</time>
      </trkpt>
      <trkpt lat="45.07717" lon="5.65105">
        <ele>373.4</ele>
        <time>2011-07-24T12:58:59Z</time>
      </trkpt>
      <trkpt lat="45.07723" lon="5.65108">
        <ele>373.2</ele>
        <time>2011-07-24T12:59:04Z</time>
      </trkpt>
      <trkpt lat="45.0773" lon="5.65113">
        <ele>372.6</ele>
        <time>2011-07-24T12:59:09Z</time>
      </trkpt>
      <trkpt lat="45.07733" lon="5.65116">
        <ele>372.8</ele>
        <time>2011-07-24T12:59:14Z</time>
      </trkpt>
      <trkpt lat="45.0774" lon="5.65117">
        <ele>373</ele>
        <time>2011-07-24T12:59:19Z</time>
      </trkpt>
      <trkpt lat="45.07743" lon="5.65119">
        <ele>373</ele>
        <time>2011-07-24T12:59:21Z</time>
      </trkpt>
      <trkpt lat="45.07755" lon="5.65122">
        <ele>372.6</ele>
        <time>2011-07-24T12:59:28Z</time>
      </trkpt>
      <trkpt lat="45.07758" lon="5.65122">
        <ele>372.6</ele>
        <time>2011-07-24T12:59:32Z</time>
      </trkpt>
      <trkpt lat="45.07759" lon="5.65122">
        <ele>372.8</ele>
        <time>2011-07-24T12:59:33Z</time>
      </trkpt>
      <trkpt lat="45.07765" lon="5.65118">
        <ele>373.4</ele>
        <time>2011-07-24T12:59:39Z</time>
      </trkpt>
      <trkpt lat="45.07767" lon="5.65118">
        <ele>373.6</ele>
        <time>2011-07-24T12:59:40Z</time>
      </trkpt>
      <trkpt lat="45.07772" lon="5.65116">
        <ele>374.4</ele>
        <time>2011-07-24T12:59:44Z</time>
      </trkpt>
      <trkpt lat="45.07776" lon="5.65114">
        <ele>375</ele>
        <time>2011-07-24T12:59:47Z</time>
      </trkpt>
      <trkpt lat="45.07779" lon="5.65114">
        <ele>375.8</ele>
        <time>2011-07-24T12:59:50Z</time>
      </trkpt>
      <trkpt lat="45.07789" lon="5.65117">
        <ele>377.8</ele>
        <time>2011-07-24T12:59:57Z</time>
      </trkpt>
      <trkpt lat="45.07793" lon="5.6512">
        <ele>378.8</ele>
        <time>2011-07-24T13:00:00Z</time>
      </trkpt>
      <trkpt lat="45.07797" lon="5.65122">
        <ele>379.6</ele>
        <time>2011-07-24T13:00:03Z</time>
      </trkpt>
      <trkpt lat="45.07808" lon="5.65123">
        <ele>381.6</ele>
        <time>2011-07-24T13:00:11Z</time>
      </trkpt>
      <trkpt lat="45.07812" lon="5.65122">
        <ele>382</ele>
        <time>2011-07-24T13:00:13Z</time>
      </trkpt>
      <trkpt lat="45.07818" lon="5.6512">
        <ele>382.4</ele>
        <time>2011-07-24T13:00:16Z</time>
      </trkpt>
      <trkpt lat="45.07822" lon="5.65116">
        <ele>382.6</ele>
        <time>2011-07-24T13:00:18Z</time>
      </trkpt>
      <trkpt lat="45.07826" lon="5.65111">
        <ele>382.6</ele>
        <time>2011-07-24T13:00:21Z</time>
      </trkpt>
      <trkpt lat="45.07829" lon="5.65108">
        <ele>382.6</ele>
        <time>2011-07-24T13:00:23Z</time>
      </trkpt>
      <trkpt lat="45.07834" lon="5.65102">
        <ele>383</ele>
        <time>2011-07-24T13:00:27Z</time>
      </trkpt>
      <trkpt lat="45.07834" lon="5.65102">
        <ele>383</ele>
        <time>2011-07-24T13:00:27Z</time>
      </trkpt>
      <trkpt lat="45.07839" lon="5.65094">
        <ele>383</ele>
        <time>2011-07-24T13:00:32Z</time>
      </trkpt>
      <trkpt lat="45.07841" lon="5.65091">
        <ele>383</ele>
        <time>2011-07-24T13:00:34Z</time>
      </trkpt>
      <trkpt lat="45.07842" lon="5.6509">
        <ele>383.2</ele>
        <time>2011-07-24T13:00:35Z</time>
      </trkpt>
      <trkpt lat="45.07847" lon="5.65084">
        <ele>384</ele>
        <time>2011-07-24T13:00:40Z</time>
      </trkpt>
      <trkpt lat="45.07853" lon="5.65081">
        <ele>384</ele>
        <time>2011-07-24T13:00:45Z</time>
      </trkpt>
      <trkpt lat="45.07856" lon="5.65079">
        <ele>384.2</ele>
        <time>2011-07-24T13:00:47Z</time>
      </trkpt>
      <trkpt lat="45.07859" lon="5.65075">
        <ele>384.6</ele>
        <time>2011-07-24T13:00:50Z</time>
      </trkpt>
      <trkpt lat="45.07861" lon="5.65073">
        <ele>384.8</ele>
        <time>2011-07-24T13:00:52Z</time>
      </trkpt>
      <trkpt lat="45.07869" lon="5.65066">
        <ele>385.6</ele>
        <time>2011-07-24T13:00:59Z</time>
      </trkpt>
      <trkpt lat="45.07873" lon="5.65062">
        <ele>386</ele>
        <time>2011-07-24T13:01:02Z</time>
      </trkpt>
      <trkpt lat="45.07875" lon="5.65061">
        <ele>386.2</ele>
        <time>2011-07-24T13:01:03Z</time>
      </trkpt>
      <trkpt lat="45.0788" lon="5.65054">
        <ele>387.6</ele>
        <time>2011-07-24T13:01:09Z</time>
      </trkpt>
      <trkpt lat="45.07886" lon="5.65046">
        <ele>389.2</ele>
        <time>2011-07-24T13:01:15Z</time>
      </trkpt>
      <trkpt lat="45.07888" lon="5.65042">
        <ele>389.8</ele>
        <time>2011-07-24T13:01:18Z</time>
      </trkpt>
      <trkpt lat="45.07891" lon="5.65039">
        <ele>390.4</ele>
        <time>2011-07-24T13:01:21Z</time>
      </trkpt>
      <trkpt lat="45.07898" lon="5.65025">
        <ele>391.6</ele>
        <time>2011-07-24T13:01:30Z</time>
      </trkpt>
      <trkpt lat="45.07899" lon="5.65022">
        <ele>391.8</ele>
        <time>2011-07-24T13:01:32Z</time>
      </trkpt>
      <trkpt lat="45.07902" lon="5.65011">
        <ele>392</ele>
        <time>2011-07-24T13:01:39Z</time>
      </trkpt>
      <trkpt lat="45.07904" lon="5.65005">
        <ele>391.8</ele>
        <time>2011-07-24T13:01:43Z</time>
      </trkpt>
      <trkpt lat="45.07905" lon="5.65001">
        <ele>391.6</ele>
        <time>2011-07-24T13:01:45Z</time>
      </trkpt>
      <trkpt lat="45.07906" lon="5.64998">
        <ele>391.4</ele>
        <time>2011-07-24T13:01:47Z</time>
      </trkpt>
      <trkpt lat="45.07907" lon="5.64997">
        <ele>391.2</ele>
        <time>2011-07-24T13:01:48Z</time>
      </trkpt>
      <trkpt lat="45.07909" lon="5.6499">
        <ele>390.6</ele>
        <time>2011-07-24T13:01:52Z</time>
      </trkpt>
      <trkpt lat="45.0791" lon="5.64987">
        <ele>390.4</ele>
        <time>2011-07-24T13:01:54Z</time>
      </trkpt>
      <trkpt lat="45.07913" lon="5.64982">
        <ele>390</ele>
        <time>2011-07-24T13:01:58Z</time>
      </trkpt>
      <trkpt lat="45.07917" lon="5.64975">
        <ele>389.2</ele>
        <time>2011-07-24T13:02:03Z</time>
      </trkpt>
      <trkpt lat="45.07918" lon="5.64972">
        <ele>389</ele>
        <time>2011-07-24T13:02:05Z</time>
      </trkpt>
      <trkpt lat="45.07921" lon="5.64964">
        <ele>388.4</ele>
        <time>2011-07-24T13:02:10Z</time>
      </trkpt>
      <trkpt lat="45.07922" lon="5.64963">
        <ele>388.4</ele>
        <time>2011-07-24T13:02:11Z</time>
      </trkpt>
      <trkpt lat="45.07922" lon="5.64955">
        <ele>387.6</ele>
        <time>2011-07-24T13:02:17Z</time>
      </trkpt>
      <trkpt lat="45.0792" lon="5.64953">
        <ele>387.6</ele>
        <time>2011-07-24T13:02:18Z</time>
      </trkpt>
      <trkpt lat="45.07912" lon="5.64943">
        <ele>386.8</ele>
        <time>2011-07-24T13:02:25Z</time>
      </trkpt>
      <trkpt lat="45.07909" lon="5.64939">
        <ele>387.6</ele>
        <time>2011-07-24T13:02:32Z</time>
      </trkpt>
      <trkpt lat="45.07906" lon="5.64932">
        <ele>391.2</ele>
        <time>2011-07-24T13:02:47Z</time>
      </trkpt>
      <trkpt lat="45.07902" lon="5.64928">
        <ele>396.8</ele>
        <time>2011-07-24T13:02:59Z</time>
      </trkpt>
      <trkpt lat="45.07902" lon="5.64926">
        <ele>397.2</ele>
        <time>2011-07-24T13:03:00Z</time>
      </trkpt>
      <trkpt lat="45.07902" lon="5.64918">
        <ele>398.2</ele>
        <time>2011-07-24T13:03:04Z</time>
      </trkpt>
      <trkpt lat="45.07901" lon="5.64916">
        <ele>398.6</ele>
        <time>2011-07-24T13:03:06Z</time>
      </trkpt>
      <trkpt lat="45.07901" lon="5.64914">
        <ele>398.8</ele>
        <time>2011-07-24T13:03:07Z</time>
      </trkpt>
      <trkpt lat="45.07901" lon="5.64908">
        <ele>399.4</ele>
        <time>2011-07-24T13:03:13Z</time>
      </trkpt>
      <trkpt lat="45.079" lon="5.64907">
        <ele>399.8</ele>
        <time>2011-07-24T13:03:14Z</time>
      </trkpt>
      <trkpt lat="45.07898" lon="5.64905">
        <ele>400.4</ele>
        <time>2011-07-24T13:03:16Z</time>
      </trkpt>
      <trkpt lat="45.07898" lon="5.64899">
        <ele>400.2</ele>
        <time>2011-07-24T13:03:20Z</time>
      </trkpt>
      <trkpt lat="45.07899" lon="5.64891">
        <ele>400</ele>
        <time>2011-07-24T13:03:25Z</time>
      </trkpt>
      <trkpt lat="45.07901" lon="5.64885">
        <ele>399.6</ele>
        <time>2011-07-24T13:03:29Z</time>
      </trkpt>
      <trkpt lat="45.07901" lon="5.64882">
        <ele>399.4</ele>
        <time>2011-07-24T13:03:31Z</time>
      </trkpt>
      <trkpt lat="45.079" lon="5.64882">
        <ele>399.4</ele>
        <time>2011-07-24T13:03:32Z</time>
      </trkpt>
      <trkpt lat="45.07899" lon="5.64876">
        <ele>399.2</ele>
        <time>2011-07-24T13:03:36Z</time>
      </trkpt>
      <trkpt lat="45.07897" lon="5.64872">
        <ele>399</ele>
        <time>2011-07-24T13:03:38Z</time>
      </trkpt>
      <trkpt lat="45.07893" lon="5.64863">
        <ele>398.8</ele>
        <time>2011-07-24T13:03:43Z</time>
      </trkpt>
      <trkpt lat="45.0789" lon="5.64859">
        <ele>398.6</ele>
        <time>2011-07-24T13:03:45Z</time>
      </trkpt>
      <trkpt lat="45.07889" lon="5.64858">
        <ele>398.6</ele>
        <time>2011-07-24T13:03:46Z</time>
      </trkpt>
      <trkpt lat="45.07885" lon="5.64852">
        <ele>398.6</ele>
        <time>2011-07-24T13:03:50Z</time>
      </trkpt>
      <trkpt lat="45.07882" lon="5.64845">
        <ele>398.6</ele>
        <time>2011-07-24T13:03:54Z</time>
      </trkpt>
      <trkpt lat="45.0788" lon="5.6484">
        <ele>398.4</ele>
        <time>2011-07-24T13:03:58Z</time>
      </trkpt>
      <trkpt lat="45.07879" lon="5.64838">
        <ele>398.4</ele>
        <time>2011-07-24T13:04:00Z</time>
      </trkpt>
      <trkpt lat="45.07878" lon="5.64834">
        <ele>398.8</ele>
        <time>2011-07-24T13:04:04Z</time>
      </trkpt>
      <trkpt lat="45.07877" lon="5.64832">
        <ele>399</ele>
        <time>2011-07-24T13:04:06Z</time>
      </trkpt>
      <trkpt lat="45.07876" lon="5.6483">
        <ele>399</ele>
        <time>2011-07-24T13:04:08Z</time>
      </trkpt>
      <trkpt lat="45.07872" lon="5.64824">
        <ele>398.8</ele>
        <time>2011-07-24T13:04:12Z</time>
      </trkpt>
      <trkpt lat="45.07868" lon="5.64819">
        <ele>398.8</ele>
        <time>2011-07-24T13:04:15Z</time>
      </trkpt>
      <trkpt lat="45.07867" lon="5.64818">
        <ele>398.8</ele>
        <time>2011-07-24T13:04:16Z</time>
      </trkpt>
      <trkpt lat="45.07865" lon="5.64814">
        <ele>398.8</ele>
        <time>2011-07-24T13:04:19Z</time>
      </trkpt>
      <trkpt lat="45.07862" lon="5.64811">
        <ele>399</ele>
        <time>2011-07-24T13:04:21Z</time>
      </trkpt>
      <trkpt lat="45.07859" lon="5.64803">
        <ele>399</ele>
        <time>2011-07-24T13:04:25Z</time>
      </trkpt>
      <trkpt lat="45.07854" lon="5.64797">
        <ele>400.2</ele>
        <time>2011-07-24T13:04:28Z</time>
      </trkpt>
      <trkpt lat="45.07853" lon="5.64794">
        <ele>400.6</ele>
        <time>2011-07-24T13:04:29Z</time>
      </trkpt>
      <trkpt lat="45.07852" lon="5.64784">
        <ele>401.2</ele>
        <time>2011-07-24T13:04:33Z</time>
      </trkpt>
      <trkpt lat="45.07853" lon="5.6478">
        <ele>401.4</ele>
        <time>2011-07-24T13:04:35Z</time>
      </trkpt>
      <trkpt lat="45.07853" lon="5.64779">
        <ele>401.6</ele>
        <time>2011-07-24T13:04:36Z</time>
      </trkpt>
      <trkpt lat="45.07853" lon="5.64776">
        <ele>401.8</ele>
        <time>2011-07-24T13:04:38Z</time>
      </trkpt>
      <trkpt lat="45.07853" lon="5.6477">
        <ele>402.4</ele>
        <time>2011-07-24T13:04:41Z</time>
      </trkpt>
      <trkpt lat="45.07853" lon="5.64766">
        <ele>402.6</ele>
        <time>2011-07-24T13:04:43Z</time>
      </trkpt>
      <trkpt lat="45.07854" lon="5.64759">
        <ele>403.2</ele>
        <time>2011-07-24T13:04:47Z</time>
      </trkpt>
      <trkpt lat="45.07852" lon="5.64754">
        <ele>403.4</ele>
        <time>2011-07-24T13:04:50Z</time>
      </trkpt>
      <trkpt lat="45.07845" lon="5.64745">
        <ele>403.8</ele>
        <time>2011-07-24T13:04:53Z</time>
      </trkpt>
      <trkpt lat="45.07844" lon="5.6474">
        <ele>404</ele>
        <time>2011-07-24T13:04:55Z</time>
      </trkpt>
      <trkpt lat="45.07838" lon="5.64725">
        <ele>404.8</ele>
        <time>2011-07-24T13:05:00Z</time>
      </trkpt>
      <trkpt lat="45.07836" lon="5.64722">
        <ele>405.2</ele>
        <time>2011-07-24T13:05:01Z</time>
      </trkpt>
      <trkpt lat="45.07832" lon="5.64711">
        <ele>405.8</ele>
        <time>2011-07-24T13:05:06Z</time>
      </trkpt>
      <trkpt lat="45.07827" lon="5.64705">
        <ele>406.4</ele>
        <time>2011-07-24T13:05:09Z</time>
      </trkpt>
      <trkpt lat="45.07826" lon="5.647">
        <ele>406.6</ele>
        <time>2011-07-24T13:05:11Z</time>
      </trkpt>
      <trkpt lat="45.07824" lon="5.64694">
        <ele>407</ele>
        <time>2011-07-24T13:05:13Z</time>
      </trkpt>
      <trkpt lat="45.0782" lon="5.64685">
        <ele>407.8</ele>
        <time>2011-07-24T13:05:16Z</time>
      </trkpt>
      <trkpt lat="45.07815" lon="5.64677">
        <ele>409.4</ele>
        <time>2011-07-24T13:05:19Z</time>
      </trkpt>
      <trkpt lat="45.07815" lon="5.64671">
        <ele>409.6</ele>
        <time>2011-07-24T13:05:21Z</time>
      </trkpt>
      <trkpt lat="45.07812" lon="5.64657">
        <ele>410.2</ele>
        <time>2011-07-24T13:05:26Z</time>
      </trkpt>
      <trkpt lat="45.07811" lon="5.6465">
        <ele>410.4</ele>
        <time>2011-07-24T13:05:28Z</time>
      </trkpt>
      <trkpt lat="45.07807" lon="5.6464">
        <ele>410.6</ele>
        <time>2011-07-24T13:05:32Z</time>
      </trkpt>
      <trkpt lat="45.07807" lon="5.64638">
        <ele>410.8</ele>
        <time>2011-07-24T13:05:33Z</time>
      </trkpt>
      <trkpt lat="45.07807" lon="5.64632">
        <ele>410.8</ele>
        <time>2011-07-24T13:05:36Z</time>
      </trkpt>
      <trkpt lat="45.0781" lon="5.64626">
        <ele>411.6</ele>
        <time>2011-07-24T13:05:41Z</time>
      </trkpt>
      <trkpt lat="45.0781" lon="5.64625">
        <ele>411.8</ele>
        <time>2011-07-24T13:05:42Z</time>
      </trkpt>
      <trkpt lat="45.0781" lon="5.64623">
        <ele>412</ele>
        <time>2011-07-24T13:05:43Z</time>
      </trkpt>
      <trkpt lat="45.07812" lon="5.6462">
        <ele>412.6</ele>
        <time>2011-07-24T13:05:47Z</time>
      </trkpt>
      <trkpt lat="45.07812" lon="5.6462">
        <ele>412.6</ele>
        <time>2011-07-24T13:05:48Z</time>
      </trkpt>
      <trkpt lat="45.07815" lon="5.64618">
        <ele>413.2</ele>
        <time>2011-07-24T13:05:52Z</time>
      </trkpt>
      <trkpt lat="45.07817" lon="5.64615">
        <ele>414.2</ele>
        <time>2011-07-24T13:05:56Z</time>
      </trkpt>
      <trkpt lat="45.07821" lon="5.64609">
        <ele>416</ele>
        <time>2011-07-24T13:06:03Z</time>
      </trkpt>
      <trkpt lat="45.07822" lon="5.64607">
        <ele>416.6</ele>
        <time>2011-07-24T13:06:05Z</time>
      </trkpt>
      <trkpt lat="45.07823" lon="5.64606">
        <ele>417.4</ele>
        <time>2011-07-24T13:06:07Z</time>
      </trkpt>
      <trkpt lat="45.07826" lon="5.64602">
        <ele>418.6</ele>
        <time>2011-07-24T13:06:11Z</time>
      </trkpt>
      <trkpt lat="45.07826" lon="5.64601">
        <ele>419.2</ele>
        <time>2011-07-24T13:06:12Z</time>
      </trkpt>
      <trkpt lat="45.07829" lon="5.64601">
        <ele>419.6</ele>
        <time>2011-07-24T13:06:14Z</time>
      </trkpt>
      <trkpt lat="45.0783" lon="5.646">
        <ele>420</ele>
        <time>2011-07-24T13:06:15Z</time>
      </trkpt>
      <trkpt lat="45.07831" lon="5.64598">
        <ele>420.6</ele>
        <time>2011-07-24T13:06:17Z</time>
      </trkpt>
      <trkpt lat="45.07833" lon="5.64595">
        <ele>421.2</ele>
        <time>2011-07-24T13:06:20Z</time>
      </trkpt>
      <trkpt lat="45.07831" lon="5.64588">
        <ele>422</ele>
        <time>2011-07-24T13:06:25Z</time>
      </trkpt>
      <trkpt lat="45.07832" lon="5.64587">
        <ele>422.2</ele>
        <time>2011-07-24T13:06:26Z</time>
      </trkpt>
      <trkpt lat="45.07834" lon="5.64582">
        <ele>423.2</ele>
        <time>2011-07-24T13:06:30Z</time>
      </trkpt>
      <trkpt lat="45.07834" lon="5.64579">
        <ele>423.6</ele>
        <time>2011-07-24T13:06:32Z</time>
      </trkpt>
      <trkpt lat="45.07833" lon="5.64576">
        <ele>423.8</ele>
        <time>2011-07-24T13:06:35Z</time>
      </trkpt>
      <trkpt lat="45.07831" lon="5.64568">
        <ele>424.4</ele>
        <time>2011-07-24T13:06:39Z</time>
      </trkpt>
      <trkpt lat="45.0783" lon="5.64567">
        <ele>424.4</ele>
        <time>2011-07-24T13:06:40Z</time>
      </trkpt>
      <trkpt lat="45.07831" lon="5.64562">
        <ele>424.2</ele>
        <time>2011-07-24T13:06:42Z</time>
      </trkpt>
      <trkpt lat="45.07831" lon="5.64558">
        <ele>424.2</ele>
        <time>2011-07-24T13:06:44Z</time>
      </trkpt>
      <trkpt lat="45.0783" lon="5.64552">
        <ele>424.4</ele>
        <time>2011-07-24T13:06:48Z</time>
      </trkpt>
      <trkpt lat="45.07829" lon="5.6455">
        <ele>424.6</ele>
        <time>2011-07-24T13:06:49Z</time>
      </trkpt>
      <trkpt lat="45.07828" lon="5.64542">
        <ele>424.6</ele>
        <time>2011-07-24T13:06:51Z</time>
      </trkpt>
      <trkpt lat="45.07826" lon="5.64534">
        <ele>424.4</ele>
        <time>2011-07-24T13:06:53Z</time>
      </trkpt>
      <trkpt lat="45.07825" lon="5.64528">
        <ele>424.6</ele>
        <time>2011-07-24T13:06:55Z</time>
      </trkpt>
      <trkpt lat="45.07824" lon="5.64527">
        <ele>424.6</ele>
        <time>2011-07-24T13:06:56Z</time>
      </trkpt>
      <trkpt lat="45.07819" lon="5.6452">
        <ele>424.4</ele>
        <time>2011-07-24T13:07:01Z</time>
      </trkpt>
      <trkpt lat="45.07813" lon="5.64518">
        <ele>424.2</ele>
        <time>2011-07-24T13:07:08Z</time>
      </trkpt>
      <trkpt lat="45.07808" lon="5.64518">
        <ele>424.6</ele>
        <time>2011-07-24T13:07:12Z</time>
      </trkpt>
      <trkpt lat="45.07806" lon="5.6452">
        <ele>424.4</ele>
        <time>2011-07-24T13:07:14Z</time>
      </trkpt>
      <trkpt lat="45.07794" lon="5.64525">
        <ele>424.4</ele>
        <time>2011-07-24T13:07:20Z</time>
      </trkpt>
      <trkpt lat="45.07786" lon="5.64523">
        <ele>424</ele>
        <time>2011-07-24T13:07:24Z</time>
      </trkpt>
      <trkpt lat="45.07784" lon="5.64521">
        <ele>423.8</ele>
        <time>2011-07-24T13:07:26Z</time>
      </trkpt>
      <trkpt lat="45.07783" lon="5.64516">
        <ele>423.6</ele>
        <time>2011-07-24T13:07:28Z</time>
      </trkpt>
      <trkpt lat="45.07783" lon="5.64509">
        <ele>423.4</ele>
        <time>2011-07-24T13:07:30Z</time>
      </trkpt>
      <trkpt lat="45.07784" lon="5.64505">
        <ele>423.2</ele>
        <time>2011-07-24T13:07:32Z</time>
      </trkpt>
      <trkpt lat="45.07789" lon="5.64497">
        <ele>423</ele>
        <time>2011-07-24T13:07:37Z</time>
      </trkpt>
      <trkpt lat="45.0779" lon="5.64495">
        <ele>423</ele>
        <time>2011-07-24T13:07:39Z</time>
      </trkpt>
      <trkpt lat="45.07789" lon="5.6449">
        <ele>422.8</ele>
        <time>2011-07-24T13:07:42Z</time>
      </trkpt>
      <trkpt lat="45.07787" lon="5.64487">
        <ele>422.6</ele>
        <time>2011-07-24T13:07:44Z</time>
      </trkpt>
      <trkpt lat="45.07781" lon="5.64484">
        <ele>422.6</ele>
        <time>2011-07-24T13:07:47Z</time>
      </trkpt>
      <trkpt lat="45.0778" lon="5.64483">
        <ele>422.4</ele>
        <time>2011-07-24T13:07:48Z</time>
      </trkpt>
      <trkpt lat="45.07773" lon="5.64478">
        <ele>422</ele>
        <time>2011-07-24T13:07:52Z</time>
      </trkpt>
      <trkpt lat="45.07771" lon="5.64474">
        <ele>422</ele>
        <time>2011-07-24T13:07:53Z</time>
      </trkpt>
      <trkpt lat="45.07767" lon="5.64466">
        <ele>421.8</ele>
        <time>2011-07-24T13:07:56Z</time>
      </trkpt>
      <trkpt lat="45.07766" lon="5.64465">
        <ele>421.6</ele>
        <time>2011-07-24T13:07:57Z</time>
      </trkpt>
      <trkpt lat="45.07758" lon="5.64454">
        <ele>421</ele>
        <time>2011-07-24T13:08:02Z</time>
      </trkpt>
      <trkpt lat="45.07756" lon="5.64452">
        <ele>421</ele>
        <time>2011-07-24T13:08:03Z</time>
      </trkpt>
      <trkpt lat="45.07752" lon="5.64447">
        <ele>420.8</ele>
        <time>2011-07-24T13:08:05Z</time>
      </trkpt>
      <trkpt lat="45.0775" lon="5.64441">
        <ele>420.6</ele>
        <time>2011-07-24T13:08:07Z</time>
      </trkpt>
      <trkpt lat="45.07744" lon="5.64434">
        <ele>420.2</ele>
        <time>2011-07-24T13:08:10Z</time>
      </trkpt>
      <trkpt lat="45.07739" lon="5.64428">
        <ele>419.8</ele>
        <time>2011-07-24T13:08:13Z</time>
      </trkpt>
      <trkpt lat="45.07737" lon="5.64415">
        <ele>419.4</ele>
        <time>2011-07-24T13:08:17Z</time>
      </trkpt>
      <trkpt lat="45.07737" lon="5.64412">
        <ele>419.4</ele>
        <time>2011-07-24T13:08:18Z</time>
      </trkpt>
      <trkpt lat="45.07738" lon="5.64399">
        <ele>419.2</ele>
        <time>2011-07-24T13:08:23Z</time>
      </trkpt>
      <trkpt lat="45.07738" lon="5.64385">
        <ele>419.8</ele>
        <time>2011-07-24T13:08:29Z</time>
      </trkpt>
      <trkpt lat="45.07739" lon="5.64379">
        <ele>420.6</ele>
        <time>2011-07-24T13:08:34Z</time>
      </trkpt>
      <trkpt lat="45.07739" lon="5.64377">
        <ele>421</ele>
        <time>2011-07-24T13:08:35Z</time>
      </trkpt>
      <trkpt lat="45.07739" lon="5.64372">
        <ele>422</ele>
        <time>2011-07-24T13:08:39Z</time>
      </trkpt>
      <trkpt lat="45.0774" lon="5.64371">
        <ele>422.2</ele>
        <time>2011-07-24T13:08:40Z</time>
      </trkpt>
      <trkpt lat="45.07741" lon="5.64369">
        <ele>422.6</ele>
        <time>2011-07-24T13:08:42Z</time>
      </trkpt>
      <trkpt lat="45.07743" lon="5.64368">
        <ele>423.2</ele>
        <time>2011-07-24T13:08:44Z</time>
      </trkpt>
      <trkpt lat="45.07742" lon="5.64365">
        <ele>425.2</ele>
        <time>2011-07-24T13:08:47Z</time>
      </trkpt>
      <trkpt lat="45.07743" lon="5.64365">
        <ele>425.6</ele>
        <time>2011-07-24T13:08:48Z</time>
      </trkpt>
      <trkpt lat="45.07745" lon="5.64362">
        <ele>427.2</ele>
        <time>2011-07-24T13:08:52Z</time>
      </trkpt>
      <trkpt lat="45.07744" lon="5.64361">
        <ele>429.2</ele>
        <time>2011-07-24T13:08:55Z</time>
      </trkpt>
      <trkpt lat="45.07745" lon="5.6436">
        <ele>429.8</ele>
        <time>2011-07-24T13:08:56Z</time>
      </trkpt>
      <trkpt lat="45.07746" lon="5.64356">
        <ele>431.6</ele>
        <time>2011-07-24T13:08:59Z</time>
      </trkpt>
      <trkpt lat="45.07747" lon="5.64354">
        <ele>433</ele>
        <time>2011-07-24T13:09:01Z</time>
      </trkpt>
      <trkpt lat="45.07748" lon="5.64352">
        <ele>435.2</ele>
        <time>2011-07-24T13:09:04Z</time>
      </trkpt>
      <trkpt lat="45.07748" lon="5.64351">
        <ele>436</ele>
        <time>2011-07-24T13:09:05Z</time>
      </trkpt>
      <trkpt lat="45.07748" lon="5.64347">
        <ele>438.8</ele>
        <time>2011-07-24T13:09:09Z</time>
      </trkpt>
      <trkpt lat="45.07749" lon="5.64346">
        <ele>442.4</ele>
        <time>2011-07-24T13:09:13Z</time>
      </trkpt>
      <trkpt lat="45.07752" lon="5.64348">
        <ele>445.8</ele>
        <time>2011-07-24T13:09:17Z</time>
      </trkpt>
      <trkpt lat="45.07754" lon="5.6435">
        <ele>449.6</ele>
        <time>2011-07-24T13:09:21Z</time>
      </trkpt>
      <trkpt lat="45.07756" lon="5.6435">
        <ele>452.2</ele>
        <time>2011-07-24T13:09:24Z</time>
      </trkpt>
      <trkpt lat="45.07757" lon="5.6435">
        <ele>453.2</ele>
        <time>2011-07-24T13:09:25Z</time>
      </trkpt>
      <trkpt lat="45.07761" lon="5.64349">
        <ele>456.6</ele>
        <time>2011-07-24T13:09:29Z</time>
      </trkpt>
      <trkpt lat="45.07763" lon="5.64349">
        <ele>459.2</ele>
        <time>2011-07-24T13:09:32Z</time>
      </trkpt>
      <trkpt lat="45.07764" lon="5.64349">
        <ele>460</ele>
        <time>2011-07-24T13:09:33Z</time>
      </trkpt>
      <trkpt lat="45.07769" lon="5.64347">
        <ele>463.8</ele>
        <time>2011-07-24T13:09:38Z</time>
      </trkpt>
      <trkpt lat="45.0777" lon="5.64347">
        <ele>465.4</ele>
        <time>2011-07-24T13:09:40Z</time>
      </trkpt>
      <trkpt lat="45.07773" lon="5.64347">
        <ele>467.4</ele>
        <time>2011-07-24T13:09:43Z</time>
      </trkpt>
      <trkpt lat="45.07774" lon="5.64348">
        <ele>468</ele>
        <time>2011-07-24T13:09:44Z</time>
      </trkpt>
      <trkpt lat="45.07776" lon="5.64348">
        <ele>469.4</ele>
        <time>2011-07-24T13:09:46Z</time>
      </trkpt>
      <trkpt lat="45.07779" lon="5.64348">
        <ele>470.8</ele>
        <time>2011-07-24T13:09:48Z</time>
      </trkpt>
      <trkpt lat="45.0778" lon="5.64348">
        <ele>472.6</ele>
        <time>2011-07-24T13:09:51Z</time>
      </trkpt>
      <trkpt lat="45.07781" lon="5.64348">
        <ele>473.2</ele>
        <time>2011-07-24T13:09:52Z</time>
      </trkpt>
      <trkpt lat="45.07786" lon="5.64349">
        <ele>475.4</ele>
        <time>2011-07-24T13:09:56Z</time>
      </trkpt>
      <trkpt lat="45.07787" lon="5.64349">
        <ele>476</ele>
        <time>2011-07-24T13:09:57Z</time>
      </trkpt>
      <trkpt lat="45.07791" lon="5.64355">
        <ele>479</ele>
        <time>2011-07-24T13:10:02Z</time>
      </trkpt>
      <trkpt lat="45.07792" lon="5.64355">
        <ele>479.4</ele>
        <time>2011-07-24T13:10:03Z</time>
      </trkpt>
      <trkpt lat="45.07795" lon="5.64356">
        <ele>480.6</ele>
        <time>2011-07-24T13:10:05Z</time>
      </trkpt>
      <trkpt lat="45.07797" lon="5.64358">
        <ele>481.8</ele>
        <time>2011-07-24T13:10:07Z</time>
      </trkpt>
      <trkpt lat="45.07802" lon="5.64359">
        <ele>483.8</ele>
        <time>2011-07-24T13:10:11Z</time>
      </trkpt>
      <trkpt lat="45.07803" lon="5.64359">
        <ele>484.2</ele>
        <time>2011-07-24T13:10:12Z</time>
      </trkpt>
      <trkpt lat="45.07806" lon="5.64358">
        <ele>485</ele>
        <time>2011-07-24T13:10:14Z</time>
      </trkpt>
      <trkpt lat="45.07807" lon="5.64358">
        <ele>485.4</ele>
        <time>2011-07-24T13:10:15Z</time>
      </trkpt>
      <trkpt lat="45.0781" lon="5.64355">
        <ele>486.6</ele>
        <time>2011-07-24T13:10:18Z</time>
      </trkpt>
      <trkpt lat="45.07811" lon="5.64354">
        <ele>486.8</ele>
        <time>2011-07-24T13:10:19Z</time>
      </trkpt>
      <trkpt lat="45.07813" lon="5.64349">
        <ele>488.4</ele>
        <time>2011-07-24T13:10:23Z</time>
      </trkpt>
      <trkpt lat="45.07813" lon="5.64348">
        <ele>488.6</ele>
        <time>2011-07-24T13:10:24Z</time>
      </trkpt>
      <trkpt lat="45.07814" lon="5.64344">
        <ele>489.6</ele>
        <time>2011-07-24T13:10:27Z</time>
      </trkpt>
      <trkpt lat="45.07814" lon="5.64339">
        <ele>490.8</ele>
        <time>2011-07-24T13:10:31Z</time>
      </trkpt>
      <trkpt lat="45.07814" lon="5.64338">
        <ele>491</ele>
        <time>2011-07-24T13:10:32Z</time>
      </trkpt>
      <trkpt lat="45.07814" lon="5.64332">
        <ele>492</ele>
        <time>2011-07-24T13:10:36Z</time>
      </trkpt>
      <trkpt lat="45.07814" lon="5.6433">
        <ele>492.2</ele>
        <time>2011-07-24T13:10:37Z</time>
      </trkpt>
      <trkpt lat="45.07817" lon="5.64324">
        <ele>493.2</ele>
        <time>2011-07-24T13:10:42Z</time>
      </trkpt>
      <trkpt lat="45.07818" lon="5.64319">
        <ele>493.8</ele>
        <time>2011-07-24T13:10:45Z</time>
      </trkpt>
      <trkpt lat="45.07818" lon="5.64318">
        <ele>493.8</ele>
        <time>2011-07-24T13:10:46Z</time>
      </trkpt>
      <trkpt lat="45.07819" lon="5.64313">
        <ele>494.8</ele>
        <time>2011-07-24T13:10:50Z</time>
      </trkpt>
      <trkpt lat="45.07819" lon="5.64308">
        <ele>495.6</ele>
        <time>2011-07-24T13:10:54Z</time>
      </trkpt>
      <trkpt lat="45.07819" lon="5.64306">
        <ele>495.8</ele>
        <time>2011-07-24T13:10:55Z</time>
      </trkpt>
      <trkpt lat="45.07817" lon="5.64303">
        <ele>496.8</ele>
        <time>2011-07-24T13:10:58Z</time>
      </trkpt>
      <trkpt lat="45.07813" lon="5.64298">
        <ele>498</ele>
        <time>2011-07-24T13:11:02Z</time>
      </trkpt>
      <trkpt lat="45.07811" lon="5.64294">
        <ele>498.8</ele>
        <time>2011-07-24T13:11:05Z</time>
      </trkpt>
      <trkpt lat="45.07808" lon="5.64284">
        <ele>500.2</ele>
        <time>2011-07-24T13:11:10Z</time>
      </trkpt>
      <trkpt lat="45.07807" lon="5.64274">
        <ele>501.6</ele>
        <time>2011-07-24T13:11:16Z</time>
      </trkpt>
      <trkpt lat="45.07806" lon="5.64268">
        <ele>502.4</ele>
        <time>2011-07-24T13:11:20Z</time>
      </trkpt>
      <trkpt lat="45.07801" lon="5.64264">
        <ele>504.2</ele>
        <time>2011-07-24T13:11:25Z</time>
      </trkpt>
      <trkpt lat="45.078" lon="5.64262">
        <ele>504.8</ele>
        <time>2011-07-24T13:11:27Z</time>
      </trkpt>
      <trkpt lat="45.07797" lon="5.64261">
        <ele>505.6</ele>
        <time>2011-07-24T13:11:30Z</time>
      </trkpt>
      <trkpt lat="45.07792" lon="5.64258">
        <ele>507.2</ele>
        <time>2011-07-24T13:11:35Z</time>
      </trkpt>
      <trkpt lat="45.07789" lon="5.64256">
        <ele>507.8</ele>
        <time>2011-07-24T13:11:38Z</time>
      </trkpt>
      <trkpt lat="45.07788" lon="5.64255">
        <ele>508</ele>
        <time>2011-07-24T13:11:39Z</time>
      </trkpt>
      <trkpt lat="45.07786" lon="5.64255">
        <ele>508.8</ele>
        <time>2011-07-24T13:11:41Z</time>
      </trkpt>
      <trkpt lat="45.07783" lon="5.64254">
        <ele>509.4</ele>
        <time>2011-07-24T13:11:43Z</time>
      </trkpt>
      <trkpt lat="45.07782" lon="5.64254">
        <ele>509.6</ele>
        <time>2011-07-24T13:11:44Z</time>
      </trkpt>
      <trkpt lat="45.07779" lon="5.64252">
        <ele>510.6</ele>
        <time>2011-07-24T13:11:47Z</time>
      </trkpt>
      <trkpt lat="45.07777" lon="5.6425">
        <ele>511</ele>
        <time>2011-07-24T13:11:49Z</time>
      </trkpt>
      <trkpt lat="45.07773" lon="5.64247">
        <ele>512</ele>
        <time>2011-07-24T13:11:53Z</time>
      </trkpt>
      <trkpt lat="45.07771" lon="5.64245">
        <ele>512.6</ele>
        <time>2011-07-24T13:11:56Z</time>
      </trkpt>
      <trkpt lat="45.07768" lon="5.6424">
        <ele>513.4</ele>
        <time>2011-07-24T13:12:00Z</time>
      </trkpt>
      <trkpt lat="45.07768" lon="5.64239">
        <ele>513.6</ele>
        <time>2011-07-24T13:12:01Z</time>
      </trkpt>
      <trkpt lat="45.07765" lon="5.64233">
        <ele>514.2</ele>
        <time>2011-07-24T13:12:05Z</time>
      </trkpt>
      <trkpt lat="45.07765" lon="5.64232">
        <ele>514.2</ele>
        <time>2011-07-24T13:12:06Z</time>
      </trkpt>
      <trkpt lat="45.07764" lon="5.64226">
        <ele>514.6</ele>
        <time>2011-07-24T13:12:10Z</time>
      </trkpt>
      <trkpt lat="45.07764" lon="5.6422">
        <ele>514.8</ele>
        <time>2011-07-24T13:12:14Z</time>
      </trkpt>
      <trkpt lat="45.07764" lon="5.64217">
        <ele>514.8</ele>
        <time>2011-07-24T13:12:16Z</time>
      </trkpt>
      <trkpt lat="45.07765" lon="5.64214">
        <ele>515.2</ele>
        <time>2011-07-24T13:12:19Z</time>
      </trkpt>
      <trkpt lat="45.07765" lon="5.64207">
        <ele>515.6</ele>
        <time>2011-07-24T13:12:24Z</time>
      </trkpt>
      <trkpt lat="45.07765" lon="5.64203">
        <ele>516</ele>
        <time>2011-07-24T13:12:27Z</time>
      </trkpt>
      <trkpt lat="45.07765" lon="5.64199">
        <ele>516.4</ele>
        <time>2011-07-24T13:12:30Z</time>
      </trkpt>
      <trkpt lat="45.07764" lon="5.6419">
        <ele>517.4</ele>
        <time>2011-07-24T13:12:36Z</time>
      </trkpt>
      <trkpt lat="45.07764" lon="5.64189">
        <ele>517.4</ele>
        <time>2011-07-24T13:12:37Z</time>
      </trkpt>
      <trkpt lat="45.07764" lon="5.64189">
        <ele>517.4</ele>
        <time>2011-07-24T13:12:37Z</time>
      </trkpt>
      <trkpt lat="45.07765" lon="5.64187">
        <ele>517.6</ele>
        <time>2011-07-24T13:12:38Z</time>
      </trkpt>
      <trkpt lat="45.07768" lon="5.64178">
        <ele>518.8</ele>
        <time>2011-07-24T13:12:45Z</time>
      </trkpt>
      <trkpt lat="45.07769" lon="5.64177">
        <ele>519</ele>
        <time>2011-07-24T13:12:46Z</time>
      </trkpt>
      <trkpt lat="45.07772" lon="5.64169">
        <ele>520</ele>
        <time>2011-07-24T13:12:51Z</time>
      </trkpt>
      <trkpt lat="45.07773" lon="5.64166">
        <ele>520.8</ele>
        <time>2011-07-24T13:12:54Z</time>
      </trkpt>
      <trkpt lat="45.07774" lon="5.64165">
        <ele>521</ele>
        <time>2011-07-24T13:12:55Z</time>
      </trkpt>
      <trkpt lat="45.07776" lon="5.6416">
        <ele>522</ele>
        <time>2011-07-24T13:12:59Z</time>
      </trkpt>
      <trkpt lat="45.07778" lon="5.64157">
        <ele>522.8</ele>
        <time>2011-07-24T13:13:02Z</time>
      </trkpt>
      <trkpt lat="45.07779" lon="5.64156">
        <ele>523</ele>
        <time>2011-07-24T13:13:03Z</time>
      </trkpt>
      <trkpt lat="45.07779" lon="5.64155">
        <ele>523.2</ele>
        <time>2011-07-24T13:13:04Z</time>
      </trkpt>
      <trkpt lat="45.07781" lon="5.64153">
        <ele>523.6</ele>
        <time>2011-07-24T13:13:06Z</time>
      </trkpt>
      <trkpt lat="45.07781" lon="5.64152">
        <ele>524</ele>
        <time>2011-07-24T13:13:07Z</time>
      </trkpt>
      <trkpt lat="45.07783" lon="5.64149">
        <ele>524.6</ele>
        <time>2011-07-24T13:13:10Z</time>
      </trkpt>
      <trkpt lat="45.07785" lon="5.64145">
        <ele>525.2</ele>
        <time>2011-07-24T13:13:13Z</time>
      </trkpt>
      <trkpt lat="45.07785" lon="5.64144">
        <ele>525.4</ele>
        <time>2011-07-24T13:13:14Z</time>
      </trkpt>
      <trkpt lat="45.07785" lon="5.64139">
        <ele>526.4</ele>
        <time>2011-07-24T13:13:17Z</time>
      </trkpt>
      <trkpt lat="45.07786" lon="5.64138">
        <ele>526.8</ele>
        <time>2011-07-24T13:13:18Z</time>
      </trkpt>
      <trkpt lat="45.07787" lon="5.64134">
        <ele>528.2</ele>
        <time>2011-07-24T13:13:22Z</time>
      </trkpt>
      <trkpt lat="45.07788" lon="5.6413">
        <ele>529</ele>
        <time>2011-07-24T13:13:25Z</time>
      </trkpt>
      <trkpt lat="45.0779" lon="5.64128">
        <ele>530</ele>
        <time>2011-07-24T13:13:28Z</time>
      </trkpt>
      <trkpt lat="45.07791" lon="5.64126">
        <ele>530.2</ele>
        <time>2011-07-24T13:13:29Z</time>
      </trkpt>
      <trkpt lat="45.07792" lon="5.6412">
        <ele>532.4</ele>
        <time>2011-07-24T13:13:34Z</time>
      </trkpt>
      <trkpt lat="45.07793" lon="5.64117">
        <ele>532.8</ele>
        <time>2011-07-24T13:13:36Z</time>
      </trkpt>
      <trkpt lat="45.07794" lon="5.64109">
        <ele>535.4</ele>
        <time>2011-07-24T13:13:42Z</time>
      </trkpt>
      <trkpt lat="45.07794" lon="5.64107">
        <ele>536</ele>
        <time>2011-07-24T13:13:44Z</time>
      </trkpt>
      <trkpt lat="45.07794" lon="5.64102">
        <ele>537.6</ele>
        <time>2011-07-24T13:13:47Z</time>
      </trkpt>
      <trkpt lat="45.07794" lon="5.64099">
        <ele>539</ele>
        <time>2011-07-24T13:13:50Z</time>
      </trkpt>
      <trkpt lat="45.07795" lon="5.64096">
        <ele>540</ele>
        <time>2011-07-24T13:13:52Z</time>
      </trkpt>
      <trkpt lat="45.07795" lon="5.64094">
        <ele>541</ele>
        <time>2011-07-24T13:13:54Z</time>
      </trkpt>
      <trkpt lat="45.07795" lon="5.64093">
        <ele>541.6</ele>
        <time>2011-07-24T13:13:55Z</time>
      </trkpt>
      <trkpt lat="45.07797" lon="5.64089">
        <ele>542.2</ele>
        <time>2011-07-24T13:13:58Z</time>
      </trkpt>
      <trkpt lat="45.07797" lon="5.64087">
        <ele>542.6</ele>
        <time>2011-07-24T13:13:59Z</time>
      </trkpt>
      <trkpt lat="45.07797" lon="5.64084">
        <ele>543.2</ele>
        <time>2011-07-24T13:14:01Z</time>
      </trkpt>
      <trkpt lat="45.07796" lon="5.64082">
        <ele>543.6</ele>
        <time>2011-07-24T13:14:02Z</time>
      </trkpt>
      <trkpt lat="45.07794" lon="5.64073">
        <ele>545.8</ele>
        <time>2011-07-24T13:14:08Z</time>
      </trkpt>
      <trkpt lat="45.07794" lon="5.64071">
        <ele>546.2</ele>
        <time>2011-07-24T13:14:09Z</time>
      </trkpt>
      <trkpt lat="45.07792" lon="5.64068">
        <ele>547.2</ele>
        <time>2011-07-24T13:14:12Z</time>
      </trkpt>
      <trkpt lat="45.07792" lon="5.64065">
        <ele>548</ele>
        <time>2011-07-24T13:14:14Z</time>
      </trkpt>
      <trkpt lat="45.07791" lon="5.64064">
        <ele>548.4</ele>
        <time>2011-07-24T13:14:15Z</time>
      </trkpt>
      <trkpt lat="45.07789" lon="5.64054">
        <ele>551.2</ele>
        <time>2011-07-24T13:14:21Z</time>
      </trkpt>
      <trkpt lat="45.07789" lon="5.64051">
        <ele>552</ele>
        <time>2011-07-24T13:14:23Z</time>
      </trkpt>
      <trkpt lat="45.07788" lon="5.64048">
        <ele>552.8</ele>
        <time>2011-07-24T13:14:25Z</time>
      </trkpt>
      <trkpt lat="45.07787" lon="5.64043">
        <ele>553.8</ele>
        <time>2011-07-24T13:14:28Z</time>
      </trkpt>
      <trkpt lat="45.07787" lon="5.64034">
        <ele>555.2</ele>
        <time>2011-07-24T13:14:33Z</time>
      </trkpt>
      <trkpt lat="45.07787" lon="5.64032">
        <ele>555.4</ele>
        <time>2011-07-24T13:14:34Z</time>
      </trkpt>
      <trkpt lat="45.07787" lon="5.64025">
        <ele>556.6</ele>
        <time>2011-07-24T13:14:38Z</time>
      </trkpt>
      <trkpt lat="45.07788" lon="5.64018">
        <ele>557</ele>
        <time>2011-07-24T13:14:42Z</time>
      </trkpt>
      <trkpt lat="45.07787" lon="5.64016">
        <ele>557.2</ele>
        <time>2011-07-24T13:14:43Z</time>
      </trkpt>
      <trkpt lat="45.07787" lon="5.64014">
        <ele>557.4</ele>
        <time>2011-07-24T13:14:44Z</time>
      </trkpt>
      <trkpt lat="45.07786" lon="5.64011">
        <ele>557.8</ele>
        <time>2011-07-24T13:14:46Z</time>
      </trkpt>
      <trkpt lat="45.07784" lon="5.64008">
        <ele>558.2</ele>
        <time>2011-07-24T13:14:48Z</time>
      </trkpt>
      <trkpt lat="45.07783" lon="5.64">
        <ele>558.8</ele>
        <time>2011-07-24T13:14:53Z</time>
      </trkpt>
      <trkpt lat="45.07784" lon="5.63993">
        <ele>559.8</ele>
        <time>2011-07-24T13:14:58Z</time>
      </trkpt>
      <trkpt lat="45.07786" lon="5.63991">
        <ele>560.2</ele>
        <time>2011-07-24T13:15:00Z</time>
      </trkpt>
      <trkpt lat="45.07788" lon="5.63987">
        <ele>560.8</ele>
        <time>2011-07-24T13:15:04Z</time>
      </trkpt>
      <trkpt lat="45.07792" lon="5.63981">
        <ele>561.4</ele>
        <time>2011-07-24T13:15:09Z</time>
      </trkpt>
      <trkpt lat="45.07795" lon="5.63977">
        <ele>561.8</ele>
        <time>2011-07-24T13:15:12Z</time>
      </trkpt>
      <trkpt lat="45.07796" lon="5.63974">
        <ele>562</ele>
        <time>2011-07-24T13:15:14Z</time>
      </trkpt>
      <trkpt lat="45.07796" lon="5.63973">
        <ele>562.2</ele>
        <time>2011-07-24T13:15:15Z</time>
      </trkpt>
      <trkpt lat="45.07797" lon="5.63966">
        <ele>563</ele>
        <time>2011-07-24T13:15:19Z</time>
      </trkpt>
      <trkpt lat="45.07797" lon="5.63961">
        <ele>563.8</ele>
        <time>2011-07-24T13:15:23Z</time>
      </trkpt>
      <trkpt lat="45.07797" lon="5.63953">
        <ele>565</ele>
        <time>2011-07-24T13:15:28Z</time>
      </trkpt>
      <trkpt lat="45.07796" lon="5.63947">
        <ele>566.2</ele>
        <time>2011-07-24T13:15:32Z</time>
      </trkpt>
      <trkpt lat="45.07796" lon="5.63946">
        <ele>566.4</ele>
        <time>2011-07-24T13:15:33Z</time>
      </trkpt>
      <trkpt lat="45.07795" lon="5.63942">
        <ele>567.4</ele>
        <time>2011-07-24T13:15:36Z</time>
      </trkpt>
      <trkpt lat="45.07794" lon="5.63941">
        <ele>567.8</ele>
        <time>2011-07-24T13:15:37Z</time>
      </trkpt>
      <trkpt lat="45.07794" lon="5.63939">
        <ele>568.6</ele>
        <time>2011-07-24T13:15:39Z</time>
      </trkpt>
      <trkpt lat="45.07793" lon="5.63932">
        <ele>570.6</ele>
        <time>2011-07-24T13:15:44Z</time>
      </trkpt>
      <trkpt lat="45.07792" lon="5.63931">
        <ele>571</ele>
        <time>2011-07-24T13:15:45Z</time>
      </trkpt>
      <trkpt lat="45.07791" lon="5.63929">
        <ele>572</ele>
        <time>2011-07-24T13:15:47Z</time>
      </trkpt>
      <trkpt lat="45.0779" lon="5.63924">
        <ele>573.4</ele>
        <time>2011-07-24T13:15:51Z</time>
      </trkpt>
      <trkpt lat="45.0779" lon="5.6392">
        <ele>574.4</ele>
        <time>2011-07-24T13:15:54Z</time>
      </trkpt>
      <trkpt lat="45.07789" lon="5.63919">
        <ele>574.6</ele>
        <time>2011-07-24T13:15:55Z</time>
      </trkpt>
      <trkpt lat="45.07789" lon="5.63917">
        <ele>574.8</ele>
        <time>2011-07-24T13:15:56Z</time>
      </trkpt>
      <trkpt lat="45.07788" lon="5.63916">
        <ele>575.2</ele>
        <time>2011-07-24T13:15:57Z</time>
      </trkpt>
      <trkpt lat="45.07785" lon="5.63913">
        <ele>576.2</ele>
        <time>2011-07-24T13:16:00Z</time>
      </trkpt>
      <trkpt lat="45.07784" lon="5.63912">
        <ele>576.6</ele>
        <time>2011-07-24T13:16:01Z</time>
      </trkpt>
      <trkpt lat="45.07782" lon="5.63908">
        <ele>577.6</ele>
        <time>2011-07-24T13:16:04Z</time>
      </trkpt>
      <trkpt lat="45.07777" lon="5.63901">
        <ele>579.2</ele>
        <time>2011-07-24T13:16:10Z</time>
      </trkpt>
      <trkpt lat="45.07771" lon="5.63893">
        <ele>580.4</ele>
        <time>2011-07-24T13:16:17Z</time>
      </trkpt>
      <trkpt lat="45.07765" lon="5.63888">
        <ele>581.2</ele>
        <time>2011-07-24T13:16:23Z</time>
      </trkpt>
      <trkpt lat="45.07763" lon="5.63883">
        <ele>581.6</ele>
        <time>2011-07-24T13:16:27Z</time>
      </trkpt>
      <trkpt lat="45.07762" lon="5.63881">
        <ele>582</ele>
        <time>2011-07-24T13:16:29Z</time>
      </trkpt>
      <trkpt lat="45.07761" lon="5.63881">
        <ele>582</ele>
        <time>2011-07-24T13:16:30Z</time>
      </trkpt>
      <trkpt lat="45.07757" lon="5.63877">
        <ele>582.8</ele>
        <time>2011-07-24T13:16:35Z</time>
      </trkpt>
      <trkpt lat="45.07756" lon="5.63877">
        <ele>583</ele>
        <time>2011-07-24T13:16:36Z</time>
      </trkpt>
      <trkpt lat="45.07755" lon="5.63877">
        <ele>583</ele>
        <time>2011-07-24T13:16:37Z</time>
      </trkpt>
      <trkpt lat="45.07753" lon="5.63877">
        <ele>583.2</ele>
        <time>2011-07-24T13:16:38Z</time>
      </trkpt>
      <trkpt lat="45.07749" lon="5.63874">
        <ele>584</ele>
        <time>2011-07-24T13:16:42Z</time>
      </trkpt>
      <trkpt lat="45.07748" lon="5.63872">
        <ele>584.2</ele>
        <time>2011-07-24T13:16:43Z</time>
      </trkpt>
      <trkpt lat="45.07748" lon="5.6387">
        <ele>584.2</ele>
        <time>2011-07-24T13:16:44Z</time>
      </trkpt>
      <trkpt lat="45.07749" lon="5.63864">
        <ele>584.6</ele>
        <time>2011-07-24T13:16:47Z</time>
      </trkpt>
      <trkpt lat="45.07749" lon="5.63863">
        <ele>584.6</ele>
        <time>2011-07-24T13:16:48Z</time>
      </trkpt>
      <trkpt lat="45.07751" lon="5.63856">
        <ele>584.6</ele>
        <time>2011-07-24T13:16:52Z</time>
      </trkpt>
      <trkpt lat="45.07753" lon="5.63846">
        <ele>585</ele>
        <time>2011-07-24T13:16:58Z</time>
      </trkpt>
      <trkpt lat="45.07753" lon="5.63844">
        <ele>585</ele>
        <time>2011-07-24T13:16:59Z</time>
      </trkpt>
      <trkpt lat="45.07752" lon="5.63842">
        <ele>585</ele>
        <time>2011-07-24T13:17:00Z</time>
      </trkpt>
      <trkpt lat="45.07749" lon="5.63834">
        <ele>584.8</ele>
        <time>2011-07-24T13:17:05Z</time>
      </trkpt>
      <trkpt lat="45.07749" lon="5.63832">
        <ele>584.8</ele>
        <time>2011-07-24T13:17:06Z</time>
      </trkpt>
      <trkpt lat="45.07749" lon="5.63824">
        <ele>584.6</ele>
        <time>2011-07-24T13:17:12Z</time>
      </trkpt>
      <trkpt lat="45.07748" lon="5.63822">
        <ele>584.6</ele>
        <time>2011-07-24T13:17:13Z</time>
      </trkpt>
      <trkpt lat="45.07742" lon="5.63815">
        <ele>584.6</ele>
        <time>2011-07-24T13:17:19Z</time>
      </trkpt>
      <trkpt lat="45.07733" lon="5.63806">
        <ele>584.6</ele>
        <time>2011-07-24T13:17:25Z</time>
      </trkpt>
      <trkpt lat="45.07721" lon="5.638">
        <ele>584.8</ele>
        <time>2011-07-24T13:17:30Z</time>
      </trkpt>
      <trkpt lat="45.07715" lon="5.63795">
        <ele>584.8</ele>
        <time>2011-07-24T13:17:33Z</time>
      </trkpt>
      <trkpt lat="45.07711" lon="5.63789">
        <ele>585</ele>
        <time>2011-07-24T13:17:35Z</time>
      </trkpt>
      <trkpt lat="45.07706" lon="5.63779">
        <ele>585.4</ele>
        <time>2011-07-24T13:17:38Z</time>
      </trkpt>
      <trkpt lat="45.07705" lon="5.63777">
        <ele>585.6</ele>
        <time>2011-07-24T13:17:39Z</time>
      </trkpt>
      <trkpt lat="45.07701" lon="5.63774">
        <ele>586</ele>
        <time>2011-07-24T13:17:41Z</time>
      </trkpt>
      <trkpt lat="45.077" lon="5.63774">
        <ele>586</ele>
        <time>2011-07-24T13:17:42Z</time>
      </trkpt>
      <trkpt lat="45.07695" lon="5.63772">
        <ele>586.2</ele>
        <time>2011-07-24T13:17:44Z</time>
      </trkpt>
      <trkpt lat="45.07683" lon="5.63767">
        <ele>586.6</ele>
        <time>2011-07-24T13:17:50Z</time>
      </trkpt>
      <trkpt lat="45.07666" lon="5.63762">
        <ele>586.8</ele>
        <time>2011-07-24T13:17:57Z</time>
      </trkpt>
      <trkpt lat="45.07653" lon="5.6376">
        <ele>587</ele>
        <time>2011-07-24T13:18:02Z</time>
      </trkpt>
      <trkpt lat="45.07647" lon="5.6376">
        <ele>587.2</ele>
        <time>2011-07-24T13:18:04Z</time>
      </trkpt>
      <trkpt lat="45.07639" lon="5.63762">
        <ele>587.2</ele>
        <time>2011-07-24T13:18:07Z</time>
      </trkpt>
      <trkpt lat="45.07627" lon="5.6376">
        <ele>587</ele>
        <time>2011-07-24T13:18:11Z</time>
      </trkpt>
      <trkpt lat="45.07611" lon="5.63751">
        <ele>587</ele>
        <time>2011-07-24T13:18:17Z</time>
      </trkpt>
      <trkpt lat="45.07609" lon="5.63749">
        <ele>586.8</ele>
        <time>2011-07-24T13:18:18Z</time>
      </trkpt>
      <trkpt lat="45.07599" lon="5.63744">
        <ele>586.8</ele>
        <time>2011-07-24T13:18:22Z</time>
      </trkpt>
      <trkpt lat="45.07591" lon="5.63739">
        <ele>586.6</ele>
        <time>2011-07-24T13:18:25Z</time>
      </trkpt>
      <trkpt lat="45.07586" lon="5.63736">
        <ele>586.4</ele>
        <time>2011-07-24T13:18:27Z</time>
      </trkpt>
      <trkpt lat="45.07576" lon="5.63728">
        <ele>586.2</ele>
        <time>2011-07-24T13:18:33Z</time>
      </trkpt>
      <trkpt lat="45.07575" lon="5.63727">
        <ele>586</ele>
        <time>2011-07-24T13:18:34Z</time>
      </trkpt>
      <trkpt lat="45.07566" lon="5.63718">
        <ele>585.6</ele>
        <time>2011-07-24T13:18:42Z</time>
      </trkpt>
      <trkpt lat="45.07564" lon="5.63712">
        <ele>585</ele>
        <time>2011-07-24T13:18:46Z</time>
      </trkpt>
      <trkpt lat="45.07563" lon="5.63708">
        <ele>584.8</ele>
        <time>2011-07-24T13:18:48Z</time>
      </trkpt>
      <trkpt lat="45.07563" lon="5.63707">
        <ele>584.6</ele>
        <time>2011-07-24T13:18:49Z</time>
      </trkpt>
      <trkpt lat="45.07563" lon="5.63705">
        <ele>584.6</ele>
        <time>2011-07-24T13:18:50Z</time>
      </trkpt>
      <trkpt lat="45.07563" lon="5.637">
        <ele>584.2</ele>
        <time>2011-07-24T13:18:54Z</time>
      </trkpt>
      <trkpt lat="45.07563" lon="5.637">
        <ele>584.2</ele>
        <time>2011-07-24T13:18:55Z</time>
      </trkpt>
      <trkpt lat="45.07562" lon="5.63699">
        <ele>584</ele>
        <time>2011-07-24T13:18:56Z</time>
      </trkpt>
      <trkpt lat="45.07562" lon="5.63694">
        <ele>584</ele>
        <time>2011-07-24T13:19:00Z</time>
      </trkpt>
      <trkpt lat="45.07563" lon="5.6369">
        <ele>583.8</ele>
        <time>2011-07-24T13:19:04Z</time>
      </trkpt>
      <trkpt lat="45.07563" lon="5.63686">
        <ele>583.8</ele>
        <time>2011-07-24T13:19:08Z</time>
      </trkpt>
      <trkpt lat="45.07563" lon="5.63683">
        <ele>584</ele>
        <time>2011-07-24T13:19:11Z</time>
      </trkpt>
      <trkpt lat="45.07563" lon="5.63683">
        <ele>584.2</ele>
        <time>2011-07-24T13:19:12Z</time>
      </trkpt>
      <trkpt lat="45.07563" lon="5.63678">
        <ele>585</ele>
        <time>2011-07-24T13:19:17Z</time>
      </trkpt>
      <trkpt lat="45.07563" lon="5.63673">
        <ele>585.8</ele>
        <time>2011-07-24T13:19:21Z</time>
      </trkpt>
      <trkpt lat="45.07565" lon="5.6367">
        <ele>586.4</ele>
        <time>2011-07-24T13:19:24Z</time>
      </trkpt>
      <trkpt lat="45.07565" lon="5.63669">
        <ele>586.6</ele>
        <time>2011-07-24T13:19:25Z</time>
      </trkpt>
      <trkpt lat="45.07567" lon="5.63667">
        <ele>587.4</ele>
        <time>2011-07-24T13:19:29Z</time>
      </trkpt>
      <trkpt lat="45.07568" lon="5.63664">
        <ele>588.4</ele>
        <time>2011-07-24T13:19:33Z</time>
      </trkpt>
      <trkpt lat="45.07569" lon="5.6366">
        <ele>589.4</ele>
        <time>2011-07-24T13:19:38Z</time>
      </trkpt>
      <trkpt lat="45.0757" lon="5.63657">
        <ele>590.2</ele>
        <time>2011-07-24T13:19:42Z</time>
      </trkpt>
      <trkpt lat="45.07573" lon="5.63653">
        <ele>591.4</ele>
        <time>2011-07-24T13:19:47Z</time>
      </trkpt>
      <trkpt lat="45.07573" lon="5.63649">
        <ele>592.2</ele>
        <time>2011-07-24T13:19:50Z</time>
      </trkpt>
      <trkpt lat="45.07574" lon="5.63646">
        <ele>593.2</ele>
        <time>2011-07-24T13:19:54Z</time>
      </trkpt>
      <trkpt lat="45.07573" lon="5.63644">
        <ele>593.8</ele>
        <time>2011-07-24T13:19:56Z</time>
      </trkpt>
      <trkpt lat="45.07572" lon="5.63641">
        <ele>594.4</ele>
        <time>2011-07-24T13:19:58Z</time>
      </trkpt>
      <trkpt lat="45.07572" lon="5.63636">
        <ele>595.6</ele>
        <time>2011-07-24T13:20:02Z</time>
      </trkpt>
      <trkpt lat="45.07572" lon="5.63636">
        <ele>595.8</ele>
        <time>2011-07-24T13:20:03Z</time>
      </trkpt>
      <trkpt lat="45.07572" lon="5.63631">
        <ele>597.2</ele>
        <time>2011-07-24T13:20:07Z</time>
      </trkpt>
      <trkpt lat="45.07573" lon="5.63627">
        <ele>598.2</ele>
        <time>2011-07-24T13:20:11Z</time>
      </trkpt>
      <trkpt lat="45.07574" lon="5.63624">
        <ele>599.2</ele>
        <time>2011-07-24T13:20:14Z</time>
      </trkpt>
      <trkpt lat="45.07575" lon="5.63623">
        <ele>599.4</ele>
        <time>2011-07-24T13:20:15Z</time>
      </trkpt>
      <trkpt lat="45.07575" lon="5.63621">
        <ele>599.8</ele>
        <time>2011-07-24T13:20:17Z</time>
      </trkpt>
      <trkpt lat="45.07575" lon="5.63619">
        <ele>600.2</ele>
        <time>2011-07-24T13:20:19Z</time>
      </trkpt>
      <trkpt lat="45.07576" lon="5.63616">
        <ele>601.6</ele>
        <time>2011-07-24T13:20:23Z</time>
      </trkpt>
      <trkpt lat="45.07576" lon="5.63611">
        <ele>603.2</ele>
        <time>2011-07-24T13:20:28Z</time>
      </trkpt>
      <trkpt lat="45.07575" lon="5.63606">
        <ele>604.4</ele>
        <time>2011-07-24T13:20:32Z</time>
      </trkpt>
      <trkpt lat="45.07574" lon="5.63604">
        <ele>605</ele>
        <time>2011-07-24T13:20:34Z</time>
      </trkpt>
      <trkpt lat="45.07573" lon="5.63601">
        <ele>605.6</ele>
        <time>2011-07-24T13:20:36Z</time>
      </trkpt>
      <trkpt lat="45.07573" lon="5.63599">
        <ele>606.2</ele>
        <time>2011-07-24T13:20:38Z</time>
      </trkpt>
      <trkpt lat="45.07573" lon="5.63598">
        <ele>606.6</ele>
        <time>2011-07-24T13:20:39Z</time>
      </trkpt>
      <trkpt lat="45.07573" lon="5.63597">
        <ele>607.4</ele>
        <time>2011-07-24T13:20:41Z</time>
      </trkpt>
      <trkpt lat="45.07572" lon="5.63594">
        <ele>608.2</ele>
        <time>2011-07-24T13:20:44Z</time>
      </trkpt>
      <trkpt lat="45.07571" lon="5.63592">
        <ele>608.6</ele>
        <time>2011-07-24T13:20:46Z</time>
      </trkpt>
      <trkpt lat="45.07571" lon="5.63587">
        <ele>609.2</ele>
        <time>2011-07-24T13:20:49Z</time>
      </trkpt>
      <trkpt lat="45.07571" lon="5.63586">
        <ele>609.4</ele>
        <time>2011-07-24T13:20:50Z</time>
      </trkpt>
      <trkpt lat="45.0757" lon="5.63585">
        <ele>609.6</ele>
        <time>2011-07-24T13:20:51Z</time>
      </trkpt>
      <trkpt lat="45.0757" lon="5.63584">
        <ele>609.8</ele>
        <time>2011-07-24T13:20:52Z</time>
      </trkpt>
      <trkpt lat="45.0757" lon="5.63583">
        <ele>610</ele>
        <time>2011-07-24T13:20:53Z</time>
      </trkpt>
      <trkpt lat="45.0757" lon="5.63579">
        <ele>610.6</ele>
        <time>2011-07-24T13:20:56Z</time>
      </trkpt>
      <trkpt lat="45.0757" lon="5.63576">
        <ele>610.6</ele>
        <time>2011-07-24T13:20:58Z</time>
      </trkpt>
      <trkpt lat="45.0757" lon="5.63575">
        <ele>610.8</ele>
        <time>2011-07-24T13:20:59Z</time>
      </trkpt>
      <trkpt lat="45.0757" lon="5.6357">
        <ele>611</ele>
        <time>2011-07-24T13:21:02Z</time>
      </trkpt>
      <trkpt lat="45.0757" lon="5.63567">
        <ele>611.4</ele>
        <time>2011-07-24T13:21:04Z</time>
      </trkpt>
      <trkpt lat="45.07571" lon="5.63565">
        <ele>611.6</ele>
        <time>2011-07-24T13:21:06Z</time>
      </trkpt>
      <trkpt lat="45.07572" lon="5.63562">
        <ele>612</ele>
        <time>2011-07-24T13:21:09Z</time>
      </trkpt>
      <trkpt lat="45.07572" lon="5.63561">
        <ele>612</ele>
        <time>2011-07-24T13:21:10Z</time>
      </trkpt>
      <trkpt lat="45.07573" lon="5.63556">
        <ele>612.6</ele>
        <time>2011-07-24T13:21:14Z</time>
      </trkpt>
      <trkpt lat="45.07573" lon="5.63555">
        <ele>612.8</ele>
        <time>2011-07-24T13:21:15Z</time>
      </trkpt>
      <trkpt lat="45.07574" lon="5.63551">
        <ele>613</ele>
        <time>2011-07-24T13:21:18Z</time>
      </trkpt>
      <trkpt lat="45.07575" lon="5.63548">
        <ele>613.2</ele>
        <time>2011-07-24T13:21:20Z</time>
      </trkpt>
      <trkpt lat="45.07575" lon="5.63546">
        <ele>613.8</ele>
        <time>2011-07-24T13:21:22Z</time>
      </trkpt>
      <trkpt lat="45.07576" lon="5.63543">
        <ele>614.2</ele>
        <time>2011-07-24T13:21:26Z</time>
      </trkpt>
      <trkpt lat="45.07576" lon="5.63539">
        <ele>614.8</ele>
        <time>2011-07-24T13:21:30Z</time>
      </trkpt>
      <trkpt lat="45.07576" lon="5.63535">
        <ele>615.2</ele>
        <time>2011-07-24T13:21:33Z</time>
      </trkpt>
      <trkpt lat="45.07576" lon="5.63534">
        <ele>615.4</ele>
        <time>2011-07-24T13:21:34Z</time>
      </trkpt>
      <trkpt lat="45.07575" lon="5.6353">
        <ele>616.2</ele>
        <time>2011-07-24T13:21:38Z</time>
      </trkpt>
      <trkpt lat="45.07576" lon="5.63525">
        <ele>616.6</ele>
        <time>2011-07-24T13:21:41Z</time>
      </trkpt>
      <trkpt lat="45.07576" lon="5.63524">
        <ele>617.4</ele>
        <time>2011-07-24T13:21:43Z</time>
      </trkpt>
      <trkpt lat="45.07577" lon="5.63519">
        <ele>619</ele>
        <time>2011-07-24T13:21:48Z</time>
      </trkpt>
      <trkpt lat="45.07579" lon="5.63514">
        <ele>620</ele>
        <time>2011-07-24T13:21:52Z</time>
      </trkpt>
      <trkpt lat="45.0758" lon="5.6351">
        <ele>621.2</ele>
        <time>2011-07-24T13:21:55Z</time>
      </trkpt>
      <trkpt lat="45.07582" lon="5.63506">
        <ele>622.6</ele>
        <time>2011-07-24T13:21:59Z</time>
      </trkpt>
      <trkpt lat="45.07583" lon="5.63505">
        <ele>622.8</ele>
        <time>2011-07-24T13:22:00Z</time>
      </trkpt>
      <trkpt lat="45.07583" lon="5.635">
        <ele>624</ele>
        <time>2011-07-24T13:22:04Z</time>
      </trkpt>
      <trkpt lat="45.07584" lon="5.63495">
        <ele>624.8</ele>
        <time>2011-07-24T13:22:07Z</time>
      </trkpt>
      <trkpt lat="45.07584" lon="5.63494">
        <ele>625.4</ele>
        <time>2011-07-24T13:22:08Z</time>
      </trkpt>
      <trkpt lat="45.07584" lon="5.6349">
        <ele>626.2</ele>
        <time>2011-07-24T13:22:11Z</time>
      </trkpt>
      <trkpt lat="45.07585" lon="5.63489">
        <ele>626.4</ele>
        <time>2011-07-24T13:22:12Z</time>
      </trkpt>
      <trkpt lat="45.07585" lon="5.63486">
        <ele>627.4</ele>
        <time>2011-07-24T13:22:15Z</time>
      </trkpt>
      <trkpt lat="45.07585" lon="5.63485">
        <ele>627.8</ele>
        <time>2011-07-24T13:22:16Z</time>
      </trkpt>
      <trkpt lat="45.07585" lon="5.63484">
        <ele>628.2</ele>
        <time>2011-07-24T13:22:17Z</time>
      </trkpt>
      <trkpt lat="45.07585" lon="5.63481">
        <ele>629.4</ele>
        <time>2011-07-24T13:22:21Z</time>
      </trkpt>
      <trkpt lat="45.07586" lon="5.63477">
        <ele>630.8</ele>
        <time>2011-07-24T13:22:25Z</time>
      </trkpt>
      <trkpt lat="45.07588" lon="5.63473">
        <ele>631.8</ele>
        <time>2011-07-24T13:22:29Z</time>
      </trkpt>
      <trkpt lat="45.07589" lon="5.63469">
        <ele>633</ele>
        <time>2011-07-24T13:22:33Z</time>
      </trkpt>
      <trkpt lat="45.0759" lon="5.63465">
        <ele>634.6</ele>
        <time>2011-07-24T13:22:38Z</time>
      </trkpt>
      <trkpt lat="45.07591" lon="5.63461">
        <ele>636</ele>
        <time>2011-07-24T13:22:42Z</time>
      </trkpt>
      <trkpt lat="45.07591" lon="5.63457">
        <ele>637.4</ele>
        <time>2011-07-24T13:22:46Z</time>
      </trkpt>
      <trkpt lat="45.07592" lon="5.63454">
        <ele>638.4</ele>
        <time>2011-07-24T13:22:49Z</time>
      </trkpt>
      <trkpt lat="45.07593" lon="5.63448">
        <ele>639.4</ele>
        <time>2011-07-24T13:22:53Z</time>
      </trkpt>
      <trkpt lat="45.07594" lon="5.6344">
        <ele>640.4</ele>
        <time>2011-07-24T13:22:58Z</time>
      </trkpt>
      <trkpt lat="45.07595" lon="5.63438">
        <ele>641</ele>
        <time>2011-07-24T13:23:00Z</time>
      </trkpt>
      <trkpt lat="45.07595" lon="5.63435">
        <ele>641.4</ele>
        <time>2011-07-24T13:23:02Z</time>
      </trkpt>
      <trkpt lat="45.07596" lon="5.63432">
        <ele>641.6</ele>
        <time>2011-07-24T13:23:04Z</time>
      </trkpt>
      <trkpt lat="45.07597" lon="5.63429">
        <ele>642</ele>
        <time>2011-07-24T13:23:06Z</time>
      </trkpt>
      <trkpt lat="45.07598" lon="5.63425">
        <ele>643</ele>
        <time>2011-07-24T13:23:10Z</time>
      </trkpt>
      <trkpt lat="45.07599" lon="5.63422">
        <ele>643</ele>
        <time>2011-07-24T13:23:12Z</time>
      </trkpt>
      <trkpt lat="45.076" lon="5.6342">
        <ele>643.4</ele>
        <time>2011-07-24T13:23:14Z</time>
      </trkpt>
      <trkpt lat="45.076" lon="5.63419">
        <ele>643.4</ele>
        <time>2011-07-24T13:23:15Z</time>
      </trkpt>
      <trkpt lat="45.07601" lon="5.63416">
        <ele>643.8</ele>
        <time>2011-07-24T13:23:18Z</time>
      </trkpt>
      <trkpt lat="45.07601" lon="5.63415">
        <ele>644</ele>
        <time>2011-07-24T13:23:19Z</time>
      </trkpt>
      <trkpt lat="45.07602" lon="5.63412">
        <ele>644.4</ele>
        <time>2011-07-24T13:23:22Z</time>
      </trkpt>
      <trkpt lat="45.07602" lon="5.63411">
        <ele>644.6</ele>
        <time>2011-07-24T13:23:23Z</time>
      </trkpt>
      <trkpt lat="45.07604" lon="5.63406">
        <ele>645.6</ele>
        <time>2011-07-24T13:23:27Z</time>
      </trkpt>
      <trkpt lat="45.07605" lon="5.63402">
        <ele>646</ele>
        <time>2011-07-24T13:23:30Z</time>
      </trkpt>
      <trkpt lat="45.07605" lon="5.63401">
        <ele>646.2</ele>
        <time>2011-07-24T13:23:31Z</time>
      </trkpt>
      <trkpt lat="45.07606" lon="5.63399">
        <ele>646.4</ele>
        <time>2011-07-24T13:23:33Z</time>
      </trkpt>
      <trkpt lat="45.07608" lon="5.63397">
        <ele>646.6</ele>
        <time>2011-07-24T13:23:35Z</time>
      </trkpt>
      <trkpt lat="45.07609" lon="5.63396">
        <ele>646.6</ele>
        <time>2011-07-24T13:23:36Z</time>
      </trkpt>
      <trkpt lat="45.0761" lon="5.63396">
        <ele>647.2</ele>
        <time>2011-07-24T13:23:39Z</time>
      </trkpt>
      <trkpt lat="45.07609" lon="5.63396">
        <ele>653.2</ele>
        <time>2011-07-24T13:23:56Z</time>
      </trkpt>
      <trkpt lat="45.0761" lon="5.63397">
        <ele>653.4</ele>
        <time>2011-07-24T13:23:57Z</time>
      </trkpt>
      <trkpt lat="45.07613" lon="5.63399">
        <ele>655.2</ele>
        <time>2011-07-24T13:24:02Z</time>
      </trkpt>
      <trkpt lat="45.07613" lon="5.634">
        <ele>655.4</ele>
        <time>2011-07-24T13:24:03Z</time>
      </trkpt>
      <trkpt lat="45.07615" lon="5.634">
        <ele>656.6</ele>
        <time>2011-07-24T13:24:06Z</time>
      </trkpt>
      <trkpt lat="45.07619" lon="5.63399">
        <ele>657.8</ele>
        <time>2011-07-24T13:24:10Z</time>
      </trkpt>
      <trkpt lat="45.07621" lon="5.63398">
        <ele>659</ele>
        <time>2011-07-24T13:24:14Z</time>
      </trkpt>
      <trkpt lat="45.07623" lon="5.63395">
        <ele>659.8</ele>
        <time>2011-07-24T13:24:18Z</time>
      </trkpt>
      <trkpt lat="45.07625" lon="5.63393">
        <ele>660.6</ele>
        <time>2011-07-24T13:24:20Z</time>
      </trkpt>
      <trkpt lat="45.07626" lon="5.63391">
        <ele>661</ele>
        <time>2011-07-24T13:24:22Z</time>
      </trkpt>
      <trkpt lat="45.07629" lon="5.6339">
        <ele>661.8</ele>
        <time>2011-07-24T13:24:26Z</time>
      </trkpt>
      <trkpt lat="45.07632" lon="5.63391">
        <ele>662.8</ele>
        <time>2011-07-24T13:24:30Z</time>
      </trkpt>
      <trkpt lat="45.07635" lon="5.63394">
        <ele>663.4</ele>
        <time>2011-07-24T13:24:34Z</time>
      </trkpt>
      <trkpt lat="45.07636" lon="5.63396">
        <ele>663.8</ele>
        <time>2011-07-24T13:24:37Z</time>
      </trkpt>
      <trkpt lat="45.07639" lon="5.63398">
        <ele>663.8</ele>
        <time>2011-07-24T13:24:39Z</time>
      </trkpt>
      <trkpt lat="45.0764" lon="5.63399">
        <ele>664</ele>
        <time>2011-07-24T13:24:41Z</time>
      </trkpt>
      <trkpt lat="45.07638" lon="5.63402">
        <ele>664.8</ele>
        <time>2011-07-24T13:24:44Z</time>
      </trkpt>
      <trkpt lat="45.07639" lon="5.63402">
        <ele>665</ele>
        <time>2011-07-24T13:24:45Z</time>
      </trkpt>
      <trkpt lat="45.07639" lon="5.63404">
        <ele>665.4</ele>
        <time>2011-07-24T13:24:47Z</time>
      </trkpt>
      <trkpt lat="45.07641" lon="5.63408">
        <ele>666.6</ele>
        <time>2011-07-24T13:24:51Z</time>
      </trkpt>
      <trkpt lat="45.07643" lon="5.63411">
        <ele>667.6</ele>
        <time>2011-07-24T13:24:55Z</time>
      </trkpt>
      <trkpt lat="45.07643" lon="5.63415">
        <ele>669</ele>
        <time>2011-07-24T13:24:59Z</time>
      </trkpt>
      <trkpt lat="45.07645" lon="5.63419">
        <ele>670.4</ele>
        <time>2011-07-24T13:25:03Z</time>
      </trkpt>
      <trkpt lat="45.07647" lon="5.63421">
        <ele>671.6</ele>
        <time>2011-07-24T13:25:07Z</time>
      </trkpt>
      <trkpt lat="45.07649" lon="5.63422">
        <ele>672.2</ele>
        <time>2011-07-24T13:25:09Z</time>
      </trkpt>
      <trkpt lat="45.0765" lon="5.63423">
        <ele>672.6</ele>
        <time>2011-07-24T13:25:10Z</time>
      </trkpt>
      <trkpt lat="45.07651" lon="5.63424">
        <ele>673.2</ele>
        <time>2011-07-24T13:25:12Z</time>
      </trkpt>
      <trkpt lat="45.07653" lon="5.63426">
        <ele>674</ele>
        <time>2011-07-24T13:25:14Z</time>
      </trkpt>
      <trkpt lat="45.07654" lon="5.63431">
        <ele>675.6</ele>
        <time>2011-07-24T13:25:18Z</time>
      </trkpt>
      <trkpt lat="45.07656" lon="5.63433">
        <ele>676.8</ele>
        <time>2011-07-24T13:25:21Z</time>
      </trkpt>
      <trkpt lat="45.07657" lon="5.63433">
        <ele>677.2</ele>
        <time>2011-07-24T13:25:23Z</time>
      </trkpt>
      <trkpt lat="45.0766" lon="5.6343">
        <ele>678.4</ele>
        <time>2011-07-24T13:25:28Z</time>
      </trkpt>
      <trkpt lat="45.0766" lon="5.63425">
        <ele>679.2</ele>
        <time>2011-07-24T13:25:32Z</time>
      </trkpt>
      <trkpt lat="45.07662" lon="5.63423">
        <ele>679.4</ele>
        <time>2011-07-24T13:25:35Z</time>
      </trkpt>
      <trkpt lat="45.07664" lon="5.63423">
        <ele>680.4</ele>
        <time>2011-07-24T13:25:39Z</time>
      </trkpt>
      <trkpt lat="45.07664" lon="5.63423">
        <ele>680.6</ele>
        <time>2011-07-24T13:25:40Z</time>
      </trkpt>
      <trkpt lat="45.07665" lon="5.63425">
        <ele>680.6</ele>
        <time>2011-07-24T13:25:41Z</time>
      </trkpt>
      <trkpt lat="45.07666" lon="5.63427">
        <ele>681.2</ele>
        <time>2011-07-24T13:25:44Z</time>
      </trkpt>
      <trkpt lat="45.07667" lon="5.6343">
        <ele>682.2</ele>
        <time>2011-07-24T13:25:49Z</time>
      </trkpt>
      <trkpt lat="45.07669" lon="5.63434">
        <ele>683</ele>
        <time>2011-07-24T13:25:53Z</time>
      </trkpt>
      <trkpt lat="45.0767" lon="5.63437">
        <ele>684.4</ele>
        <time>2011-07-24T13:25:57Z</time>
      </trkpt>
      <trkpt lat="45.07672" lon="5.63439">
        <ele>685.8</ele>
        <time>2011-07-24T13:26:01Z</time>
      </trkpt>
      <trkpt lat="45.07674" lon="5.63438">
        <ele>687</ele>
        <time>2011-07-24T13:26:04Z</time>
      </trkpt>
      <trkpt lat="45.07677" lon="5.63435">
        <ele>688.6</ele>
        <time>2011-07-24T13:26:08Z</time>
      </trkpt>
      <trkpt lat="45.0768" lon="5.63434">
        <ele>690.2</ele>
        <time>2011-07-24T13:26:12Z</time>
      </trkpt>
      <trkpt lat="45.0768" lon="5.63436">
        <ele>692.2</ele>
        <time>2011-07-24T13:26:16Z</time>
      </trkpt>
      <trkpt lat="45.07683" lon="5.63443">
        <ele>694.2</ele>
        <time>2011-07-24T13:26:22Z</time>
      </trkpt>
      <trkpt lat="45.07684" lon="5.63446">
        <ele>695.4</ele>
        <time>2011-07-24T13:26:25Z</time>
      </trkpt>
      <trkpt lat="45.07685" lon="5.63447">
        <ele>695.8</ele>
        <time>2011-07-24T13:26:26Z</time>
      </trkpt>
      <trkpt lat="45.07687" lon="5.6345">
        <ele>697.4</ele>
        <time>2011-07-24T13:26:31Z</time>
      </trkpt>
      <trkpt lat="45.07688" lon="5.63456">
        <ele>700</ele>
        <time>2011-07-24T13:26:37Z</time>
      </trkpt>
      <trkpt lat="45.0769" lon="5.63458">
        <ele>701.6</ele>
        <time>2011-07-24T13:26:42Z</time>
      </trkpt>
      <trkpt lat="45.07692" lon="5.6346">
        <ele>702.2</ele>
        <time>2011-07-24T13:26:44Z</time>
      </trkpt>
      <trkpt lat="45.07692" lon="5.63461">
        <ele>703.2</ele>
        <time>2011-07-24T13:26:46Z</time>
      </trkpt>
      <trkpt lat="45.07693" lon="5.63462">
        <ele>703.4</ele>
        <time>2011-07-24T13:26:47Z</time>
      </trkpt>
      <trkpt lat="45.07695" lon="5.63465">
        <ele>704.8</ele>
        <time>2011-07-24T13:26:52Z</time>
      </trkpt>
      <trkpt lat="45.07697" lon="5.63467">
        <ele>704.8</ele>
        <time>2011-07-24T13:26:54Z</time>
      </trkpt>
      <trkpt lat="45.07696" lon="5.63468">
        <ele>705.2</ele>
        <time>2011-07-24T13:26:55Z</time>
      </trkpt>
      <trkpt lat="45.07698" lon="5.63469">
        <ele>705.4</ele>
        <time>2011-07-24T13:26:57Z</time>
      </trkpt>
      <trkpt lat="45.07699" lon="5.63471">
        <ele>706.4</ele>
        <time>2011-07-24T13:27:00Z</time>
      </trkpt>
      <trkpt lat="45.077" lon="5.63473">
        <ele>706.8</ele>
        <time>2011-07-24T13:27:02Z</time>
      </trkpt>
      <trkpt lat="45.07701" lon="5.63474">
        <ele>706.8</ele>
        <time>2011-07-24T13:27:04Z</time>
      </trkpt>
      <trkpt lat="45.07703" lon="5.63477">
        <ele>707.6</ele>
        <time>2011-07-24T13:27:08Z</time>
      </trkpt>
      <trkpt lat="45.07704" lon="5.6348">
        <ele>709</ele>
        <time>2011-07-24T13:27:12Z</time>
      </trkpt>
      <trkpt lat="45.07705" lon="5.6348">
        <ele>709.4</ele>
        <time>2011-07-24T13:27:13Z</time>
      </trkpt>
      <trkpt lat="45.07707" lon="5.63481">
        <ele>710</ele>
        <time>2011-07-24T13:27:16Z</time>
      </trkpt>
      <trkpt lat="45.07709" lon="5.63484">
        <ele>711.4</ele>
        <time>2011-07-24T13:27:20Z</time>
      </trkpt>
      <trkpt lat="45.0771" lon="5.63485">
        <ele>711.8</ele>
        <time>2011-07-24T13:27:22Z</time>
      </trkpt>
      <trkpt lat="45.07711" lon="5.63487">
        <ele>712.6</ele>
        <time>2011-07-24T13:27:25Z</time>
      </trkpt>
      <trkpt lat="45.07712" lon="5.63489">
        <ele>713.8</ele>
        <time>2011-07-24T13:27:29Z</time>
      </trkpt>
      <trkpt lat="45.07712" lon="5.6349">
        <ele>714</ele>
        <time>2011-07-24T13:27:31Z</time>
      </trkpt>
      <trkpt lat="45.07712" lon="5.6349">
        <ele>714</ele>
        <time>2011-07-24T13:27:31Z</time>
      </trkpt>
      <trkpt lat="45.07713" lon="5.63497">
        <ele>716</ele>
        <time>2011-07-24T13:27:37Z</time>
      </trkpt>
      <trkpt lat="45.07714" lon="5.63498">
        <ele>716.2</ele>
        <time>2011-07-24T13:27:38Z</time>
      </trkpt>
      <trkpt lat="45.07717" lon="5.635">
        <ele>718.4</ele>
        <time>2011-07-24T13:27:45Z</time>
      </trkpt>
      <trkpt lat="45.07719" lon="5.63499">
        <ele>719.6</ele>
        <time>2011-07-24T13:27:49Z</time>
      </trkpt>
      <trkpt lat="45.07719" lon="5.63494">
        <ele>722.4</ele>
        <time>2011-07-24T13:27:57Z</time>
      </trkpt>
      <trkpt lat="45.07721" lon="5.63493">
        <ele>722.8</ele>
        <time>2011-07-24T13:27:59Z</time>
      </trkpt>
      <trkpt lat="45.07724" lon="5.63493">
        <ele>724.4</ele>
        <time>2011-07-24T13:28:04Z</time>
      </trkpt>
      <trkpt lat="45.07725" lon="5.63496">
        <ele>725.4</ele>
        <time>2011-07-24T13:28:08Z</time>
      </trkpt>
      <trkpt lat="45.07728" lon="5.635">
        <ele>725.6</ele>
        <time>2011-07-24T13:28:12Z</time>
      </trkpt>
      <trkpt lat="45.07729" lon="5.63504">
        <ele>726.2</ele>
        <time>2011-07-24T13:28:16Z</time>
      </trkpt>
      <trkpt lat="45.07728" lon="5.63506">
        <ele>726.2</ele>
        <time>2011-07-24T13:28:17Z</time>
      </trkpt>
      <trkpt lat="45.07728" lon="5.63509">
        <ele>726.6</ele>
        <time>2011-07-24T13:28:19Z</time>
      </trkpt>
      <trkpt lat="45.07728" lon="5.6351">
        <ele>727</ele>
        <time>2011-07-24T13:28:21Z</time>
      </trkpt>
      <trkpt lat="45.07728" lon="5.63511">
        <ele>727.2</ele>
        <time>2011-07-24T13:28:22Z</time>
      </trkpt>
      <trkpt lat="45.07728" lon="5.63515">
        <ele>727.8</ele>
        <time>2011-07-24T13:28:26Z</time>
      </trkpt>
      <trkpt lat="45.07728" lon="5.63517">
        <ele>727.8</ele>
        <time>2011-07-24T13:28:27Z</time>
      </trkpt>
      <trkpt lat="45.07728" lon="5.63523">
        <ele>728.6</ele>
        <time>2011-07-24T13:28:32Z</time>
      </trkpt>
      <trkpt lat="45.07728" lon="5.63524">
        <ele>728.8</ele>
        <time>2011-07-24T13:28:33Z</time>
      </trkpt>
      <trkpt lat="45.07729" lon="5.63527">
        <ele>729.2</ele>
        <time>2011-07-24T13:28:36Z</time>
      </trkpt>
      <trkpt lat="45.07731" lon="5.63529">
        <ele>730.2</ele>
        <time>2011-07-24T13:28:41Z</time>
      </trkpt>
      <trkpt lat="45.07734" lon="5.6353">
        <ele>731</ele>
        <time>2011-07-24T13:28:45Z</time>
      </trkpt>
      <trkpt lat="45.07734" lon="5.6353">
        <ele>731.2</ele>
        <time>2011-07-24T13:28:46Z</time>
      </trkpt>
      <trkpt lat="45.07737" lon="5.6353">
        <ele>731.6</ele>
        <time>2011-07-24T13:28:50Z</time>
      </trkpt>
      <trkpt lat="45.07741" lon="5.63529">
        <ele>732.4</ele>
        <time>2011-07-24T13:28:55Z</time>
      </trkpt>
      <trkpt lat="45.07742" lon="5.63528">
        <ele>732.6</ele>
        <time>2011-07-24T13:28:56Z</time>
      </trkpt>
      <trkpt lat="45.07744" lon="5.63526">
        <ele>733.4</ele>
        <time>2011-07-24T13:29:00Z</time>
      </trkpt>
      <trkpt lat="45.07744" lon="5.63525">
        <ele>733.6</ele>
        <time>2011-07-24T13:29:01Z</time>
      </trkpt>
      <trkpt lat="45.07744" lon="5.63521">
        <ele>734.2</ele>
        <time>2011-07-24T13:29:05Z</time>
      </trkpt>
      <trkpt lat="45.07744" lon="5.63515">
        <ele>734.8</ele>
        <time>2011-07-24T13:29:09Z</time>
      </trkpt>
      <trkpt lat="45.07745" lon="5.63514">
        <ele>735</ele>
        <time>2011-07-24T13:29:10Z</time>
      </trkpt>
      <trkpt lat="45.07747" lon="5.63508">
        <ele>735.6</ele>
        <time>2011-07-24T13:29:14Z</time>
      </trkpt>
      <trkpt lat="45.0775" lon="5.635">
        <ele>736.4</ele>
        <time>2011-07-24T13:29:20Z</time>
      </trkpt>
      <trkpt lat="45.0775" lon="5.63499">
        <ele>736.6</ele>
        <time>2011-07-24T13:29:21Z</time>
      </trkpt>
      <trkpt lat="45.07752" lon="5.63494">
        <ele>737.6</ele>
        <time>2011-07-24T13:29:26Z</time>
      </trkpt>
      <trkpt lat="45.07753" lon="5.63492">
        <ele>738.2</ele>
        <time>2011-07-24T13:29:28Z</time>
      </trkpt>
      <trkpt lat="45.07755" lon="5.63488">
        <ele>738.8</ele>
        <time>2011-07-24T13:29:32Z</time>
      </trkpt>
      <trkpt lat="45.07756" lon="5.63486">
        <ele>739.2</ele>
        <time>2011-07-24T13:29:34Z</time>
      </trkpt>
      <trkpt lat="45.07756" lon="5.63483">
        <ele>740</ele>
        <time>2011-07-24T13:29:37Z</time>
      </trkpt>
      <trkpt lat="45.07757" lon="5.63478">
        <ele>740.8</ele>
        <time>2011-07-24T13:29:42Z</time>
      </trkpt>
      <trkpt lat="45.07757" lon="5.63475">
        <ele>741.6</ele>
        <time>2011-07-24T13:29:46Z</time>
      </trkpt>
      <trkpt lat="45.07756" lon="5.63471">
        <ele>742.4</ele>
        <time>2011-07-24T13:29:50Z</time>
      </trkpt>
      <trkpt lat="45.07756" lon="5.63467">
        <ele>743.6</ele>
        <time>2011-07-24T13:29:55Z</time>
      </trkpt>
      <trkpt lat="45.07756" lon="5.63466">
        <ele>743.8</ele>
        <time>2011-07-24T13:29:56Z</time>
      </trkpt>
      <trkpt lat="45.07756" lon="5.63463">
        <ele>745</ele>
        <time>2011-07-24T13:30:01Z</time>
      </trkpt>
      <trkpt lat="45.07757" lon="5.63459">
        <ele>745.8</ele>
        <time>2011-07-24T13:30:05Z</time>
      </trkpt>
      <trkpt lat="45.07758" lon="5.63458">
        <ele>746</ele>
        <time>2011-07-24T13:30:06Z</time>
      </trkpt>
      <trkpt lat="45.07761" lon="5.63461">
        <ele>747.2</ele>
        <time>2011-07-24T13:30:11Z</time>
      </trkpt>
      <trkpt lat="45.07762" lon="5.63465">
        <ele>748.4</ele>
        <time>2011-07-24T13:30:15Z</time>
      </trkpt>
      <trkpt lat="45.07764" lon="5.63468">
        <ele>749</ele>
        <time>2011-07-24T13:30:18Z</time>
      </trkpt>
      <trkpt lat="45.07765" lon="5.6347">
        <ele>749.4</ele>
        <time>2011-07-24T13:30:19Z</time>
      </trkpt>
      <trkpt lat="45.07767" lon="5.63474">
        <ele>750.4</ele>
        <time>2011-07-24T13:30:23Z</time>
      </trkpt>
      <trkpt lat="45.07769" lon="5.63477">
        <ele>751.8</ele>
        <time>2011-07-24T13:30:28Z</time>
      </trkpt>
      <trkpt lat="45.07769" lon="5.63478">
        <ele>752</ele>
        <time>2011-07-24T13:30:29Z</time>
      </trkpt>
      <trkpt lat="45.07767" lon="5.63482">
        <ele>753.2</ele>
        <time>2011-07-24T13:30:33Z</time>
      </trkpt>
      <trkpt lat="45.07765" lon="5.63484">
        <ele>754.4</ele>
        <time>2011-07-24T13:30:38Z</time>
      </trkpt>
      <trkpt lat="45.07764" lon="5.63483">
        <ele>756</ele>
        <time>2011-07-24T13:30:45Z</time>
      </trkpt>
      <trkpt lat="45.07766" lon="5.63481">
        <ele>760.4</ele>
        <time>2011-07-24T13:31:13Z</time>
      </trkpt>
      <trkpt lat="45.07768" lon="5.6348">
        <ele>760.4</ele>
        <time>2011-07-24T13:31:14Z</time>
      </trkpt>
      <trkpt lat="45.07774" lon="5.6348">
        <ele>761.4</ele>
        <time>2011-07-24T13:31:21Z</time>
      </trkpt>
      <trkpt lat="45.07775" lon="5.6348">
        <ele>761.4</ele>
        <time>2011-07-24T13:31:22Z</time>
      </trkpt>
      <trkpt lat="45.07777" lon="5.6348">
        <ele>761.8</ele>
        <time>2011-07-24T13:31:25Z</time>
      </trkpt>
      <trkpt lat="45.07778" lon="5.6348">
        <ele>762</ele>
        <time>2011-07-24T13:31:26Z</time>
      </trkpt>
      <trkpt lat="45.07781" lon="5.6348">
        <ele>762.6</ele>
        <time>2011-07-24T13:31:30Z</time>
      </trkpt>
      <trkpt lat="45.07783" lon="5.63482">
        <ele>763.4</ele>
        <time>2011-07-24T13:31:35Z</time>
      </trkpt>
      <trkpt lat="45.07784" lon="5.6348">
        <ele>763.8</ele>
        <time>2011-07-24T13:31:37Z</time>
      </trkpt>
      <trkpt lat="45.07785" lon="5.63479">
        <ele>763.8</ele>
        <time>2011-07-24T13:31:38Z</time>
      </trkpt>
      <trkpt lat="45.07785" lon="5.63478">
        <ele>763.8</ele>
        <time>2011-07-24T13:31:39Z</time>
      </trkpt>
      <trkpt lat="45.07785" lon="5.63474">
        <ele>764.8</ele>
        <time>2011-07-24T13:31:45Z</time>
      </trkpt>
      <trkpt lat="45.07786" lon="5.63469">
        <ele>765</ele>
        <time>2011-07-24T13:31:50Z</time>
      </trkpt>
      <trkpt lat="45.07785" lon="5.63465">
        <ele>765.6</ele>
        <time>2011-07-24T13:31:55Z</time>
      </trkpt>
      <trkpt lat="45.07784" lon="5.63463">
        <ele>766.2</ele>
        <time>2011-07-24T13:31:58Z</time>
      </trkpt>
      <trkpt lat="45.07783" lon="5.63459">
        <ele>766.8</ele>
        <time>2011-07-24T13:32:02Z</time>
      </trkpt>
      <trkpt lat="45.07785" lon="5.63455">
        <ele>767.4</ele>
        <time>2011-07-24T13:32:06Z</time>
      </trkpt>
      <trkpt lat="45.07785" lon="5.63454">
        <ele>767.6</ele>
        <time>2011-07-24T13:32:07Z</time>
      </trkpt>
      <trkpt lat="45.07785" lon="5.63449">
        <ele>768.6</ele>
        <time>2011-07-24T13:32:12Z</time>
      </trkpt>
      <trkpt lat="45.07785" lon="5.63448">
        <ele>768.8</ele>
        <time>2011-07-24T13:32:13Z</time>
      </trkpt>
      <trkpt lat="45.07785" lon="5.63445">
        <ele>769.4</ele>
        <time>2011-07-24T13:32:16Z</time>
      </trkpt>
      <trkpt lat="45.07785" lon="5.63441">
        <ele>770.4</ele>
        <time>2011-07-24T13:32:20Z</time>
      </trkpt>
      <trkpt lat="45.07787" lon="5.63438">
        <ele>771.2</ele>
        <time>2011-07-24T13:32:24Z</time>
      </trkpt>
      <trkpt lat="45.07789" lon="5.63434">
        <ele>772.2</ele>
        <time>2011-07-24T13:32:28Z</time>
      </trkpt>
      <trkpt lat="45.0779" lon="5.6343">
        <ele>772.6</ele>
        <time>2011-07-24T13:32:32Z</time>
      </trkpt>
      <trkpt lat="45.07791" lon="5.63426">
        <ele>773.4</ele>
        <time>2011-07-24T13:32:35Z</time>
      </trkpt>
      <trkpt lat="45.07792" lon="5.63424">
        <ele>773.8</ele>
        <time>2011-07-24T13:32:37Z</time>
      </trkpt>
      <trkpt lat="45.07792" lon="5.63422">
        <ele>774</ele>
        <time>2011-07-24T13:32:39Z</time>
      </trkpt>
      <trkpt lat="45.07792" lon="5.63418">
        <ele>774.6</ele>
        <time>2011-07-24T13:32:43Z</time>
      </trkpt>
      <trkpt lat="45.07795" lon="5.63415">
        <ele>775.2</ele>
        <time>2011-07-24T13:32:47Z</time>
      </trkpt>
      <trkpt lat="45.07798" lon="5.63412">
        <ele>776</ele>
        <time>2011-07-24T13:32:51Z</time>
      </trkpt>
      <trkpt lat="45.07799" lon="5.63412">
        <ele>776.2</ele>
        <time>2011-07-24T13:32:52Z</time>
      </trkpt>
      <trkpt lat="45.078" lon="5.63411">
        <ele>776.4</ele>
        <time>2011-07-24T13:32:53Z</time>
      </trkpt>
      <trkpt lat="45.07801" lon="5.63409">
        <ele>776.8</ele>
        <time>2011-07-24T13:32:55Z</time>
      </trkpt>
      <trkpt lat="45.07801" lon="5.63408">
        <ele>777</ele>
        <time>2011-07-24T13:32:56Z</time>
      </trkpt>
      <trkpt lat="45.07803" lon="5.63406">
        <ele>777.4</ele>
        <time>2011-07-24T13:32:58Z</time>
      </trkpt>
      <trkpt lat="45.07804" lon="5.63405">
        <ele>777.6</ele>
        <time>2011-07-24T13:32:59Z</time>
      </trkpt>
      <trkpt lat="45.07806" lon="5.63404">
        <ele>778.2</ele>
        <time>2011-07-24T13:33:02Z</time>
      </trkpt>
      <trkpt lat="45.07809" lon="5.63404">
        <ele>778.6</ele>
        <time>2011-07-24T13:33:04Z</time>
      </trkpt>
      <trkpt lat="45.07811" lon="5.63403">
        <ele>779</ele>
        <time>2011-07-24T13:33:07Z</time>
      </trkpt>
      <trkpt lat="45.07812" lon="5.63402">
        <ele>779.4</ele>
        <time>2011-07-24T13:33:08Z</time>
      </trkpt>
      <trkpt lat="45.07815" lon="5.634">
        <ele>780</ele>
        <time>2011-07-24T13:33:11Z</time>
      </trkpt>
      <trkpt lat="45.07815" lon="5.63398">
        <ele>781.2</ele>
        <time>2011-07-24T13:33:14Z</time>
      </trkpt>
      <trkpt lat="45.07815" lon="5.63397">
        <ele>781.4</ele>
        <time>2011-07-24T13:33:15Z</time>
      </trkpt>
      <trkpt lat="45.07817" lon="5.63391">
        <ele>782.4</ele>
        <time>2011-07-24T13:33:19Z</time>
      </trkpt>
      <trkpt lat="45.07817" lon="5.63389">
        <ele>784</ele>
        <time>2011-07-24T13:33:23Z</time>
      </trkpt>
      <trkpt lat="45.07817" lon="5.63386">
        <ele>786</ele>
        <time>2011-07-24T13:33:28Z</time>
      </trkpt>
      <trkpt lat="45.0782" lon="5.63385">
        <ele>787.4</ele>
        <time>2011-07-24T13:33:32Z</time>
      </trkpt>
      <trkpt lat="45.07822" lon="5.63386">
        <ele>789.2</ele>
        <time>2011-07-24T13:33:36Z</time>
      </trkpt>
      <trkpt lat="45.07823" lon="5.63391">
        <ele>792</ele>
        <time>2011-07-24T13:33:42Z</time>
      </trkpt>
      <trkpt lat="45.07823" lon="5.63393">
        <ele>792.8</ele>
        <time>2011-07-24T13:33:44Z</time>
      </trkpt>
      <trkpt lat="45.07824" lon="5.63394">
        <ele>793.2</ele>
        <time>2011-07-24T13:33:46Z</time>
      </trkpt>
      <trkpt lat="45.07824" lon="5.63397">
        <ele>795</ele>
        <time>2011-07-24T13:33:49Z</time>
      </trkpt>
      <trkpt lat="45.07827" lon="5.63398">
        <ele>796.6</ele>
        <time>2011-07-24T13:33:53Z</time>
      </trkpt>
      <trkpt lat="45.07827" lon="5.63402">
        <ele>797.8</ele>
        <time>2011-07-24T13:33:56Z</time>
      </trkpt>
      <trkpt lat="45.07827" lon="5.63404">
        <ele>798.2</ele>
        <time>2011-07-24T13:33:57Z</time>
      </trkpt>
      <trkpt lat="45.07827" lon="5.63408">
        <ele>799.2</ele>
        <time>2011-07-24T13:34:00Z</time>
      </trkpt>
      <trkpt lat="45.07826" lon="5.63409">
        <ele>799.6</ele>
        <time>2011-07-24T13:34:01Z</time>
      </trkpt>
      <trkpt lat="45.07825" lon="5.63415">
        <ele>801.2</ele>
        <time>2011-07-24T13:34:05Z</time>
      </trkpt>
      <trkpt lat="45.07825" lon="5.63416">
        <ele>801.2</ele>
        <time>2011-07-24T13:34:06Z</time>
      </trkpt>
      <trkpt lat="45.07824" lon="5.63419">
        <ele>802</ele>
        <time>2011-07-24T13:34:09Z</time>
      </trkpt>
      <trkpt lat="45.07825" lon="5.63424">
        <ele>803.2</ele>
        <time>2011-07-24T13:34:14Z</time>
      </trkpt>
      <trkpt lat="45.07827" lon="5.63428">
        <ele>804.2</ele>
        <time>2011-07-24T13:34:18Z</time>
      </trkpt>
      <trkpt lat="45.0783" lon="5.63428">
        <ele>805.4</ele>
        <time>2011-07-24T13:34:23Z</time>
      </trkpt>
      <trkpt lat="45.07833" lon="5.63427">
        <ele>806.2</ele>
        <time>2011-07-24T13:34:27Z</time>
      </trkpt>
      <trkpt lat="45.07836" lon="5.63428">
        <ele>806.8</ele>
        <time>2011-07-24T13:34:30Z</time>
      </trkpt>
      <trkpt lat="45.07839" lon="5.63429">
        <ele>807.4</ele>
        <time>2011-07-24T13:34:33Z</time>
      </trkpt>
      <trkpt lat="45.0784" lon="5.6343">
        <ele>807.4</ele>
        <time>2011-07-24T13:34:34Z</time>
      </trkpt>
      <trkpt lat="45.0785" lon="5.63433">
        <ele>809.6</ele>
        <time>2011-07-24T13:34:41Z</time>
      </trkpt>
      <trkpt lat="45.07854" lon="5.63434">
        <ele>810.8</ele>
        <time>2011-07-24T13:34:44Z</time>
      </trkpt>
      <trkpt lat="45.07857" lon="5.63436">
        <ele>812.4</ele>
        <time>2011-07-24T13:34:47Z</time>
      </trkpt>
      <trkpt lat="45.07858" lon="5.63437">
        <ele>813</ele>
        <time>2011-07-24T13:34:48Z</time>
      </trkpt>
      <trkpt lat="45.0786" lon="5.63438">
        <ele>813.8</ele>
        <time>2011-07-24T13:34:50Z</time>
      </trkpt>
      <trkpt lat="45.07865" lon="5.63445">
        <ele>815.6</ele>
        <time>2011-07-24T13:34:54Z</time>
      </trkpt>
      <trkpt lat="45.0787" lon="5.6345">
        <ele>816.4</ele>
        <time>2011-07-24T13:34:57Z</time>
      </trkpt>
      <trkpt lat="45.07874" lon="5.63453">
        <ele>817.2</ele>
        <time>2011-07-24T13:35:00Z</time>
      </trkpt>
      <trkpt lat="45.07876" lon="5.63457">
        <ele>818.4</ele>
        <time>2011-07-24T13:35:04Z</time>
      </trkpt>
      <trkpt lat="45.07876" lon="5.63458">
        <ele>818.6</ele>
        <time>2011-07-24T13:35:05Z</time>
      </trkpt>
      <trkpt lat="45.07877" lon="5.63461">
        <ele>819.6</ele>
        <time>2011-07-24T13:35:09Z</time>
      </trkpt>
      <trkpt lat="45.07879" lon="5.63465">
        <ele>820.8</ele>
        <time>2011-07-24T13:35:14Z</time>
      </trkpt>
      <trkpt lat="45.0788" lon="5.63469">
        <ele>821.8</ele>
        <time>2011-07-24T13:35:20Z</time>
      </trkpt>
      <trkpt lat="45.07881" lon="5.6347">
        <ele>822.2</ele>
        <time>2011-07-24T13:35:22Z</time>
      </trkpt>
      <trkpt lat="45.07882" lon="5.63471">
        <ele>822.8</ele>
        <time>2011-07-24T13:35:25Z</time>
      </trkpt>
      <trkpt lat="45.07883" lon="5.6347">
        <ele>823.6</ele>
        <time>2011-07-24T13:35:29Z</time>
      </trkpt>
      <trkpt lat="45.07884" lon="5.63466">
        <ele>824.4</ele>
        <time>2011-07-24T13:35:33Z</time>
      </trkpt>
      <trkpt lat="45.07884" lon="5.63463">
        <ele>824.8</ele>
        <time>2011-07-24T13:35:36Z</time>
      </trkpt>
      <trkpt lat="45.07886" lon="5.63458">
        <ele>825.2</ele>
        <time>2011-07-24T13:35:40Z</time>
      </trkpt>
      <trkpt lat="45.07888" lon="5.63451">
        <ele>825.2</ele>
        <time>2011-07-24T13:35:45Z</time>
      </trkpt>
      <trkpt lat="45.07888" lon="5.63449">
        <ele>825</ele>
        <time>2011-07-24T13:35:46Z</time>
      </trkpt>
      <trkpt lat="45.07888" lon="5.63441">
        <ele>825.8</ele>
        <time>2011-07-24T13:35:51Z</time>
      </trkpt>
      <trkpt lat="45.07888" lon="5.63437">
        <ele>826.2</ele>
        <time>2011-07-24T13:35:54Z</time>
      </trkpt>
      <trkpt lat="45.07887" lon="5.63434">
        <ele>826.6</ele>
        <time>2011-07-24T13:35:56Z</time>
      </trkpt>
      <trkpt lat="45.07886" lon="5.63431">
        <ele>828.8</ele>
        <time>2011-07-24T13:36:02Z</time>
      </trkpt>
      <trkpt lat="45.07883" lon="5.63428">
        <ele>830.4</ele>
        <time>2011-07-24T13:36:07Z</time>
      </trkpt>
      <trkpt lat="45.07881" lon="5.63425">
        <ele>831.8</ele>
        <time>2011-07-24T13:36:10Z</time>
      </trkpt>
      <trkpt lat="45.0788" lon="5.63421">
        <ele>832.6</ele>
        <time>2011-07-24T13:36:13Z</time>
      </trkpt>
      <trkpt lat="45.07878" lon="5.63415">
        <ele>833.6</ele>
        <time>2011-07-24T13:36:17Z</time>
      </trkpt>
      <trkpt lat="45.07876" lon="5.63411">
        <ele>835</ele>
        <time>2011-07-24T13:36:21Z</time>
      </trkpt>
      <trkpt lat="45.07876" lon="5.6341">
        <ele>835.2</ele>
        <time>2011-07-24T13:36:22Z</time>
      </trkpt>
      <trkpt lat="45.07875" lon="5.63407">
        <ele>835.6</ele>
        <time>2011-07-24T13:36:24Z</time>
      </trkpt>
      <trkpt lat="45.07875" lon="5.63402">
        <ele>836.2</ele>
        <time>2011-07-24T13:36:27Z</time>
      </trkpt>
      <trkpt lat="45.07875" lon="5.634">
        <ele>836.4</ele>
        <time>2011-07-24T13:36:28Z</time>
      </trkpt>
      <trkpt lat="45.07875" lon="5.63398">
        <ele>837</ele>
        <time>2011-07-24T13:36:30Z</time>
      </trkpt>
      <trkpt lat="45.07874" lon="5.63394">
        <ele>837.8</ele>
        <time>2011-07-24T13:36:33Z</time>
      </trkpt>
      <trkpt lat="45.07874" lon="5.63389">
        <ele>838.8</ele>
        <time>2011-07-24T13:36:37Z</time>
      </trkpt>
      <trkpt lat="45.07873" lon="5.63383">
        <ele>839.8</ele>
        <time>2011-07-24T13:36:42Z</time>
      </trkpt>
      <trkpt lat="45.07873" lon="5.63382">
        <ele>840</ele>
        <time>2011-07-24T13:36:43Z</time>
      </trkpt>
      <trkpt lat="45.07873" lon="5.6338">
        <ele>840.2</ele>
        <time>2011-07-24T13:36:45Z</time>
      </trkpt>
      <trkpt lat="45.07873" lon="5.63378">
        <ele>840.6</ele>
        <time>2011-07-24T13:36:47Z</time>
      </trkpt>
      <trkpt lat="45.07873" lon="5.63375">
        <ele>841</ele>
        <time>2011-07-24T13:36:50Z</time>
      </trkpt>
      <trkpt lat="45.07873" lon="5.63374">
        <ele>841.2</ele>
        <time>2011-07-24T13:36:51Z</time>
      </trkpt>
      <trkpt lat="45.07872" lon="5.63369">
        <ele>842</ele>
        <time>2011-07-24T13:36:56Z</time>
      </trkpt>
      <trkpt lat="45.07873" lon="5.63365">
        <ele>842.6</ele>
        <time>2011-07-24T13:37:00Z</time>
      </trkpt>
      <trkpt lat="45.07874" lon="5.63362">
        <ele>843.2</ele>
        <time>2011-07-24T13:37:04Z</time>
      </trkpt>
      <trkpt lat="45.07874" lon="5.63358">
        <ele>844</ele>
        <time>2011-07-24T13:37:08Z</time>
      </trkpt>
      <trkpt lat="45.07875" lon="5.63354">
        <ele>844.8</ele>
        <time>2011-07-24T13:37:13Z</time>
      </trkpt>
      <trkpt lat="45.07874" lon="5.63351">
        <ele>845.8</ele>
        <time>2011-07-24T13:37:17Z</time>
      </trkpt>
      <trkpt lat="45.07873" lon="5.6335">
        <ele>846</ele>
        <time>2011-07-24T13:37:18Z</time>
      </trkpt>
      <trkpt lat="45.07872" lon="5.63347">
        <ele>846.8</ele>
        <time>2011-07-24T13:37:21Z</time>
      </trkpt>
      <trkpt lat="45.07868" lon="5.63336">
        <ele>848</ele>
        <time>2011-07-24T13:37:27Z</time>
      </trkpt>
      <trkpt lat="45.07864" lon="5.63327">
        <ele>848.6</ele>
        <time>2011-07-24T13:37:30Z</time>
      </trkpt>
      <trkpt lat="45.07862" lon="5.63315">
        <ele>849.2</ele>
        <time>2011-07-24T13:37:34Z</time>
      </trkpt>
      <trkpt lat="45.07859" lon="5.63303">
        <ele>850</ele>
        <time>2011-07-24T13:37:38Z</time>
      </trkpt>
      <trkpt lat="45.07858" lon="5.63299">
        <ele>850.2</ele>
        <time>2011-07-24T13:37:39Z</time>
      </trkpt>
      <trkpt lat="45.07859" lon="5.63294">
        <ele>850.4</ele>
        <time>2011-07-24T13:37:41Z</time>
      </trkpt>
      <trkpt lat="45.07858" lon="5.6329">
        <ele>850.8</ele>
        <time>2011-07-24T13:37:43Z</time>
      </trkpt>
      <trkpt lat="45.07853" lon="5.63281">
        <ele>851.8</ele>
        <time>2011-07-24T13:37:49Z</time>
      </trkpt>
      <trkpt lat="45.07852" lon="5.6328">
        <ele>852.2</ele>
        <time>2011-07-24T13:37:50Z</time>
      </trkpt>
      <trkpt lat="45.07849" lon="5.63277">
        <ele>853.4</ele>
        <time>2011-07-24T13:37:54Z</time>
      </trkpt>
      <trkpt lat="45.07849" lon="5.63276">
        <ele>853.8</ele>
        <time>2011-07-24T13:37:55Z</time>
      </trkpt>
      <trkpt lat="45.07847" lon="5.63271">
        <ele>855</ele>
        <time>2011-07-24T13:37:59Z</time>
      </trkpt>
      <trkpt lat="45.07846" lon="5.63267">
        <ele>855.8</ele>
        <time>2011-07-24T13:38:02Z</time>
      </trkpt>
      <trkpt lat="45.07846" lon="5.63266">
        <ele>856</ele>
        <time>2011-07-24T13:38:03Z</time>
      </trkpt>
      <trkpt lat="45.07846" lon="5.63263">
        <ele>856.6</ele>
        <time>2011-07-24T13:38:05Z</time>
      </trkpt>
      <trkpt lat="45.07845" lon="5.6326">
        <ele>857.6</ele>
        <time>2011-07-24T13:38:08Z</time>
      </trkpt>
      <trkpt lat="45.07845" lon="5.63257">
        <ele>858</ele>
        <time>2011-07-24T13:38:10Z</time>
      </trkpt>
      <trkpt lat="45.07845" lon="5.63253">
        <ele>858.8</ele>
        <time>2011-07-24T13:38:13Z</time>
      </trkpt>
      <trkpt lat="45.07845" lon="5.63244">
        <ele>859.6</ele>
        <time>2011-07-24T13:38:18Z</time>
      </trkpt>
      <trkpt lat="45.07844" lon="5.63242">
        <ele>859.8</ele>
        <time>2011-07-24T13:38:19Z</time>
      </trkpt>
      <trkpt lat="45.07844" lon="5.63239">
        <ele>860.2</ele>
        <time>2011-07-24T13:38:21Z</time>
      </trkpt>
      <trkpt lat="45.07844" lon="5.63236">
        <ele>861</ele>
        <time>2011-07-24T13:38:24Z</time>
      </trkpt>
      <trkpt lat="45.07844" lon="5.63234">
        <ele>861.2</ele>
        <time>2011-07-24T13:38:25Z</time>
      </trkpt>
      <trkpt lat="45.07845" lon="5.63231">
        <ele>861.4</ele>
        <time>2011-07-24T13:38:28Z</time>
      </trkpt>
      <trkpt lat="45.07846" lon="5.63228">
        <ele>861.6</ele>
        <time>2011-07-24T13:38:30Z</time>
      </trkpt>
      <trkpt lat="45.07846" lon="5.63224">
        <ele>861.8</ele>
        <time>2011-07-24T13:38:33Z</time>
      </trkpt>
      <trkpt lat="45.07845" lon="5.63222">
        <ele>862.4</ele>
        <time>2011-07-24T13:38:35Z</time>
      </trkpt>
      <trkpt lat="45.07847" lon="5.63215">
        <ele>863</ele>
        <time>2011-07-24T13:38:40Z</time>
      </trkpt>
      <trkpt lat="45.07848" lon="5.63208">
        <ele>864.2</ele>
        <time>2011-07-24T13:38:45Z</time>
      </trkpt>
      <trkpt lat="45.07847" lon="5.63207">
        <ele>864.4</ele>
        <time>2011-07-24T13:38:46Z</time>
      </trkpt>
      <trkpt lat="45.07848" lon="5.63206">
        <ele>864.6</ele>
        <time>2011-07-24T13:38:47Z</time>
      </trkpt>
      <trkpt lat="45.07848" lon="5.63205">
        <ele>865</ele>
        <time>2011-07-24T13:38:48Z</time>
      </trkpt>
      <trkpt lat="45.07848" lon="5.63204">
        <ele>865.2</ele>
        <time>2011-07-24T13:38:49Z</time>
      </trkpt>
      <trkpt lat="45.07848" lon="5.63203">
        <ele>865.6</ele>
        <time>2011-07-24T13:38:50Z</time>
      </trkpt>
      <trkpt lat="45.07849" lon="5.63199">
        <ele>866.2</ele>
        <time>2011-07-24T13:38:53Z</time>
      </trkpt>
      <trkpt lat="45.0785" lon="5.63195">
        <ele>867.4</ele>
        <time>2011-07-24T13:38:57Z</time>
      </trkpt>
      <trkpt lat="45.07851" lon="5.63191">
        <ele>868.6</ele>
        <time>2011-07-24T13:39:02Z</time>
      </trkpt>
      <trkpt lat="45.07852" lon="5.63187">
        <ele>869.8</ele>
        <time>2011-07-24T13:39:06Z</time>
      </trkpt>
      <trkpt lat="45.07852" lon="5.63182">
        <ele>870.6</ele>
        <time>2011-07-24T13:39:10Z</time>
      </trkpt>
      <trkpt lat="45.07851" lon="5.63182">
        <ele>870.8</ele>
        <time>2011-07-24T13:39:11Z</time>
      </trkpt>
      <trkpt lat="45.0785" lon="5.63178">
        <ele>872</ele>
        <time>2011-07-24T13:39:15Z</time>
      </trkpt>
      <trkpt lat="45.07852" lon="5.63174">
        <ele>872.6</ele>
        <time>2011-07-24T13:39:19Z</time>
      </trkpt>
      <trkpt lat="45.0785" lon="5.63171">
        <ele>873.6</ele>
        <time>2011-07-24T13:39:23Z</time>
      </trkpt>
      <trkpt lat="45.0785" lon="5.63166">
        <ele>874.2</ele>
        <time>2011-07-24T13:39:27Z</time>
      </trkpt>
      <trkpt lat="45.0785" lon="5.63162">
        <ele>875</ele>
        <time>2011-07-24T13:39:31Z</time>
      </trkpt>
      <trkpt lat="45.0785" lon="5.6316">
        <ele>875.6</ele>
        <time>2011-07-24T13:39:33Z</time>
      </trkpt>
      <trkpt lat="45.0785" lon="5.63158">
        <ele>876</ele>
        <time>2011-07-24T13:39:35Z</time>
      </trkpt>
      <trkpt lat="45.07849" lon="5.63154">
        <ele>877.2</ele>
        <time>2011-07-24T13:39:39Z</time>
      </trkpt>
      <trkpt lat="45.07848" lon="5.63146">
        <ele>878</ele>
        <time>2011-07-24T13:39:45Z</time>
      </trkpt>
      <trkpt lat="45.07848" lon="5.63142">
        <ele>878.4</ele>
        <time>2011-07-24T13:39:48Z</time>
      </trkpt>
      <trkpt lat="45.07848" lon="5.6314">
        <ele>878.8</ele>
        <time>2011-07-24T13:39:50Z</time>
      </trkpt>
      <trkpt lat="45.07847" lon="5.63138">
        <ele>879.2</ele>
        <time>2011-07-24T13:39:52Z</time>
      </trkpt>
      <trkpt lat="45.07846" lon="5.63136">
        <ele>879.6</ele>
        <time>2011-07-24T13:39:54Z</time>
      </trkpt>
      <trkpt lat="45.07846" lon="5.63134">
        <ele>880</ele>
        <time>2011-07-24T13:39:56Z</time>
      </trkpt>
      <trkpt lat="45.07847" lon="5.63133">
        <ele>880.2</ele>
        <time>2011-07-24T13:39:57Z</time>
      </trkpt>
      <trkpt lat="45.07846" lon="5.63129">
        <ele>880.8</ele>
        <time>2011-07-24T13:40:00Z</time>
      </trkpt>
      <trkpt lat="45.07846" lon="5.63128">
        <ele>881.2</ele>
        <time>2011-07-24T13:40:01Z</time>
      </trkpt>
      <trkpt lat="45.07846" lon="5.63127">
        <ele>881.4</ele>
        <time>2011-07-24T13:40:02Z</time>
      </trkpt>
      <trkpt lat="45.07845" lon="5.63124">
        <ele>882</ele>
        <time>2011-07-24T13:40:04Z</time>
      </trkpt>
      <trkpt lat="45.07846" lon="5.63123">
        <ele>882.2</ele>
        <time>2011-07-24T13:40:05Z</time>
      </trkpt>
      <trkpt lat="45.07847" lon="5.63119">
        <ele>882.8</ele>
        <time>2011-07-24T13:40:08Z</time>
      </trkpt>
      <trkpt lat="45.07847" lon="5.63115">
        <ele>883.6</ele>
        <time>2011-07-24T13:40:12Z</time>
      </trkpt>
      <trkpt lat="45.07846" lon="5.63111">
        <ele>884.6</ele>
        <time>2011-07-24T13:40:16Z</time>
      </trkpt>
      <trkpt lat="45.07847" lon="5.63109">
        <ele>884.8</ele>
        <time>2011-07-24T13:40:17Z</time>
      </trkpt>
      <trkpt lat="45.07846" lon="5.63108">
        <ele>885.4</ele>
        <time>2011-07-24T13:40:19Z</time>
      </trkpt>
      <trkpt lat="45.07846" lon="5.63105">
        <ele>886</ele>
        <time>2011-07-24T13:40:21Z</time>
      </trkpt>
      <trkpt lat="45.07846" lon="5.63101">
        <ele>886.8</ele>
        <time>2011-07-24T13:40:25Z</time>
      </trkpt>
      <trkpt lat="45.07847" lon="5.63098">
        <ele>887.8</ele>
        <time>2011-07-24T13:40:29Z</time>
      </trkpt>
      <trkpt lat="45.07846" lon="5.63093">
        <ele>889</ele>
        <time>2011-07-24T13:40:33Z</time>
      </trkpt>
      <trkpt lat="45.07844" lon="5.6309">
        <ele>890.6</ele>
        <time>2011-07-24T13:40:37Z</time>
      </trkpt>
      <trkpt lat="45.07843" lon="5.63082">
        <ele>892.2</ele>
        <time>2011-07-24T13:40:42Z</time>
      </trkpt>
      <trkpt lat="45.07841" lon="5.63078">
        <ele>893.2</ele>
        <time>2011-07-24T13:40:45Z</time>
      </trkpt>
      <trkpt lat="45.07839" lon="5.63075">
        <ele>894.2</ele>
        <time>2011-07-24T13:40:47Z</time>
      </trkpt>
      <trkpt lat="45.07837" lon="5.63072">
        <ele>895.4</ele>
        <time>2011-07-24T13:40:50Z</time>
      </trkpt>
      <trkpt lat="45.07836" lon="5.63071">
        <ele>896</ele>
        <time>2011-07-24T13:40:51Z</time>
      </trkpt>
      <trkpt lat="45.07832" lon="5.63064">
        <ele>898.2</ele>
        <time>2011-07-24T13:40:57Z</time>
      </trkpt>
      <trkpt lat="45.07832" lon="5.63063">
        <ele>898.6</ele>
        <time>2011-07-24T13:40:58Z</time>
      </trkpt>
      <trkpt lat="45.07831" lon="5.63062">
        <ele>898.8</ele>
        <time>2011-07-24T13:40:59Z</time>
      </trkpt>
      <trkpt lat="45.0783" lon="5.63058">
        <ele>899.8</ele>
        <time>2011-07-24T13:41:02Z</time>
      </trkpt>
      <trkpt lat="45.07829" lon="5.63053">
        <ele>900.8</ele>
        <time>2011-07-24T13:41:05Z</time>
      </trkpt>
      <trkpt lat="45.07827" lon="5.6305">
        <ele>901.8</ele>
        <time>2011-07-24T13:41:08Z</time>
      </trkpt>
      <trkpt lat="45.07825" lon="5.63049">
        <ele>902.6</ele>
        <time>2011-07-24T13:41:10Z</time>
      </trkpt>
      <trkpt lat="45.07823" lon="5.63047">
        <ele>903.2</ele>
        <time>2011-07-24T13:41:12Z</time>
      </trkpt>
      <trkpt lat="45.07819" lon="5.63043">
        <ele>904.8</ele>
        <time>2011-07-24T13:41:16Z</time>
      </trkpt>
      <trkpt lat="45.07819" lon="5.63041">
        <ele>904.6</ele>
        <time>2011-07-24T13:41:17Z</time>
      </trkpt>
      <trkpt lat="45.07819" lon="5.63039">
        <ele>905</ele>
        <time>2011-07-24T13:41:18Z</time>
      </trkpt>
      <trkpt lat="45.07817" lon="5.63035">
        <ele>905.8</ele>
        <time>2011-07-24T13:41:21Z</time>
      </trkpt>
      <trkpt lat="45.07815" lon="5.63032">
        <ele>906.6</ele>
        <time>2011-07-24T13:41:24Z</time>
      </trkpt>
      <trkpt lat="45.07813" lon="5.63028">
        <ele>908</ele>
        <time>2011-07-24T13:41:28Z</time>
      </trkpt>
      <trkpt lat="45.07813" lon="5.63027">
        <ele>908.4</ele>
        <time>2011-07-24T13:41:29Z</time>
      </trkpt>
      <trkpt lat="45.07811" lon="5.63019">
        <ele>909.4</ele>
        <time>2011-07-24T13:41:34Z</time>
      </trkpt>
      <trkpt lat="45.07811" lon="5.63017">
        <ele>909.6</ele>
        <time>2011-07-24T13:41:35Z</time>
      </trkpt>
      <trkpt lat="45.0781" lon="5.63014">
        <ele>910</ele>
        <time>2011-07-24T13:41:37Z</time>
      </trkpt>
      <trkpt lat="45.07808" lon="5.63009">
        <ele>910.6</ele>
        <time>2011-07-24T13:41:41Z</time>
      </trkpt>
      <trkpt lat="45.07802" lon="5.62999">
        <ele>912</ele>
        <time>2011-07-24T13:41:46Z</time>
      </trkpt>
      <trkpt lat="45.07801" lon="5.62997">
        <ele>912.4</ele>
        <time>2011-07-24T13:41:47Z</time>
      </trkpt>
      <trkpt lat="45.07791" lon="5.62984">
        <ele>915</ele>
        <time>2011-07-24T13:41:53Z</time>
      </trkpt>
      <trkpt lat="45.07788" lon="5.62977">
        <ele>916</ele>
        <time>2011-07-24T13:41:56Z</time>
      </trkpt>
      <trkpt lat="45.07783" lon="5.62971">
        <ele>917.4</ele>
        <time>2011-07-24T13:41:59Z</time>
      </trkpt>
      <trkpt lat="45.07778" lon="5.62957">
        <ele>919.4</ele>
        <time>2011-07-24T13:42:04Z</time>
      </trkpt>
      <trkpt lat="45.07777" lon="5.62954">
        <ele>919.8</ele>
        <time>2011-07-24T13:42:05Z</time>
      </trkpt>
      <trkpt lat="45.07773" lon="5.62941">
        <ele>923</ele>
        <time>2011-07-24T13:42:11Z</time>
      </trkpt>
      <trkpt lat="45.07768" lon="5.62935">
        <ele>925.6</ele>
        <time>2011-07-24T13:42:15Z</time>
      </trkpt>
      <trkpt lat="45.07766" lon="5.62932">
        <ele>927.2</ele>
        <time>2011-07-24T13:42:17Z</time>
      </trkpt>
      <trkpt lat="45.07763" lon="5.6292">
        <ele>930.2</ele>
        <time>2011-07-24T13:42:22Z</time>
      </trkpt>
      <trkpt lat="45.07761" lon="5.6291">
        <ele>931.8</ele>
        <time>2011-07-24T13:42:25Z</time>
      </trkpt>
      <trkpt lat="45.0776" lon="5.62905">
        <ele>932.8</ele>
        <time>2011-07-24T13:42:27Z</time>
      </trkpt>
      <trkpt lat="45.07757" lon="5.62891">
        <ele>935.4</ele>
        <time>2011-07-24T13:42:32Z</time>
      </trkpt>
      <trkpt lat="45.07755" lon="5.62885">
        <ele>936</ele>
        <time>2011-07-24T13:42:34Z</time>
      </trkpt>
      <trkpt lat="45.07749" lon="5.62877">
        <ele>937.8</ele>
        <time>2011-07-24T13:42:38Z</time>
      </trkpt>
      <trkpt lat="45.07748" lon="5.62868">
        <ele>937.2</ele>
        <time>2011-07-24T13:42:40Z</time>
      </trkpt>
      <trkpt lat="45.0775" lon="5.62861">
        <ele>936.6</ele>
        <time>2011-07-24T13:42:41Z</time>
      </trkpt>
      <trkpt lat="45.07751" lon="5.62856">
        <ele>936.4</ele>
        <time>2011-07-24T13:42:42Z</time>
      </trkpt>
      <trkpt lat="45.0775" lon="5.62849">
        <ele>936.2</ele>
        <time>2011-07-24T13:42:44Z</time>
      </trkpt>
      <trkpt lat="45.07747" lon="5.62838">
        <ele>936</ele>
        <time>2011-07-24T13:42:47Z</time>
      </trkpt>
      <trkpt lat="45.07746" lon="5.62834">
        <ele>935.8</ele>
        <time>2011-07-24T13:42:48Z</time>
      </trkpt>
      <trkpt lat="45.07741" lon="5.62822">
        <ele>934.8</ele>
        <time>2011-07-24T13:42:52Z</time>
      </trkpt>
      <trkpt lat="45.07735" lon="5.62813">
        <ele>934.4</ele>
        <time>2011-07-24T13:42:55Z</time>
      </trkpt>
      <trkpt lat="45.07733" lon="5.62808">
        <ele>934.2</ele>
        <time>2011-07-24T13:42:57Z</time>
      </trkpt>
      <trkpt lat="45.0773" lon="5.62799">
        <ele>933.4</ele>
        <time>2011-07-24T13:43:01Z</time>
      </trkpt>
      <trkpt lat="45.0773" lon="5.62798">
        <ele>933.2</ele>
        <time>2011-07-24T13:43:02Z</time>
      </trkpt>
      <trkpt lat="45.07728" lon="5.62792">
        <ele>932.6</ele>
        <time>2011-07-24T13:43:06Z</time>
      </trkpt>
      <trkpt lat="45.07727" lon="5.62791">
        <ele>932.6</ele>
        <time>2011-07-24T13:43:07Z</time>
      </trkpt>
      <trkpt lat="45.07726" lon="5.62789">
        <ele>932.4</ele>
        <time>2011-07-24T13:43:08Z</time>
      </trkpt>
      <trkpt lat="45.07724" lon="5.62783">
        <ele>932</ele>
        <time>2011-07-24T13:43:12Z</time>
      </trkpt>
      <trkpt lat="45.07723" lon="5.62782">
        <ele>931.8</ele>
        <time>2011-07-24T13:43:13Z</time>
      </trkpt>
      <trkpt lat="45.07723" lon="5.6278">
        <ele>931.8</ele>
        <time>2011-07-24T13:43:15Z</time>
      </trkpt>
      <trkpt lat="45.07723" lon="5.62776">
        <ele>931.4</ele>
        <time>2011-07-24T13:43:18Z</time>
      </trkpt>
      <trkpt lat="45.07723" lon="5.62773">
        <ele>931.4</ele>
        <time>2011-07-24T13:43:20Z</time>
      </trkpt>
      <trkpt lat="45.07723" lon="5.62769">
        <ele>931.2</ele>
        <time>2011-07-24T13:43:23Z</time>
      </trkpt>
      <trkpt lat="45.07723" lon="5.62768">
        <ele>931</ele>
        <time>2011-07-24T13:43:24Z</time>
      </trkpt>
      <trkpt lat="45.07722" lon="5.62765">
        <ele>931</ele>
        <time>2011-07-24T13:43:27Z</time>
      </trkpt>
      <trkpt lat="45.07722" lon="5.6276">
        <ele>930.8</ele>
        <time>2011-07-24T13:43:30Z</time>
      </trkpt>
      <trkpt lat="45.07721" lon="5.62758">
        <ele>930.8</ele>
        <time>2011-07-24T13:43:32Z</time>
      </trkpt>
      <trkpt lat="45.07721" lon="5.62756">
        <ele>930.6</ele>
        <time>2011-07-24T13:43:33Z</time>
      </trkpt>
      <trkpt lat="45.07722" lon="5.62751">
        <ele>930.4</ele>
        <time>2011-07-24T13:43:37Z</time>
      </trkpt>
      <trkpt lat="45.07722" lon="5.62749">
        <ele>930.4</ele>
        <time>2011-07-24T13:43:39Z</time>
      </trkpt>
      <trkpt lat="45.07722" lon="5.62744">
        <ele>930.2</ele>
        <time>2011-07-24T13:43:41Z</time>
      </trkpt>
      <trkpt lat="45.07722" lon="5.62742">
        <ele>930.2</ele>
        <time>2011-07-24T13:43:43Z</time>
      </trkpt>
      <trkpt lat="45.07722" lon="5.6274">
        <ele>930.2</ele>
        <time>2011-07-24T13:43:45Z</time>
      </trkpt>
      <trkpt lat="45.07722" lon="5.62739">
        <ele>930.2</ele>
        <time>2011-07-24T13:43:46Z</time>
      </trkpt>
      <trkpt lat="45.07722" lon="5.62734">
        <ele>930</ele>
        <time>2011-07-24T13:43:49Z</time>
      </trkpt>
      <trkpt lat="45.07722" lon="5.6273">
        <ele>930</ele>
        <time>2011-07-24T13:43:54Z</time>
      </trkpt>
      <trkpt lat="45.07721" lon="5.62728">
        <ele>930.2</ele>
        <time>2011-07-24T13:43:56Z</time>
      </trkpt>
      <trkpt lat="45.0772" lon="5.62726">
        <ele>930.6</ele>
        <time>2011-07-24T13:43:58Z</time>
      </trkpt>
      <trkpt lat="45.0772" lon="5.62724">
        <ele>931</ele>
        <time>2011-07-24T13:44:00Z</time>
      </trkpt>
      <trkpt lat="45.0772" lon="5.62721">
        <ele>931.2</ele>
        <time>2011-07-24T13:44:02Z</time>
      </trkpt>
      <trkpt lat="45.0772" lon="5.62715">
        <ele>932</ele>
        <time>2011-07-24T13:44:07Z</time>
      </trkpt>
      <trkpt lat="45.0772" lon="5.62711">
        <ele>932</ele>
        <time>2011-07-24T13:44:10Z</time>
      </trkpt>
      <trkpt lat="45.0772" lon="5.62711">
        <ele>932.4</ele>
        <time>2011-07-24T13:44:11Z</time>
      </trkpt>
      <trkpt lat="45.07719" lon="5.62709">
        <ele>932.8</ele>
        <time>2011-07-24T13:44:13Z</time>
      </trkpt>
      <trkpt lat="45.07719" lon="5.62707">
        <ele>933.2</ele>
        <time>2011-07-24T13:44:15Z</time>
      </trkpt>
      <trkpt lat="45.07719" lon="5.627">
        <ele>933.8</ele>
        <time>2011-07-24T13:44:20Z</time>
      </trkpt>
      <trkpt lat="45.0772" lon="5.62693">
        <ele>934.6</ele>
        <time>2011-07-24T13:44:25Z</time>
      </trkpt>
      <trkpt lat="45.07717" lon="5.62687">
        <ele>936.2</ele>
        <time>2011-07-24T13:44:30Z</time>
      </trkpt>
      <trkpt lat="45.07716" lon="5.62683">
        <ele>937.6</ele>
        <time>2011-07-24T13:44:33Z</time>
      </trkpt>
      <trkpt lat="45.07717" lon="5.6268">
        <ele>938</ele>
        <time>2011-07-24T13:44:35Z</time>
      </trkpt>
      <trkpt lat="45.07718" lon="5.62672">
        <ele>938.6</ele>
        <time>2011-07-24T13:44:39Z</time>
      </trkpt>
      <trkpt lat="45.07718" lon="5.6267">
        <ele>939.2</ele>
        <time>2011-07-24T13:44:41Z</time>
      </trkpt>
      <trkpt lat="45.07717" lon="5.62668">
        <ele>940</ele>
        <time>2011-07-24T13:44:43Z</time>
      </trkpt>
      <trkpt lat="45.07718" lon="5.62661">
        <ele>941</ele>
        <time>2011-07-24T13:44:48Z</time>
      </trkpt>
      <trkpt lat="45.07717" lon="5.62651">
        <ele>941.8</ele>
        <time>2011-07-24T13:44:52Z</time>
      </trkpt>
      <trkpt lat="45.07717" lon="5.62649">
        <ele>942</ele>
        <time>2011-07-24T13:44:53Z</time>
      </trkpt>
      <trkpt lat="45.07721" lon="5.62637">
        <ele>941.6</ele>
        <time>2011-07-24T13:44:59Z</time>
      </trkpt>
      <trkpt lat="45.07721" lon="5.62636">
        <ele>941.6</ele>
        <time>2011-07-24T13:45:00Z</time>
      </trkpt>
      <trkpt lat="45.07722" lon="5.62632">
        <ele>941.6</ele>
        <time>2011-07-24T13:45:02Z</time>
      </trkpt>
      <trkpt lat="45.07722" lon="5.62627">
        <ele>941.4</ele>
        <time>2011-07-24T13:45:05Z</time>
      </trkpt>
      <trkpt lat="45.07722" lon="5.6262">
        <ele>941.8</ele>
        <time>2011-07-24T13:45:09Z</time>
      </trkpt>
      <trkpt lat="45.07722" lon="5.62618">
        <ele>942</ele>
        <time>2011-07-24T13:45:10Z</time>
      </trkpt>
      <trkpt lat="45.07722" lon="5.62616">
        <ele>942.2</ele>
        <time>2011-07-24T13:45:11Z</time>
      </trkpt>
      <trkpt lat="45.07724" lon="5.6261">
        <ele>942.4</ele>
        <time>2011-07-24T13:45:15Z</time>
      </trkpt>
      <trkpt lat="45.07723" lon="5.62607">
        <ele>944.2</ele>
        <time>2011-07-24T13:45:19Z</time>
      </trkpt>
      <trkpt lat="45.07723" lon="5.62601">
        <ele>945.8</ele>
        <time>2011-07-24T13:45:24Z</time>
      </trkpt>
      <trkpt lat="45.07723" lon="5.62595">
        <ele>947</ele>
        <time>2011-07-24T13:45:29Z</time>
      </trkpt>
      <trkpt lat="45.07726" lon="5.62588">
        <ele>948.4</ele>
        <time>2011-07-24T13:45:35Z</time>
      </trkpt>
      <trkpt lat="45.07726" lon="5.62587">
        <ele>948.6</ele>
        <time>2011-07-24T13:45:36Z</time>
      </trkpt>
      <trkpt lat="45.07725" lon="5.62584">
        <ele>949.4</ele>
        <time>2011-07-24T13:45:39Z</time>
      </trkpt>
      <trkpt lat="45.07725" lon="5.62583">
        <ele>949.6</ele>
        <time>2011-07-24T13:45:40Z</time>
      </trkpt>
      <trkpt lat="45.07723" lon="5.62578">
        <ele>951.2</ele>
        <time>2011-07-24T13:45:46Z</time>
      </trkpt>
      <trkpt lat="45.07723" lon="5.62572">
        <ele>951.6</ele>
        <time>2011-07-24T13:45:50Z</time>
      </trkpt>
      <trkpt lat="45.07723" lon="5.62568">
        <ele>952</ele>
        <time>2011-07-24T13:45:52Z</time>
      </trkpt>
      <trkpt lat="45.07723" lon="5.62565">
        <ele>952.2</ele>
        <time>2011-07-24T13:45:54Z</time>
      </trkpt>
      <trkpt lat="45.07724" lon="5.6256">
        <ele>952.6</ele>
        <time>2011-07-24T13:45:57Z</time>
      </trkpt>
      <trkpt lat="45.07723" lon="5.62559">
        <ele>952.8</ele>
        <time>2011-07-24T13:45:58Z</time>
      </trkpt>
      <trkpt lat="45.07722" lon="5.62556">
        <ele>953.6</ele>
        <time>2011-07-24T13:46:02Z</time>
      </trkpt>
      <trkpt lat="45.07722" lon="5.62549">
        <ele>953.6</ele>
        <time>2011-07-24T13:46:06Z</time>
      </trkpt>
      <trkpt lat="45.07721" lon="5.62542">
        <ele>954.4</ele>
        <time>2011-07-24T13:46:11Z</time>
      </trkpt>
      <trkpt lat="45.0772" lon="5.62539">
        <ele>955</ele>
        <time>2011-07-24T13:46:14Z</time>
      </trkpt>
      <trkpt lat="45.07719" lon="5.62537">
        <ele>955.2</ele>
        <time>2011-07-24T13:46:15Z</time>
      </trkpt>
      <trkpt lat="45.07718" lon="5.62533">
        <ele>956.2</ele>
        <time>2011-07-24T13:46:18Z</time>
      </trkpt>
      <trkpt lat="45.07718" lon="5.62532">
        <ele>956.4</ele>
        <time>2011-07-24T13:46:19Z</time>
      </trkpt>
      <trkpt lat="45.07718" lon="5.62531">
        <ele>956.8</ele>
        <time>2011-07-24T13:46:20Z</time>
      </trkpt>
      <trkpt lat="45.07716" lon="5.62526">
        <ele>958.6</ele>
        <time>2011-07-24T13:46:24Z</time>
      </trkpt>
      <trkpt lat="45.07715" lon="5.62522">
        <ele>960.8</ele>
        <time>2011-07-24T13:46:28Z</time>
      </trkpt>
      <trkpt lat="45.07713" lon="5.62519">
        <ele>962.6</ele>
        <time>2011-07-24T13:46:31Z</time>
      </trkpt>
      <trkpt lat="45.07713" lon="5.62517">
        <ele>964</ele>
        <time>2011-07-24T13:46:33Z</time>
      </trkpt>
      <trkpt lat="45.07713" lon="5.62515">
        <ele>965.4</ele>
        <time>2011-07-24T13:46:35Z</time>
      </trkpt>
      <trkpt lat="45.07713" lon="5.62512">
        <ele>966.8</ele>
        <time>2011-07-24T13:46:37Z</time>
      </trkpt>
      <trkpt lat="45.07714" lon="5.62509">
        <ele>968.8</ele>
        <time>2011-07-24T13:46:40Z</time>
      </trkpt>
      <trkpt lat="45.07714" lon="5.62507">
        <ele>969.4</ele>
        <time>2011-07-24T13:46:41Z</time>
      </trkpt>
      <trkpt lat="45.07714" lon="5.62506">
        <ele>970</ele>
        <time>2011-07-24T13:46:42Z</time>
      </trkpt>
      <trkpt lat="45.07714" lon="5.62504">
        <ele>972.4</ele>
        <time>2011-07-24T13:46:45Z</time>
      </trkpt>
      <trkpt lat="45.07718" lon="5.62486">
        <ele>985.6</ele>
        <time>2011-07-24T13:47:20Z</time>
      </trkpt>
      <trkpt lat="45.07718" lon="5.62483">
        <ele>986.2</ele>
        <time>2011-07-24T13:47:42Z</time>
      </trkpt>
      <trkpt lat="45.07718" lon="5.6248">
        <ele>986.2</ele>
        <time>2011-07-24T13:47:44Z</time>
      </trkpt>
      <trkpt lat="45.07717" lon="5.62478">
        <ele>986.4</ele>
        <time>2011-07-24T13:47:45Z</time>
      </trkpt>
      <trkpt lat="45.07717" lon="5.62474">
        <ele>986.4</ele>
        <time>2011-07-24T13:47:48Z</time>
      </trkpt>
      <trkpt lat="45.07717" lon="5.62473">
        <ele>986.8</ele>
        <time>2011-07-24T13:47:49Z</time>
      </trkpt>
      <trkpt lat="45.0772" lon="5.62468">
        <ele>986.4</ele>
        <time>2011-07-24T13:47:53Z</time>
      </trkpt>
      <trkpt lat="45.07721" lon="5.62467">
        <ele>986.4</ele>
        <time>2011-07-24T13:47:54Z</time>
      </trkpt>
      <trkpt lat="45.07723" lon="5.62464">
        <ele>986.4</ele>
        <time>2011-07-24T13:47:57Z</time>
      </trkpt>
      <trkpt lat="45.07723" lon="5.62463">
        <ele>986.8</ele>
        <time>2011-07-24T13:48:00Z</time>
      </trkpt>
      <trkpt lat="45.07725" lon="5.62457">
        <ele>987.6</ele>
        <time>2011-07-24T13:48:15Z</time>
      </trkpt>
      <trkpt lat="45.0773" lon="5.62447">
        <ele>990.8</ele>
        <time>2011-07-24T13:48:31Z</time>
      </trkpt>
      <trkpt lat="45.07732" lon="5.62444">
        <ele>990.6</ele>
        <time>2011-07-24T13:48:34Z</time>
      </trkpt>
      <trkpt lat="45.07736" lon="5.62444">
        <ele>990.6</ele>
        <time>2011-07-24T13:48:38Z</time>
      </trkpt>
      <trkpt lat="45.07739" lon="5.62442">
        <ele>990.2</ele>
        <time>2011-07-24T13:48:40Z</time>
      </trkpt>
      <trkpt lat="45.0774" lon="5.62441">
        <ele>990.2</ele>
        <time>2011-07-24T13:48:42Z</time>
      </trkpt>
      <trkpt lat="45.07742" lon="5.62442">
        <ele>990</ele>
        <time>2011-07-24T13:48:43Z</time>
      </trkpt>
      <trkpt lat="45.0774" lon="5.62439">
        <ele>990</ele>
        <time>2011-07-24T13:48:46Z</time>
      </trkpt>
      <trkpt lat="45.07741" lon="5.62441">
        <ele>990.6</ele>
        <time>2011-07-24T13:48:49Z</time>
      </trkpt>
      <trkpt lat="45.0774" lon="5.62446">
        <ele>992.4</ele>
        <time>2011-07-24T13:48:52Z</time>
      </trkpt>
      <trkpt lat="45.07735" lon="5.62453">
        <ele>995.6</ele>
        <time>2011-07-24T13:48:55Z</time>
      </trkpt>
      <trkpt lat="45.07733" lon="5.62456">
        <ele>997</ele>
        <time>2011-07-24T13:48:56Z</time>
      </trkpt>
      <trkpt lat="45.07727" lon="5.62463">
        <ele>1001.6</ele>
        <time>2011-07-24T13:48:59Z</time>
      </trkpt>
      <trkpt lat="45.07725" lon="5.6247">
        <ele>1009.8</ele>
        <time>2011-07-24T13:49:04Z</time>
      </trkpt>
      <trkpt lat="45.07728" lon="5.62472">
        <ele>1013.6</ele>
        <time>2011-07-24T13:49:07Z</time>
      </trkpt>
      <trkpt lat="45.07728" lon="5.62474">
        <ele>1015.2</ele>
        <time>2011-07-24T13:49:08Z</time>
      </trkpt>
      <trkpt lat="45.07728" lon="5.62475">
        <ele>1017</ele>
        <time>2011-07-24T13:49:09Z</time>
      </trkpt>
      <trkpt lat="45.07726" lon="5.62478">
        <ele>1024.2</ele>
        <time>2011-07-24T13:49:13Z</time>
      </trkpt>
      <trkpt lat="45.0773" lon="5.62478">
        <ele>1028.2</ele>
        <time>2011-07-24T13:49:16Z</time>
      </trkpt>
      <trkpt lat="45.0773" lon="5.6248">
        <ele>1035</ele>
        <time>2011-07-24T13:49:20Z</time>
      </trkpt>
      <trkpt lat="45.07743" lon="5.62481">
        <ele>1053.4</ele>
        <time>2011-07-24T13:49:38Z</time>
      </trkpt>
      <trkpt lat="45.07745" lon="5.6248">
        <ele>1053.8</ele>
        <time>2011-07-24T13:49:39Z</time>
      </trkpt>
      <trkpt lat="45.07748" lon="5.6248">
        <ele>1054.6</ele>
        <time>2011-07-24T13:49:41Z</time>
      </trkpt>
      <trkpt lat="45.07753" lon="5.62479">
        <ele>1057</ele>
        <time>2011-07-24T13:49:46Z</time>
      </trkpt>
      <trkpt lat="45.07756" lon="5.62481">
        <ele>1059.8</ele>
        <time>2011-07-24T13:49:51Z</time>
      </trkpt>
      <trkpt lat="45.07763" lon="5.62478">
        <ele>1060.8</ele>
        <time>2011-07-24T13:49:55Z</time>
      </trkpt>
      <trkpt lat="45.07765" lon="5.62478">
        <ele>1060.6</ele>
        <time>2011-07-24T13:49:56Z</time>
      </trkpt>
      <trkpt lat="45.07767" lon="5.62478">
        <ele>1061.4</ele>
        <time>2011-07-24T13:49:59Z</time>
      </trkpt>
      <trkpt lat="45.07774" lon="5.62477">
        <ele>1061</ele>
        <time>2011-07-24T13:50:06Z</time>
      </trkpt>
      <trkpt lat="45.07778" lon="5.62479">
        <ele>1061.2</ele>
        <time>2011-07-24T13:50:12Z</time>
      </trkpt>
      <trkpt lat="45.07784" lon="5.62481">
        <ele>1060.8</ele>
        <time>2011-07-24T13:50:16Z</time>
      </trkpt>
      <trkpt lat="45.07785" lon="5.62483">
        <ele>1060.8</ele>
        <time>2011-07-24T13:50:17Z</time>
      </trkpt>
      <trkpt lat="45.07792" lon="5.62488">
        <ele>1060.4</ele>
        <time>2011-07-24T13:50:23Z</time>
      </trkpt>
      <trkpt lat="45.07797" lon="5.62489">
        <ele>1059.8</ele>
        <time>2011-07-24T13:50:28Z</time>
      </trkpt>
      <trkpt lat="45.078" lon="5.6249">
        <ele>1059</ele>
        <time>2011-07-24T13:50:32Z</time>
      </trkpt>
      <trkpt lat="45.07801" lon="5.6249">
        <ele>1058.8</ele>
        <time>2011-07-24T13:50:33Z</time>
      </trkpt>
      <trkpt lat="45.07801" lon="5.62492">
        <ele>1058.6</ele>
        <time>2011-07-24T13:50:38Z</time>
      </trkpt>
      <trkpt lat="45.07806" lon="5.62489">
        <ele>1058</ele>
        <time>2011-07-24T13:50:43Z</time>
      </trkpt>
      <trkpt lat="45.07807" lon="5.62489">
        <ele>1057.8</ele>
        <time>2011-07-24T13:50:44Z</time>
      </trkpt>
      <trkpt lat="45.0781" lon="5.62491">
        <ele>1057.4</ele>
        <time>2011-07-24T13:50:48Z</time>
      </trkpt>
      <trkpt lat="45.07811" lon="5.62497">
        <ele>1057.4</ele>
        <time>2011-07-24T13:50:53Z</time>
      </trkpt>
      <trkpt lat="45.07811" lon="5.62499">
        <ele>1057.4</ele>
        <time>2011-07-24T13:50:54Z</time>
      </trkpt>
      <trkpt lat="45.07813" lon="5.62503">
        <ele>1057.8</ele>
        <time>2011-07-24T13:50:57Z</time>
      </trkpt>
      <trkpt lat="45.07815" lon="5.62503">
        <ele>1057.4</ele>
        <time>2011-07-24T13:50:58Z</time>
      </trkpt>
      <trkpt lat="45.07817" lon="5.62507">
        <ele>1057.4</ele>
        <time>2011-07-24T13:51:01Z</time>
      </trkpt>
      <trkpt lat="45.07818" lon="5.6251">
        <ele>1057.6</ele>
        <time>2011-07-24T13:51:04Z</time>
      </trkpt>
      <trkpt lat="45.07819" lon="5.62514">
        <ele>1058.2</ele>
        <time>2011-07-24T13:51:07Z</time>
      </trkpt>
      <trkpt lat="45.07819" lon="5.62516">
        <ele>1058.2</ele>
        <time>2011-07-24T13:51:08Z</time>
      </trkpt>
      <trkpt lat="45.07821" lon="5.62517">
        <ele>1058</ele>
        <time>2011-07-24T13:51:11Z</time>
      </trkpt>
      <trkpt lat="45.07823" lon="5.62519">
        <ele>1058.2</ele>
        <time>2011-07-24T13:51:15Z</time>
      </trkpt>
      <trkpt lat="45.07825" lon="5.6252">
        <ele>1058.8</ele>
        <time>2011-07-24T13:51:19Z</time>
      </trkpt>
      <trkpt lat="45.07827" lon="5.62519">
        <ele>1058.6</ele>
        <time>2011-07-24T13:51:23Z</time>
      </trkpt>
      <trkpt lat="45.07829" lon="5.62522">
        <ele>1058.8</ele>
        <time>2011-07-24T13:51:27Z</time>
      </trkpt>
      <trkpt lat="45.07833" lon="5.62527">
        <ele>1059</ele>
        <time>2011-07-24T13:51:32Z</time>
      </trkpt>
      <trkpt lat="45.07835" lon="5.62532">
        <ele>1058.8</ele>
        <time>2011-07-24T13:51:37Z</time>
      </trkpt>
      <trkpt lat="45.07835" lon="5.62534">
        <ele>1058.8</ele>
        <time>2011-07-24T13:51:39Z</time>
      </trkpt>
      <trkpt lat="45.07838" lon="5.62534">
        <ele>1058.6</ele>
        <time>2011-07-24T13:51:42Z</time>
      </trkpt>
      <trkpt lat="45.0784" lon="5.62531">
        <ele>1058.6</ele>
        <time>2011-07-24T13:51:49Z</time>
      </trkpt>
      <trkpt lat="45.0784" lon="5.62533">
        <ele>1058.8</ele>
        <time>2011-07-24T13:51:50Z</time>
      </trkpt>
      <trkpt lat="45.07843" lon="5.62541">
        <ele>1059.4</ele>
        <time>2011-07-24T13:51:56Z</time>
      </trkpt>
      <trkpt lat="45.07845" lon="5.62541">
        <ele>1059.2</ele>
        <time>2011-07-24T13:51:59Z</time>
      </trkpt>
      <trkpt lat="45.07846" lon="5.62541">
        <ele>1059.2</ele>
        <time>2011-07-24T13:52:00Z</time>
      </trkpt>
      <trkpt lat="45.07849" lon="5.62543">
        <ele>1059</ele>
        <time>2011-07-24T13:52:03Z</time>
      </trkpt>
      <trkpt lat="45.07849" lon="5.62546">
        <ele>1059</ele>
        <time>2011-07-24T13:52:05Z</time>
      </trkpt>
      <trkpt lat="45.07847" lon="5.62547">
        <ele>1060.4</ele>
        <time>2011-07-24T13:52:14Z</time>
      </trkpt>
      <trkpt lat="45.07849" lon="5.62552">
        <ele>1060.8</ele>
        <time>2011-07-24T13:52:17Z</time>
      </trkpt>
      <trkpt lat="45.0785" lon="5.62554">
        <ele>1061.4</ele>
        <time>2011-07-24T13:52:20Z</time>
      </trkpt>
      <trkpt lat="45.07851" lon="5.62557">
        <ele>1061.8</ele>
        <time>2011-07-24T13:52:22Z</time>
      </trkpt>
      <trkpt lat="45.07852" lon="5.62564">
        <ele>1062.8</ele>
        <time>2011-07-24T13:52:25Z</time>
      </trkpt>
      <trkpt lat="45.07853" lon="5.62566">
        <ele>1063.2</ele>
        <time>2011-07-24T13:52:27Z</time>
      </trkpt>
      <trkpt lat="45.07853" lon="5.62567">
        <ele>1063.8</ele>
        <time>2011-07-24T13:52:29Z</time>
      </trkpt>
      <trkpt lat="45.07855" lon="5.6257">
        <ele>1065</ele>
        <time>2011-07-24T13:52:36Z</time>
      </trkpt>
      <trkpt lat="45.07856" lon="5.62571">
        <ele>1065.2</ele>
        <time>2011-07-24T13:52:37Z</time>
      </trkpt>
      <trkpt lat="45.0786" lon="5.62573">
        <ele>1065.6</ele>
        <time>2011-07-24T13:52:41Z</time>
      </trkpt>
      <trkpt lat="45.07862" lon="5.62581">
        <ele>1066.4</ele>
        <time>2011-07-24T13:52:48Z</time>
      </trkpt>
      <trkpt lat="45.07861" lon="5.62582">
        <ele>1067</ele>
        <time>2011-07-24T13:52:49Z</time>
      </trkpt>
      <trkpt lat="45.07857" lon="5.62587">
        <ele>1069</ele>
        <time>2011-07-24T13:52:53Z</time>
      </trkpt>
      <trkpt lat="45.07858" lon="5.62589">
        <ele>1069.4</ele>
        <time>2011-07-24T13:52:55Z</time>
      </trkpt>
      <trkpt lat="45.07859" lon="5.6259">
        <ele>1069.4</ele>
        <time>2011-07-24T13:52:57Z</time>
      </trkpt>
      <trkpt lat="45.07859" lon="5.62591">
        <ele>1070</ele>
        <time>2011-07-24T13:52:58Z</time>
      </trkpt>
      <trkpt lat="45.07861" lon="5.62591">
        <ele>1071</ele>
        <time>2011-07-24T13:53:02Z</time>
      </trkpt>
      <trkpt lat="45.07862" lon="5.6259">
        <ele>1071.4</ele>
        <time>2011-07-24T13:53:03Z</time>
      </trkpt>
      <trkpt lat="45.07863" lon="5.62592">
        <ele>1071.6</ele>
        <time>2011-07-24T13:53:05Z</time>
      </trkpt>
      <trkpt lat="45.07863" lon="5.62594">
        <ele>1071.8</ele>
        <time>2011-07-24T13:53:06Z</time>
      </trkpt>
      <trkpt lat="45.07866" lon="5.62596">
        <ele>1072.2</ele>
        <time>2011-07-24T13:53:10Z</time>
      </trkpt>
      <trkpt lat="45.07866" lon="5.626">
        <ele>1072.8</ele>
        <time>2011-07-24T13:53:16Z</time>
      </trkpt>
      <trkpt lat="45.0787" lon="5.62602">
        <ele>1072.8</ele>
        <time>2011-07-24T13:53:23Z</time>
      </trkpt>
      <trkpt lat="45.07875" lon="5.62602">
        <ele>1072.4</ele>
        <time>2011-07-24T13:53:26Z</time>
      </trkpt>
      <trkpt lat="45.07877" lon="5.62602">
        <ele>1072.2</ele>
        <time>2011-07-24T13:53:28Z</time>
      </trkpt>
      <trkpt lat="45.07878" lon="5.62601">
        <ele>1072.2</ele>
        <time>2011-07-24T13:53:29Z</time>
      </trkpt>
      <trkpt lat="45.07885" lon="5.62601">
        <ele>1071.4</ele>
        <time>2011-07-24T13:53:33Z</time>
      </trkpt>
      <trkpt lat="45.07888" lon="5.62603">
        <ele>1070.8</ele>
        <time>2011-07-24T13:53:37Z</time>
      </trkpt>
      <trkpt lat="45.07889" lon="5.62604">
        <ele>1070.4</ele>
        <time>2011-07-24T13:53:39Z</time>
      </trkpt>
      <trkpt lat="45.07889" lon="5.62605">
        <ele>1070.2</ele>
        <time>2011-07-24T13:53:40Z</time>
      </trkpt>
      <trkpt lat="45.0789" lon="5.62608">
        <ele>1070</ele>
        <time>2011-07-24T13:53:43Z</time>
      </trkpt>
      <trkpt lat="45.07889" lon="5.62611">
        <ele>1069.4</ele>
        <time>2011-07-24T13:53:47Z</time>
      </trkpt>
      <trkpt lat="45.07887" lon="5.62614">
        <ele>1068.8</ele>
        <time>2011-07-24T13:53:52Z</time>
      </trkpt>
      <trkpt lat="45.07886" lon="5.62615">
        <ele>1068.8</ele>
        <time>2011-07-24T13:53:53Z</time>
      </trkpt>
      <trkpt lat="45.07882" lon="5.62619">
        <ele>1068.8</ele>
        <time>2011-07-24T13:53:58Z</time>
      </trkpt>
      <trkpt lat="45.07878" lon="5.62624">
        <ele>1069.8</ele>
        <time>2011-07-24T13:54:01Z</time>
      </trkpt>
      <trkpt lat="45.07876" lon="5.62629">
        <ele>1070.6</ele>
        <time>2011-07-24T13:54:03Z</time>
      </trkpt>
      <trkpt lat="45.07876" lon="5.62633">
        <ele>1071</ele>
        <time>2011-07-24T13:54:06Z</time>
      </trkpt>
      <trkpt lat="45.07876" lon="5.62633">
        <ele>1071.4</ele>
        <time>2011-07-24T13:54:08Z</time>
      </trkpt>
      <trkpt lat="45.07873" lon="5.62633">
        <ele>1072.6</ele>
        <time>2011-07-24T13:54:10Z</time>
      </trkpt>
      <trkpt lat="45.07872" lon="5.62637">
        <ele>1073</ele>
        <time>2011-07-24T13:54:12Z</time>
      </trkpt>
      <trkpt lat="45.07871" lon="5.62639">
        <ele>1073.8</ele>
        <time>2011-07-24T13:54:14Z</time>
      </trkpt>
      <trkpt lat="45.07871" lon="5.62641">
        <ele>1076</ele>
        <time>2011-07-24T13:54:20Z</time>
      </trkpt>
      <trkpt lat="45.07872" lon="5.62641">
        <ele>1076.4</ele>
        <time>2011-07-24T13:54:21Z</time>
      </trkpt>
      <trkpt lat="45.07875" lon="5.6264">
        <ele>1077.2</ele>
        <time>2011-07-24T13:54:24Z</time>
      </trkpt>
      <trkpt lat="45.07875" lon="5.62641">
        <ele>1077.6</ele>
        <time>2011-07-24T13:54:25Z</time>
      </trkpt>
      <trkpt lat="45.07875" lon="5.62646">
        <ele>1079.2</ele>
        <time>2011-07-24T13:54:29Z</time>
      </trkpt>
      <trkpt lat="45.07876" lon="5.62649">
        <ele>1080</ele>
        <time>2011-07-24T13:54:31Z</time>
      </trkpt>
      <trkpt lat="45.07876" lon="5.62651">
        <ele>1080.6</ele>
        <time>2011-07-24T13:54:34Z</time>
      </trkpt>
      <trkpt lat="45.07876" lon="5.62653">
        <ele>1081.2</ele>
        <time>2011-07-24T13:54:36Z</time>
      </trkpt>
      <trkpt lat="45.07874" lon="5.6266">
        <ele>1083</ele>
        <time>2011-07-24T13:54:41Z</time>
      </trkpt>
      <trkpt lat="45.07873" lon="5.62661">
        <ele>1083.4</ele>
        <time>2011-07-24T13:54:42Z</time>
      </trkpt>
      <trkpt lat="45.07878" lon="5.62662">
        <ele>1086.8</ele>
        <time>2011-07-24T13:54:56Z</time>
      </trkpt>
      <trkpt lat="45.07879" lon="5.62663">
        <ele>1087</ele>
        <time>2011-07-24T13:54:58Z</time>
      </trkpt>
      <trkpt lat="45.0788" lon="5.62663">
        <ele>1087.2</ele>
        <time>2011-07-24T13:54:59Z</time>
      </trkpt>
      <trkpt lat="45.07879" lon="5.62667">
        <ele>1088.6</ele>
        <time>2011-07-24T13:55:07Z</time>
      </trkpt>
      <trkpt lat="45.07878" lon="5.62671">
        <ele>1090</ele>
        <time>2011-07-24T13:55:11Z</time>
      </trkpt>
      <trkpt lat="45.07876" lon="5.62686">
        <ele>1094.2</ele>
        <time>2011-07-24T13:55:25Z</time>
      </trkpt>
      <trkpt lat="45.07879" lon="5.6269">
        <ele>1094.4</ele>
        <time>2011-07-24T13:55:30Z</time>
      </trkpt>
      <trkpt lat="45.07877" lon="5.62692">
        <ele>1094.6</ele>
        <time>2011-07-24T13:55:33Z</time>
      </trkpt>
      <trkpt lat="45.07871" lon="5.62691">
        <ele>1096.2</ele>
        <time>2011-07-24T13:55:40Z</time>
      </trkpt>
      <trkpt lat="45.07867" lon="5.62693">
        <ele>1098</ele>
        <time>2011-07-24T13:55:45Z</time>
      </trkpt>
      <trkpt lat="45.07863" lon="5.62694">
        <ele>1099</ele>
        <time>2011-07-24T13:55:48Z</time>
      </trkpt>
      <trkpt lat="45.07864" lon="5.62696">
        <ele>1100.2</ele>
        <time>2011-07-24T13:55:53Z</time>
      </trkpt>
      <trkpt lat="45.07866" lon="5.62699">
        <ele>1100.8</ele>
        <time>2011-07-24T13:55:58Z</time>
      </trkpt>
      <trkpt lat="45.07867" lon="5.62701">
        <ele>1101.6</ele>
        <time>2011-07-24T13:56:01Z</time>
      </trkpt>
      <trkpt lat="45.07867" lon="5.62701">
        <ele>1101.8</ele>
        <time>2011-07-24T13:56:02Z</time>
      </trkpt>
      <trkpt lat="45.07868" lon="5.62703">
        <ele>1102.6</ele>
        <time>2011-07-24T13:56:07Z</time>
      </trkpt>
      <trkpt lat="45.07869" lon="5.62707">
        <ele>1103.4</ele>
        <time>2011-07-24T13:56:12Z</time>
      </trkpt>
      <trkpt lat="45.07874" lon="5.62708">
        <ele>1103.2</ele>
        <time>2011-07-24T13:56:16Z</time>
      </trkpt>
      <trkpt lat="45.07875" lon="5.62708">
        <ele>1103.4</ele>
        <time>2011-07-24T13:56:18Z</time>
      </trkpt>
      <trkpt lat="45.07877" lon="5.62707">
        <ele>1103.4</ele>
        <time>2011-07-24T13:56:20Z</time>
      </trkpt>
      <trkpt lat="45.07877" lon="5.62707">
        <ele>1103.4</ele>
        <time>2011-07-24T13:56:21Z</time>
      </trkpt>
      <trkpt lat="45.07882" lon="5.62705">
        <ele>1103.2</ele>
        <time>2011-07-24T13:56:25Z</time>
      </trkpt>
      <trkpt lat="45.07883" lon="5.62704">
        <ele>1103.4</ele>
        <time>2011-07-24T13:56:27Z</time>
      </trkpt>
      <trkpt lat="45.07886" lon="5.62704">
        <ele>1103.4</ele>
        <time>2011-07-24T13:56:31Z</time>
      </trkpt>
      <trkpt lat="45.07888" lon="5.62703">
        <ele>1105</ele>
        <time>2011-07-24T13:56:37Z</time>
      </trkpt>
      <trkpt lat="45.0789" lon="5.62701">
        <ele>1105.2</ele>
        <time>2011-07-24T13:56:39Z</time>
      </trkpt>
      <trkpt lat="45.07893" lon="5.62698">
        <ele>1106</ele>
        <time>2011-07-24T13:56:42Z</time>
      </trkpt>
      <trkpt lat="45.07894" lon="5.62697">
        <ele>1106.2</ele>
        <time>2011-07-24T13:56:43Z</time>
      </trkpt>
      <trkpt lat="45.07898" lon="5.62695">
        <ele>1106.6</ele>
        <time>2011-07-24T13:56:47Z</time>
      </trkpt>
      <trkpt lat="45.07899" lon="5.62694">
        <ele>1106.6</ele>
        <time>2011-07-24T13:56:48Z</time>
      </trkpt>
      <trkpt lat="45.079" lon="5.6269">
        <ele>1106.8</ele>
        <time>2011-07-24T13:56:52Z</time>
      </trkpt>
      <trkpt lat="45.07901" lon="5.62687">
        <ele>1106.8</ele>
        <time>2011-07-24T13:56:54Z</time>
      </trkpt>
      <trkpt lat="45.07903" lon="5.62684">
        <ele>1107</ele>
        <time>2011-07-24T13:56:56Z</time>
      </trkpt>
      <trkpt lat="45.07904" lon="5.62683">
        <ele>1107.4</ele>
        <time>2011-07-24T13:56:58Z</time>
      </trkpt>
      <trkpt lat="45.07904" lon="5.62683">
        <ele>1107.4</ele>
        <time>2011-07-24T13:56:59Z</time>
      </trkpt>
      <trkpt lat="45.07906" lon="5.62683">
        <ele>1107.6</ele>
        <time>2011-07-24T13:57:00Z</time>
      </trkpt>
      <trkpt lat="45.07907" lon="5.62682">
        <ele>1108.2</ele>
        <time>2011-07-24T13:57:02Z</time>
      </trkpt>
      <trkpt lat="45.07909" lon="5.62681">
        <ele>1108.4</ele>
        <time>2011-07-24T13:57:03Z</time>
      </trkpt>
      <trkpt lat="45.07912" lon="5.62677">
        <ele>1109.6</ele>
        <time>2011-07-24T13:57:08Z</time>
      </trkpt>
      <trkpt lat="45.07921" lon="5.62673">
        <ele>1114.2</ele>
        <time>2011-07-24T13:57:19Z</time>
      </trkpt>
      <trkpt lat="45.07923" lon="5.62673">
        <ele>1114.6</ele>
        <time>2011-07-24T13:57:20Z</time>
      </trkpt>
      <trkpt lat="45.07924" lon="5.62673">
        <ele>1114.8</ele>
        <time>2011-07-24T13:57:21Z</time>
      </trkpt>
      <trkpt lat="45.07933" lon="5.62675">
        <ele>1118.4</ele>
        <time>2011-07-24T13:57:37Z</time>
      </trkpt>
      <trkpt lat="45.07935" lon="5.62673">
        <ele>1119.6</ele>
        <time>2011-07-24T13:57:42Z</time>
      </trkpt>
      <trkpt lat="45.07935" lon="5.62677">
        <ele>1122.4</ele>
        <time>2011-07-24T13:57:50Z</time>
      </trkpt>
      <trkpt lat="45.07937" lon="5.62673">
        <ele>1123.4</ele>
        <time>2011-07-24T13:57:54Z</time>
      </trkpt>
      <trkpt lat="45.07938" lon="5.62671">
        <ele>1124.2</ele>
        <time>2011-07-24T13:57:56Z</time>
      </trkpt>
      <trkpt lat="45.07939" lon="5.62671">
        <ele>1124.6</ele>
        <time>2011-07-24T13:57:57Z</time>
      </trkpt>
      <trkpt lat="45.07945" lon="5.62667">
        <ele>1129.6</ele>
        <time>2011-07-24T13:58:11Z</time>
      </trkpt>
      <trkpt lat="45.0795" lon="5.62664">
        <ele>1131.8</ele>
        <time>2011-07-24T13:58:17Z</time>
      </trkpt>
      <trkpt lat="45.07956" lon="5.62662">
        <ele>1134.4</ele>
        <time>2011-07-24T13:58:24Z</time>
      </trkpt>
      <trkpt lat="45.07958" lon="5.62662">
        <ele>1134.6</ele>
        <time>2011-07-24T13:58:25Z</time>
      </trkpt>
      <trkpt lat="45.0796" lon="5.62661">
        <ele>1135</ele>
        <time>2011-07-24T13:58:27Z</time>
      </trkpt>
      <trkpt lat="45.07961" lon="5.6266">
        <ele>1135.6</ele>
        <time>2011-07-24T13:58:29Z</time>
      </trkpt>
      <trkpt lat="45.07963" lon="5.62659">
        <ele>1135.8</ele>
        <time>2011-07-24T13:58:30Z</time>
      </trkpt>
      <trkpt lat="45.07968" lon="5.62658">
        <ele>1136.6</ele>
        <time>2011-07-24T13:58:35Z</time>
      </trkpt>
      <trkpt lat="45.07972" lon="5.62659">
        <ele>1137.2</ele>
        <time>2011-07-24T13:58:41Z</time>
      </trkpt>
      <trkpt lat="45.07974" lon="5.62659">
        <ele>1137.8</ele>
        <time>2011-07-24T13:58:45Z</time>
      </trkpt>
      <trkpt lat="45.07974" lon="5.62659">
        <ele>1138</ele>
        <time>2011-07-24T13:58:46Z</time>
      </trkpt>
      <trkpt lat="45.07974" lon="5.62654">
        <ele>1141.2</ele>
        <time>2011-07-24T13:58:55Z</time>
      </trkpt>
      <trkpt lat="45.07975" lon="5.62654">
        <ele>1142.8</ele>
        <time>2011-07-24T13:58:59Z</time>
      </trkpt>
      <trkpt lat="45.07976" lon="5.62649">
        <ele>1146.4</ele>
        <time>2011-07-24T13:59:07Z</time>
      </trkpt>
      <trkpt lat="45.07984" lon="5.62648">
        <ele>1149.2</ele>
        <time>2011-07-24T13:59:15Z</time>
      </trkpt>
      <trkpt lat="45.07987" lon="5.62649">
        <ele>1150.2</ele>
        <time>2011-07-24T13:59:18Z</time>
      </trkpt>
      <trkpt lat="45.07992" lon="5.62651">
        <ele>1150.8</ele>
        <time>2011-07-24T13:59:22Z</time>
      </trkpt>
      <trkpt lat="45.08003" lon="5.62651">
        <ele>1151.8</ele>
        <time>2011-07-24T13:59:27Z</time>
      </trkpt>
      <trkpt lat="45.08007" lon="5.6265">
        <ele>1152</ele>
        <time>2011-07-24T13:59:28Z</time>
      </trkpt>
      <trkpt lat="45.08013" lon="5.62649">
        <ele>1152.4</ele>
        <time>2011-07-24T13:59:31Z</time>
      </trkpt>
      <trkpt lat="45.08021" lon="5.62651">
        <ele>1153.2</ele>
        <time>2011-07-24T13:59:36Z</time>
      </trkpt>
      <trkpt lat="45.08021" lon="5.62652">
        <ele>1153.6</ele>
        <time>2011-07-24T13:59:37Z</time>
      </trkpt>
      <trkpt lat="45.08026" lon="5.62656">
        <ele>1153.4</ele>
        <time>2011-07-24T13:59:40Z</time>
      </trkpt>
      <trkpt lat="45.08027" lon="5.62659">
        <ele>1154</ele>
        <time>2011-07-24T13:59:43Z</time>
      </trkpt>
      <trkpt lat="45.08033" lon="5.62663">
        <ele>1154.8</ele>
        <time>2011-07-24T13:59:48Z</time>
      </trkpt>
      <trkpt lat="45.08037" lon="5.62666">
        <ele>1154.6</ele>
        <time>2011-07-24T13:59:50Z</time>
      </trkpt>
      <trkpt lat="45.08039" lon="5.62667">
        <ele>1155</ele>
        <time>2011-07-24T13:59:53Z</time>
      </trkpt>
      <trkpt lat="45.08043" lon="5.62667">
        <ele>1155.2</ele>
        <time>2011-07-24T13:59:55Z</time>
      </trkpt>
      <trkpt lat="45.08048" lon="5.62669">
        <ele>1155.8</ele>
        <time>2011-07-24T13:59:58Z</time>
      </trkpt>
      <trkpt lat="45.0805" lon="5.62671">
        <ele>1156</ele>
        <time>2011-07-24T14:00:00Z</time>
      </trkpt>
      <trkpt lat="45.08053" lon="5.62676">
        <ele>1157</ele>
        <time>2011-07-24T14:00:04Z</time>
      </trkpt>
      <trkpt lat="45.08063" lon="5.62674">
        <ele>1171.2</ele>
        <time>2011-07-24T14:00:31Z</time>
      </trkpt>
      <trkpt lat="45.08064" lon="5.62666">
        <ele>1179.6</ele>
        <time>2011-07-24T14:00:50Z</time>
      </trkpt>
      <trkpt lat="45.08068" lon="5.62662">
        <ele>1181.6</ele>
        <time>2011-07-24T14:00:54Z</time>
      </trkpt>
      <trkpt lat="45.08075" lon="5.62652">
        <ele>1187.2</ele>
        <time>2011-07-24T14:01:13Z</time>
      </trkpt>
      <trkpt lat="45.08076" lon="5.6265">
        <ele>1187.4</ele>
        <time>2011-07-24T14:01:15Z</time>
      </trkpt>
      <trkpt lat="45.08078" lon="5.62648">
        <ele>1187.2</ele>
        <time>2011-07-24T14:01:18Z</time>
      </trkpt>
      <trkpt lat="45.08081" lon="5.62643">
        <ele>1187</ele>
        <time>2011-07-24T14:01:22Z</time>
      </trkpt>
      <trkpt lat="45.0808" lon="5.62643">
        <ele>1187.4</ele>
        <time>2011-07-24T14:01:26Z</time>
      </trkpt>
      <trkpt lat="45.0808" lon="5.62644">
        <ele>1187.4</ele>
        <time>2011-07-24T14:01:27Z</time>
      </trkpt>
      <trkpt lat="45.08085" lon="5.62646">
        <ele>1188.6</ele>
        <time>2011-07-24T14:01:36Z</time>
      </trkpt>
      <trkpt lat="45.08087" lon="5.62652">
        <ele>1190.4</ele>
        <time>2011-07-24T14:01:42Z</time>
      </trkpt>
      <trkpt lat="45.08088" lon="5.62654">
        <ele>1191</ele>
        <time>2011-07-24T14:01:43Z</time>
      </trkpt>
      <trkpt lat="45.08088" lon="5.62658">
        <ele>1192.2</ele>
        <time>2011-07-24T14:01:45Z</time>
      </trkpt>
      <trkpt lat="45.08089" lon="5.62657">
        <ele>1192.6</ele>
        <time>2011-07-24T14:01:46Z</time>
      </trkpt>
      <trkpt lat="45.08087" lon="5.62665">
        <ele>1197.2</ele>
        <time>2011-07-24T14:01:54Z</time>
      </trkpt>
      <trkpt lat="45.08085" lon="5.62666">
        <ele>1198.8</ele>
        <time>2011-07-24T14:01:58Z</time>
      </trkpt>
      <trkpt lat="45.08085" lon="5.62667">
        <ele>1200.6</ele>
        <time>2011-07-24T14:02:04Z</time>
      </trkpt>
      <trkpt lat="45.08086" lon="5.62666">
        <ele>1200.6</ele>
        <time>2011-07-24T14:02:05Z</time>
      </trkpt>
      <trkpt lat="45.08087" lon="5.62668">
        <ele>1201.2</ele>
        <time>2011-07-24T14:02:08Z</time>
      </trkpt>
      <trkpt lat="45.08088" lon="5.6267">
        <ele>1201.6</ele>
        <time>2011-07-24T14:02:10Z</time>
      </trkpt>
      <trkpt lat="45.0809" lon="5.62673">
        <ele>1201.6</ele>
        <time>2011-07-24T14:02:12Z</time>
      </trkpt>
      <trkpt lat="45.08092" lon="5.62678">
        <ele>1202</ele>
        <time>2011-07-24T14:02:16Z</time>
      </trkpt>
      <trkpt lat="45.08092" lon="5.62678">
        <ele>1202</ele>
        <time>2011-07-24T14:02:17Z</time>
      </trkpt>
      <trkpt lat="45.08094" lon="5.62676">
        <ele>1202.6</ele>
        <time>2011-07-24T14:02:21Z</time>
      </trkpt>
      <trkpt lat="45.08095" lon="5.62676">
        <ele>1202.8</ele>
        <time>2011-07-24T14:02:22Z</time>
      </trkpt>
      <trkpt lat="45.08097" lon="5.62675">
        <ele>1203.4</ele>
        <time>2011-07-24T14:02:24Z</time>
      </trkpt>
      <trkpt lat="45.08098" lon="5.62674">
        <ele>1203.6</ele>
        <time>2011-07-24T14:02:26Z</time>
      </trkpt>
      <trkpt lat="45.08102" lon="5.62674">
        <ele>1204.6</ele>
        <time>2011-07-24T14:02:34Z</time>
      </trkpt>
      <trkpt lat="45.08105" lon="5.62673">
        <ele>1204.8</ele>
        <time>2011-07-24T14:02:36Z</time>
      </trkpt>
      <trkpt lat="45.08108" lon="5.62672">
        <ele>1205.4</ele>
        <time>2011-07-24T14:02:42Z</time>
      </trkpt>
      <trkpt lat="45.08113" lon="5.62672">
        <ele>1206.2</ele>
        <time>2011-07-24T14:02:47Z</time>
      </trkpt>
      <trkpt lat="45.08113" lon="5.62672">
        <ele>1206.6</ele>
        <time>2011-07-24T14:02:48Z</time>
      </trkpt>
      <trkpt lat="45.08114" lon="5.62667">
        <ele>1213.8</ele>
        <time>2011-07-24T14:03:06Z</time>
      </trkpt>
      <trkpt lat="45.08116" lon="5.62663">
        <ele>1214.2</ele>
        <time>2011-07-24T14:03:09Z</time>
      </trkpt>
      <trkpt lat="45.08117" lon="5.62662">
        <ele>1214.2</ele>
        <time>2011-07-24T14:03:10Z</time>
      </trkpt>
      <trkpt lat="45.08119" lon="5.6266">
        <ele>1214</ele>
        <time>2011-07-24T14:03:12Z</time>
      </trkpt>
      <trkpt lat="45.08119" lon="5.6266">
        <ele>1214</ele>
        <time>2011-07-24T14:03:12Z</time>
      </trkpt>
      <trkpt lat="45.08119" lon="5.62657">
        <ele>1214</ele>
        <time>2011-07-24T14:03:14Z</time>
      </trkpt>
      <trkpt lat="45.0812" lon="5.62655">
        <ele>1214.6</ele>
        <time>2011-07-24T14:03:18Z</time>
      </trkpt>
      <trkpt lat="45.0812" lon="5.62652">
        <ele>1215.2</ele>
        <time>2011-07-24T14:03:22Z</time>
      </trkpt>
      <trkpt lat="45.08117" lon="5.62648">
        <ele>1216</ele>
        <time>2011-07-24T14:03:26Z</time>
      </trkpt>
      <trkpt lat="45.08118" lon="5.62645">
        <ele>1216.4</ele>
        <time>2011-07-24T14:03:29Z</time>
      </trkpt>
      <trkpt lat="45.08119" lon="5.62642">
        <ele>1216</ele>
        <time>2011-07-24T14:03:30Z</time>
      </trkpt>
      <trkpt lat="45.08119" lon="5.62639">
        <ele>1216</ele>
        <time>2011-07-24T14:03:32Z</time>
      </trkpt>
      <trkpt lat="45.08118" lon="5.62635">
        <ele>1216.2</ele>
        <time>2011-07-24T14:03:35Z</time>
      </trkpt>
      <trkpt lat="45.08118" lon="5.62625">
        <ele>1216</ele>
        <time>2011-07-24T14:03:42Z</time>
      </trkpt>
      <trkpt lat="45.08116" lon="5.62617">
        <ele>1215.8</ele>
        <time>2011-07-24T14:03:49Z</time>
      </trkpt>
      <trkpt lat="45.08116" lon="5.62616">
        <ele>1215.8</ele>
        <time>2011-07-24T14:03:50Z</time>
      </trkpt>
      <trkpt lat="45.08116" lon="5.62615">
        <ele>1215.6</ele>
        <time>2011-07-24T14:03:51Z</time>
      </trkpt>
      <trkpt lat="45.08111" lon="5.62604">
        <ele>1215.4</ele>
        <time>2011-07-24T14:03:55Z</time>
      </trkpt>
      <trkpt lat="45.08107" lon="5.62595">
        <ele>1215.2</ele>
        <time>2011-07-24T14:03:58Z</time>
      </trkpt>
      <trkpt lat="45.08106" lon="5.6259">
        <ele>1215</ele>
        <time>2011-07-24T14:03:59Z</time>
      </trkpt>
      <trkpt lat="45.08106" lon="5.62587">
        <ele>1215</ele>
        <time>2011-07-24T14:04:00Z</time>
      </trkpt>
      <trkpt lat="45.08108" lon="5.6258">
        <ele>1214.8</ele>
        <time>2011-07-24T14:04:03Z</time>
      </trkpt>
      <trkpt lat="45.08108" lon="5.62578">
        <ele>1214.6</ele>
        <time>2011-07-24T14:04:04Z</time>
      </trkpt>
      <trkpt lat="45.0811" lon="5.62572">
        <ele>1214.4</ele>
        <time>2011-07-24T14:04:07Z</time>
      </trkpt>
      <trkpt lat="45.0811" lon="5.62569">
        <ele>1214.2</ele>
        <time>2011-07-24T14:04:08Z</time>
      </trkpt>
      <trkpt lat="45.08111" lon="5.62555">
        <ele>1214</ele>
        <time>2011-07-24T14:04:13Z</time>
      </trkpt>
      <trkpt lat="45.08113" lon="5.62541">
        <ele>1214</ele>
        <time>2011-07-24T14:04:18Z</time>
      </trkpt>
      <trkpt lat="45.08114" lon="5.62537">
        <ele>1214</ele>
        <time>2011-07-24T14:04:19Z</time>
      </trkpt>
      <trkpt lat="45.08121" lon="5.62525">
        <ele>1214</ele>
        <time>2011-07-24T14:04:25Z</time>
      </trkpt>
      <trkpt lat="45.08123" lon="5.62524">
        <ele>1214</ele>
        <time>2011-07-24T14:04:26Z</time>
      </trkpt>
      <trkpt lat="45.08127" lon="5.62521">
        <ele>1214.2</ele>
        <time>2011-07-24T14:04:28Z</time>
      </trkpt>
      <trkpt lat="45.0813" lon="5.62519">
        <ele>1214.2</ele>
        <time>2011-07-24T14:04:30Z</time>
      </trkpt>
      <trkpt lat="45.08134" lon="5.62512">
        <ele>1214.2</ele>
        <time>2011-07-24T14:04:33Z</time>
      </trkpt>
      <trkpt lat="45.08136" lon="5.62509">
        <ele>1214.2</ele>
        <time>2011-07-24T14:04:35Z</time>
      </trkpt>
      <trkpt lat="45.0814" lon="5.62506">
        <ele>1214.4</ele>
        <time>2011-07-24T14:04:39Z</time>
      </trkpt>
      <trkpt lat="45.08141" lon="5.62503">
        <ele>1214.6</ele>
        <time>2011-07-24T14:04:41Z</time>
      </trkpt>
      <trkpt lat="45.08143" lon="5.62501">
        <ele>1214.6</ele>
        <time>2011-07-24T14:04:43Z</time>
      </trkpt>
      <trkpt lat="45.08144" lon="5.62498">
        <ele>1215.4</ele>
        <time>2011-07-24T14:04:48Z</time>
      </trkpt>
      <trkpt lat="45.08149" lon="5.62498">
        <ele>1216.6</ele>
        <time>2011-07-24T14:04:55Z</time>
      </trkpt>
      <trkpt lat="45.08152" lon="5.62496">
        <ele>1217.4</ele>
        <time>2011-07-24T14:04:59Z</time>
      </trkpt>
      <trkpt lat="45.08157" lon="5.6249">
        <ele>1219.2</ele>
        <time>2011-07-24T14:05:07Z</time>
      </trkpt>
      <trkpt lat="45.08158" lon="5.6249">
        <ele>1219.4</ele>
        <time>2011-07-24T14:05:08Z</time>
      </trkpt>
      <trkpt lat="45.0816" lon="5.62486">
        <ele>1220.2</ele>
        <time>2011-07-24T14:05:12Z</time>
      </trkpt>
      <trkpt lat="45.08162" lon="5.62482">
        <ele>1220.8</ele>
        <time>2011-07-24T14:05:16Z</time>
      </trkpt>
      <trkpt lat="45.08164" lon="5.62479">
        <ele>1221.2</ele>
        <time>2011-07-24T14:05:19Z</time>
      </trkpt>
      <trkpt lat="45.08164" lon="5.62477">
        <ele>1221.6</ele>
        <time>2011-07-24T14:05:21Z</time>
      </trkpt>
      <trkpt lat="45.08166" lon="5.62472">
        <ele>1222.2</ele>
        <time>2011-07-24T14:05:25Z</time>
      </trkpt>
      <trkpt lat="45.08167" lon="5.62469">
        <ele>1223.2</ele>
        <time>2011-07-24T14:05:29Z</time>
      </trkpt>
      <trkpt lat="45.08168" lon="5.62467">
        <ele>1223.4</ele>
        <time>2011-07-24T14:05:30Z</time>
      </trkpt>
      <trkpt lat="45.08169" lon="5.62465">
        <ele>1224.6</ele>
        <time>2011-07-24T14:05:35Z</time>
      </trkpt>
      <trkpt lat="45.08171" lon="5.62461">
        <ele>1225.8</ele>
        <time>2011-07-24T14:05:39Z</time>
      </trkpt>
      <trkpt lat="45.08171" lon="5.6246">
        <ele>1226.2</ele>
        <time>2011-07-24T14:05:40Z</time>
      </trkpt>
      <trkpt lat="45.08172" lon="5.62457">
        <ele>1228</ele>
        <time>2011-07-24T14:05:45Z</time>
      </trkpt>
      <trkpt lat="45.08174" lon="5.62454">
        <ele>1230</ele>
        <time>2011-07-24T14:05:51Z</time>
      </trkpt>
      <trkpt lat="45.0818" lon="5.6245">
        <ele>1231.6</ele>
        <time>2011-07-24T14:05:59Z</time>
      </trkpt>
      <trkpt lat="45.08181" lon="5.62449">
        <ele>1231.8</ele>
        <time>2011-07-24T14:06:00Z</time>
      </trkpt>
      <trkpt lat="45.08184" lon="5.62445">
        <ele>1232.6</ele>
        <time>2011-07-24T14:06:04Z</time>
      </trkpt>
      <trkpt lat="45.08186" lon="5.62441">
        <ele>1233.8</ele>
        <time>2011-07-24T14:06:09Z</time>
      </trkpt>
      <trkpt lat="45.08188" lon="5.62437">
        <ele>1234.8</ele>
        <time>2011-07-24T14:06:13Z</time>
      </trkpt>
      <trkpt lat="45.08191" lon="5.62434">
        <ele>1235.4</ele>
        <time>2011-07-24T14:06:17Z</time>
      </trkpt>
      <trkpt lat="45.08193" lon="5.62431">
        <ele>1236.4</ele>
        <time>2011-07-24T14:06:21Z</time>
      </trkpt>
      <trkpt lat="45.08193" lon="5.6243">
        <ele>1236.6</ele>
        <time>2011-07-24T14:06:22Z</time>
      </trkpt>
      <trkpt lat="45.08194" lon="5.62431">
        <ele>1237.6</ele>
        <time>2011-07-24T14:06:25Z</time>
      </trkpt>
      <trkpt lat="45.08194" lon="5.6243">
        <ele>1238.2</ele>
        <time>2011-07-24T14:06:27Z</time>
      </trkpt>
      <trkpt lat="45.08196" lon="5.62428">
        <ele>1239.2</ele>
        <time>2011-07-24T14:06:30Z</time>
      </trkpt>
      <trkpt lat="45.08198" lon="5.62427">
        <ele>1240.8</ele>
        <time>2011-07-24T14:06:35Z</time>
      </trkpt>
      <trkpt lat="45.08199" lon="5.62425">
        <ele>1243</ele>
        <time>2011-07-24T14:06:40Z</time>
      </trkpt>
      <trkpt lat="45.082" lon="5.62416">
        <ele>1249.8</ele>
        <time>2011-07-24T14:06:56Z</time>
      </trkpt>
      <trkpt lat="45.08202" lon="5.62409">
        <ele>1250.6</ele>
        <time>2011-07-24T14:06:59Z</time>
      </trkpt>
      <trkpt lat="45.08202" lon="5.62408">
        <ele>1250.8</ele>
        <time>2011-07-24T14:07:00Z</time>
      </trkpt>
      <trkpt lat="45.08203" lon="5.62401">
        <ele>1251.2</ele>
        <time>2011-07-24T14:07:03Z</time>
      </trkpt>
      <trkpt lat="45.08203" lon="5.624">
        <ele>1251.4</ele>
        <time>2011-07-24T14:07:04Z</time>
      </trkpt>
      <trkpt lat="45.08204" lon="5.62392">
        <ele>1252</ele>
        <time>2011-07-24T14:07:10Z</time>
      </trkpt>
      <trkpt lat="45.08204" lon="5.62385">
        <ele>1252.4</ele>
        <time>2011-07-24T14:07:14Z</time>
      </trkpt>
      <trkpt lat="45.08204" lon="5.62383">
        <ele>1252.6</ele>
        <time>2011-07-24T14:07:15Z</time>
      </trkpt>
      <trkpt lat="45.08205" lon="5.62381">
        <ele>1252.6</ele>
        <time>2011-07-24T14:07:16Z</time>
      </trkpt>
      <trkpt lat="45.08204" lon="5.6238">
        <ele>1252.8</ele>
        <time>2011-07-24T14:07:17Z</time>
      </trkpt>
      <trkpt lat="45.08205" lon="5.6238">
        <ele>1253</ele>
        <time>2011-07-24T14:07:18Z</time>
      </trkpt>
      <trkpt lat="45.08205" lon="5.62377">
        <ele>1253.4</ele>
        <time>2011-07-24T14:07:21Z</time>
      </trkpt>
      <trkpt lat="45.08206" lon="5.62372">
        <ele>1253.6</ele>
        <time>2011-07-24T14:07:24Z</time>
      </trkpt>
      <trkpt lat="45.08206" lon="5.62371">
        <ele>1253.8</ele>
        <time>2011-07-24T14:07:25Z</time>
      </trkpt>
      <trkpt lat="45.08207" lon="5.62371">
        <ele>1253.8</ele>
        <time>2011-07-24T14:07:26Z</time>
      </trkpt>
      <trkpt lat="45.08208" lon="5.62369">
        <ele>1254.2</ele>
        <time>2011-07-24T14:07:29Z</time>
      </trkpt>
      <trkpt lat="45.08209" lon="5.62368">
        <ele>1254.4</ele>
        <time>2011-07-24T14:07:30Z</time>
      </trkpt>
      <trkpt lat="45.0821" lon="5.62364">
        <ele>1255.2</ele>
        <time>2011-07-24T14:07:34Z</time>
      </trkpt>
      <trkpt lat="45.08211" lon="5.62362">
        <ele>1257</ele>
        <time>2011-07-24T14:07:41Z</time>
      </trkpt>
      <trkpt lat="45.08213" lon="5.62361">
        <ele>1257.4</ele>
        <time>2011-07-24T14:07:43Z</time>
      </trkpt>
      <trkpt lat="45.08213" lon="5.62358">
        <ele>1258.6</ele>
        <time>2011-07-24T14:07:48Z</time>
      </trkpt>
      <trkpt lat="45.08214" lon="5.62354">
        <ele>1259.8</ele>
        <time>2011-07-24T14:07:53Z</time>
      </trkpt>
      <trkpt lat="45.08216" lon="5.6235">
        <ele>1261.2</ele>
        <time>2011-07-24T14:07:57Z</time>
      </trkpt>
      <trkpt lat="45.08216" lon="5.62344">
        <ele>1263</ele>
        <time>2011-07-24T14:08:04Z</time>
      </trkpt>
      <trkpt lat="45.08218" lon="5.62347">
        <ele>1264.6</ele>
        <time>2011-07-24T14:08:08Z</time>
      </trkpt>
      <trkpt lat="45.0822" lon="5.62351">
        <ele>1265.6</ele>
        <time>2011-07-24T14:08:11Z</time>
      </trkpt>
      <trkpt lat="45.0822" lon="5.62352">
        <ele>1266.2</ele>
        <time>2011-07-24T14:08:12Z</time>
      </trkpt>
      <trkpt lat="45.08223" lon="5.62357">
        <ele>1271.2</ele>
        <time>2011-07-24T14:08:24Z</time>
      </trkpt>
      <trkpt lat="45.08228" lon="5.62358">
        <ele>1272.2</ele>
        <time>2011-07-24T14:08:28Z</time>
      </trkpt>
      <trkpt lat="45.0823" lon="5.62361">
        <ele>1274.6</ele>
        <time>2011-07-24T14:08:35Z</time>
      </trkpt>
      <trkpt lat="45.08233" lon="5.62364">
        <ele>1276.8</ele>
        <time>2011-07-24T14:08:41Z</time>
      </trkpt>
      <trkpt lat="45.08235" lon="5.62362">
        <ele>1278.2</ele>
        <time>2011-07-24T14:08:45Z</time>
      </trkpt>
      <trkpt lat="45.08237" lon="5.62366">
        <ele>1280</ele>
        <time>2011-07-24T14:08:50Z</time>
      </trkpt>
      <trkpt lat="45.08239" lon="5.62361">
        <ele>1282.4</ele>
        <time>2011-07-24T14:08:59Z</time>
      </trkpt>
      <trkpt lat="45.08237" lon="5.62356">
        <ele>1283.2</ele>
        <time>2011-07-24T14:09:03Z</time>
      </trkpt>
      <trkpt lat="45.08237" lon="5.62355">
        <ele>1283.4</ele>
        <time>2011-07-24T14:09:04Z</time>
      </trkpt>
      <trkpt lat="45.08236" lon="5.62346">
        <ele>1284.6</ele>
        <time>2011-07-24T14:09:11Z</time>
      </trkpt>
      <trkpt lat="45.08236" lon="5.62345">
        <ele>1284.8</ele>
        <time>2011-07-24T14:09:12Z</time>
      </trkpt>
      <trkpt lat="45.08237" lon="5.62344">
        <ele>1284.8</ele>
        <time>2011-07-24T14:09:13Z</time>
      </trkpt>
      <trkpt lat="45.08239" lon="5.62341">
        <ele>1285.2</ele>
        <time>2011-07-24T14:09:16Z</time>
      </trkpt>
      <trkpt lat="45.08242" lon="5.62336">
        <ele>1285.6</ele>
        <time>2011-07-24T14:09:20Z</time>
      </trkpt>
      <trkpt lat="45.08246" lon="5.6233">
        <ele>1286.8</ele>
        <time>2011-07-24T14:09:27Z</time>
      </trkpt>
      <trkpt lat="45.08248" lon="5.62324">
        <ele>1287.8</ele>
        <time>2011-07-24T14:09:32Z</time>
      </trkpt>
      <trkpt lat="45.08249" lon="5.6232">
        <ele>1289.4</ele>
        <time>2011-07-24T14:09:38Z</time>
      </trkpt>
      <trkpt lat="45.08248" lon="5.62314">
        <ele>1292.4</ele>
        <time>2011-07-24T14:09:47Z</time>
      </trkpt>
      <trkpt lat="45.08252" lon="5.62302">
        <ele>1295.2</ele>
        <time>2011-07-24T14:09:57Z</time>
      </trkpt>
      <trkpt lat="45.08255" lon="5.62298">
        <ele>1296</ele>
        <time>2011-07-24T14:10:01Z</time>
      </trkpt>
      <trkpt lat="45.08256" lon="5.62296">
        <ele>1298</ele>
        <time>2011-07-24T14:10:07Z</time>
      </trkpt>
      <trkpt lat="45.08258" lon="5.62291">
        <ele>1299.6</ele>
        <time>2011-07-24T14:10:12Z</time>
      </trkpt>
      <trkpt lat="45.08259" lon="5.62288">
        <ele>1300.2</ele>
        <time>2011-07-24T14:10:14Z</time>
      </trkpt>
      <trkpt lat="45.08257" lon="5.62287">
        <ele>1301.8</ele>
        <time>2011-07-24T14:10:17Z</time>
      </trkpt>
      <trkpt lat="45.08253" lon="5.62263">
        <ele>1316.2</ele>
        <time>2011-07-24T14:10:41Z</time>
      </trkpt>
      <trkpt lat="45.08253" lon="5.62263">
        <ele>1316.8</ele>
        <time>2011-07-24T14:10:42Z</time>
      </trkpt>
      <trkpt lat="45.08254" lon="5.62256">
        <ele>1317.2</ele>
        <time>2011-07-24T14:10:45Z</time>
      </trkpt>
      <trkpt lat="45.08255" lon="5.62253">
        <ele>1317.6</ele>
        <time>2011-07-24T14:10:47Z</time>
      </trkpt>
      <trkpt lat="45.08255" lon="5.62245">
        <ele>1317.6</ele>
        <time>2011-07-24T14:10:52Z</time>
      </trkpt>
      <trkpt lat="45.08257" lon="5.62237">
        <ele>1317.4</ele>
        <time>2011-07-24T14:10:55Z</time>
      </trkpt>
      <trkpt lat="45.08257" lon="5.62233">
        <ele>1317.2</ele>
        <time>2011-07-24T14:10:58Z</time>
      </trkpt>
      <trkpt lat="45.08256" lon="5.62232">
        <ele>1317.2</ele>
        <time>2011-07-24T14:10:59Z</time>
      </trkpt>
      <trkpt lat="45.08254" lon="5.6223">
        <ele>1317</ele>
        <time>2011-07-24T14:11:02Z</time>
      </trkpt>
      <trkpt lat="45.08253" lon="5.62228">
        <ele>1317</ele>
        <time>2011-07-24T14:11:06Z</time>
      </trkpt>
      <trkpt lat="45.08251" lon="5.62223">
        <ele>1317.8</ele>
        <time>2011-07-24T14:11:12Z</time>
      </trkpt>
      <trkpt lat="45.08248" lon="5.62221">
        <ele>1318.8</ele>
        <time>2011-07-24T14:11:16Z</time>
      </trkpt>
      <trkpt lat="45.08246" lon="5.62219">
        <ele>1320.2</ele>
        <time>2011-07-24T14:11:20Z</time>
      </trkpt>
      <trkpt lat="45.08245" lon="5.62218">
        <ele>1321.6</ele>
        <time>2011-07-24T14:11:23Z</time>
      </trkpt>
      <trkpt lat="45.08243" lon="5.62216">
        <ele>1323.6</ele>
        <time>2011-07-24T14:11:27Z</time>
      </trkpt>
      <trkpt lat="45.08242" lon="5.62216">
        <ele>1324.2</ele>
        <time>2011-07-24T14:11:28Z</time>
      </trkpt>
      <trkpt lat="45.0824" lon="5.62214">
        <ele>1326.6</ele>
        <time>2011-07-24T14:11:32Z</time>
      </trkpt>
      <trkpt lat="45.08238" lon="5.62211">
        <ele>1329.2</ele>
        <time>2011-07-24T14:11:36Z</time>
      </trkpt>
      <trkpt lat="45.08248" lon="5.62187">
        <ele>1348.8</ele>
        <time>2011-07-24T14:12:14Z</time>
      </trkpt>
      <trkpt lat="45.08251" lon="5.62186">
        <ele>1356</ele>
        <time>2011-07-24T14:12:26Z</time>
      </trkpt>
      <trkpt lat="45.08253" lon="5.62181">
        <ele>1357.4</ele>
        <time>2011-07-24T14:12:31Z</time>
      </trkpt>
      <trkpt lat="45.08252" lon="5.62181">
        <ele>1359.4</ele>
        <time>2011-07-24T14:12:34Z</time>
      </trkpt>
      <trkpt lat="45.08256" lon="5.6217">
        <ele>1365</ele>
        <time>2011-07-24T14:12:49Z</time>
      </trkpt>
      <trkpt lat="45.08256" lon="5.62165">
        <ele>1365.6</ele>
        <time>2011-07-24T14:12:52Z</time>
      </trkpt>
      <trkpt lat="45.08254" lon="5.62161">
        <ele>1366.4</ele>
        <time>2011-07-24T14:12:56Z</time>
      </trkpt>
      <trkpt lat="45.08254" lon="5.62161">
        <ele>1366.6</ele>
        <time>2011-07-24T14:12:57Z</time>
      </trkpt>
      <trkpt lat="45.08252" lon="5.6216">
        <ele>1367.2</ele>
        <time>2011-07-24T14:12:59Z</time>
      </trkpt>
      <trkpt lat="45.08249" lon="5.62157">
        <ele>1368</ele>
        <time>2011-07-24T14:13:02Z</time>
      </trkpt>
      <trkpt lat="45.08248" lon="5.62155">
        <ele>1368.4</ele>
        <time>2011-07-24T14:13:04Z</time>
      </trkpt>
      <trkpt lat="45.08246" lon="5.62154">
        <ele>1368.8</ele>
        <time>2011-07-24T14:13:07Z</time>
      </trkpt>
      <trkpt lat="45.08243" lon="5.62151">
        <ele>1370.2</ele>
        <time>2011-07-24T14:13:12Z</time>
      </trkpt>
      <trkpt lat="45.08242" lon="5.62148">
        <ele>1370.6</ele>
        <time>2011-07-24T14:13:14Z</time>
      </trkpt>
      <trkpt lat="45.08242" lon="5.62146">
        <ele>1371.2</ele>
        <time>2011-07-24T14:13:16Z</time>
      </trkpt>
      <trkpt lat="45.0824" lon="5.62146">
        <ele>1371.8</ele>
        <time>2011-07-24T14:13:18Z</time>
      </trkpt>
      <trkpt lat="45.08238" lon="5.62142">
        <ele>1372.4</ele>
        <time>2011-07-24T14:13:22Z</time>
      </trkpt>
      <trkpt lat="45.08237" lon="5.62139">
        <ele>1372.8</ele>
        <time>2011-07-24T14:13:26Z</time>
      </trkpt>
      <trkpt lat="45.08237" lon="5.62138">
        <ele>1372.8</ele>
        <time>2011-07-24T14:13:27Z</time>
      </trkpt>
      <trkpt lat="45.08238" lon="5.62132">
        <ele>1372.4</ele>
        <time>2011-07-24T14:13:30Z</time>
      </trkpt>
      <trkpt lat="45.08237" lon="5.62127">
        <ele>1372.4</ele>
        <time>2011-07-24T14:13:37Z</time>
      </trkpt>
      <trkpt lat="45.08237" lon="5.62126">
        <ele>1372.2</ele>
        <time>2011-07-24T14:13:38Z</time>
      </trkpt>
      <trkpt lat="45.08236" lon="5.6212">
        <ele>1371.8</ele>
        <time>2011-07-24T14:13:42Z</time>
      </trkpt>
      <trkpt lat="45.0823" lon="5.62118">
        <ele>1371.6</ele>
        <time>2011-07-24T14:13:48Z</time>
      </trkpt>
      <trkpt lat="45.08227" lon="5.62113">
        <ele>1371.4</ele>
        <time>2011-07-24T14:13:52Z</time>
      </trkpt>
      <trkpt lat="45.08226" lon="5.62112">
        <ele>1371.6</ele>
        <time>2011-07-24T14:13:53Z</time>
      </trkpt>
      <trkpt lat="45.08223" lon="5.6211">
        <ele>1371.8</ele>
        <time>2011-07-24T14:13:56Z</time>
      </trkpt>
      <trkpt lat="45.08221" lon="5.62107">
        <ele>1372.4</ele>
        <time>2011-07-24T14:14:01Z</time>
      </trkpt>
      <trkpt lat="45.08218" lon="5.621">
        <ele>1373.8</ele>
        <time>2011-07-24T14:14:08Z</time>
      </trkpt>
      <trkpt lat="45.08212" lon="5.62088">
        <ele>1378.4</ele>
        <time>2011-07-24T14:14:19Z</time>
      </trkpt>
      <trkpt lat="45.08208" lon="5.62085">
        <ele>1380.2</ele>
        <time>2011-07-24T14:14:23Z</time>
      </trkpt>
      <trkpt lat="45.08204" lon="5.62084">
        <ele>1381.6</ele>
        <time>2011-07-24T14:14:27Z</time>
      </trkpt>
      <trkpt lat="45.08204" lon="5.62083">
        <ele>1381.8</ele>
        <time>2011-07-24T14:14:28Z</time>
      </trkpt>
      <trkpt lat="45.082" lon="5.62081">
        <ele>1383.6</ele>
        <time>2011-07-24T14:14:34Z</time>
      </trkpt>
      <trkpt lat="45.08199" lon="5.6208">
        <ele>1383.8</ele>
        <time>2011-07-24T14:14:35Z</time>
      </trkpt>
      <trkpt lat="45.08198" lon="5.62077">
        <ele>1384.6</ele>
        <time>2011-07-24T14:14:38Z</time>
      </trkpt>
      <trkpt lat="45.08196" lon="5.62072">
        <ele>1385.2</ele>
        <time>2011-07-24T14:14:42Z</time>
      </trkpt>
      <trkpt lat="45.08196" lon="5.62071">
        <ele>1385.2</ele>
        <time>2011-07-24T14:14:43Z</time>
      </trkpt>
      <trkpt lat="45.08193" lon="5.62065">
        <ele>1385.4</ele>
        <time>2011-07-24T14:14:47Z</time>
      </trkpt>
      <trkpt lat="45.08191" lon="5.62061">
        <ele>1385.2</ele>
        <time>2011-07-24T14:14:50Z</time>
      </trkpt>
      <trkpt lat="45.08191" lon="5.62059">
        <ele>1385.2</ele>
        <time>2011-07-24T14:14:51Z</time>
      </trkpt>
      <trkpt lat="45.08192" lon="5.62051">
        <ele>1384.8</ele>
        <time>2011-07-24T14:14:54Z</time>
      </trkpt>
      <trkpt lat="45.08192" lon="5.62046">
        <ele>1384.4</ele>
        <time>2011-07-24T14:14:57Z</time>
      </trkpt>
      <trkpt lat="45.08196" lon="5.62041">
        <ele>1384</ele>
        <time>2011-07-24T14:15:01Z</time>
      </trkpt>
      <trkpt lat="45.08197" lon="5.62039">
        <ele>1383.4</ele>
        <time>2011-07-24T14:15:06Z</time>
      </trkpt>
      <trkpt lat="45.08204" lon="5.62034">
        <ele>1382.6</ele>
        <time>2011-07-24T14:15:14Z</time>
      </trkpt>
      <trkpt lat="45.08204" lon="5.62028">
        <ele>1381.8</ele>
        <time>2011-07-24T14:15:20Z</time>
      </trkpt>
      <trkpt lat="45.08205" lon="5.62025">
        <ele>1381.4</ele>
        <time>2011-07-24T14:15:22Z</time>
      </trkpt>
      <trkpt lat="45.08203" lon="5.62026">
        <ele>1381.6</ele>
        <time>2011-07-24T14:15:25Z</time>
      </trkpt>
      <trkpt lat="45.08204" lon="5.62024">
        <ele>1390.4</ele>
        <time>2011-07-24T14:15:48Z</time>
      </trkpt>
      <trkpt lat="45.08202" lon="5.62027">
        <ele>1393.4</ele>
        <time>2011-07-24T14:15:51Z</time>
      </trkpt>
      <trkpt lat="45.08202" lon="5.62022">
        <ele>1395.4</ele>
        <time>2011-07-24T14:15:55Z</time>
      </trkpt>
      <trkpt lat="45.08201" lon="5.62021">
        <ele>1397.6</ele>
        <time>2011-07-24T14:15:59Z</time>
      </trkpt>
      <trkpt lat="45.08208" lon="5.62007">
        <ele>1408.6</ele>
        <time>2011-07-24T14:16:17Z</time>
      </trkpt>
      <trkpt lat="45.08209" lon="5.62005">
        <ele>1408.8</ele>
        <time>2011-07-24T14:16:18Z</time>
      </trkpt>
      <trkpt lat="45.08211" lon="5.62003">
        <ele>1408.8</ele>
        <time>2011-07-24T14:16:20Z</time>
      </trkpt>
      <trkpt lat="45.08215" lon="5.62002">
        <ele>1409</ele>
        <time>2011-07-24T14:16:23Z</time>
      </trkpt>
      <trkpt lat="45.08215" lon="5.62001">
        <ele>1409.8</ele>
        <time>2011-07-24T14:16:26Z</time>
      </trkpt>
      <trkpt lat="45.08218" lon="5.62">
        <ele>1410.6</ele>
        <time>2011-07-24T14:16:32Z</time>
      </trkpt>
      <trkpt lat="45.0822" lon="5.62">
        <ele>1411.4</ele>
        <time>2011-07-24T14:16:37Z</time>
      </trkpt>
      <trkpt lat="45.08222" lon="5.61998">
        <ele>1411.8</ele>
        <time>2011-07-24T14:16:41Z</time>
      </trkpt>
      <trkpt lat="45.08222" lon="5.61997">
        <ele>1411.6</ele>
        <time>2011-07-24T14:16:42Z</time>
      </trkpt>
      <trkpt lat="45.08224" lon="5.61992">
        <ele>1411.6</ele>
        <time>2011-07-24T14:16:44Z</time>
      </trkpt>
      <trkpt lat="45.08227" lon="5.61986">
        <ele>1411.4</ele>
        <time>2011-07-24T14:16:50Z</time>
      </trkpt>
      <trkpt lat="45.08234" lon="5.61982">
        <ele>1411.6</ele>
        <time>2011-07-24T14:17:04Z</time>
      </trkpt>
      <trkpt lat="45.08235" lon="5.61982">
        <ele>1412.4</ele>
        <time>2011-07-24T14:17:07Z</time>
      </trkpt>
      <trkpt lat="45.08236" lon="5.61981">
        <ele>1412.4</ele>
        <time>2011-07-24T14:17:08Z</time>
      </trkpt>
      <trkpt lat="45.08238" lon="5.61979">
        <ele>1412</ele>
        <time>2011-07-24T14:17:11Z</time>
      </trkpt>
      <trkpt lat="45.08239" lon="5.61976">
        <ele>1412.4</ele>
        <time>2011-07-24T14:17:16Z</time>
      </trkpt>
      <trkpt lat="45.08239" lon="5.61971">
        <ele>1412.4</ele>
        <time>2011-07-24T14:17:19Z</time>
      </trkpt>
      <trkpt lat="45.08244" lon="5.61966">
        <ele>1412.4</ele>
        <time>2011-07-24T14:17:25Z</time>
      </trkpt>
      <trkpt lat="45.08246" lon="5.61962">
        <ele>1412.2</ele>
        <time>2011-07-24T14:17:29Z</time>
      </trkpt>
      <trkpt lat="45.08249" lon="5.6196">
        <ele>1412</ele>
        <time>2011-07-24T14:17:31Z</time>
      </trkpt>
      <trkpt lat="45.08251" lon="5.61957">
        <ele>1411.8</ele>
        <time>2011-07-24T14:17:34Z</time>
      </trkpt>
      <trkpt lat="45.08254" lon="5.61951">
        <ele>1411.8</ele>
        <time>2011-07-24T14:17:40Z</time>
      </trkpt>
      <trkpt lat="45.08258" lon="5.6195">
        <ele>1411.8</ele>
        <time>2011-07-24T14:17:46Z</time>
      </trkpt>
      <trkpt lat="45.0826" lon="5.61952">
        <ele>1412.6</ele>
        <time>2011-07-24T14:17:52Z</time>
      </trkpt>
      <trkpt lat="45.08261" lon="5.61951">
        <ele>1413.2</ele>
        <time>2011-07-24T14:17:57Z</time>
      </trkpt>
      <trkpt lat="45.08261" lon="5.6195">
        <ele>1413.2</ele>
        <time>2011-07-24T14:17:59Z</time>
      </trkpt>
      <trkpt lat="45.0826" lon="5.6195">
        <ele>1413.4</ele>
        <time>2011-07-24T14:18:00Z</time>
      </trkpt>
      <trkpt lat="45.08258" lon="5.61947">
        <ele>1413.8</ele>
        <time>2011-07-24T14:18:08Z</time>
      </trkpt>
      <trkpt lat="45.08254" lon="5.61947">
        <ele>1414.8</ele>
        <time>2011-07-24T14:18:11Z</time>
      </trkpt>
      <trkpt lat="45.08254" lon="5.61941">
        <ele>1414.8</ele>
        <time>2011-07-24T14:18:14Z</time>
      </trkpt>
      <trkpt lat="45.08256" lon="5.61935">
        <ele>1416.2</ele>
        <time>2011-07-24T14:18:23Z</time>
      </trkpt>
      <trkpt lat="45.08255" lon="5.61935">
        <ele>1417.2</ele>
        <time>2011-07-24T14:18:25Z</time>
      </trkpt>
      <trkpt lat="45.08256" lon="5.61933">
        <ele>1417.2</ele>
        <time>2011-07-24T14:18:27Z</time>
      </trkpt>
      <trkpt lat="45.08254" lon="5.61933">
        <ele>1418.4</ele>
        <time>2011-07-24T14:18:29Z</time>
      </trkpt>
      <trkpt lat="45.08261" lon="5.61915">
        <ele>1421.4</ele>
        <time>2011-07-24T14:18:51Z</time>
      </trkpt>
      <trkpt lat="45.08262" lon="5.61915">
        <ele>1421.8</ele>
        <time>2011-07-24T14:18:53Z</time>
      </trkpt>
      <trkpt lat="45.08263" lon="5.61915">
        <ele>1422.6</ele>
        <time>2011-07-24T14:18:56Z</time>
      </trkpt>
      <trkpt lat="45.08264" lon="5.61915">
        <ele>1422.8</ele>
        <time>2011-07-24T14:18:57Z</time>
      </trkpt>
      <trkpt lat="45.08265" lon="5.61914">
        <ele>1423.4</ele>
        <time>2011-07-24T14:18:59Z</time>
      </trkpt>
      <trkpt lat="45.08267" lon="5.61912">
        <ele>1424</ele>
        <time>2011-07-24T14:19:03Z</time>
      </trkpt>
      <trkpt lat="45.08267" lon="5.61913">
        <ele>1425.6</ele>
        <time>2011-07-24T14:19:06Z</time>
      </trkpt>
      <trkpt lat="45.08272" lon="5.6191">
        <ele>1428.4</ele>
        <time>2011-07-24T14:19:16Z</time>
      </trkpt>
      <trkpt lat="45.08275" lon="5.61908">
        <ele>1431.4</ele>
        <time>2011-07-24T14:19:24Z</time>
      </trkpt>
      <trkpt lat="45.08275" lon="5.61905">
        <ele>1433.6</ele>
        <time>2011-07-24T14:19:28Z</time>
      </trkpt>
      <trkpt lat="45.0828" lon="5.619">
        <ele>1437.6</ele>
        <time>2011-07-24T14:19:37Z</time>
      </trkpt>
      <trkpt lat="45.08289" lon="5.61898">
        <ele>1440</ele>
        <time>2011-07-24T14:19:47Z</time>
      </trkpt>
      <trkpt lat="45.08292" lon="5.61897">
        <ele>1440.6</ele>
        <time>2011-07-24T14:19:50Z</time>
      </trkpt>
      <trkpt lat="45.08294" lon="5.61895">
        <ele>1441.8</ele>
        <time>2011-07-24T14:19:54Z</time>
      </trkpt>
      <trkpt lat="45.08295" lon="5.61893">
        <ele>1441.8</ele>
        <time>2011-07-24T14:19:56Z</time>
      </trkpt>
      <trkpt lat="45.0829" lon="5.61886">
        <ele>1442.8</ele>
        <time>2011-07-24T14:20:09Z</time>
      </trkpt>
      <trkpt lat="45.08285" lon="5.61884">
        <ele>1443.4</ele>
        <time>2011-07-24T14:20:13Z</time>
      </trkpt>
      <trkpt lat="45.08281" lon="5.61881">
        <ele>1444.2</ele>
        <time>2011-07-24T14:20:17Z</time>
      </trkpt>
      <trkpt lat="45.0828" lon="5.61882">
        <ele>1444.4</ele>
        <time>2011-07-24T14:20:18Z</time>
      </trkpt>
      <trkpt lat="45.08276" lon="5.61881">
        <ele>1445.4</ele>
        <time>2011-07-24T14:20:22Z</time>
      </trkpt>
      <trkpt lat="45.08276" lon="5.6188">
        <ele>1445.8</ele>
        <time>2011-07-24T14:20:23Z</time>
      </trkpt>
      <trkpt lat="45.08273" lon="5.61871">
        <ele>1447.8</ele>
        <time>2011-07-24T14:20:36Z</time>
      </trkpt>
      <trkpt lat="45.08272" lon="5.61871">
        <ele>1448.2</ele>
        <time>2011-07-24T14:20:37Z</time>
      </trkpt>
      <trkpt lat="45.08271" lon="5.61869">
        <ele>1448.8</ele>
        <time>2011-07-24T14:20:40Z</time>
      </trkpt>
      <trkpt lat="45.0827" lon="5.61865">
        <ele>1450</ele>
        <time>2011-07-24T14:20:47Z</time>
      </trkpt>
      <trkpt lat="45.08268" lon="5.61865">
        <ele>1450.6</ele>
        <time>2011-07-24T14:20:49Z</time>
      </trkpt>
      <trkpt lat="45.08268" lon="5.61863">
        <ele>1450.6</ele>
        <time>2011-07-24T14:20:50Z</time>
      </trkpt>
      <trkpt lat="45.08267" lon="5.61854">
        <ele>1450.6</ele>
        <time>2011-07-24T14:20:56Z</time>
      </trkpt>
      <trkpt lat="45.08263" lon="5.61855">
        <ele>1452</ele>
        <time>2011-07-24T14:21:01Z</time>
      </trkpt>
      <trkpt lat="45.08257" lon="5.61853">
        <ele>1453.2</ele>
        <time>2011-07-24T14:21:07Z</time>
      </trkpt>
      <trkpt lat="45.08255" lon="5.61853">
        <ele>1453.6</ele>
        <time>2011-07-24T14:21:09Z</time>
      </trkpt>
      <trkpt lat="45.08253" lon="5.61851">
        <ele>1454.4</ele>
        <time>2011-07-24T14:21:11Z</time>
      </trkpt>
      <trkpt lat="45.08252" lon="5.61851">
        <ele>1454.6</ele>
        <time>2011-07-24T14:21:12Z</time>
      </trkpt>
      <trkpt lat="45.0825" lon="5.61851">
        <ele>1455.4</ele>
        <time>2011-07-24T14:21:14Z</time>
      </trkpt>
      <trkpt lat="45.08248" lon="5.61849">
        <ele>1456.6</ele>
        <time>2011-07-24T14:21:17Z</time>
      </trkpt>
      <trkpt lat="45.08245" lon="5.61849">
        <ele>1458.2</ele>
        <time>2011-07-24T14:21:21Z</time>
      </trkpt>
      <trkpt lat="45.08244" lon="5.61849">
        <ele>1458.6</ele>
        <time>2011-07-24T14:21:22Z</time>
      </trkpt>
      <trkpt lat="45.08241" lon="5.61846">
        <ele>1461.2</ele>
        <time>2011-07-24T14:21:27Z</time>
      </trkpt>
      <trkpt lat="45.08245" lon="5.6183">
        <ele>1470.8</ele>
        <time>2011-07-24T14:21:50Z</time>
      </trkpt>
      <trkpt lat="45.08247" lon="5.61827">
        <ele>1473.2</ele>
        <time>2011-07-24T14:21:57Z</time>
      </trkpt>
      <trkpt lat="45.0825" lon="5.61823">
        <ele>1473.8</ele>
        <time>2011-07-24T14:22:00Z</time>
      </trkpt>
      <trkpt lat="45.08251" lon="5.61819">
        <ele>1475</ele>
        <time>2011-07-24T14:22:06Z</time>
      </trkpt>
      <trkpt lat="45.08248" lon="5.61821">
        <ele>1478.2</ele>
        <time>2011-07-24T14:22:14Z</time>
      </trkpt>
      <trkpt lat="45.08246" lon="5.61821">
        <ele>1479.6</ele>
        <time>2011-07-24T14:22:16Z</time>
      </trkpt>
      <trkpt lat="45.08248" lon="5.61818">
        <ele>1480.6</ele>
        <time>2011-07-24T14:22:19Z</time>
      </trkpt>
      <trkpt lat="45.08251" lon="5.61816">
        <ele>1482.6</ele>
        <time>2011-07-24T14:22:23Z</time>
      </trkpt>
      <trkpt lat="45.0825" lon="5.61813">
        <ele>1484.2</ele>
        <time>2011-07-24T14:22:27Z</time>
      </trkpt>
      <trkpt lat="45.0825" lon="5.61809">
        <ele>1485.2</ele>
        <time>2011-07-24T14:22:30Z</time>
      </trkpt>
      <trkpt lat="45.08249" lon="5.6181">
        <ele>1485.8</ele>
        <time>2011-07-24T14:22:31Z</time>
      </trkpt>
      <trkpt lat="45.08247" lon="5.61809">
        <ele>1487</ele>
        <time>2011-07-24T14:22:34Z</time>
      </trkpt>
      <trkpt lat="45.08244" lon="5.61805">
        <ele>1489.2</ele>
        <time>2011-07-24T14:22:41Z</time>
      </trkpt>
      <trkpt lat="45.08242" lon="5.61802">
        <ele>1490.4</ele>
        <time>2011-07-24T14:22:44Z</time>
      </trkpt>
      <trkpt lat="45.0824" lon="5.618">
        <ele>1491</ele>
        <time>2011-07-24T14:22:47Z</time>
      </trkpt>
      <trkpt lat="45.08237" lon="5.61796">
        <ele>1491.8</ele>
        <time>2011-07-24T14:22:51Z</time>
      </trkpt>
      <trkpt lat="45.08236" lon="5.61793">
        <ele>1491.8</ele>
        <time>2011-07-24T14:22:54Z</time>
      </trkpt>
      <trkpt lat="45.08234" lon="5.61787">
        <ele>1491.6</ele>
        <time>2011-07-24T14:23:00Z</time>
      </trkpt>
      <trkpt lat="45.08231" lon="5.61783">
        <ele>1491</ele>
        <time>2011-07-24T14:23:07Z</time>
      </trkpt>
      <trkpt lat="45.08227" lon="5.61783">
        <ele>1490.8</ele>
        <time>2011-07-24T14:23:12Z</time>
      </trkpt>
      <trkpt lat="45.08225" lon="5.61782">
        <ele>1490.6</ele>
        <time>2011-07-24T14:23:16Z</time>
      </trkpt>
      <trkpt lat="45.08222" lon="5.61783">
        <ele>1490.6</ele>
        <time>2011-07-24T14:23:19Z</time>
      </trkpt>
      <trkpt lat="45.08216" lon="5.61787">
        <ele>1491.4</ele>
        <time>2011-07-24T14:23:25Z</time>
      </trkpt>
      <trkpt lat="45.08215" lon="5.61788">
        <ele>1491.6</ele>
        <time>2011-07-24T14:23:26Z</time>
      </trkpt>
      <trkpt lat="45.08214" lon="5.6179">
        <ele>1492</ele>
        <time>2011-07-24T14:23:29Z</time>
      </trkpt>
      <trkpt lat="45.08212" lon="5.61791">
        <ele>1492.4</ele>
        <time>2011-07-24T14:23:31Z</time>
      </trkpt>
      <trkpt lat="45.08211" lon="5.61793">
        <ele>1492.8</ele>
        <time>2011-07-24T14:23:33Z</time>
      </trkpt>
      <trkpt lat="45.08207" lon="5.61797">
        <ele>1494</ele>
        <time>2011-07-24T14:23:37Z</time>
      </trkpt>
      <trkpt lat="45.08205" lon="5.61798">
        <ele>1494.4</ele>
        <time>2011-07-24T14:23:38Z</time>
      </trkpt>
      <trkpt lat="45.08203" lon="5.61799">
        <ele>1495.2</ele>
        <time>2011-07-24T14:23:40Z</time>
      </trkpt>
      <trkpt lat="45.08198" lon="5.618">
        <ele>1496.4</ele>
        <time>2011-07-24T14:23:44Z</time>
      </trkpt>
      <trkpt lat="45.08196" lon="5.61801">
        <ele>1497.2</ele>
        <time>2011-07-24T14:23:45Z</time>
      </trkpt>
      <trkpt lat="45.08193" lon="5.61802">
        <ele>1497.8</ele>
        <time>2011-07-24T14:23:46Z</time>
      </trkpt>
      <trkpt lat="45.08188" lon="5.61804">
        <ele>1499.2</ele>
        <time>2011-07-24T14:23:48Z</time>
      </trkpt>
      <trkpt lat="45.08182" lon="5.61809">
        <ele>1502.8</ele>
        <time>2011-07-24T14:23:52Z</time>
      </trkpt>
      <trkpt lat="45.08181" lon="5.61811">
        <ele>1503.6</ele>
        <time>2011-07-24T14:23:53Z</time>
      </trkpt>
      <trkpt lat="45.08181" lon="5.61811">
        <ele>1503.6</ele>
        <time>2011-07-24T14:23:53Z</time>
      </trkpt>
      <trkpt lat="45.08175" lon="5.61814">
        <ele>1508.6</ele>
        <time>2011-07-24T14:23:58Z</time>
      </trkpt>
      <trkpt lat="45.0817" lon="5.61818">
        <ele>1514</ele>
        <time>2011-07-24T14:24:03Z</time>
      </trkpt>
      <trkpt lat="45.08164" lon="5.61819">
        <ele>1518.2</ele>
        <time>2011-07-24T14:24:07Z</time>
      </trkpt>
      <trkpt lat="45.08164" lon="5.61815">
        <ele>1522.8</ele>
        <time>2011-07-24T14:24:12Z</time>
      </trkpt>
      <trkpt lat="45.08167" lon="5.61812">
        <ele>1530</ele>
        <time>2011-07-24T14:24:21Z</time>
      </trkpt>
      <trkpt lat="45.08168" lon="5.61811">
        <ele>1532.2</ele>
        <time>2011-07-24T14:24:24Z</time>
      </trkpt>
      <trkpt lat="45.08171" lon="5.61809">
        <ele>1534</ele>
        <time>2011-07-24T14:24:28Z</time>
      </trkpt>
      <trkpt lat="45.08173" lon="5.61806">
        <ele>1535.6</ele>
        <time>2011-07-24T14:24:30Z</time>
      </trkpt>
      <trkpt lat="45.08173" lon="5.61805">
        <ele>1536.2</ele>
        <time>2011-07-24T14:24:31Z</time>
      </trkpt>
      <trkpt lat="45.08173" lon="5.61802">
        <ele>1538.2</ele>
        <time>2011-07-24T14:24:34Z</time>
      </trkpt>
      <trkpt lat="45.08177" lon="5.61801">
        <ele>1540.6</ele>
        <time>2011-07-24T14:24:38Z</time>
      </trkpt>
      <trkpt lat="45.08177" lon="5.618">
        <ele>1541.2</ele>
        <time>2011-07-24T14:24:39Z</time>
      </trkpt>
      <trkpt lat="45.08177" lon="5.61796">
        <ele>1542.6</ele>
        <time>2011-07-24T14:24:43Z</time>
      </trkpt>
      <trkpt lat="45.08175" lon="5.61795">
        <ele>1544.8</ele>
        <time>2011-07-24T14:24:49Z</time>
      </trkpt>
      <trkpt lat="45.08173" lon="5.61795">
        <ele>1546.2</ele>
        <time>2011-07-24T14:24:53Z</time>
      </trkpt>
      <trkpt lat="45.08169" lon="5.61795">
        <ele>1548.2</ele>
        <time>2011-07-24T14:24:58Z</time>
      </trkpt>
      <trkpt lat="45.08168" lon="5.6179">
        <ele>1549.4</ele>
        <time>2011-07-24T14:25:03Z</time>
      </trkpt>
      <trkpt lat="45.08169" lon="5.61789">
        <ele>1549.8</ele>
        <time>2011-07-24T14:25:04Z</time>
      </trkpt>
      <trkpt lat="45.0817" lon="5.61787">
        <ele>1550</ele>
        <time>2011-07-24T14:25:06Z</time>
      </trkpt>
      <trkpt lat="45.0817" lon="5.61786">
        <ele>1550.2</ele>
        <time>2011-07-24T14:25:07Z</time>
      </trkpt>
      <trkpt lat="45.08174" lon="5.61782">
        <ele>1551.4</ele>
        <time>2011-07-24T14:25:14Z</time>
      </trkpt>
      <trkpt lat="45.08177" lon="5.6178">
        <ele>1552.4</ele>
        <time>2011-07-24T14:25:19Z</time>
      </trkpt>
      <trkpt lat="45.08178" lon="5.61779">
        <ele>1552.6</ele>
        <time>2011-07-24T14:25:20Z</time>
      </trkpt>
      <trkpt lat="45.08179" lon="5.61778">
        <ele>1552.8</ele>
        <time>2011-07-24T14:25:21Z</time>
      </trkpt>
      <trkpt lat="45.0818" lon="5.61771">
        <ele>1552.6</ele>
        <time>2011-07-24T14:25:24Z</time>
      </trkpt>
      <trkpt lat="45.08182" lon="5.61766">
        <ele>1553.6</ele>
        <time>2011-07-24T14:25:31Z</time>
      </trkpt>
      <trkpt lat="45.08185" lon="5.61763">
        <ele>1554.4</ele>
        <time>2011-07-24T14:25:36Z</time>
      </trkpt>
      <trkpt lat="45.08185" lon="5.61763">
        <ele>1554.6</ele>
        <time>2011-07-24T14:25:37Z</time>
      </trkpt>
      <trkpt lat="45.08186" lon="5.61759">
        <ele>1555.6</ele>
        <time>2011-07-24T14:25:41Z</time>
      </trkpt>
      <trkpt lat="45.08187" lon="5.61759">
        <ele>1555.8</ele>
        <time>2011-07-24T14:25:42Z</time>
      </trkpt>
      <trkpt lat="45.08188" lon="5.61756">
        <ele>1556.2</ele>
        <time>2011-07-24T14:25:45Z</time>
      </trkpt>
      <trkpt lat="45.0819" lon="5.61755">
        <ele>1556.8</ele>
        <time>2011-07-24T14:25:48Z</time>
      </trkpt>
      <trkpt lat="45.08191" lon="5.61754">
        <ele>1557</ele>
        <time>2011-07-24T14:25:49Z</time>
      </trkpt>
      <trkpt lat="45.08195" lon="5.61752">
        <ele>1557.4</ele>
        <time>2011-07-24T14:25:53Z</time>
      </trkpt>
      <trkpt lat="45.08195" lon="5.61752">
        <ele>1558</ele>
        <time>2011-07-24T14:25:55Z</time>
      </trkpt>
      <trkpt lat="45.08195" lon="5.61749">
        <ele>1561.2</ele>
        <time>2011-07-24T14:26:03Z</time>
      </trkpt>
      <trkpt lat="45.08199" lon="5.61741">
        <ele>1563</ele>
        <time>2011-07-24T14:26:09Z</time>
      </trkpt>
      <trkpt lat="45.082" lon="5.61738">
        <ele>1563</ele>
        <time>2011-07-24T14:26:10Z</time>
      </trkpt>
      <trkpt lat="45.08201" lon="5.61738">
        <ele>1564.6</ele>
        <time>2011-07-24T14:26:16Z</time>
      </trkpt>
      <trkpt lat="45.08205" lon="5.61732">
        <ele>1568.8</ele>
        <time>2011-07-24T14:26:26Z</time>
      </trkpt>
      <trkpt lat="45.08208" lon="5.61722">
        <ele>1571</ele>
        <time>2011-07-24T14:26:33Z</time>
      </trkpt>
      <trkpt lat="45.08208" lon="5.61721">
        <ele>1571.4</ele>
        <time>2011-07-24T14:26:34Z</time>
      </trkpt>
      <trkpt lat="45.08209" lon="5.61717">
        <ele>1573</ele>
        <time>2011-07-24T14:26:40Z</time>
      </trkpt>
      <trkpt lat="45.08211" lon="5.61714">
        <ele>1574.4</ele>
        <time>2011-07-24T14:26:43Z</time>
      </trkpt>
      <trkpt lat="45.08211" lon="5.61718">
        <ele>1577.2</ele>
        <time>2011-07-24T14:26:49Z</time>
      </trkpt>
      <trkpt lat="45.08215" lon="5.61716">
        <ele>1579.6</ele>
        <time>2011-07-24T14:26:54Z</time>
      </trkpt>
      <trkpt lat="45.08215" lon="5.61714">
        <ele>1580</ele>
        <time>2011-07-24T14:26:56Z</time>
      </trkpt>
      <trkpt lat="45.08216" lon="5.6171">
        <ele>1580.6</ele>
        <time>2011-07-24T14:26:58Z</time>
      </trkpt>
      <trkpt lat="45.08217" lon="5.61707">
        <ele>1581.2</ele>
        <time>2011-07-24T14:27:00Z</time>
      </trkpt>
      <trkpt lat="45.08217" lon="5.61707">
        <ele>1581.8</ele>
        <time>2011-07-24T14:27:02Z</time>
      </trkpt>
      <trkpt lat="45.08216" lon="5.61708">
        <ele>1584.8</ele>
        <time>2011-07-24T14:27:09Z</time>
      </trkpt>
      <trkpt lat="45.0822" lon="5.61704">
        <ele>1586.4</ele>
        <time>2011-07-24T14:27:13Z</time>
      </trkpt>
      <trkpt lat="45.08221" lon="5.61702">
        <ele>1586.8</ele>
        <time>2011-07-24T14:27:14Z</time>
      </trkpt>
      <trkpt lat="45.08221" lon="5.61702">
        <ele>1588.6</ele>
        <time>2011-07-24T14:27:17Z</time>
      </trkpt>
      <trkpt lat="45.08222" lon="5.61701">
        <ele>1591.6</ele>
        <time>2011-07-24T14:27:24Z</time>
      </trkpt>
      <trkpt lat="45.08223" lon="5.61701">
        <ele>1592.6</ele>
        <time>2011-07-24T14:27:26Z</time>
      </trkpt>
      <trkpt lat="45.08223" lon="5.61702">
        <ele>1593.8</ele>
        <time>2011-07-24T14:27:27Z</time>
      </trkpt>
      <trkpt lat="45.08224" lon="5.617">
        <ele>1595.6</ele>
        <time>2011-07-24T14:27:30Z</time>
      </trkpt>
      <trkpt lat="45.08224" lon="5.617">
        <ele>1596.2</ele>
        <time>2011-07-24T14:27:31Z</time>
      </trkpt>
      <trkpt lat="45.08222" lon="5.61697">
        <ele>1598.8</ele>
        <time>2011-07-24T14:27:36Z</time>
      </trkpt>
      <trkpt lat="45.08221" lon="5.61696">
        <ele>1599.6</ele>
        <time>2011-07-24T14:27:38Z</time>
      </trkpt>
      <trkpt lat="45.0822" lon="5.61695">
        <ele>1600.6</ele>
        <time>2011-07-24T14:27:40Z</time>
      </trkpt>
      <trkpt lat="45.08221" lon="5.61693">
        <ele>1600.8</ele>
        <time>2011-07-24T14:27:41Z</time>
      </trkpt>
      <trkpt lat="45.08224" lon="5.61688">
        <ele>1601.4</ele>
        <time>2011-07-24T14:27:44Z</time>
      </trkpt>
      <trkpt lat="45.08225" lon="5.61688">
        <ele>1601.8</ele>
        <time>2011-07-24T14:27:45Z</time>
      </trkpt>
      <trkpt lat="45.08229" lon="5.61686">
        <ele>1602.8</ele>
        <time>2011-07-24T14:27:49Z</time>
      </trkpt>
      <trkpt lat="45.0823" lon="5.61684">
        <ele>1603</ele>
        <time>2011-07-24T14:27:50Z</time>
      </trkpt>
      <trkpt lat="45.08235" lon="5.61676">
        <ele>1602.4</ele>
        <time>2011-07-24T14:27:54Z</time>
      </trkpt>
      <trkpt lat="45.08237" lon="5.61674">
        <ele>1602.4</ele>
        <time>2011-07-24T14:27:55Z</time>
      </trkpt>
      <trkpt lat="45.08238" lon="5.61671">
        <ele>1602.4</ele>
        <time>2011-07-24T14:27:56Z</time>
      </trkpt>
      <trkpt lat="45.08243" lon="5.6166">
        <ele>1601.6</ele>
        <time>2011-07-24T14:28:00Z</time>
      </trkpt>
      <trkpt lat="45.08246" lon="5.61651">
        <ele>1600.6</ele>
        <time>2011-07-24T14:28:03Z</time>
      </trkpt>
      <trkpt lat="45.08246" lon="5.6165">
        <ele>1600.4</ele>
        <time>2011-07-24T14:28:04Z</time>
      </trkpt>
      <trkpt lat="45.08246" lon="5.61648">
        <ele>1600.2</ele>
        <time>2011-07-24T14:28:06Z</time>
      </trkpt>
      <trkpt lat="45.08248" lon="5.61641">
        <ele>1598.8</ele>
        <time>2011-07-24T14:28:09Z</time>
      </trkpt>
      <trkpt lat="45.08248" lon="5.6164">
        <ele>1598.6</ele>
        <time>2011-07-24T14:28:10Z</time>
      </trkpt>
      <trkpt lat="45.08248" lon="5.61637">
        <ele>1597.2</ele>
        <time>2011-07-24T14:28:14Z</time>
      </trkpt>
      <trkpt lat="45.08249" lon="5.61632">
        <ele>1595.8</ele>
        <time>2011-07-24T14:28:18Z</time>
      </trkpt>
      <trkpt lat="45.0825" lon="5.61629">
        <ele>1595</ele>
        <time>2011-07-24T14:28:20Z</time>
      </trkpt>
      <trkpt lat="45.08252" lon="5.61626">
        <ele>1594.2</ele>
        <time>2011-07-24T14:28:23Z</time>
      </trkpt>
      <trkpt lat="45.08252" lon="5.61622">
        <ele>1592.6</ele>
        <time>2011-07-24T14:28:26Z</time>
      </trkpt>
      <trkpt lat="45.08252" lon="5.61622">
        <ele>1592.2</ele>
        <time>2011-07-24T14:28:27Z</time>
      </trkpt>
      <trkpt lat="45.08251" lon="5.61621">
        <ele>1590.8</ele>
        <time>2011-07-24T14:28:31Z</time>
      </trkpt>
      <trkpt lat="45.08248" lon="5.61621">
        <ele>1589.2</ele>
        <time>2011-07-24T14:28:36Z</time>
      </trkpt>
      <trkpt lat="45.08246" lon="5.61619">
        <ele>1587.8</ele>
        <time>2011-07-24T14:28:41Z</time>
      </trkpt>
      <trkpt lat="45.08241" lon="5.61622">
        <ele>1586.6</ele>
        <time>2011-07-24T14:28:45Z</time>
      </trkpt>
      <trkpt lat="45.08236" lon="5.61633">
        <ele>1586.6</ele>
        <time>2011-07-24T14:28:49Z</time>
      </trkpt>
      <trkpt lat="45.08233" lon="5.61636">
        <ele>1586.2</ele>
        <time>2011-07-24T14:28:54Z</time>
      </trkpt>
      <trkpt lat="45.08231" lon="5.61638">
        <ele>1586.2</ele>
        <time>2011-07-24T14:28:57Z</time>
      </trkpt>
      <trkpt lat="45.08229" lon="5.6164">
        <ele>1586</ele>
        <time>2011-07-24T14:29:00Z</time>
      </trkpt>
      <trkpt lat="45.08222" lon="5.6165">
        <ele>1586.4</ele>
        <time>2011-07-24T14:29:06Z</time>
      </trkpt>
      <trkpt lat="45.08219" lon="5.61653">
        <ele>1586.8</ele>
        <time>2011-07-24T14:29:07Z</time>
      </trkpt>
      <trkpt lat="45.08215" lon="5.61657">
        <ele>1587.4</ele>
        <time>2011-07-24T14:29:11Z</time>
      </trkpt>
      <trkpt lat="45.08211" lon="5.61657">
        <ele>1588.2</ele>
        <time>2011-07-24T14:29:14Z</time>
      </trkpt>
      <trkpt lat="45.08206" lon="5.61657">
        <ele>1589.6</ele>
        <time>2011-07-24T14:29:19Z</time>
      </trkpt>
      <trkpt lat="45.08202" lon="5.61655">
        <ele>1590.8</ele>
        <time>2011-07-24T14:29:24Z</time>
      </trkpt>
      <trkpt lat="45.08201" lon="5.61655">
        <ele>1591</ele>
        <time>2011-07-24T14:29:25Z</time>
      </trkpt>
      <trkpt lat="45.08196" lon="5.61657">
        <ele>1591.4</ele>
        <time>2011-07-24T14:29:28Z</time>
      </trkpt>
      <trkpt lat="45.08191" lon="5.61658">
        <ele>1592</ele>
        <time>2011-07-24T14:29:29Z</time>
      </trkpt>
      <trkpt lat="45.0818" lon="5.61662">
        <ele>1593.2</ele>
        <time>2011-07-24T14:29:34Z</time>
      </trkpt>
      <trkpt lat="45.08178" lon="5.61661">
        <ele>1593.8</ele>
        <time>2011-07-24T14:29:37Z</time>
      </trkpt>
      <trkpt lat="45.08177" lon="5.6166">
        <ele>1594.2</ele>
        <time>2011-07-24T14:29:38Z</time>
      </trkpt>
      <trkpt lat="45.08172" lon="5.61659">
        <ele>1595.4</ele>
        <time>2011-07-24T14:29:43Z</time>
      </trkpt>
      <trkpt lat="45.08171" lon="5.61658">
        <ele>1595.6</ele>
        <time>2011-07-24T14:29:44Z</time>
      </trkpt>
      <trkpt lat="45.0817" lon="5.61658">
        <ele>1596.2</ele>
        <time>2011-07-24T14:29:46Z</time>
      </trkpt>
      <trkpt lat="45.08161" lon="5.61657">
        <ele>1597.6</ele>
        <time>2011-07-24T14:29:53Z</time>
      </trkpt>
      <trkpt lat="45.0816" lon="5.61657">
        <ele>1597.6</ele>
        <time>2011-07-24T14:29:54Z</time>
      </trkpt>
      <trkpt lat="45.08156" lon="5.61655">
        <ele>1598.2</ele>
        <time>2011-07-24T14:29:57Z</time>
      </trkpt>
      <trkpt lat="45.08155" lon="5.61654">
        <ele>1598.6</ele>
        <time>2011-07-24T14:30:00Z</time>
      </trkpt>
      <trkpt lat="45.08153" lon="5.61655">
        <ele>1599.2</ele>
        <time>2011-07-24T14:30:02Z</time>
      </trkpt>
      <trkpt lat="45.08151" lon="5.61655">
        <ele>1599.4</ele>
        <time>2011-07-24T14:30:03Z</time>
      </trkpt>
      <trkpt lat="45.0815" lon="5.61653">
        <ele>1599.8</ele>
        <time>2011-07-24T14:30:05Z</time>
      </trkpt>
      <trkpt lat="45.08148" lon="5.61651">
        <ele>1600.4</ele>
        <time>2011-07-24T14:30:09Z</time>
      </trkpt>
      <trkpt lat="45.08144" lon="5.61649">
        <ele>1601.6</ele>
        <time>2011-07-24T14:30:15Z</time>
      </trkpt>
      <trkpt lat="45.08143" lon="5.61648">
        <ele>1602</ele>
        <time>2011-07-24T14:30:17Z</time>
      </trkpt>
      <trkpt lat="45.08137" lon="5.61649">
        <ele>1603.4</ele>
        <time>2011-07-24T14:30:22Z</time>
      </trkpt>
      <trkpt lat="45.08135" lon="5.61648">
        <ele>1604.2</ele>
        <time>2011-07-24T14:30:25Z</time>
      </trkpt>
      <trkpt lat="45.08133" lon="5.61644">
        <ele>1605.4</ele>
        <time>2011-07-24T14:30:29Z</time>
      </trkpt>
      <trkpt lat="45.08135" lon="5.61642">
        <ele>1606.2</ele>
        <time>2011-07-24T14:30:32Z</time>
      </trkpt>
      <trkpt lat="45.08136" lon="5.61642">
        <ele>1606.6</ele>
        <time>2011-07-24T14:30:34Z</time>
      </trkpt>
      <trkpt lat="45.08138" lon="5.61641">
        <ele>1607.2</ele>
        <time>2011-07-24T14:30:36Z</time>
      </trkpt>
      <trkpt lat="45.08139" lon="5.61639">
        <ele>1607.8</ele>
        <time>2011-07-24T14:30:38Z</time>
      </trkpt>
      <trkpt lat="45.08139" lon="5.61635">
        <ele>1609.2</ele>
        <time>2011-07-24T14:30:43Z</time>
      </trkpt>
      <trkpt lat="45.08139" lon="5.6163">
        <ele>1611.2</ele>
        <time>2011-07-24T14:30:52Z</time>
      </trkpt>
      <trkpt lat="45.08138" lon="5.61629">
        <ele>1612</ele>
        <time>2011-07-24T14:30:57Z</time>
      </trkpt>
      <trkpt lat="45.08136" lon="5.61627">
        <ele>1612.8</ele>
        <time>2011-07-24T14:31:01Z</time>
      </trkpt>
      <trkpt lat="45.08133" lon="5.61628">
        <ele>1613.4</ele>
        <time>2011-07-24T14:31:05Z</time>
      </trkpt>
      <trkpt lat="45.08129" lon="5.61625">
        <ele>1614</ele>
        <time>2011-07-24T14:31:10Z</time>
      </trkpt>
      <trkpt lat="45.08128" lon="5.61626">
        <ele>1614.2</ele>
        <time>2011-07-24T14:31:11Z</time>
      </trkpt>
      <trkpt lat="45.08127" lon="5.61626">
        <ele>1614.4</ele>
        <time>2011-07-24T14:31:12Z</time>
      </trkpt>
      <trkpt lat="45.08123" lon="5.61625">
        <ele>1615.2</ele>
        <time>2011-07-24T14:31:16Z</time>
      </trkpt>
      <trkpt lat="45.08122" lon="5.61624">
        <ele>1615.4</ele>
        <time>2011-07-24T14:31:18Z</time>
      </trkpt>
      <trkpt lat="45.08118" lon="5.61623">
        <ele>1616.4</ele>
        <time>2011-07-24T14:31:23Z</time>
      </trkpt>
      <trkpt lat="45.08117" lon="5.61623">
        <ele>1616.4</ele>
        <time>2011-07-24T14:31:25Z</time>
      </trkpt>
      <trkpt lat="45.08114" lon="5.61622">
        <ele>1617.6</ele>
        <time>2011-07-24T14:31:30Z</time>
      </trkpt>
      <trkpt lat="45.08115" lon="5.61618">
        <ele>1618.6</ele>
        <time>2011-07-24T14:31:35Z</time>
      </trkpt>
      <trkpt lat="45.08114" lon="5.61615">
        <ele>1619.8</ele>
        <time>2011-07-24T14:31:43Z</time>
      </trkpt>
      <trkpt lat="45.08115" lon="5.61611">
        <ele>1620.6</ele>
        <time>2011-07-24T14:31:46Z</time>
      </trkpt>
      <trkpt lat="45.08117" lon="5.61607">
        <ele>1622</ele>
        <time>2011-07-24T14:31:53Z</time>
      </trkpt>
      <trkpt lat="45.08116" lon="5.61606">
        <ele>1622.2</ele>
        <time>2011-07-24T14:31:54Z</time>
      </trkpt>
      <trkpt lat="45.08117" lon="5.61602">
        <ele>1623</ele>
        <time>2011-07-24T14:31:58Z</time>
      </trkpt>
      <trkpt lat="45.08119" lon="5.616">
        <ele>1624</ele>
        <time>2011-07-24T14:32:02Z</time>
      </trkpt>
      <trkpt lat="45.08121" lon="5.61598">
        <ele>1624.6</ele>
        <time>2011-07-24T14:32:05Z</time>
      </trkpt>
      <trkpt lat="45.08121" lon="5.61598">
        <ele>1624.8</ele>
        <time>2011-07-24T14:32:06Z</time>
      </trkpt>
      <trkpt lat="45.08121" lon="5.61593">
        <ele>1626</ele>
        <time>2011-07-24T14:32:11Z</time>
      </trkpt>
      <trkpt lat="45.08119" lon="5.6159">
        <ele>1627</ele>
        <time>2011-07-24T14:32:16Z</time>
      </trkpt>
      <trkpt lat="45.08116" lon="5.61591">
        <ele>1628.2</ele>
        <time>2011-07-24T14:32:22Z</time>
      </trkpt>
      <trkpt lat="45.0811" lon="5.61592">
        <ele>1630</ele>
        <time>2011-07-24T14:32:29Z</time>
      </trkpt>
      <trkpt lat="45.08108" lon="5.61591">
        <ele>1630.4</ele>
        <time>2011-07-24T14:32:30Z</time>
      </trkpt>
      <trkpt lat="45.08108" lon="5.61589">
        <ele>1630.8</ele>
        <time>2011-07-24T14:32:32Z</time>
      </trkpt>
      <trkpt lat="45.08107" lon="5.61588">
        <ele>1631</ele>
        <time>2011-07-24T14:32:33Z</time>
      </trkpt>
      <trkpt lat="45.08105" lon="5.61587">
        <ele>1632</ele>
        <time>2011-07-24T14:32:37Z</time>
      </trkpt>
      <trkpt lat="45.08103" lon="5.61587">
        <ele>1633</ele>
        <time>2011-07-24T14:32:42Z</time>
      </trkpt>
      <trkpt lat="45.081" lon="5.61583">
        <ele>1634.4</ele>
        <time>2011-07-24T14:32:48Z</time>
      </trkpt>
      <trkpt lat="45.08099" lon="5.61578">
        <ele>1635.4</ele>
        <time>2011-07-24T14:32:52Z</time>
      </trkpt>
      <trkpt lat="45.08099" lon="5.61574">
        <ele>1636.6</ele>
        <time>2011-07-24T14:32:56Z</time>
      </trkpt>
      <trkpt lat="45.08099" lon="5.61571">
        <ele>1637</ele>
        <time>2011-07-24T14:32:59Z</time>
      </trkpt>
      <trkpt lat="45.081" lon="5.61567">
        <ele>1637.4</ele>
        <time>2011-07-24T14:33:01Z</time>
      </trkpt>
      <trkpt lat="45.08104" lon="5.61562">
        <ele>1637.4</ele>
        <time>2011-07-24T14:33:05Z</time>
      </trkpt>
      <trkpt lat="45.08105" lon="5.6156">
        <ele>1637.4</ele>
        <time>2011-07-24T14:33:06Z</time>
      </trkpt>
      <trkpt lat="45.08106" lon="5.61558">
        <ele>1637.2</ele>
        <time>2011-07-24T14:33:07Z</time>
      </trkpt>
      <trkpt lat="45.08109" lon="5.61553">
        <ele>1637.2</ele>
        <time>2011-07-24T14:33:10Z</time>
      </trkpt>
      <trkpt lat="45.0811" lon="5.61551">
        <ele>1637.2</ele>
        <time>2011-07-24T14:33:11Z</time>
      </trkpt>
      <trkpt lat="45.08113" lon="5.61545">
        <ele>1636.8</ele>
        <time>2011-07-24T14:33:15Z</time>
      </trkpt>
      <trkpt lat="45.08116" lon="5.61541">
        <ele>1636.6</ele>
        <time>2011-07-24T14:33:19Z</time>
      </trkpt>
      <trkpt lat="45.08117" lon="5.6154">
        <ele>1636.6</ele>
        <time>2011-07-24T14:33:20Z</time>
      </trkpt>
      <trkpt lat="45.08118" lon="5.61537">
        <ele>1636.4</ele>
        <time>2011-07-24T14:33:23Z</time>
      </trkpt>
      <trkpt lat="45.08119" lon="5.61535">
        <ele>1636.2</ele>
        <time>2011-07-24T14:33:24Z</time>
      </trkpt>
      <trkpt lat="45.08122" lon="5.61531">
        <ele>1636</ele>
        <time>2011-07-24T14:33:28Z</time>
      </trkpt>
      <trkpt lat="45.08123" lon="5.6153">
        <ele>1635.8</ele>
        <time>2011-07-24T14:33:29Z</time>
      </trkpt>
      <trkpt lat="45.08124" lon="5.61528">
        <ele>1635.6</ele>
        <time>2011-07-24T14:33:32Z</time>
      </trkpt>
      <trkpt lat="45.08124" lon="5.61527">
        <ele>1635.6</ele>
        <time>2011-07-24T14:33:33Z</time>
      </trkpt>
      <trkpt lat="45.08125" lon="5.61525">
        <ele>1635.4</ele>
        <time>2011-07-24T14:33:35Z</time>
      </trkpt>
      <trkpt lat="45.08125" lon="5.61524">
        <ele>1635.2</ele>
        <time>2011-07-24T14:33:37Z</time>
      </trkpt>
      <trkpt lat="45.08123" lon="5.61522">
        <ele>1634.8</ele>
        <time>2011-07-24T14:33:41Z</time>
      </trkpt>
      <trkpt lat="45.0812" lon="5.61519">
        <ele>1634.6</ele>
        <time>2011-07-24T14:33:45Z</time>
      </trkpt>
      <trkpt lat="45.08119" lon="5.61513">
        <ele>1634</ele>
        <time>2011-07-24T14:33:51Z</time>
      </trkpt>
      <trkpt lat="45.08121" lon="5.61511">
        <ele>1633.8</ele>
        <time>2011-07-24T14:33:54Z</time>
      </trkpt>
      <trkpt lat="45.08122" lon="5.6151">
        <ele>1633.8</ele>
        <time>2011-07-24T14:33:57Z</time>
      </trkpt>
      <trkpt lat="45.08123" lon="5.61507">
        <ele>1633.4</ele>
        <time>2011-07-24T14:34:01Z</time>
      </trkpt>
      <trkpt lat="45.08124" lon="5.61504">
        <ele>1633.2</ele>
        <time>2011-07-24T14:34:05Z</time>
      </trkpt>
      <trkpt lat="45.08126" lon="5.61499">
        <ele>1633</ele>
        <time>2011-07-24T14:34:12Z</time>
      </trkpt>
      <trkpt lat="45.08128" lon="5.61497">
        <ele>1632.8</ele>
        <time>2011-07-24T14:34:18Z</time>
      </trkpt>
      <trkpt lat="45.0813" lon="5.61494">
        <ele>1632.6</ele>
        <time>2011-07-24T14:34:22Z</time>
      </trkpt>
      <trkpt lat="45.08129" lon="5.61491">
        <ele>1632.6</ele>
        <time>2011-07-24T14:34:27Z</time>
      </trkpt>
      <trkpt lat="45.08126" lon="5.6149">
        <ele>1632.6</ele>
        <time>2011-07-24T14:34:31Z</time>
      </trkpt>
      <trkpt lat="45.08125" lon="5.61487">
        <ele>1632.8</ele>
        <time>2011-07-24T14:34:35Z</time>
      </trkpt>
      <trkpt lat="45.08123" lon="5.61484">
        <ele>1633</ele>
        <time>2011-07-24T14:34:40Z</time>
      </trkpt>
      <trkpt lat="45.0812" lon="5.61483">
        <ele>1633.4</ele>
        <time>2011-07-24T14:34:45Z</time>
      </trkpt>
      <trkpt lat="45.08118" lon="5.61479">
        <ele>1633.8</ele>
        <time>2011-07-24T14:34:51Z</time>
      </trkpt>
      <trkpt lat="45.0812" lon="5.61476">
        <ele>1634.2</ele>
        <time>2011-07-24T14:34:54Z</time>
      </trkpt>
      <trkpt lat="45.08123" lon="5.61476">
        <ele>1634.6</ele>
        <time>2011-07-24T14:34:58Z</time>
      </trkpt>
      <trkpt lat="45.08124" lon="5.61473">
        <ele>1635.2</ele>
        <time>2011-07-24T14:35:03Z</time>
      </trkpt>
      <trkpt lat="45.08124" lon="5.61469">
        <ele>1635.8</ele>
        <time>2011-07-24T14:35:07Z</time>
      </trkpt>
      <trkpt lat="45.08125" lon="5.61466">
        <ele>1636.4</ele>
        <time>2011-07-24T14:35:11Z</time>
      </trkpt>
      <trkpt lat="45.08124" lon="5.61462">
        <ele>1637.4</ele>
        <time>2011-07-24T14:35:17Z</time>
      </trkpt>
      <trkpt lat="45.08124" lon="5.61458">
        <ele>1638.2</ele>
        <time>2011-07-24T14:35:22Z</time>
      </trkpt>
      <trkpt lat="45.08124" lon="5.61457">
        <ele>1638.6</ele>
        <time>2011-07-24T14:35:24Z</time>
      </trkpt>
      <trkpt lat="45.08124" lon="5.61455">
        <ele>1639.2</ele>
        <time>2011-07-24T14:35:26Z</time>
      </trkpt>
      <trkpt lat="45.08128" lon="5.61452">
        <ele>1640.4</ele>
        <time>2011-07-24T14:35:32Z</time>
      </trkpt>
      <trkpt lat="45.08129" lon="5.6145">
        <ele>1641.4</ele>
        <time>2011-07-24T14:35:38Z</time>
      </trkpt>
      <trkpt lat="45.0813" lon="5.61445">
        <ele>1642.4</ele>
        <time>2011-07-24T14:35:42Z</time>
      </trkpt>
      <trkpt lat="45.08128" lon="5.61442">
        <ele>1643.6</ele>
        <time>2011-07-24T14:35:47Z</time>
      </trkpt>
      <trkpt lat="45.08125" lon="5.6144">
        <ele>1644.8</ele>
        <time>2011-07-24T14:35:52Z</time>
      </trkpt>
      <trkpt lat="45.08122" lon="5.61436">
        <ele>1645.8</ele>
        <time>2011-07-24T14:35:57Z</time>
      </trkpt>
      <trkpt lat="45.08118" lon="5.61433">
        <ele>1647.2</ele>
        <time>2011-07-24T14:36:03Z</time>
      </trkpt>
      <trkpt lat="45.08115" lon="5.61433">
        <ele>1648.2</ele>
        <time>2011-07-24T14:36:07Z</time>
      </trkpt>
      <trkpt lat="45.08111" lon="5.6143">
        <ele>1649.6</ele>
        <time>2011-07-24T14:36:13Z</time>
      </trkpt>
      <trkpt lat="45.08109" lon="5.6143">
        <ele>1650</ele>
        <time>2011-07-24T14:36:15Z</time>
      </trkpt>
      <trkpt lat="45.08108" lon="5.61429">
        <ele>1650.6</ele>
        <time>2011-07-24T14:36:17Z</time>
      </trkpt>
      <trkpt lat="45.08105" lon="5.61429">
        <ele>1651.4</ele>
        <time>2011-07-24T14:36:21Z</time>
      </trkpt>
      <trkpt lat="45.08103" lon="5.61426">
        <ele>1652.4</ele>
        <time>2011-07-24T14:36:25Z</time>
      </trkpt>
      <trkpt lat="45.08101" lon="5.61423">
        <ele>1653.8</ele>
        <time>2011-07-24T14:36:32Z</time>
      </trkpt>
      <trkpt lat="45.08099" lon="5.61421">
        <ele>1654.6</ele>
        <time>2011-07-24T14:36:36Z</time>
      </trkpt>
      <trkpt lat="45.08096" lon="5.61418">
        <ele>1655.8</ele>
        <time>2011-07-24T14:36:40Z</time>
      </trkpt>
      <trkpt lat="45.08095" lon="5.61417">
        <ele>1656.6</ele>
        <time>2011-07-24T14:36:44Z</time>
      </trkpt>
      <trkpt lat="45.08093" lon="5.61416">
        <ele>1657</ele>
        <time>2011-07-24T14:36:46Z</time>
      </trkpt>
      <trkpt lat="45.08091" lon="5.61413">
        <ele>1658</ele>
        <time>2011-07-24T14:36:49Z</time>
      </trkpt>
      <trkpt lat="45.08088" lon="5.6141">
        <ele>1659.2</ele>
        <time>2011-07-24T14:36:54Z</time>
      </trkpt>
      <trkpt lat="45.08089" lon="5.61407">
        <ele>1660.2</ele>
        <time>2011-07-24T14:36:58Z</time>
      </trkpt>
      <trkpt lat="45.08092" lon="5.61405">
        <ele>1661.6</ele>
        <time>2011-07-24T14:37:03Z</time>
      </trkpt>
      <trkpt lat="45.08095" lon="5.61402">
        <ele>1662.8</ele>
        <time>2011-07-24T14:37:09Z</time>
      </trkpt>
      <trkpt lat="45.08096" lon="5.61401">
        <ele>1663.2</ele>
        <time>2011-07-24T14:37:11Z</time>
      </trkpt>
      <trkpt lat="45.08097" lon="5.61399">
        <ele>1663.8</ele>
        <time>2011-07-24T14:37:12Z</time>
      </trkpt>
      <trkpt lat="45.08098" lon="5.61399">
        <ele>1664</ele>
        <time>2011-07-24T14:37:13Z</time>
      </trkpt>
      <trkpt lat="45.08099" lon="5.61397">
        <ele>1665</ele>
        <time>2011-07-24T14:37:17Z</time>
      </trkpt>
      <trkpt lat="45.08096" lon="5.61397">
        <ele>1666.2</ele>
        <time>2011-07-24T14:37:21Z</time>
      </trkpt>
      <trkpt lat="45.08094" lon="5.61394">
        <ele>1667.2</ele>
        <time>2011-07-24T14:37:25Z</time>
      </trkpt>
      <trkpt lat="45.08089" lon="5.61391">
        <ele>1669</ele>
        <time>2011-07-24T14:37:31Z</time>
      </trkpt>
      <trkpt lat="45.08087" lon="5.6139">
        <ele>1669.6</ele>
        <time>2011-07-24T14:37:33Z</time>
      </trkpt>
      <trkpt lat="45.08086" lon="5.61389">
        <ele>1670.2</ele>
        <time>2011-07-24T14:37:35Z</time>
      </trkpt>
      <trkpt lat="45.08084" lon="5.61386">
        <ele>1671.4</ele>
        <time>2011-07-24T14:37:39Z</time>
      </trkpt>
      <trkpt lat="45.08085" lon="5.61381">
        <ele>1672.8</ele>
        <time>2011-07-24T14:37:45Z</time>
      </trkpt>
      <trkpt lat="45.08087" lon="5.61378">
        <ele>1674</ele>
        <time>2011-07-24T14:37:48Z</time>
      </trkpt>
      <trkpt lat="45.0809" lon="5.61375">
        <ele>1675.4</ele>
        <time>2011-07-24T14:37:53Z</time>
      </trkpt>
      <trkpt lat="45.08093" lon="5.61375">
        <ele>1676.6</ele>
        <time>2011-07-24T14:37:57Z</time>
      </trkpt>
      <trkpt lat="45.08096" lon="5.61374">
        <ele>1678.2</ele>
        <time>2011-07-24T14:38:03Z</time>
      </trkpt>
      <trkpt lat="45.08101" lon="5.61372">
        <ele>1679.6</ele>
        <time>2011-07-24T14:38:07Z</time>
      </trkpt>
      <trkpt lat="45.08106" lon="5.6137">
        <ele>1681</ele>
        <time>2011-07-24T14:38:12Z</time>
      </trkpt>
      <trkpt lat="45.08109" lon="5.61367">
        <ele>1682.2</ele>
        <time>2011-07-24T14:38:17Z</time>
      </trkpt>
      <trkpt lat="45.08111" lon="5.61367">
        <ele>1682.4</ele>
        <time>2011-07-24T14:38:19Z</time>
      </trkpt>
      <trkpt lat="45.0812" lon="5.61365">
        <ele>1683.8</ele>
        <time>2011-07-24T14:38:25Z</time>
      </trkpt>
      <trkpt lat="45.08128" lon="5.61362">
        <ele>1684.8</ele>
        <time>2011-07-24T14:38:33Z</time>
      </trkpt>
      <trkpt lat="45.08135" lon="5.61356">
        <ele>1686.6</ele>
        <time>2011-07-24T14:38:42Z</time>
      </trkpt>
      <trkpt lat="45.08139" lon="5.61352">
        <ele>1687.6</ele>
        <time>2011-07-24T14:38:47Z</time>
      </trkpt>
      <trkpt lat="45.08142" lon="5.6135">
        <ele>1688.2</ele>
        <time>2011-07-24T14:38:51Z</time>
      </trkpt>
      <trkpt lat="45.08143" lon="5.6135">
        <ele>1688.6</ele>
        <time>2011-07-24T14:38:52Z</time>
      </trkpt>
      <trkpt lat="45.08146" lon="5.6135">
        <ele>1688.8</ele>
        <time>2011-07-24T14:38:54Z</time>
      </trkpt>
      <trkpt lat="45.08147" lon="5.61349">
        <ele>1689</ele>
        <time>2011-07-24T14:38:55Z</time>
      </trkpt>
      <trkpt lat="45.08151" lon="5.61347">
        <ele>1690</ele>
        <time>2011-07-24T14:39:00Z</time>
      </trkpt>
      <trkpt lat="45.08154" lon="5.61345">
        <ele>1690.6</ele>
        <time>2011-07-24T14:39:03Z</time>
      </trkpt>
      <trkpt lat="45.08155" lon="5.61343">
        <ele>1691</ele>
        <time>2011-07-24T14:39:06Z</time>
      </trkpt>
      <trkpt lat="45.08158" lon="5.61343">
        <ele>1691.8</ele>
        <time>2011-07-24T14:39:09Z</time>
      </trkpt>
      <trkpt lat="45.08161" lon="5.61341">
        <ele>1692.2</ele>
        <time>2011-07-24T14:39:12Z</time>
      </trkpt>
      <trkpt lat="45.08162" lon="5.61341">
        <ele>1692.4</ele>
        <time>2011-07-24T14:39:13Z</time>
      </trkpt>
      <trkpt lat="45.08164" lon="5.61339">
        <ele>1693.2</ele>
        <time>2011-07-24T14:39:15Z</time>
      </trkpt>
      <trkpt lat="45.08165" lon="5.61339">
        <ele>1693.4</ele>
        <time>2011-07-24T14:39:16Z</time>
      </trkpt>
      <trkpt lat="45.0817" lon="5.61341">
        <ele>1694.6</ele>
        <time>2011-07-24T14:39:21Z</time>
      </trkpt>
      <trkpt lat="45.08172" lon="5.6134">
        <ele>1695</ele>
        <time>2011-07-24T14:39:24Z</time>
      </trkpt>
      <trkpt lat="45.08172" lon="5.6134">
        <ele>1695.2</ele>
        <time>2011-07-24T14:39:25Z</time>
      </trkpt>
      <trkpt lat="45.08173" lon="5.6134">
        <ele>1695.4</ele>
        <time>2011-07-24T14:39:26Z</time>
      </trkpt>
      <trkpt lat="45.08175" lon="5.61341">
        <ele>1696</ele>
        <time>2011-07-24T14:39:28Z</time>
      </trkpt>
      <trkpt lat="45.08176" lon="5.61341">
        <ele>1696.2</ele>
        <time>2011-07-24T14:39:29Z</time>
      </trkpt>
      <trkpt lat="45.08179" lon="5.61342">
        <ele>1697</ele>
        <time>2011-07-24T14:39:33Z</time>
      </trkpt>
      <trkpt lat="45.08182" lon="5.61342">
        <ele>1697.8</ele>
        <time>2011-07-24T14:39:38Z</time>
      </trkpt>
      <trkpt lat="45.08185" lon="5.61343">
        <ele>1698.8</ele>
        <time>2011-07-24T14:39:42Z</time>
      </trkpt>
      <trkpt lat="45.08188" lon="5.61343">
        <ele>1699.8</ele>
        <time>2011-07-24T14:39:47Z</time>
      </trkpt>
      <trkpt lat="45.08192" lon="5.61345">
        <ele>1700.8</ele>
        <time>2011-07-24T14:39:51Z</time>
      </trkpt>
      <trkpt lat="45.08196" lon="5.61342">
        <ele>1702</ele>
        <time>2011-07-24T14:39:56Z</time>
      </trkpt>
      <trkpt lat="45.08198" lon="5.61342">
        <ele>1702.6</ele>
        <time>2011-07-24T14:39:59Z</time>
      </trkpt>
      <trkpt lat="45.08199" lon="5.61341">
        <ele>1702.8</ele>
        <time>2011-07-24T14:40:01Z</time>
      </trkpt>
      <trkpt lat="45.08202" lon="5.61341">
        <ele>1703.6</ele>
        <time>2011-07-24T14:40:05Z</time>
      </trkpt>
      <trkpt lat="45.08203" lon="5.61341">
        <ele>1703.8</ele>
        <time>2011-07-24T14:40:06Z</time>
      </trkpt>
      <trkpt lat="45.08204" lon="5.6134">
        <ele>1704.2</ele>
        <time>2011-07-24T14:40:07Z</time>
      </trkpt>
      <trkpt lat="45.08207" lon="5.61339">
        <ele>1705.2</ele>
        <time>2011-07-24T14:40:12Z</time>
      </trkpt>
      <trkpt lat="45.08211" lon="5.6134">
        <ele>1706</ele>
        <time>2011-07-24T14:40:17Z</time>
      </trkpt>
      <trkpt lat="45.08212" lon="5.61341">
        <ele>1706.6</ele>
        <time>2011-07-24T14:40:19Z</time>
      </trkpt>
      <trkpt lat="45.08213" lon="5.61344">
        <ele>1707.2</ele>
        <time>2011-07-24T14:40:21Z</time>
      </trkpt>
      <trkpt lat="45.08215" lon="5.61347">
        <ele>1708</ele>
        <time>2011-07-24T14:40:25Z</time>
      </trkpt>
      <trkpt lat="45.08216" lon="5.6135">
        <ele>1708.4</ele>
        <time>2011-07-24T14:40:27Z</time>
      </trkpt>
      <trkpt lat="45.0822" lon="5.61353">
        <ele>1709.4</ele>
        <time>2011-07-24T14:40:31Z</time>
      </trkpt>
      <trkpt lat="45.08225" lon="5.61355">
        <ele>1710.4</ele>
        <time>2011-07-24T14:40:37Z</time>
      </trkpt>
      <trkpt lat="45.08226" lon="5.61355">
        <ele>1710.6</ele>
        <time>2011-07-24T14:40:38Z</time>
      </trkpt>
      <trkpt lat="45.0823" lon="5.61355">
        <ele>1711.4</ele>
        <time>2011-07-24T14:40:41Z</time>
      </trkpt>
      <trkpt lat="45.08234" lon="5.61356">
        <ele>1712.4</ele>
        <time>2011-07-24T14:40:45Z</time>
      </trkpt>
      <trkpt lat="45.08237" lon="5.61357">
        <ele>1712.8</ele>
        <time>2011-07-24T14:40:48Z</time>
      </trkpt>
      <trkpt lat="45.08244" lon="5.61357">
        <ele>1713.8</ele>
        <time>2011-07-24T14:40:52Z</time>
      </trkpt>
      <trkpt lat="45.0825" lon="5.61356">
        <ele>1715</ele>
        <time>2011-07-24T14:40:59Z</time>
      </trkpt>
      <trkpt lat="45.08255" lon="5.61356">
        <ele>1715.8</ele>
        <time>2011-07-24T14:41:03Z</time>
      </trkpt>
      <trkpt lat="45.08257" lon="5.61357">
        <ele>1716.2</ele>
        <time>2011-07-24T14:41:05Z</time>
      </trkpt>
      <trkpt lat="45.08258" lon="5.61356">
        <ele>1716.8</ele>
        <time>2011-07-24T14:41:07Z</time>
      </trkpt>
      <trkpt lat="45.0826" lon="5.61353">
        <ele>1717.4</ele>
        <time>2011-07-24T14:41:10Z</time>
      </trkpt>
      <trkpt lat="45.08262" lon="5.61352">
        <ele>1718</ele>
        <time>2011-07-24T14:41:12Z</time>
      </trkpt>
      <trkpt lat="45.08266" lon="5.61352">
        <ele>1718.8</ele>
        <time>2011-07-24T14:41:15Z</time>
      </trkpt>
      <trkpt lat="45.08269" lon="5.61351">
        <ele>1719.2</ele>
        <time>2011-07-24T14:41:17Z</time>
      </trkpt>
      <trkpt lat="45.08273" lon="5.61349">
        <ele>1720.4</ele>
        <time>2011-07-24T14:41:21Z</time>
      </trkpt>
      <trkpt lat="45.08275" lon="5.61349">
        <ele>1720.8</ele>
        <time>2011-07-24T14:41:23Z</time>
      </trkpt>
      <trkpt lat="45.08278" lon="5.6135">
        <ele>1721.4</ele>
        <time>2011-07-24T14:41:25Z</time>
      </trkpt>
      <trkpt lat="45.08278" lon="5.6135">
        <ele>1721.8</ele>
        <time>2011-07-24T14:41:26Z</time>
      </trkpt>
      <trkpt lat="45.08279" lon="5.61351">
        <ele>1722</ele>
        <time>2011-07-24T14:41:27Z</time>
      </trkpt>
      <trkpt lat="45.08285" lon="5.61359">
        <ele>1723.4</ele>
        <time>2011-07-24T14:41:33Z</time>
      </trkpt>
      <trkpt lat="45.08286" lon="5.61361">
        <ele>1723.6</ele>
        <time>2011-07-24T14:41:34Z</time>
      </trkpt>
      <trkpt lat="45.08289" lon="5.6136">
        <ele>1724.4</ele>
        <time>2011-07-24T14:41:37Z</time>
      </trkpt>
      <trkpt lat="45.0829" lon="5.6136">
        <ele>1724.6</ele>
        <time>2011-07-24T14:41:38Z</time>
      </trkpt>
      <trkpt lat="45.08293" lon="5.61359">
        <ele>1725</ele>
        <time>2011-07-24T14:41:40Z</time>
      </trkpt>
      <trkpt lat="45.08294" lon="5.61358">
        <ele>1725.2</ele>
        <time>2011-07-24T14:41:41Z</time>
      </trkpt>
      <trkpt lat="45.083" lon="5.61353">
        <ele>1726.4</ele>
        <time>2011-07-24T14:41:46Z</time>
      </trkpt>
      <trkpt lat="45.08301" lon="5.61353">
        <ele>1726.6</ele>
        <time>2011-07-24T14:41:47Z</time>
      </trkpt>
      <trkpt lat="45.08306" lon="5.6135">
        <ele>1728</ele>
        <time>2011-07-24T14:41:52Z</time>
      </trkpt>
      <trkpt lat="45.0831" lon="5.61348">
        <ele>1728.8</ele>
        <time>2011-07-24T14:41:55Z</time>
      </trkpt>
      <trkpt lat="45.08312" lon="5.61348">
        <ele>1729.4</ele>
        <time>2011-07-24T14:41:57Z</time>
      </trkpt>
      <trkpt lat="45.08314" lon="5.61347">
        <ele>1729.8</ele>
        <time>2011-07-24T14:41:59Z</time>
      </trkpt>
      <trkpt lat="45.08314" lon="5.61347">
        <ele>1729.8</ele>
        <time>2011-07-24T14:41:59Z</time>
      </trkpt>
      <trkpt lat="45.08316" lon="5.61344">
        <ele>1730.6</ele>
        <time>2011-07-24T14:42:02Z</time>
      </trkpt>
      <trkpt lat="45.08317" lon="5.61341">
        <ele>1731.6</ele>
        <time>2011-07-24T14:42:08Z</time>
      </trkpt>
      <trkpt lat="45.08317" lon="5.61346">
        <ele>1735.4</ele>
        <time>2011-07-24T14:42:53Z</time>
      </trkpt>
      <trkpt lat="45.08314" lon="5.61353">
        <ele>1735.6</ele>
        <time>2011-07-24T14:42:59Z</time>
      </trkpt>
      <trkpt lat="45.08312" lon="5.61354">
        <ele>1735.6</ele>
        <time>2011-07-24T14:43:03Z</time>
      </trkpt>
      <trkpt lat="45.08312" lon="5.61354">
        <ele>1735.6</ele>
        <time>2011-07-24T14:43:04Z</time>
      </trkpt>
      <trkpt lat="45.0831" lon="5.61353">
        <ele>1735.8</ele>
        <time>2011-07-24T14:43:22Z</time>
      </trkpt>
      <trkpt lat="45.08305" lon="5.61353">
        <ele>1735.8</ele>
        <time>2011-07-24T14:43:24Z</time>
      </trkpt>
      <trkpt lat="45.08298" lon="5.61357">
        <ele>1735.8</ele>
        <time>2011-07-24T14:43:27Z</time>
      </trkpt>
      <trkpt lat="45.08293" lon="5.61359">
        <ele>1735.6</ele>
        <time>2011-07-24T14:43:29Z</time>
      </trkpt>
      <trkpt lat="45.08285" lon="5.61362">
        <ele>1735.6</ele>
        <time>2011-07-24T14:43:32Z</time>
      </trkpt>
      <trkpt lat="45.08283" lon="5.6136">
        <ele>1735.4</ele>
        <time>2011-07-24T14:43:33Z</time>
      </trkpt>
      <trkpt lat="45.08281" lon="5.61356">
        <ele>1735.4</ele>
        <time>2011-07-24T14:43:34Z</time>
      </trkpt>
      <trkpt lat="45.08278" lon="5.61352">
        <ele>1735.2</ele>
        <time>2011-07-24T14:43:36Z</time>
      </trkpt>
      <trkpt lat="45.08269" lon="5.61352">
        <ele>1735</ele>
        <time>2011-07-24T14:43:40Z</time>
      </trkpt>
      <trkpt lat="45.08266" lon="5.61353">
        <ele>1734.8</ele>
        <time>2011-07-24T14:43:41Z</time>
      </trkpt>
      <trkpt lat="45.08264" lon="5.61354">
        <ele>1734.8</ele>
        <time>2011-07-24T14:43:42Z</time>
      </trkpt>
      <trkpt lat="45.08259" lon="5.61356">
        <ele>1734.4</ele>
        <time>2011-07-24T14:43:45Z</time>
      </trkpt>
      <trkpt lat="45.08258" lon="5.61358">
        <ele>1734.4</ele>
        <time>2011-07-24T14:43:46Z</time>
      </trkpt>
      <trkpt lat="45.08251" lon="5.61358">
        <ele>1734</ele>
        <time>2011-07-24T14:43:49Z</time>
      </trkpt>
      <trkpt lat="45.08246" lon="5.61359">
        <ele>1733.6</ele>
        <time>2011-07-24T14:43:51Z</time>
      </trkpt>
      <trkpt lat="45.08241" lon="5.61359">
        <ele>1733.4</ele>
        <time>2011-07-24T14:43:53Z</time>
      </trkpt>
      <trkpt lat="45.08231" lon="5.61357">
        <ele>1732.8</ele>
        <time>2011-07-24T14:43:57Z</time>
      </trkpt>
      <trkpt lat="45.08227" lon="5.61357">
        <ele>1732.4</ele>
        <time>2011-07-24T14:43:59Z</time>
      </trkpt>
      <trkpt lat="45.08219" lon="5.61355">
        <ele>1732</ele>
        <time>2011-07-24T14:44:02Z</time>
      </trkpt>
      <trkpt lat="45.08212" lon="5.61347">
        <ele>1731.2</ele>
        <time>2011-07-24T14:44:06Z</time>
      </trkpt>
      <trkpt lat="45.0821" lon="5.61346">
        <ele>1731</ele>
        <time>2011-07-24T14:44:07Z</time>
      </trkpt>
      <trkpt lat="45.08208" lon="5.61344">
        <ele>1730.6</ele>
        <time>2011-07-24T14:44:10Z</time>
      </trkpt>
      <trkpt lat="45.08206" lon="5.61342">
        <ele>1730.2</ele>
        <time>2011-07-24T14:44:12Z</time>
      </trkpt>
      <trkpt lat="45.08205" lon="5.61341">
        <ele>1729.8</ele>
        <time>2011-07-24T14:44:14Z</time>
      </trkpt>
      <trkpt lat="45.08203" lon="5.61342">
        <ele>1729.4</ele>
        <time>2011-07-24T14:44:16Z</time>
      </trkpt>
      <trkpt lat="45.08202" lon="5.61342">
        <ele>1729</ele>
        <time>2011-07-24T14:44:18Z</time>
      </trkpt>
      <trkpt lat="45.082" lon="5.61342">
        <ele>1728.8</ele>
        <time>2011-07-24T14:44:19Z</time>
      </trkpt>
      <trkpt lat="45.08198" lon="5.61343">
        <ele>1728.4</ele>
        <time>2011-07-24T14:44:21Z</time>
      </trkpt>
      <trkpt lat="45.08193" lon="5.61346">
        <ele>1727.4</ele>
        <time>2011-07-24T14:44:25Z</time>
      </trkpt>
      <trkpt lat="45.08191" lon="5.61345">
        <ele>1727.2</ele>
        <time>2011-07-24T14:44:26Z</time>
      </trkpt>
      <trkpt lat="45.08185" lon="5.61342">
        <ele>1726.2</ele>
        <time>2011-07-24T14:44:31Z</time>
      </trkpt>
      <trkpt lat="45.08177" lon="5.61341">
        <ele>1725</ele>
        <time>2011-07-24T14:44:36Z</time>
      </trkpt>
      <trkpt lat="45.08175" lon="5.61342">
        <ele>1724.6</ele>
        <time>2011-07-24T14:44:37Z</time>
      </trkpt>
      <trkpt lat="45.08165" lon="5.61341">
        <ele>1723.4</ele>
        <time>2011-07-24T14:44:42Z</time>
      </trkpt>
      <trkpt lat="45.08163" lon="5.61341">
        <ele>1723</ele>
        <time>2011-07-24T14:44:43Z</time>
      </trkpt>
      <trkpt lat="45.08158" lon="5.61344">
        <ele>1722.2</ele>
        <time>2011-07-24T14:44:45Z</time>
      </trkpt>
      <trkpt lat="45.08156" lon="5.61345">
        <ele>1722</ele>
        <time>2011-07-24T14:44:47Z</time>
      </trkpt>
      <trkpt lat="45.08149" lon="5.6135">
        <ele>1720.8</ele>
        <time>2011-07-24T14:44:51Z</time>
      </trkpt>
      <trkpt lat="45.0814" lon="5.61354">
        <ele>1719.4</ele>
        <time>2011-07-24T14:44:56Z</time>
      </trkpt>
      <trkpt lat="45.08138" lon="5.61355">
        <ele>1719</ele>
        <time>2011-07-24T14:44:57Z</time>
      </trkpt>
      <trkpt lat="45.08127" lon="5.61362">
        <ele>1717.6</ele>
        <time>2011-07-24T14:45:02Z</time>
      </trkpt>
      <trkpt lat="45.08122" lon="5.61364">
        <ele>1716.8</ele>
        <time>2011-07-24T14:45:04Z</time>
      </trkpt>
      <trkpt lat="45.08111" lon="5.61367">
        <ele>1715.6</ele>
        <time>2011-07-24T14:45:08Z</time>
      </trkpt>
      <trkpt lat="45.0811" lon="5.61368">
        <ele>1715.4</ele>
        <time>2011-07-24T14:45:09Z</time>
      </trkpt>
      <trkpt lat="45.08107" lon="5.61369">
        <ele>1714.4</ele>
        <time>2011-07-24T14:45:12Z</time>
      </trkpt>
      <trkpt lat="45.08104" lon="5.61371">
        <ele>1713.8</ele>
        <time>2011-07-24T14:45:14Z</time>
      </trkpt>
      <trkpt lat="45.08101" lon="5.61371">
        <ele>1713.2</ele>
        <time>2011-07-24T14:45:16Z</time>
      </trkpt>
      <trkpt lat="45.08093" lon="5.6137">
        <ele>1711.8</ele>
        <time>2011-07-24T14:45:21Z</time>
      </trkpt>
      <trkpt lat="45.08092" lon="5.61371">
        <ele>1711.4</ele>
        <time>2011-07-24T14:45:22Z</time>
      </trkpt>
      <trkpt lat="45.08089" lon="5.61372">
        <ele>1710.2</ele>
        <time>2011-07-24T14:45:26Z</time>
      </trkpt>
      <trkpt lat="45.08089" lon="5.61373">
        <ele>1709.6</ele>
        <time>2011-07-24T14:45:28Z</time>
      </trkpt>
      <trkpt lat="45.08087" lon="5.61375">
        <ele>1709</ele>
        <time>2011-07-24T14:45:30Z</time>
      </trkpt>
      <trkpt lat="45.08086" lon="5.61385">
        <ele>1707.6</ele>
        <time>2011-07-24T14:45:34Z</time>
      </trkpt>
      <trkpt lat="45.08087" lon="5.61387">
        <ele>1707.4</ele>
        <time>2011-07-24T14:45:35Z</time>
      </trkpt>
      <trkpt lat="45.08094" lon="5.61391">
        <ele>1706.4</ele>
        <time>2011-07-24T14:45:38Z</time>
      </trkpt>
      <trkpt lat="45.08097" lon="5.61392">
        <ele>1706</ele>
        <time>2011-07-24T14:45:39Z</time>
      </trkpt>
      <trkpt lat="45.08099" lon="5.61394">
        <ele>1705.6</ele>
        <time>2011-07-24T14:45:40Z</time>
      </trkpt>
      <trkpt lat="45.08103" lon="5.61397">
        <ele>1704.6</ele>
        <time>2011-07-24T14:45:43Z</time>
      </trkpt>
      <trkpt lat="45.08103" lon="5.61399">
        <ele>1704.2</ele>
        <time>2011-07-24T14:45:44Z</time>
      </trkpt>
      <trkpt lat="45.08099" lon="5.61405">
        <ele>1703.2</ele>
        <time>2011-07-24T14:45:47Z</time>
      </trkpt>
      <trkpt lat="45.08098" lon="5.61406">
        <ele>1702.8</ele>
        <time>2011-07-24T14:45:48Z</time>
      </trkpt>
      <trkpt lat="45.08095" lon="5.61407">
        <ele>1702.4</ele>
        <time>2011-07-24T14:45:49Z</time>
      </trkpt>
      <trkpt lat="45.08088" lon="5.61409">
        <ele>1701.4</ele>
        <time>2011-07-24T14:45:52Z</time>
      </trkpt>
      <trkpt lat="45.08075" lon="5.61412">
        <ele>1699.4</ele>
        <time>2011-07-24T14:45:57Z</time>
      </trkpt>
      <trkpt lat="45.08063" lon="5.61418">
        <ele>1697.6</ele>
        <time>2011-07-24T14:46:02Z</time>
      </trkpt>
      <trkpt lat="45.08057" lon="5.61421">
        <ele>1696.4</ele>
        <time>2011-07-24T14:46:05Z</time>
      </trkpt>
      <trkpt lat="45.0805" lon="5.61423">
        <ele>1695.2</ele>
        <time>2011-07-24T14:46:08Z</time>
      </trkpt>
      <trkpt lat="45.08042" lon="5.61427">
        <ele>1693.6</ele>
        <time>2011-07-24T14:46:12Z</time>
      </trkpt>
      <trkpt lat="45.0804" lon="5.61428">
        <ele>1693.2</ele>
        <time>2011-07-24T14:46:13Z</time>
      </trkpt>
      <trkpt lat="45.08037" lon="5.61429">
        <ele>1692.6</ele>
        <time>2011-07-24T14:46:14Z</time>
      </trkpt>
      <trkpt lat="45.08027" lon="5.6143">
        <ele>1691.4</ele>
        <time>2011-07-24T14:46:17Z</time>
      </trkpt>
      <trkpt lat="45.08019" lon="5.61434">
        <ele>1689.8</ele>
        <time>2011-07-24T14:46:21Z</time>
      </trkpt>
      <trkpt lat="45.08006" lon="5.61442">
        <ele>1687.2</ele>
        <time>2011-07-24T14:46:27Z</time>
      </trkpt>
      <trkpt lat="45.08002" lon="5.61446">
        <ele>1686.4</ele>
        <time>2011-07-24T14:46:29Z</time>
      </trkpt>
      <trkpt lat="45.07998" lon="5.61449">
        <ele>1685.4</ele>
        <time>2011-07-24T14:46:31Z</time>
      </trkpt>
      <trkpt lat="45.07986" lon="5.61455">
        <ele>1683.4</ele>
        <time>2011-07-24T14:46:36Z</time>
      </trkpt>
      <trkpt lat="45.07984" lon="5.61456">
        <ele>1683</ele>
        <time>2011-07-24T14:46:37Z</time>
      </trkpt>
      <trkpt lat="45.07975" lon="5.61461">
        <ele>1681.2</ele>
        <time>2011-07-24T14:46:41Z</time>
      </trkpt>
      <trkpt lat="45.07966" lon="5.61463">
        <ele>1679.8</ele>
        <time>2011-07-24T14:46:44Z</time>
      </trkpt>
      <trkpt lat="45.0796" lon="5.61465">
        <ele>1679</ele>
        <time>2011-07-24T14:46:46Z</time>
      </trkpt>
      <trkpt lat="45.07947" lon="5.61466">
        <ele>1676.8</ele>
        <time>2011-07-24T14:46:51Z</time>
      </trkpt>
      <trkpt lat="45.07945" lon="5.61466">
        <ele>1676.4</ele>
        <time>2011-07-24T14:46:52Z</time>
      </trkpt>
      <trkpt lat="45.07938" lon="5.61464">
        <ele>1674.6</ele>
        <time>2011-07-24T14:46:56Z</time>
      </trkpt>
      <trkpt lat="45.07936" lon="5.61463">
        <ele>1674.2</ele>
        <time>2011-07-24T14:46:57Z</time>
      </trkpt>
      <trkpt lat="45.07928" lon="5.61462">
        <ele>1673</ele>
        <time>2011-07-24T14:47:00Z</time>
      </trkpt>
      <trkpt lat="45.07925" lon="5.61462">
        <ele>1672.6</ele>
        <time>2011-07-24T14:47:01Z</time>
      </trkpt>
      <trkpt lat="45.07913" lon="5.61462">
        <ele>1670.4</ele>
        <time>2011-07-24T14:47:06Z</time>
      </trkpt>
      <trkpt lat="45.07909" lon="5.61462">
        <ele>1669.6</ele>
        <time>2011-07-24T14:47:08Z</time>
      </trkpt>
      <trkpt lat="45.07908" lon="5.61461">
        <ele>1669.2</ele>
        <time>2011-07-24T14:47:09Z</time>
      </trkpt>
      <trkpt lat="45.07907" lon="5.61458">
        <ele>1668.4</ele>
        <time>2011-07-24T14:47:11Z</time>
      </trkpt>
      <trkpt lat="45.07905" lon="5.61457">
        <ele>1665.6</ele>
        <time>2011-07-24T14:47:18Z</time>
      </trkpt>
      <trkpt lat="45.07909" lon="5.61455">
        <ele>1654</ele>
        <time>2011-07-24T14:47:55Z</time>
      </trkpt>
      <trkpt lat="45.07905" lon="5.61459">
        <ele>1647.4</ele>
        <time>2011-07-24T14:48:23Z</time>
      </trkpt>
      <trkpt lat="45.07903" lon="5.61461">
        <ele>1647</ele>
        <time>2011-07-24T14:48:25Z</time>
      </trkpt>
      <trkpt lat="45.07901" lon="5.61462">
        <ele>1646.8</ele>
        <time>2011-07-24T14:48:26Z</time>
      </trkpt>
      <trkpt lat="45.07901" lon="5.61462">
        <ele>1646.2</ele>
        <time>2011-07-24T14:48:29Z</time>
      </trkpt>
      <trkpt lat="45.07903" lon="5.61464">
        <ele>1644.8</ele>
        <time>2011-07-24T14:48:36Z</time>
      </trkpt>
      <trkpt lat="45.07905" lon="5.61465">
        <ele>1644.6</ele>
        <time>2011-07-24T14:48:37Z</time>
      </trkpt>
      <trkpt lat="45.07919" lon="5.61476">
        <ele>1643.4</ele>
        <time>2011-07-24T14:48:42Z</time>
      </trkpt>
      <trkpt lat="45.07922" lon="5.61478">
        <ele>1643.2</ele>
        <time>2011-07-24T14:48:43Z</time>
      </trkpt>
      <trkpt lat="45.07937" lon="5.6149">
        <ele>1642</ele>
        <time>2011-07-24T14:48:48Z</time>
      </trkpt>
      <trkpt lat="45.07952" lon="5.61499">
        <ele>1640.8</ele>
        <time>2011-07-24T14:48:53Z</time>
      </trkpt>
      <trkpt lat="45.07954" lon="5.61501">
        <ele>1640.4</ele>
        <time>2011-07-24T14:48:54Z</time>
      </trkpt>
      <trkpt lat="45.07962" lon="5.61506">
        <ele>1639.6</ele>
        <time>2011-07-24T14:48:57Z</time>
      </trkpt>
      <trkpt lat="45.07967" lon="5.61508">
        <ele>1639</ele>
        <time>2011-07-24T14:48:59Z</time>
      </trkpt>
      <trkpt lat="45.07972" lon="5.6151">
        <ele>1638.6</ele>
        <time>2011-07-24T14:49:01Z</time>
      </trkpt>
      <trkpt lat="45.07979" lon="5.61516">
        <ele>1637.6</ele>
        <time>2011-07-24T14:49:04Z</time>
      </trkpt>
      <trkpt lat="45.07989" lon="5.61523">
        <ele>1636.4</ele>
        <time>2011-07-24T14:49:08Z</time>
      </trkpt>
      <trkpt lat="45.07996" lon="5.61524">
        <ele>1635.6</ele>
        <time>2011-07-24T14:49:10Z</time>
      </trkpt>
      <trkpt lat="45.08008" lon="5.61525">
        <ele>1634.4</ele>
        <time>2011-07-24T14:49:14Z</time>
      </trkpt>
      <trkpt lat="45.08011" lon="5.61525">
        <ele>1634.2</ele>
        <time>2011-07-24T14:49:15Z</time>
      </trkpt>
      <trkpt lat="45.08016" lon="5.61526">
        <ele>1633.6</ele>
        <time>2011-07-24T14:49:17Z</time>
      </trkpt>
      <trkpt lat="45.08022" lon="5.61526">
        <ele>1633</ele>
        <time>2011-07-24T14:49:19Z</time>
      </trkpt>
      <trkpt lat="45.08029" lon="5.61529">
        <ele>1632</ele>
        <time>2011-07-24T14:49:22Z</time>
      </trkpt>
      <trkpt lat="45.08034" lon="5.61531">
        <ele>1631.4</ele>
        <time>2011-07-24T14:49:24Z</time>
      </trkpt>
      <trkpt lat="45.08049" lon="5.61535">
        <ele>1629.4</ele>
        <time>2011-07-24T14:49:30Z</time>
      </trkpt>
      <trkpt lat="45.08054" lon="5.61535">
        <ele>1628.2</ele>
        <time>2011-07-24T14:49:34Z</time>
      </trkpt>
      <trkpt lat="45.08062" lon="5.61535">
        <ele>1627</ele>
        <time>2011-07-24T14:49:38Z</time>
      </trkpt>
      <trkpt lat="45.08066" lon="5.61538">
        <ele>1626.4</ele>
        <time>2011-07-24T14:49:40Z</time>
      </trkpt>
      <trkpt lat="45.08075" lon="5.61543">
        <ele>1625.6</ele>
        <time>2011-07-24T14:49:43Z</time>
      </trkpt>
      <trkpt lat="45.08079" lon="5.61545">
        <ele>1625</ele>
        <time>2011-07-24T14:49:45Z</time>
      </trkpt>
      <trkpt lat="45.08084" lon="5.61548">
        <ele>1624.4</ele>
        <time>2011-07-24T14:49:47Z</time>
      </trkpt>
      <trkpt lat="45.0809" lon="5.61558">
        <ele>1622.8</ele>
        <time>2011-07-24T14:49:53Z</time>
      </trkpt>
      <trkpt lat="45.08096" lon="5.61569">
        <ele>1620.8</ele>
        <time>2011-07-24T14:50:00Z</time>
      </trkpt>
      <trkpt lat="45.08106" lon="5.61583">
        <ele>1619.2</ele>
        <time>2011-07-24T14:50:06Z</time>
      </trkpt>
      <trkpt lat="45.08112" lon="5.61582">
        <ele>1618.6</ele>
        <time>2011-07-24T14:50:08Z</time>
      </trkpt>
      <trkpt lat="45.08117" lon="5.61583">
        <ele>1618.2</ele>
        <time>2011-07-24T14:50:10Z</time>
      </trkpt>
      <trkpt lat="45.08127" lon="5.61587">
        <ele>1616.6</ele>
        <time>2011-07-24T14:50:15Z</time>
      </trkpt>
      <trkpt lat="45.0813" lon="5.61586">
        <ele>1614.8</ele>
        <time>2011-07-24T14:50:21Z</time>
      </trkpt>
      <trkpt lat="45.0813" lon="5.61587">
        <ele>1614.6</ele>
        <time>2011-07-24T14:50:22Z</time>
      </trkpt>
      <trkpt lat="45.08133" lon="5.61586">
        <ele>1613.4</ele>
        <time>2011-07-24T14:50:26Z</time>
      </trkpt>
      <trkpt lat="45.08142" lon="5.61589">
        <ele>1611.6</ele>
        <time>2011-07-24T14:50:31Z</time>
      </trkpt>
      <trkpt lat="45.08147" lon="5.6159">
        <ele>1610.6</ele>
        <time>2011-07-24T14:50:34Z</time>
      </trkpt>
      <trkpt lat="45.08149" lon="5.61589">
        <ele>1610.2</ele>
        <time>2011-07-24T14:50:35Z</time>
      </trkpt>
      <trkpt lat="45.08151" lon="5.61589">
        <ele>1609.2</ele>
        <time>2011-07-24T14:50:38Z</time>
      </trkpt>
      <trkpt lat="45.08152" lon="5.61589">
        <ele>1608.8</ele>
        <time>2011-07-24T14:50:39Z</time>
      </trkpt>
      <trkpt lat="45.08154" lon="5.61594">
        <ele>1607.2</ele>
        <time>2011-07-24T14:50:44Z</time>
      </trkpt>
      <trkpt lat="45.08154" lon="5.61597">
        <ele>1606.2</ele>
        <time>2011-07-24T14:50:47Z</time>
      </trkpt>
      <trkpt lat="45.08154" lon="5.61598">
        <ele>1605.8</ele>
        <time>2011-07-24T14:50:48Z</time>
      </trkpt>
      <trkpt lat="45.0815" lon="5.61603">
        <ele>1604.2</ele>
        <time>2011-07-24T14:50:53Z</time>
      </trkpt>
      <trkpt lat="45.08148" lon="5.61603">
        <ele>1603.8</ele>
        <time>2011-07-24T14:50:54Z</time>
      </trkpt>
      <trkpt lat="45.08147" lon="5.61606">
        <ele>1602.8</ele>
        <time>2011-07-24T14:50:57Z</time>
      </trkpt>
      <trkpt lat="45.08149" lon="5.61607">
        <ele>1602</ele>
        <time>2011-07-24T14:50:59Z</time>
      </trkpt>
      <trkpt lat="45.08155" lon="5.61609">
        <ele>1601</ele>
        <time>2011-07-24T14:51:02Z</time>
      </trkpt>
      <trkpt lat="45.08163" lon="5.61612">
        <ele>1599.6</ele>
        <time>2011-07-24T14:51:06Z</time>
      </trkpt>
      <trkpt lat="45.08164" lon="5.61613">
        <ele>1599.4</ele>
        <time>2011-07-24T14:51:07Z</time>
      </trkpt>
      <trkpt lat="45.08174" lon="5.61617">
        <ele>1598</ele>
        <time>2011-07-24T14:51:11Z</time>
      </trkpt>
      <trkpt lat="45.08177" lon="5.61618">
        <ele>1597.6</ele>
        <time>2011-07-24T14:51:12Z</time>
      </trkpt>
      <trkpt lat="45.08181" lon="5.61618">
        <ele>1596.8</ele>
        <time>2011-07-24T14:51:14Z</time>
      </trkpt>
      <trkpt lat="45.08189" lon="5.61621">
        <ele>1595.2</ele>
        <time>2011-07-24T14:51:18Z</time>
      </trkpt>
      <trkpt lat="45.08192" lon="5.61622">
        <ele>1593.8</ele>
        <time>2011-07-24T14:51:22Z</time>
      </trkpt>
      <trkpt lat="45.08195" lon="5.61623">
        <ele>1593</ele>
        <time>2011-07-24T14:51:24Z</time>
      </trkpt>
      <trkpt lat="45.082" lon="5.61621">
        <ele>1592.2</ele>
        <time>2011-07-24T14:51:26Z</time>
      </trkpt>
      <trkpt lat="45.08213" lon="5.61616">
        <ele>1590.4</ele>
        <time>2011-07-24T14:51:31Z</time>
      </trkpt>
      <trkpt lat="45.08216" lon="5.61617">
        <ele>1589.6</ele>
        <time>2011-07-24T14:51:33Z</time>
      </trkpt>
      <trkpt lat="45.08218" lon="5.61618">
        <ele>1589.2</ele>
        <time>2011-07-24T14:51:34Z</time>
      </trkpt>
      <trkpt lat="45.0822" lon="5.61619">
        <ele>1588.8</ele>
        <time>2011-07-24T14:51:35Z</time>
      </trkpt>
      <trkpt lat="45.08224" lon="5.61621">
        <ele>1588</ele>
        <time>2011-07-24T14:51:37Z</time>
      </trkpt>
      <trkpt lat="45.08233" lon="5.61619">
        <ele>1587</ele>
        <time>2011-07-24T14:51:40Z</time>
      </trkpt>
      <trkpt lat="45.08235" lon="5.61618">
        <ele>1586.6</ele>
        <time>2011-07-24T14:51:41Z</time>
      </trkpt>
      <trkpt lat="45.08237" lon="5.61616">
        <ele>1586.2</ele>
        <time>2011-07-24T14:51:42Z</time>
      </trkpt>
      <trkpt lat="45.08237" lon="5.61616">
        <ele>1586.2</ele>
        <time>2011-07-24T14:51:42Z</time>
      </trkpt>
      <trkpt lat="45.0824" lon="5.61613">
        <ele>1585.6</ele>
        <time>2011-07-24T14:51:44Z</time>
      </trkpt>
      <trkpt lat="45.08247" lon="5.61611">
        <ele>1584.2</ele>
        <time>2011-07-24T14:51:48Z</time>
      </trkpt>
      <trkpt lat="45.08246" lon="5.61611">
        <ele>1582.4</ele>
        <time>2011-07-24T14:51:54Z</time>
      </trkpt>
      <trkpt lat="45.08245" lon="5.61616">
        <ele>1578.8</ele>
        <time>2011-07-24T14:52:07Z</time>
      </trkpt>
      <trkpt lat="45.08245" lon="5.61617">
        <ele>1578.4</ele>
        <time>2011-07-24T14:52:08Z</time>
      </trkpt>
      <trkpt lat="45.08249" lon="5.61616">
        <ele>1577.8</ele>
        <time>2011-07-24T14:52:10Z</time>
      </trkpt>
      <trkpt lat="45.08251" lon="5.61615">
        <ele>1577.6</ele>
        <time>2011-07-24T14:52:11Z</time>
      </trkpt>
      <trkpt lat="45.08254" lon="5.61616">
        <ele>1576.6</ele>
        <time>2011-07-24T14:52:15Z</time>
      </trkpt>
      <trkpt lat="45.08254" lon="5.6162">
        <ele>1575.4</ele>
        <time>2011-07-24T14:52:19Z</time>
      </trkpt>
      <trkpt lat="45.08256" lon="5.61622">
        <ele>1574.4</ele>
        <time>2011-07-24T14:52:22Z</time>
      </trkpt>
      <trkpt lat="45.08257" lon="5.61624">
        <ele>1573.8</ele>
        <time>2011-07-24T14:52:24Z</time>
      </trkpt>
      <trkpt lat="45.08257" lon="5.61628">
        <ele>1572.8</ele>
        <time>2011-07-24T14:52:27Z</time>
      </trkpt>
      <trkpt lat="45.08257" lon="5.6163">
        <ele>1572.4</ele>
        <time>2011-07-24T14:52:28Z</time>
      </trkpt>
      <trkpt lat="45.08255" lon="5.61632">
        <ele>1571.8</ele>
        <time>2011-07-24T14:52:30Z</time>
      </trkpt>
      <trkpt lat="45.08251" lon="5.61636">
        <ele>1570.8</ele>
        <time>2011-07-24T14:52:33Z</time>
      </trkpt>
      <trkpt lat="45.08247" lon="5.61638">
        <ele>1569.6</ele>
        <time>2011-07-24T14:52:36Z</time>
      </trkpt>
      <trkpt lat="45.08246" lon="5.6164">
        <ele>1569</ele>
        <time>2011-07-24T14:52:38Z</time>
      </trkpt>
      <trkpt lat="45.08249" lon="5.61646">
        <ele>1567</ele>
        <time>2011-07-24T14:52:43Z</time>
      </trkpt>
      <trkpt lat="45.08245" lon="5.61643">
        <ele>1560.2</ele>
        <time>2011-07-24T14:53:01Z</time>
      </trkpt>
      <trkpt lat="45.08242" lon="5.61648">
        <ele>1558.6</ele>
        <time>2011-07-24T14:53:05Z</time>
      </trkpt>
      <trkpt lat="45.08238" lon="5.61662">
        <ele>1556.4</ele>
        <time>2011-07-24T14:53:11Z</time>
      </trkpt>
      <trkpt lat="45.08235" lon="5.61667">
        <ele>1555.8</ele>
        <time>2011-07-24T14:53:13Z</time>
      </trkpt>
      <trkpt lat="45.08232" lon="5.6167">
        <ele>1554.8</ele>
        <time>2011-07-24T14:53:16Z</time>
      </trkpt>
      <trkpt lat="45.08232" lon="5.61677">
        <ele>1553.2</ele>
        <time>2011-07-24T14:53:21Z</time>
      </trkpt>
      <trkpt lat="45.08231" lon="5.61679">
        <ele>1552.8</ele>
        <time>2011-07-24T14:53:22Z</time>
      </trkpt>
      <trkpt lat="45.08229" lon="5.61689">
        <ele>1551.6</ele>
        <time>2011-07-24T14:53:26Z</time>
      </trkpt>
      <trkpt lat="45.08228" lon="5.61691">
        <ele>1551.2</ele>
        <time>2011-07-24T14:53:27Z</time>
      </trkpt>
      <trkpt lat="45.08227" lon="5.61695">
        <ele>1550.4</ele>
        <time>2011-07-24T14:53:29Z</time>
      </trkpt>
      <trkpt lat="45.08224" lon="5.61697">
        <ele>1549.8</ele>
        <time>2011-07-24T14:53:31Z</time>
      </trkpt>
      <trkpt lat="45.08218" lon="5.61706">
        <ele>1547.8</ele>
        <time>2011-07-24T14:53:36Z</time>
      </trkpt>
      <trkpt lat="45.08218" lon="5.61708">
        <ele>1547.6</ele>
        <time>2011-07-24T14:53:37Z</time>
      </trkpt>
      <trkpt lat="45.08214" lon="5.61714">
        <ele>1546.6</ele>
        <time>2011-07-24T14:53:40Z</time>
      </trkpt>
      <trkpt lat="45.08212" lon="5.61715">
        <ele>1546.2</ele>
        <time>2011-07-24T14:53:41Z</time>
      </trkpt>
      <trkpt lat="45.08208" lon="5.61719">
        <ele>1545.2</ele>
        <time>2011-07-24T14:53:44Z</time>
      </trkpt>
      <trkpt lat="45.08206" lon="5.61726">
        <ele>1544.6</ele>
        <time>2011-07-24T14:53:46Z</time>
      </trkpt>
      <trkpt lat="45.08203" lon="5.61734">
        <ele>1543.8</ele>
        <time>2011-07-24T14:53:49Z</time>
      </trkpt>
      <trkpt lat="45.08198" lon="5.61737">
        <ele>1541.8</ele>
        <time>2011-07-24T14:53:54Z</time>
      </trkpt>
      <trkpt lat="45.08193" lon="5.61742">
        <ele>1540.8</ele>
        <time>2011-07-24T14:53:57Z</time>
      </trkpt>
      <trkpt lat="45.0819" lon="5.61745">
        <ele>1540</ele>
        <time>2011-07-24T14:53:59Z</time>
      </trkpt>
      <trkpt lat="45.08189" lon="5.61746">
        <ele>1539.6</ele>
        <time>2011-07-24T14:54:00Z</time>
      </trkpt>
      <trkpt lat="45.08188" lon="5.6175">
        <ele>1538.6</ele>
        <time>2011-07-24T14:54:03Z</time>
      </trkpt>
      <trkpt lat="45.08188" lon="5.61753">
        <ele>1538</ele>
        <time>2011-07-24T14:54:05Z</time>
      </trkpt>
      <trkpt lat="45.0819" lon="5.61754">
        <ele>1536.8</ele>
        <time>2011-07-24T14:54:08Z</time>
      </trkpt>
      <trkpt lat="45.08195" lon="5.61756">
        <ele>1535.4</ele>
        <time>2011-07-24T14:54:12Z</time>
      </trkpt>
      <trkpt lat="45.08196" lon="5.61758">
        <ele>1535</ele>
        <time>2011-07-24T14:54:13Z</time>
      </trkpt>
      <trkpt lat="45.082" lon="5.61758">
        <ele>1534</ele>
        <time>2011-07-24T14:54:16Z</time>
      </trkpt>
      <trkpt lat="45.08199" lon="5.61763">
        <ele>1533</ele>
        <time>2011-07-24T14:54:19Z</time>
      </trkpt>
      <trkpt lat="45.08196" lon="5.6177">
        <ele>1532</ele>
        <time>2011-07-24T14:54:23Z</time>
      </trkpt>
      <trkpt lat="45.08195" lon="5.61772">
        <ele>1531.4</ele>
        <time>2011-07-24T14:54:25Z</time>
      </trkpt>
      <trkpt lat="45.08191" lon="5.61778">
        <ele>1530</ele>
        <time>2011-07-24T14:54:30Z</time>
      </trkpt>
      <trkpt lat="45.08189" lon="5.61783">
        <ele>1529.6</ele>
        <time>2011-07-24T14:54:32Z</time>
      </trkpt>
      <trkpt lat="45.08188" lon="5.61787">
        <ele>1528.8</ele>
        <time>2011-07-24T14:54:35Z</time>
      </trkpt>
      <trkpt lat="45.0819" lon="5.61787">
        <ele>1528.2</ele>
        <time>2011-07-24T14:54:37Z</time>
      </trkpt>
      <trkpt lat="45.08193" lon="5.61787">
        <ele>1527.4</ele>
        <time>2011-07-24T14:54:40Z</time>
      </trkpt>
      <trkpt lat="45.08193" lon="5.61787">
        <ele>1527.2</ele>
        <time>2011-07-24T14:54:41Z</time>
      </trkpt>
      <trkpt lat="45.08194" lon="5.61788">
        <ele>1526.8</ele>
        <time>2011-07-24T14:54:42Z</time>
      </trkpt>
      <trkpt lat="45.08198" lon="5.61792">
        <ele>1525.8</ele>
        <time>2011-07-24T14:54:46Z</time>
      </trkpt>
      <trkpt lat="45.082" lon="5.61793">
        <ele>1525.6</ele>
        <time>2011-07-24T14:54:47Z</time>
      </trkpt>
      <trkpt lat="45.082" lon="5.61792">
        <ele>1524.8</ele>
        <time>2011-07-24T14:54:50Z</time>
      </trkpt>
      <trkpt lat="45.08206" lon="5.61786">
        <ele>1523.2</ele>
        <time>2011-07-24T14:54:55Z</time>
      </trkpt>
      <trkpt lat="45.08207" lon="5.61786">
        <ele>1522.2</ele>
        <time>2011-07-24T14:54:58Z</time>
      </trkpt>
      <trkpt lat="45.0821" lon="5.61786">
        <ele>1522</ele>
        <time>2011-07-24T14:54:59Z</time>
      </trkpt>
      <trkpt lat="45.08213" lon="5.61786">
        <ele>1521.2</ele>
        <time>2011-07-24T14:55:01Z</time>
      </trkpt>
      <trkpt lat="45.0822" lon="5.61786">
        <ele>1520.2</ele>
        <time>2011-07-24T14:55:04Z</time>
      </trkpt>
      <trkpt lat="45.08228" lon="5.61785">
        <ele>1518.8</ele>
        <time>2011-07-24T14:55:08Z</time>
      </trkpt>
      <trkpt lat="45.08233" lon="5.61785">
        <ele>1518.2</ele>
        <time>2011-07-24T14:55:10Z</time>
      </trkpt>
      <trkpt lat="45.08243" lon="5.61783">
        <ele>1516.8</ele>
        <time>2011-07-24T14:55:14Z</time>
      </trkpt>
      <trkpt lat="45.08253" lon="5.61788">
        <ele>1515.2</ele>
        <time>2011-07-24T14:55:18Z</time>
      </trkpt>
      <trkpt lat="45.08256" lon="5.61789">
        <ele>1515</ele>
        <time>2011-07-24T14:55:19Z</time>
      </trkpt>
      <trkpt lat="45.0826" lon="5.61793">
        <ele>1513.8</ele>
        <time>2011-07-24T14:55:22Z</time>
      </trkpt>
      <trkpt lat="45.08261" lon="5.61795">
        <ele>1513.4</ele>
        <time>2011-07-24T14:55:23Z</time>
      </trkpt>
      <trkpt lat="45.08257" lon="5.61801">
        <ele>1511.8</ele>
        <time>2011-07-24T14:55:27Z</time>
      </trkpt>
      <trkpt lat="45.08256" lon="5.61804">
        <ele>1510.8</ele>
        <time>2011-07-24T14:55:29Z</time>
      </trkpt>
      <trkpt lat="45.08255" lon="5.61807">
        <ele>1510</ele>
        <time>2011-07-24T14:55:31Z</time>
      </trkpt>
      <trkpt lat="45.08254" lon="5.61808">
        <ele>1509.6</ele>
        <time>2011-07-24T14:55:32Z</time>
      </trkpt>
      <trkpt lat="45.08256" lon="5.61809">
        <ele>1509.2</ele>
        <time>2011-07-24T14:55:33Z</time>
      </trkpt>
      <trkpt lat="45.08258" lon="5.61813">
        <ele>1508.6</ele>
        <time>2011-07-24T14:55:35Z</time>
      </trkpt>
      <trkpt lat="45.0826" lon="5.61818">
        <ele>1507.6</ele>
        <time>2011-07-24T14:55:38Z</time>
      </trkpt>
      <trkpt lat="45.0826" lon="5.61819">
        <ele>1507.4</ele>
        <time>2011-07-24T14:55:39Z</time>
      </trkpt>
      <trkpt lat="45.0826" lon="5.61821">
        <ele>1506.8</ele>
        <time>2011-07-24T14:55:41Z</time>
      </trkpt>
      <trkpt lat="45.08261" lon="5.61827">
        <ele>1505.8</ele>
        <time>2011-07-24T14:55:44Z</time>
      </trkpt>
      <trkpt lat="45.0826" lon="5.61831">
        <ele>1505</ele>
        <time>2011-07-24T14:55:47Z</time>
      </trkpt>
      <trkpt lat="45.08259" lon="5.61834">
        <ele>1504.6</ele>
        <time>2011-07-24T14:55:49Z</time>
      </trkpt>
      <trkpt lat="45.08258" lon="5.61837">
        <ele>1504.2</ele>
        <time>2011-07-24T14:55:50Z</time>
      </trkpt>
      <trkpt lat="45.08255" lon="5.61843">
        <ele>1503.4</ele>
        <time>2011-07-24T14:55:53Z</time>
      </trkpt>
      <trkpt lat="45.08256" lon="5.61845">
        <ele>1503</ele>
        <time>2011-07-24T14:55:54Z</time>
      </trkpt>
      <trkpt lat="45.08261" lon="5.6185">
        <ele>1501.6</ele>
        <time>2011-07-24T14:55:59Z</time>
      </trkpt>
      <trkpt lat="45.08263" lon="5.61855">
        <ele>1501</ele>
        <time>2011-07-24T14:56:01Z</time>
      </trkpt>
      <trkpt lat="45.08268" lon="5.61856">
        <ele>1499.8</ele>
        <time>2011-07-24T14:56:04Z</time>
      </trkpt>
      <trkpt lat="45.08275" lon="5.61861">
        <ele>1498</ele>
        <time>2011-07-24T14:56:09Z</time>
      </trkpt>
      <trkpt lat="45.08278" lon="5.61861">
        <ele>1497</ele>
        <time>2011-07-24T14:56:11Z</time>
      </trkpt>
      <trkpt lat="45.08278" lon="5.61863">
        <ele>1496.6</ele>
        <time>2011-07-24T14:56:12Z</time>
      </trkpt>
      <trkpt lat="45.08278" lon="5.61866">
        <ele>1495.6</ele>
        <time>2011-07-24T14:56:14Z</time>
      </trkpt>
      <trkpt lat="45.08284" lon="5.61877">
        <ele>1493.8</ele>
        <time>2011-07-24T14:56:18Z</time>
      </trkpt>
      <trkpt lat="45.08289" lon="5.61881">
        <ele>1492.2</ele>
        <time>2011-07-24T14:56:21Z</time>
      </trkpt>
      <trkpt lat="45.08294" lon="5.61882">
        <ele>1491</ele>
        <time>2011-07-24T14:56:23Z</time>
      </trkpt>
      <trkpt lat="45.08301" lon="5.61887">
        <ele>1489</ele>
        <time>2011-07-24T14:56:28Z</time>
      </trkpt>
      <trkpt lat="45.08301" lon="5.61888">
        <ele>1488.6</ele>
        <time>2011-07-24T14:56:29Z</time>
      </trkpt>
      <trkpt lat="45.08302" lon="5.61893">
        <ele>1487.2</ele>
        <time>2011-07-24T14:56:32Z</time>
      </trkpt>
      <trkpt lat="45.08301" lon="5.61896">
        <ele>1486</ele>
        <time>2011-07-24T14:56:35Z</time>
      </trkpt>
      <trkpt lat="45.083" lon="5.61897">
        <ele>1484.8</ele>
        <time>2011-07-24T14:56:38Z</time>
      </trkpt>
      <trkpt lat="45.08295" lon="5.61899">
        <ele>1483</ele>
        <time>2011-07-24T14:56:43Z</time>
      </trkpt>
      <trkpt lat="45.08294" lon="5.61899">
        <ele>1482.2</ele>
        <time>2011-07-24T14:56:45Z</time>
      </trkpt>
      <trkpt lat="45.08291" lon="5.61902">
        <ele>1480.4</ele>
        <time>2011-07-24T14:56:50Z</time>
      </trkpt>
      <trkpt lat="45.08289" lon="5.61905">
        <ele>1480.2</ele>
        <time>2011-07-24T14:56:51Z</time>
      </trkpt>
      <trkpt lat="45.08286" lon="5.61909">
        <ele>1479.6</ele>
        <time>2011-07-24T14:56:53Z</time>
      </trkpt>
      <trkpt lat="45.08285" lon="5.6191">
        <ele>1479.2</ele>
        <time>2011-07-24T14:56:54Z</time>
      </trkpt>
      <trkpt lat="45.08279" lon="5.61917">
        <ele>1477</ele>
        <time>2011-07-24T14:57:00Z</time>
      </trkpt>
      <trkpt lat="45.08275" lon="5.61921">
        <ele>1474.8</ele>
        <time>2011-07-24T14:57:06Z</time>
      </trkpt>
      <trkpt lat="45.08272" lon="5.61928">
        <ele>1473</ele>
        <time>2011-07-24T14:57:11Z</time>
      </trkpt>
      <trkpt lat="45.08271" lon="5.6193">
        <ele>1472.8</ele>
        <time>2011-07-24T14:57:12Z</time>
      </trkpt>
      <trkpt lat="45.08268" lon="5.61936">
        <ele>1470.8</ele>
        <time>2011-07-24T14:57:17Z</time>
      </trkpt>
      <trkpt lat="45.08266" lon="5.61942">
        <ele>1469.6</ele>
        <time>2011-07-24T14:57:20Z</time>
      </trkpt>
      <trkpt lat="45.08266" lon="5.61945">
        <ele>1468.8</ele>
        <time>2011-07-24T14:57:22Z</time>
      </trkpt>
      <trkpt lat="45.0827" lon="5.61951">
        <ele>1467</ele>
        <time>2011-07-24T14:57:26Z</time>
      </trkpt>
      <trkpt lat="45.0827" lon="5.61953">
        <ele>1466.6</ele>
        <time>2011-07-24T14:57:27Z</time>
      </trkpt>
      <trkpt lat="45.08266" lon="5.61956">
        <ele>1464.8</ele>
        <time>2011-07-24T14:57:31Z</time>
      </trkpt>
      <trkpt lat="45.08266" lon="5.61957">
        <ele>1464.4</ele>
        <time>2011-07-24T14:57:32Z</time>
      </trkpt>
      <trkpt lat="45.08263" lon="5.61959">
        <ele>1463</ele>
        <time>2011-07-24T14:57:35Z</time>
      </trkpt>
      <trkpt lat="45.08256" lon="5.61962">
        <ele>1460.8</ele>
        <time>2011-07-24T14:57:40Z</time>
      </trkpt>
      <trkpt lat="45.08255" lon="5.61961">
        <ele>1460.4</ele>
        <time>2011-07-24T14:57:41Z</time>
      </trkpt>
      <trkpt lat="45.08253" lon="5.61962">
        <ele>1460</ele>
        <time>2011-07-24T14:57:42Z</time>
      </trkpt>
      <trkpt lat="45.08251" lon="5.61963">
        <ele>1459.6</ele>
        <time>2011-07-24T14:57:43Z</time>
      </trkpt>
      <trkpt lat="45.0825" lon="5.61965">
        <ele>1459.2</ele>
        <time>2011-07-24T14:57:44Z</time>
      </trkpt>
      <trkpt lat="45.08247" lon="5.61972">
        <ele>1457.8</ele>
        <time>2011-07-24T14:57:47Z</time>
      </trkpt>
      <trkpt lat="45.08246" lon="5.61979">
        <ele>1455.8</ele>
        <time>2011-07-24T14:57:51Z</time>
      </trkpt>
      <trkpt lat="45.08242" lon="5.61984">
        <ele>1454</ele>
        <time>2011-07-24T14:57:55Z</time>
      </trkpt>
      <trkpt lat="45.08242" lon="5.61986">
        <ele>1453.4</ele>
        <time>2011-07-24T14:57:56Z</time>
      </trkpt>
      <trkpt lat="45.08241" lon="5.61988">
        <ele>1452.6</ele>
        <time>2011-07-24T14:57:58Z</time>
      </trkpt>
      <trkpt lat="45.08238" lon="5.61989">
        <ele>1451</ele>
        <time>2011-07-24T14:58:01Z</time>
      </trkpt>
      <trkpt lat="45.08237" lon="5.6199">
        <ele>1450.6</ele>
        <time>2011-07-24T14:58:02Z</time>
      </trkpt>
      <trkpt lat="45.08233" lon="5.61992">
        <ele>1449.2</ele>
        <time>2011-07-24T14:58:05Z</time>
      </trkpt>
      <trkpt lat="45.08231" lon="5.61995">
        <ele>1448.4</ele>
        <time>2011-07-24T14:58:07Z</time>
      </trkpt>
      <trkpt lat="45.0823" lon="5.61996">
        <ele>1447.4</ele>
        <time>2011-07-24T14:58:09Z</time>
      </trkpt>
      <trkpt lat="45.08229" lon="5.61998">
        <ele>1446.6</ele>
        <time>2011-07-24T14:58:11Z</time>
      </trkpt>
      <trkpt lat="45.08228" lon="5.62003">
        <ele>1445</ele>
        <time>2011-07-24T14:58:15Z</time>
      </trkpt>
      <trkpt lat="45.08227" lon="5.62005">
        <ele>1444.6</ele>
        <time>2011-07-24T14:58:16Z</time>
      </trkpt>
      <trkpt lat="45.08225" lon="5.62009">
        <ele>1443.8</ele>
        <time>2011-07-24T14:58:18Z</time>
      </trkpt>
      <trkpt lat="45.08223" lon="5.62011">
        <ele>1443.2</ele>
        <time>2011-07-24T14:58:19Z</time>
      </trkpt>
      <trkpt lat="45.0822" lon="5.62012">
        <ele>1442.4</ele>
        <time>2011-07-24T14:58:21Z</time>
      </trkpt>
      <trkpt lat="45.08218" lon="5.62013">
        <ele>1442</ele>
        <time>2011-07-24T14:58:22Z</time>
      </trkpt>
      <trkpt lat="45.0821" lon="5.62015">
        <ele>1440</ele>
        <time>2011-07-24T14:58:26Z</time>
      </trkpt>
      <trkpt lat="45.08208" lon="5.62016">
        <ele>1439.4</ele>
        <time>2011-07-24T14:58:27Z</time>
      </trkpt>
      <trkpt lat="45.08205" lon="5.62023">
        <ele>1436.4</ele>
        <time>2011-07-24T14:58:32Z</time>
      </trkpt>
      <trkpt lat="45.08204" lon="5.62027">
        <ele>1434.6</ele>
        <time>2011-07-24T14:58:35Z</time>
      </trkpt>
      <trkpt lat="45.082" lon="5.62029">
        <ele>1432.8</ele>
        <time>2011-07-24T14:58:38Z</time>
      </trkpt>
      <trkpt lat="45.08201" lon="5.62031">
        <ele>1430</ele>
        <time>2011-07-24T14:58:43Z</time>
      </trkpt>
      <trkpt lat="45.08202" lon="5.62032">
        <ele>1428.8</ele>
        <time>2011-07-24T14:58:45Z</time>
      </trkpt>
      <trkpt lat="45.08197" lon="5.62033">
        <ele>1427.4</ele>
        <time>2011-07-24T14:58:47Z</time>
      </trkpt>
      <trkpt lat="45.0819" lon="5.62033">
        <ele>1424.2</ele>
        <time>2011-07-24T14:58:52Z</time>
      </trkpt>
      <trkpt lat="45.08188" lon="5.62034">
        <ele>1423</ele>
        <time>2011-07-24T14:58:54Z</time>
      </trkpt>
      <trkpt lat="45.0819" lon="5.62037">
        <ele>1421.8</ele>
        <time>2011-07-24T14:58:56Z</time>
      </trkpt>
      <trkpt lat="45.08191" lon="5.62039">
        <ele>1421.4</ele>
        <time>2011-07-24T14:58:57Z</time>
      </trkpt>
      <trkpt lat="45.08195" lon="5.62044">
        <ele>1419</ele>
        <time>2011-07-24T14:59:01Z</time>
      </trkpt>
      <trkpt lat="45.08201" lon="5.6205">
        <ele>1415.4</ele>
        <time>2011-07-24T14:59:07Z</time>
      </trkpt>
      <trkpt lat="45.08207" lon="5.62055">
        <ele>1412.6</ele>
        <time>2011-07-24T14:59:12Z</time>
      </trkpt>
      <trkpt lat="45.08209" lon="5.62056">
        <ele>1412.2</ele>
        <time>2011-07-24T14:59:13Z</time>
      </trkpt>
      <trkpt lat="45.08221" lon="5.62063">
        <ele>1409.8</ele>
        <time>2011-07-24T14:59:18Z</time>
      </trkpt>
      <trkpt lat="45.08223" lon="5.62065">
        <ele>1409.4</ele>
        <time>2011-07-24T14:59:19Z</time>
      </trkpt>
      <trkpt lat="45.08227" lon="5.62083">
        <ele>1407.6</ele>
        <time>2011-07-24T14:59:23Z</time>
      </trkpt>
      <trkpt lat="45.0823" lon="5.6209">
        <ele>1406.8</ele>
        <time>2011-07-24T14:59:25Z</time>
      </trkpt>
      <trkpt lat="45.0823" lon="5.621">
        <ele>1405.2</ele>
        <time>2011-07-24T14:59:29Z</time>
      </trkpt>
      <trkpt lat="45.08231" lon="5.62103">
        <ele>1404.8</ele>
        <time>2011-07-24T14:59:30Z</time>
      </trkpt>
      <trkpt lat="45.08237" lon="5.62112">
        <ele>1402.8</ele>
        <time>2011-07-24T14:59:35Z</time>
      </trkpt>
      <trkpt lat="45.08247" lon="5.62119">
        <ele>1399.6</ele>
        <time>2011-07-24T14:59:42Z</time>
      </trkpt>
      <trkpt lat="45.08249" lon="5.62119">
        <ele>1398.8</ele>
        <time>2011-07-24T14:59:44Z</time>
      </trkpt>
      <trkpt lat="45.08252" lon="5.62124">
        <ele>1397.4</ele>
        <time>2011-07-24T14:59:47Z</time>
      </trkpt>
      <trkpt lat="45.08253" lon="5.62127">
        <ele>1396.8</ele>
        <time>2011-07-24T14:59:48Z</time>
      </trkpt>
      <trkpt lat="45.08258" lon="5.62134">
        <ele>1395.2</ele>
        <time>2011-07-24T14:59:52Z</time>
      </trkpt>
      <trkpt lat="45.08264" lon="5.62147">
        <ele>1393</ele>
        <time>2011-07-24T14:59:57Z</time>
      </trkpt>
      <trkpt lat="45.0827" lon="5.62156">
        <ele>1391</ele>
        <time>2011-07-24T15:00:02Z</time>
      </trkpt>
      <trkpt lat="45.08272" lon="5.62161">
        <ele>1390.2</ele>
        <time>2011-07-24T15:00:04Z</time>
      </trkpt>
      <trkpt lat="45.08272" lon="5.62169">
        <ele>1388.8</ele>
        <time>2011-07-24T15:00:08Z</time>
      </trkpt>
      <trkpt lat="45.08272" lon="5.62171">
        <ele>1388.4</ele>
        <time>2011-07-24T15:00:09Z</time>
      </trkpt>
      <trkpt lat="45.0827" lon="5.62174">
        <ele>1387.4</ele>
        <time>2011-07-24T15:00:11Z</time>
      </trkpt>
      <trkpt lat="45.08268" lon="5.62178">
        <ele>1386.2</ele>
        <time>2011-07-24T15:00:14Z</time>
      </trkpt>
      <trkpt lat="45.08266" lon="5.62181">
        <ele>1385.4</ele>
        <time>2011-07-24T15:00:16Z</time>
      </trkpt>
      <trkpt lat="45.08261" lon="5.62183">
        <ele>1384</ele>
        <time>2011-07-24T15:00:19Z</time>
      </trkpt>
      <trkpt lat="45.08257" lon="5.62185">
        <ele>1383</ele>
        <time>2011-07-24T15:00:21Z</time>
      </trkpt>
      <trkpt lat="45.08256" lon="5.6219">
        <ele>1382.2</ele>
        <time>2011-07-24T15:00:23Z</time>
      </trkpt>
      <trkpt lat="45.08255" lon="5.62192">
        <ele>1381.8</ele>
        <time>2011-07-24T15:00:24Z</time>
      </trkpt>
      <trkpt lat="45.08255" lon="5.62206">
        <ele>1378.8</ele>
        <time>2011-07-24T15:00:30Z</time>
      </trkpt>
      <trkpt lat="45.08256" lon="5.62212">
        <ele>1377.8</ele>
        <time>2011-07-24T15:00:32Z</time>
      </trkpt>
      <trkpt lat="45.08259" lon="5.6222">
        <ele>1376.4</ele>
        <time>2011-07-24T15:00:35Z</time>
      </trkpt>
      <trkpt lat="45.08258" lon="5.62224">
        <ele>1376</ele>
        <time>2011-07-24T15:00:36Z</time>
      </trkpt>
      <trkpt lat="45.0826" lon="5.62238">
        <ele>1373.6</ele>
        <time>2011-07-24T15:00:41Z</time>
      </trkpt>
      <trkpt lat="45.0826" lon="5.6224">
        <ele>1373.2</ele>
        <time>2011-07-24T15:00:42Z</time>
      </trkpt>
      <trkpt lat="45.08261" lon="5.62249">
        <ele>1371.8</ele>
        <time>2011-07-24T15:00:45Z</time>
      </trkpt>
      <trkpt lat="45.08261" lon="5.62253">
        <ele>1371</ele>
        <time>2011-07-24T15:00:47Z</time>
      </trkpt>
      <trkpt lat="45.08261" lon="5.62263">
        <ele>1369.4</ele>
        <time>2011-07-24T15:00:51Z</time>
      </trkpt>
      <trkpt lat="45.08261" lon="5.62266">
        <ele>1368.8</ele>
        <time>2011-07-24T15:00:52Z</time>
      </trkpt>
      <trkpt lat="45.08264" lon="5.62279">
        <ele>1366.6</ele>
        <time>2011-07-24T15:00:57Z</time>
      </trkpt>
      <trkpt lat="45.08265" lon="5.6229">
        <ele>1364.6</ele>
        <time>2011-07-24T15:01:01Z</time>
      </trkpt>
      <trkpt lat="45.08264" lon="5.62292">
        <ele>1364</ele>
        <time>2011-07-24T15:01:02Z</time>
      </trkpt>
      <trkpt lat="45.08265" lon="5.62295">
        <ele>1363.4</ele>
        <time>2011-07-24T15:01:03Z</time>
      </trkpt>
      <trkpt lat="45.08265" lon="5.62298">
        <ele>1362.4</ele>
        <time>2011-07-24T15:01:05Z</time>
      </trkpt>
      <trkpt lat="45.08264" lon="5.62302">
        <ele>1361.4</ele>
        <time>2011-07-24T15:01:07Z</time>
      </trkpt>
      <trkpt lat="45.08261" lon="5.62314">
        <ele>1359</ele>
        <time>2011-07-24T15:01:11Z</time>
      </trkpt>
      <trkpt lat="45.08252" lon="5.62338">
        <ele>1355.8</ele>
        <time>2011-07-24T15:01:16Z</time>
      </trkpt>
      <trkpt lat="45.08245" lon="5.62352">
        <ele>1353.4</ele>
        <time>2011-07-24T15:01:20Z</time>
      </trkpt>
      <trkpt lat="45.08242" lon="5.62362">
        <ele>1351.6</ele>
        <time>2011-07-24T15:01:23Z</time>
      </trkpt>
      <trkpt lat="45.08243" lon="5.62365">
        <ele>1351</ele>
        <time>2011-07-24T15:01:24Z</time>
      </trkpt>
      <trkpt lat="45.08242" lon="5.62367">
        <ele>1350.2</ele>
        <time>2011-07-24T15:01:25Z</time>
      </trkpt>
      <trkpt lat="45.08241" lon="5.62367">
        <ele>1349</ele>
        <time>2011-07-24T15:01:27Z</time>
      </trkpt>
      <trkpt lat="45.08239" lon="5.62365">
        <ele>1347.8</ele>
        <time>2011-07-24T15:01:29Z</time>
      </trkpt>
      <trkpt lat="45.08238" lon="5.62365">
        <ele>1346</ele>
        <time>2011-07-24T15:01:32Z</time>
      </trkpt>
      <trkpt lat="45.08233" lon="5.62364">
        <ele>1344.2</ele>
        <time>2011-07-24T15:01:35Z</time>
      </trkpt>
      <trkpt lat="45.08232" lon="5.62363">
        <ele>1343.6</ele>
        <time>2011-07-24T15:01:36Z</time>
      </trkpt>
      <trkpt lat="45.08229" lon="5.6236">
        <ele>1342.4</ele>
        <time>2011-07-24T15:01:38Z</time>
      </trkpt>
      <trkpt lat="45.08228" lon="5.62359">
        <ele>1341.8</ele>
        <time>2011-07-24T15:01:39Z</time>
      </trkpt>
      <trkpt lat="45.08228" lon="5.62357">
        <ele>1341.4</ele>
        <time>2011-07-24T15:01:40Z</time>
      </trkpt>
      <trkpt lat="45.08227" lon="5.62355">
        <ele>1340.2</ele>
        <time>2011-07-24T15:01:42Z</time>
      </trkpt>
      <trkpt lat="45.08226" lon="5.62355">
        <ele>1339.6</ele>
        <time>2011-07-24T15:01:43Z</time>
      </trkpt>
      <trkpt lat="45.08225" lon="5.62355">
        <ele>1339.2</ele>
        <time>2011-07-24T15:01:44Z</time>
      </trkpt>
      <trkpt lat="45.08222" lon="5.62352">
        <ele>1337.4</ele>
        <time>2011-07-24T15:01:47Z</time>
      </trkpt>
      <trkpt lat="45.0822" lon="5.6235">
        <ele>1337</ele>
        <time>2011-07-24T15:01:48Z</time>
      </trkpt>
      <trkpt lat="45.08218" lon="5.6235">
        <ele>1334.8</ele>
        <time>2011-07-24T15:01:52Z</time>
      </trkpt>
      <trkpt lat="45.08216" lon="5.62352">
        <ele>1333</ele>
        <time>2011-07-24T15:01:56Z</time>
      </trkpt>
      <trkpt lat="45.08214" lon="5.62359">
        <ele>1330</ele>
        <time>2011-07-24T15:02:02Z</time>
      </trkpt>
      <trkpt lat="45.08215" lon="5.62361">
        <ele>1328.6</ele>
        <time>2011-07-24T15:02:05Z</time>
      </trkpt>
      <trkpt lat="45.08215" lon="5.62361">
        <ele>1328</ele>
        <time>2011-07-24T15:02:06Z</time>
      </trkpt>
      <trkpt lat="45.08202" lon="5.62363">
        <ele>1322.8</ele>
        <time>2011-07-24T15:02:16Z</time>
      </trkpt>
      <trkpt lat="45.08198" lon="5.62366">
        <ele>1321.2</ele>
        <time>2011-07-24T15:02:19Z</time>
      </trkpt>
      <trkpt lat="45.08193" lon="5.62369">
        <ele>1320</ele>
        <time>2011-07-24T15:02:21Z</time>
      </trkpt>
      <trkpt lat="45.08189" lon="5.62371">
        <ele>1318.8</ele>
        <time>2011-07-24T15:02:23Z</time>
      </trkpt>
      <trkpt lat="45.08188" lon="5.62375">
        <ele>1317.6</ele>
        <time>2011-07-24T15:02:25Z</time>
      </trkpt>
      <trkpt lat="45.08185" lon="5.6238">
        <ele>1316.2</ele>
        <time>2011-07-24T15:02:27Z</time>
      </trkpt>
      <trkpt lat="45.08185" lon="5.6238">
        <ele>1316.2</ele>
        <time>2011-07-24T15:02:27Z</time>
      </trkpt>
      <trkpt lat="45.08186" lon="5.62384">
        <ele>1315.8</ele>
        <time>2011-07-24T15:02:28Z</time>
      </trkpt>
      <trkpt lat="45.08186" lon="5.62392">
        <ele>1314.8</ele>
        <time>2011-07-24T15:02:30Z</time>
      </trkpt>
      <trkpt lat="45.0819" lon="5.62406">
        <ele>1313.2</ele>
        <time>2011-07-24T15:02:33Z</time>
      </trkpt>
      <trkpt lat="45.08192" lon="5.62413">
        <ele>1311</ele>
        <time>2011-07-24T15:02:37Z</time>
      </trkpt>
      <trkpt lat="45.08192" lon="5.62414">
        <ele>1307</ele>
        <time>2011-07-24T15:02:45Z</time>
      </trkpt>
      <trkpt lat="45.08196" lon="5.62422">
        <ele>1305.8</ele>
        <time>2011-07-24T15:02:48Z</time>
      </trkpt>
      <trkpt lat="45.08194" lon="5.62426">
        <ele>1305</ele>
        <time>2011-07-24T15:02:50Z</time>
      </trkpt>
      <trkpt lat="45.08191" lon="5.62431">
        <ele>1304</ele>
        <time>2011-07-24T15:02:52Z</time>
      </trkpt>
      <trkpt lat="45.0819" lon="5.62433">
        <ele>1303.6</ele>
        <time>2011-07-24T15:02:53Z</time>
      </trkpt>
      <trkpt lat="45.08187" lon="5.62444">
        <ele>1301.2</ele>
        <time>2011-07-24T15:02:58Z</time>
      </trkpt>
      <trkpt lat="45.08181" lon="5.62452">
        <ele>1299</ele>
        <time>2011-07-24T15:03:03Z</time>
      </trkpt>
      <trkpt lat="45.08179" lon="5.62453">
        <ele>1298.6</ele>
        <time>2011-07-24T15:03:04Z</time>
      </trkpt>
      <trkpt lat="45.08178" lon="5.62453">
        <ele>1298.2</ele>
        <time>2011-07-24T15:03:05Z</time>
      </trkpt>
      <trkpt lat="45.08171" lon="5.62458">
        <ele>1296.6</ele>
        <time>2011-07-24T15:03:09Z</time>
      </trkpt>
      <trkpt lat="45.0817" lon="5.6246">
        <ele>1296</ele>
        <time>2011-07-24T15:03:10Z</time>
      </trkpt>
      <trkpt lat="45.08167" lon="5.6247">
        <ele>1294.2</ele>
        <time>2011-07-24T15:03:14Z</time>
      </trkpt>
      <trkpt lat="45.08166" lon="5.62472">
        <ele>1293.6</ele>
        <time>2011-07-24T15:03:15Z</time>
      </trkpt>
      <trkpt lat="45.08162" lon="5.62476">
        <ele>1292.2</ele>
        <time>2011-07-24T15:03:18Z</time>
      </trkpt>
      <trkpt lat="45.08161" lon="5.62479">
        <ele>1291.6</ele>
        <time>2011-07-24T15:03:19Z</time>
      </trkpt>
      <trkpt lat="45.0816" lon="5.62484">
        <ele>1290.6</ele>
        <time>2011-07-24T15:03:21Z</time>
      </trkpt>
      <trkpt lat="45.08158" lon="5.6249">
        <ele>1289.6</ele>
        <time>2011-07-24T15:03:23Z</time>
      </trkpt>
      <trkpt lat="45.0815" lon="5.62499">
        <ele>1287.6</ele>
        <time>2011-07-24T15:03:27Z</time>
      </trkpt>
      <trkpt lat="45.08148" lon="5.62502">
        <ele>1287</ele>
        <time>2011-07-24T15:03:28Z</time>
      </trkpt>
      <trkpt lat="45.0814" lon="5.62511">
        <ele>1285.2</ele>
        <time>2011-07-24T15:03:31Z</time>
      </trkpt>
      <trkpt lat="45.08134" lon="5.62517">
        <ele>1284.2</ele>
        <time>2011-07-24T15:03:33Z</time>
      </trkpt>
      <trkpt lat="45.08123" lon="5.62533">
        <ele>1281.2</ele>
        <time>2011-07-24T15:03:38Z</time>
      </trkpt>
      <trkpt lat="45.08121" lon="5.62537">
        <ele>1280.6</ele>
        <time>2011-07-24T15:03:39Z</time>
      </trkpt>
      <trkpt lat="45.08116" lon="5.62547">
        <ele>1278.8</ele>
        <time>2011-07-24T15:03:42Z</time>
      </trkpt>
      <trkpt lat="45.08115" lon="5.62563">
        <ele>1275.8</ele>
        <time>2011-07-24T15:03:47Z</time>
      </trkpt>
      <trkpt lat="45.08112" lon="5.62575">
        <ele>1273.8</ele>
        <time>2011-07-24T15:03:51Z</time>
      </trkpt>
      <trkpt lat="45.0811" lon="5.62583">
        <ele>1272.4</ele>
        <time>2011-07-24T15:03:54Z</time>
      </trkpt>
      <trkpt lat="45.08109" lon="5.62588">
        <ele>1271.2</ele>
        <time>2011-07-24T15:03:56Z</time>
      </trkpt>
      <trkpt lat="45.0811" lon="5.62597">
        <ele>1268.8</ele>
        <time>2011-07-24T15:04:01Z</time>
      </trkpt>
      <trkpt lat="45.08115" lon="5.62603">
        <ele>1265.4</ele>
        <time>2011-07-24T15:04:08Z</time>
      </trkpt>
      <trkpt lat="45.08117" lon="5.62608">
        <ele>1263.6</ele>
        <time>2011-07-24T15:04:12Z</time>
      </trkpt>
      <trkpt lat="45.08118" lon="5.62612">
        <ele>1262.8</ele>
        <time>2011-07-24T15:04:14Z</time>
      </trkpt>
      <trkpt lat="45.08117" lon="5.62619">
        <ele>1262</ele>
        <time>2011-07-24T15:04:16Z</time>
      </trkpt>
      <trkpt lat="45.0812" lon="5.62628">
        <ele>1260.4</ele>
        <time>2011-07-24T15:04:20Z</time>
      </trkpt>
      <trkpt lat="45.0812" lon="5.6263">
        <ele>1260.2</ele>
        <time>2011-07-24T15:04:21Z</time>
      </trkpt>
      <trkpt lat="45.08119" lon="5.62637">
        <ele>1259.4</ele>
        <time>2011-07-24T15:04:23Z</time>
      </trkpt>
      <trkpt lat="45.0812" lon="5.62641">
        <ele>1258</ele>
        <time>2011-07-24T15:04:27Z</time>
      </trkpt>
      <trkpt lat="45.08121" lon="5.62641">
        <ele>1257.6</ele>
        <time>2011-07-24T15:04:28Z</time>
      </trkpt>
      <trkpt lat="45.08116" lon="5.62641">
        <ele>1256.2</ele>
        <time>2011-07-24T15:04:32Z</time>
      </trkpt>
      <trkpt lat="45.08112" lon="5.62641">
        <ele>1255</ele>
        <time>2011-07-24T15:04:35Z</time>
      </trkpt>
      <trkpt lat="45.08112" lon="5.6264">
        <ele>1254.2</ele>
        <time>2011-07-24T15:04:37Z</time>
      </trkpt>
      <trkpt lat="45.08113" lon="5.62638">
        <ele>1253.2</ele>
        <time>2011-07-24T15:04:40Z</time>
      </trkpt>
      <trkpt lat="45.08113" lon="5.62633">
        <ele>1252.4</ele>
        <time>2011-07-24T15:04:42Z</time>
      </trkpt>
      <trkpt lat="45.08112" lon="5.62632">
        <ele>1252.2</ele>
        <time>2011-07-24T15:04:43Z</time>
      </trkpt>
      <trkpt lat="45.08113" lon="5.62628">
        <ele>1250.4</ele>
        <time>2011-07-24T15:04:48Z</time>
      </trkpt>
      <trkpt lat="45.08108" lon="5.62628">
        <ele>1245</ele>
        <time>2011-07-24T15:05:06Z</time>
      </trkpt>
      <trkpt lat="45.08105" lon="5.62629">
        <ele>1243</ele>
        <time>2011-07-24T15:05:14Z</time>
      </trkpt>
      <trkpt lat="45.08105" lon="5.62633">
        <ele>1241</ele>
        <time>2011-07-24T15:05:24Z</time>
      </trkpt>
      <trkpt lat="45.08104" lon="5.62633">
        <ele>1240.4</ele>
        <time>2011-07-24T15:05:27Z</time>
      </trkpt>
      <trkpt lat="45.0811" lon="5.62635">
        <ele>1237.8</ele>
        <time>2011-07-24T15:05:39Z</time>
      </trkpt>
      <trkpt lat="45.08111" lon="5.62636">
        <ele>1237.4</ele>
        <time>2011-07-24T15:05:41Z</time>
      </trkpt>
      <trkpt lat="45.08113" lon="5.62639">
        <ele>1237</ele>
        <time>2011-07-24T15:05:43Z</time>
      </trkpt>
      <trkpt lat="45.08114" lon="5.62643">
        <ele>1236.6</ele>
        <time>2011-07-24T15:05:45Z</time>
      </trkpt>
      <trkpt lat="45.08115" lon="5.62644">
        <ele>1236.4</ele>
        <time>2011-07-24T15:05:46Z</time>
      </trkpt>
      <trkpt lat="45.08116" lon="5.62646">
        <ele>1236.2</ele>
        <time>2011-07-24T15:05:48Z</time>
      </trkpt>
      <trkpt lat="45.08117" lon="5.62649">
        <ele>1236</ele>
        <time>2011-07-24T15:05:50Z</time>
      </trkpt>
      <trkpt lat="45.08116" lon="5.62657">
        <ele>1235.6</ele>
        <time>2011-07-24T15:05:53Z</time>
      </trkpt>
      <trkpt lat="45.08113" lon="5.62666">
        <ele>1234.8</ele>
        <time>2011-07-24T15:05:58Z</time>
      </trkpt>
      <trkpt lat="45.08112" lon="5.62671">
        <ele>1234.6</ele>
        <time>2011-07-24T15:06:00Z</time>
      </trkpt>
      <trkpt lat="45.08109" lon="5.62683">
        <ele>1234</ele>
        <time>2011-07-24T15:06:04Z</time>
      </trkpt>
      <trkpt lat="45.08108" lon="5.62687">
        <ele>1233.8</ele>
        <time>2011-07-24T15:06:06Z</time>
      </trkpt>
      <trkpt lat="45.08107" lon="5.62691">
        <ele>1233.4</ele>
        <time>2011-07-24T15:06:08Z</time>
      </trkpt>
      <trkpt lat="45.08104" lon="5.62699">
        <ele>1233</ele>
        <time>2011-07-24T15:06:11Z</time>
      </trkpt>
      <trkpt lat="45.081" lon="5.62703">
        <ele>1232.4</ele>
        <time>2011-07-24T15:06:13Z</time>
      </trkpt>
      <trkpt lat="45.08095" lon="5.62702">
        <ele>1232</ele>
        <time>2011-07-24T15:06:16Z</time>
      </trkpt>
      <trkpt lat="45.08094" lon="5.62701">
        <ele>1231.8</ele>
        <time>2011-07-24T15:06:17Z</time>
      </trkpt>
      <trkpt lat="45.08093" lon="5.62692">
        <ele>1230.6</ele>
        <time>2011-07-24T15:06:22Z</time>
      </trkpt>
      <trkpt lat="45.08096" lon="5.62686">
        <ele>1229.4</ele>
        <time>2011-07-24T15:06:27Z</time>
      </trkpt>
      <trkpt lat="45.08095" lon="5.62678">
        <ele>1227.8</ele>
        <time>2011-07-24T15:06:33Z</time>
      </trkpt>
      <trkpt lat="45.08094" lon="5.62675">
        <ele>1227.4</ele>
        <time>2011-07-24T15:06:34Z</time>
      </trkpt>
      <trkpt lat="45.08093" lon="5.62667">
        <ele>1226.6</ele>
        <time>2011-07-24T15:06:37Z</time>
      </trkpt>
      <trkpt lat="45.08092" lon="5.62664">
        <ele>1226</ele>
        <time>2011-07-24T15:06:39Z</time>
      </trkpt>
      <trkpt lat="45.08093" lon="5.62655">
        <ele>1225</ele>
        <time>2011-07-24T15:06:43Z</time>
      </trkpt>
      <trkpt lat="45.08092" lon="5.62653">
        <ele>1224.6</ele>
        <time>2011-07-24T15:06:44Z</time>
      </trkpt>
      <trkpt lat="45.0809" lon="5.62655">
        <ele>1223.8</ele>
        <time>2011-07-24T15:06:48Z</time>
      </trkpt>
      <trkpt lat="45.08088" lon="5.62656">
        <ele>1223.2</ele>
        <time>2011-07-24T15:06:50Z</time>
      </trkpt>
      <trkpt lat="45.08085" lon="5.62658">
        <ele>1223</ele>
        <time>2011-07-24T15:06:52Z</time>
      </trkpt>
      <trkpt lat="45.08083" lon="5.62661">
        <ele>1222.4</ele>
        <time>2011-07-24T15:06:55Z</time>
      </trkpt>
      <trkpt lat="45.0808" lon="5.62658">
        <ele>1221.6</ele>
        <time>2011-07-24T15:06:59Z</time>
      </trkpt>
      <trkpt lat="45.0808" lon="5.62651">
        <ele>1220.4</ele>
        <time>2011-07-24T15:07:03Z</time>
      </trkpt>
      <trkpt lat="45.08078" lon="5.62651">
        <ele>1220</ele>
        <time>2011-07-24T15:07:05Z</time>
      </trkpt>
      <trkpt lat="45.08077" lon="5.6265">
        <ele>1219.4</ele>
        <time>2011-07-24T15:07:08Z</time>
      </trkpt>
      <trkpt lat="45.08076" lon="5.62655">
        <ele>1217.4</ele>
        <time>2011-07-24T15:07:17Z</time>
      </trkpt>
      <trkpt lat="45.08074" lon="5.62655">
        <ele>1216.8</ele>
        <time>2011-07-24T15:07:21Z</time>
      </trkpt>
      <trkpt lat="45.08071" lon="5.62654">
        <ele>1216.2</ele>
        <time>2011-07-24T15:07:25Z</time>
      </trkpt>
      <trkpt lat="45.08071" lon="5.62658">
        <ele>1215.6</ele>
        <time>2011-07-24T15:07:28Z</time>
      </trkpt>
      <trkpt lat="45.08073" lon="5.62662">
        <ele>1215</ele>
        <time>2011-07-24T15:07:31Z</time>
      </trkpt>
      <trkpt lat="45.0807" lon="5.62669">
        <ele>1214.4</ele>
        <time>2011-07-24T15:07:36Z</time>
      </trkpt>
      <trkpt lat="45.08068" lon="5.6267">
        <ele>1214.2</ele>
        <time>2011-07-24T15:07:37Z</time>
      </trkpt>
      <trkpt lat="45.08066" lon="5.6267">
        <ele>1214.2</ele>
        <time>2011-07-24T15:07:38Z</time>
      </trkpt>
      <trkpt lat="45.08065" lon="5.62672">
        <ele>1214</ele>
        <time>2011-07-24T15:07:39Z</time>
      </trkpt>
      <trkpt lat="45.08063" lon="5.62674">
        <ele>1213.8</ele>
        <time>2011-07-24T15:07:41Z</time>
      </trkpt>
      <trkpt lat="45.08061" lon="5.62675">
        <ele>1213.6</ele>
        <time>2011-07-24T15:07:42Z</time>
      </trkpt>
      <trkpt lat="45.08057" lon="5.62677">
        <ele>1213.2</ele>
        <time>2011-07-24T15:07:45Z</time>
      </trkpt>
      <trkpt lat="45.08056" lon="5.62678">
        <ele>1212.8</ele>
        <time>2011-07-24T15:07:46Z</time>
      </trkpt>
      <trkpt lat="45.0805" lon="5.62678">
        <ele>1211.8</ele>
        <time>2011-07-24T15:07:50Z</time>
      </trkpt>
      <trkpt lat="45.08046" lon="5.62676">
        <ele>1210.8</ele>
        <time>2011-07-24T15:07:53Z</time>
      </trkpt>
      <trkpt lat="45.08045" lon="5.62675">
        <ele>1210.4</ele>
        <time>2011-07-24T15:07:54Z</time>
      </trkpt>
      <trkpt lat="45.08043" lon="5.62672">
        <ele>1210</ele>
        <time>2011-07-24T15:07:55Z</time>
      </trkpt>
      <trkpt lat="45.08033" lon="5.62663">
        <ele>1208</ele>
        <time>2011-07-24T15:08:00Z</time>
      </trkpt>
      <trkpt lat="45.08032" lon="5.62662">
        <ele>1207.6</ele>
        <time>2011-07-24T15:08:01Z</time>
      </trkpt>
      <trkpt lat="45.08024" lon="5.62658">
        <ele>1206.2</ele>
        <time>2011-07-24T15:08:04Z</time>
      </trkpt>
      <trkpt lat="45.08015" lon="5.62654">
        <ele>1204.4</ele>
        <time>2011-07-24T15:08:08Z</time>
      </trkpt>
      <trkpt lat="45.0801" lon="5.62653">
        <ele>1203.4</ele>
        <time>2011-07-24T15:08:10Z</time>
      </trkpt>
      <trkpt lat="45.07997" lon="5.62652">
        <ele>1201.4</ele>
        <time>2011-07-24T15:08:14Z</time>
      </trkpt>
      <trkpt lat="45.07986" lon="5.62654">
        <ele>1198.4</ele>
        <time>2011-07-24T15:08:20Z</time>
      </trkpt>
      <trkpt lat="45.0798" lon="5.62655">
        <ele>1195.8</ele>
        <time>2011-07-24T15:08:26Z</time>
      </trkpt>
      <trkpt lat="45.07981" lon="5.6266">
        <ele>1194</ele>
        <time>2011-07-24T15:08:30Z</time>
      </trkpt>
      <trkpt lat="45.0798" lon="5.62662">
        <ele>1193.6</ele>
        <time>2011-07-24T15:08:31Z</time>
      </trkpt>
      <trkpt lat="45.07977" lon="5.62661">
        <ele>1193.2</ele>
        <time>2011-07-24T15:08:32Z</time>
      </trkpt>
      <trkpt lat="45.07974" lon="5.62662">
        <ele>1192</ele>
        <time>2011-07-24T15:08:35Z</time>
      </trkpt>
      <trkpt lat="45.07972" lon="5.62662">
        <ele>1191</ele>
        <time>2011-07-24T15:08:37Z</time>
      </trkpt>
      <trkpt lat="45.0797" lon="5.62662">
        <ele>1189.6</ele>
        <time>2011-07-24T15:08:40Z</time>
      </trkpt>
      <trkpt lat="45.07965" lon="5.62662">
        <ele>1187.2</ele>
        <time>2011-07-24T15:08:46Z</time>
      </trkpt>
      <trkpt lat="45.07962" lon="5.62664">
        <ele>1185.8</ele>
        <time>2011-07-24T15:08:49Z</time>
      </trkpt>
      <trkpt lat="45.07958" lon="5.62665">
        <ele>1185</ele>
        <time>2011-07-24T15:08:51Z</time>
      </trkpt>
      <trkpt lat="45.07955" lon="5.6267">
        <ele>1182.8</ele>
        <time>2011-07-24T15:08:56Z</time>
      </trkpt>
      <trkpt lat="45.07954" lon="5.62671">
        <ele>1182.4</ele>
        <time>2011-07-24T15:08:57Z</time>
      </trkpt>
      <trkpt lat="45.07953" lon="5.62673">
        <ele>1181.4</ele>
        <time>2011-07-24T15:08:59Z</time>
      </trkpt>
      <trkpt lat="45.07948" lon="5.62676">
        <ele>1179.6</ele>
        <time>2011-07-24T15:09:03Z</time>
      </trkpt>
      <trkpt lat="45.07939" lon="5.62679">
        <ele>1177.4</ele>
        <time>2011-07-24T15:09:08Z</time>
      </trkpt>
      <trkpt lat="45.07935" lon="5.6268">
        <ele>1176.6</ele>
        <time>2011-07-24T15:09:10Z</time>
      </trkpt>
      <trkpt lat="45.07932" lon="5.62678">
        <ele>1175.4</ele>
        <time>2011-07-24T15:09:13Z</time>
      </trkpt>
      <trkpt lat="45.0793" lon="5.62678">
        <ele>1174.6</ele>
        <time>2011-07-24T15:09:15Z</time>
      </trkpt>
      <trkpt lat="45.07929" lon="5.62678">
        <ele>1173.8</ele>
        <time>2011-07-24T15:09:17Z</time>
      </trkpt>
      <trkpt lat="45.07926" lon="5.62679">
        <ele>1171.6</ele>
        <time>2011-07-24T15:09:22Z</time>
      </trkpt>
      <trkpt lat="45.07923" lon="5.6268">
        <ele>1170.2</ele>
        <time>2011-07-24T15:09:25Z</time>
      </trkpt>
      <trkpt lat="45.0792" lon="5.62681">
        <ele>1169.4</ele>
        <time>2011-07-24T15:09:27Z</time>
      </trkpt>
      <trkpt lat="45.07917" lon="5.62682">
        <ele>1167</ele>
        <time>2011-07-24T15:09:32Z</time>
      </trkpt>
      <trkpt lat="45.07917" lon="5.62682">
        <ele>1166.6</ele>
        <time>2011-07-24T15:09:33Z</time>
      </trkpt>
      <trkpt lat="45.07913" lon="5.62683">
        <ele>1165.2</ele>
        <time>2011-07-24T15:09:36Z</time>
      </trkpt>
      <trkpt lat="45.07912" lon="5.62685">
        <ele>1164.6</ele>
        <time>2011-07-24T15:09:37Z</time>
      </trkpt>
      <trkpt lat="45.0791" lon="5.62687">
        <ele>1164.2</ele>
        <time>2011-07-24T15:09:38Z</time>
      </trkpt>
      <trkpt lat="45.07904" lon="5.62698">
        <ele>1161.8</ele>
        <time>2011-07-24T15:09:43Z</time>
      </trkpt>
      <trkpt lat="45.07897" lon="5.62705">
        <ele>1160.6</ele>
        <time>2011-07-24T15:09:46Z</time>
      </trkpt>
      <trkpt lat="45.07893" lon="5.62706">
        <ele>1159.6</ele>
        <time>2011-07-24T15:09:48Z</time>
      </trkpt>
      <trkpt lat="45.07889" lon="5.62708">
        <ele>1158.2</ele>
        <time>2011-07-24T15:09:51Z</time>
      </trkpt>
      <trkpt lat="45.07887" lon="5.62708">
        <ele>1156.8</ele>
        <time>2011-07-24T15:09:54Z</time>
      </trkpt>
      <trkpt lat="45.07886" lon="5.62708">
        <ele>1156</ele>
        <time>2011-07-24T15:09:56Z</time>
      </trkpt>
      <trkpt lat="45.07882" lon="5.62708">
        <ele>1154.6</ele>
        <time>2011-07-24T15:09:59Z</time>
      </trkpt>
      <trkpt lat="45.07879" lon="5.62708">
        <ele>1153.8</ele>
        <time>2011-07-24T15:10:01Z</time>
      </trkpt>
      <trkpt lat="45.07876" lon="5.62708">
        <ele>1152.6</ele>
        <time>2011-07-24T15:10:04Z</time>
      </trkpt>
      <trkpt lat="45.07875" lon="5.62708">
        <ele>1152</ele>
        <time>2011-07-24T15:10:05Z</time>
      </trkpt>
      <trkpt lat="45.07874" lon="5.62706">
        <ele>1151.2</ele>
        <time>2011-07-24T15:10:07Z</time>
      </trkpt>
      <trkpt lat="45.07872" lon="5.62702">
        <ele>1149.8</ele>
        <time>2011-07-24T15:10:10Z</time>
      </trkpt>
      <trkpt lat="45.07866" lon="5.62696">
        <ele>1147.6</ele>
        <time>2011-07-24T15:10:15Z</time>
      </trkpt>
      <trkpt lat="45.07866" lon="5.62695">
        <ele>1147</ele>
        <time>2011-07-24T15:10:16Z</time>
      </trkpt>
      <trkpt lat="45.07868" lon="5.62692">
        <ele>1145.8</ele>
        <time>2011-07-24T15:10:19Z</time>
      </trkpt>
      <trkpt lat="45.07868" lon="5.62692">
        <ele>1145.4</ele>
        <time>2011-07-24T15:10:20Z</time>
      </trkpt>
      <trkpt lat="45.07875" lon="5.62689">
        <ele>1143.4</ele>
        <time>2011-07-24T15:10:24Z</time>
      </trkpt>
      <trkpt lat="45.07879" lon="5.62687">
        <ele>1142.2</ele>
        <time>2011-07-24T15:10:27Z</time>
      </trkpt>
      <trkpt lat="45.07879" lon="5.62685">
        <ele>1141.4</ele>
        <time>2011-07-24T15:10:29Z</time>
      </trkpt>
      <trkpt lat="45.07879" lon="5.62682">
        <ele>1140</ele>
        <time>2011-07-24T15:10:32Z</time>
      </trkpt>
      <trkpt lat="45.07878" lon="5.62681">
        <ele>1139.6</ele>
        <time>2011-07-24T15:10:33Z</time>
      </trkpt>
      <trkpt lat="45.07878" lon="5.62678">
        <ele>1138.6</ele>
        <time>2011-07-24T15:10:36Z</time>
      </trkpt>
      <trkpt lat="45.07879" lon="5.62675">
        <ele>1137.8</ele>
        <time>2011-07-24T15:10:38Z</time>
      </trkpt>
      <trkpt lat="45.07879" lon="5.62668">
        <ele>1136.4</ele>
        <time>2011-07-24T15:10:42Z</time>
      </trkpt>
      <trkpt lat="45.07879" lon="5.62666">
        <ele>1136</ele>
        <time>2011-07-24T15:10:43Z</time>
      </trkpt>
      <trkpt lat="45.0788" lon="5.62659">
        <ele>1134.2</ele>
        <time>2011-07-24T15:10:48Z</time>
      </trkpt>
      <trkpt lat="45.07875" lon="5.62658">
        <ele>1133</ele>
        <time>2011-07-24T15:10:51Z</time>
      </trkpt>
      <trkpt lat="45.07875" lon="5.62657">
        <ele>1132.2</ele>
        <time>2011-07-24T15:10:53Z</time>
      </trkpt>
      <trkpt lat="45.07881" lon="5.62646">
        <ele>1129.8</ele>
        <time>2011-07-24T15:10:59Z</time>
      </trkpt>
      <trkpt lat="45.07881" lon="5.62645">
        <ele>1129.4</ele>
        <time>2011-07-24T15:11:00Z</time>
      </trkpt>
      <trkpt lat="45.07881" lon="5.6264">
        <ele>1128.2</ele>
        <time>2011-07-24T15:11:03Z</time>
      </trkpt>
      <trkpt lat="45.07877" lon="5.62637">
        <ele>1125.4</ele>
        <time>2011-07-24T15:11:10Z</time>
      </trkpt>
      <trkpt lat="45.07875" lon="5.62633">
        <ele>1124.6</ele>
        <time>2011-07-24T15:11:12Z</time>
      </trkpt>
      <trkpt lat="45.07877" lon="5.62632">
        <ele>1124.2</ele>
        <time>2011-07-24T15:11:13Z</time>
      </trkpt>
      <trkpt lat="45.07881" lon="5.62628">
        <ele>1123.4</ele>
        <time>2011-07-24T15:11:15Z</time>
      </trkpt>
      <trkpt lat="45.07884" lon="5.62627">
        <ele>1123</ele>
        <time>2011-07-24T15:11:16Z</time>
      </trkpt>
      <trkpt lat="45.07887" lon="5.62624">
        <ele>1121.8</ele>
        <time>2011-07-24T15:11:19Z</time>
      </trkpt>
      <trkpt lat="45.07887" lon="5.62621">
        <ele>1121.2</ele>
        <time>2011-07-24T15:11:20Z</time>
      </trkpt>
      <trkpt lat="45.07887" lon="5.62606">
        <ele>1119</ele>
        <time>2011-07-24T15:11:25Z</time>
      </trkpt>
      <trkpt lat="45.07892" lon="5.62601">
        <ele>1117.6</ele>
        <time>2011-07-24T15:11:28Z</time>
      </trkpt>
      <trkpt lat="45.07894" lon="5.62601">
        <ele>1117.2</ele>
        <time>2011-07-24T15:11:29Z</time>
      </trkpt>
      <trkpt lat="45.07893" lon="5.62602">
        <ele>1116.2</ele>
        <time>2011-07-24T15:11:31Z</time>
      </trkpt>
      <trkpt lat="45.07889" lon="5.62602">
        <ele>1114.8</ele>
        <time>2011-07-24T15:11:34Z</time>
      </trkpt>
      <trkpt lat="45.07886" lon="5.62604">
        <ele>1112</ele>
        <time>2011-07-24T15:11:40Z</time>
      </trkpt>
      <trkpt lat="45.07882" lon="5.62603">
        <ele>1111</ele>
        <time>2011-07-24T15:11:42Z</time>
      </trkpt>
      <trkpt lat="45.07881" lon="5.62602">
        <ele>1109.6</ele>
        <time>2011-07-24T15:11:45Z</time>
      </trkpt>
      <trkpt lat="45.07876" lon="5.62599">
        <ele>1108</ele>
        <time>2011-07-24T15:11:49Z</time>
      </trkpt>
      <trkpt lat="45.07873" lon="5.62592">
        <ele>1106.8</ele>
        <time>2011-07-24T15:11:52Z</time>
      </trkpt>
      <trkpt lat="45.0787" lon="5.62587">
        <ele>1105.6</ele>
        <time>2011-07-24T15:11:55Z</time>
      </trkpt>
      <trkpt lat="45.0787" lon="5.62579">
        <ele>1103.6</ele>
        <time>2011-07-24T15:12:01Z</time>
      </trkpt>
      <trkpt lat="45.07865" lon="5.62578">
        <ele>1101.6</ele>
        <time>2011-07-24T15:12:08Z</time>
      </trkpt>
      <trkpt lat="45.07862" lon="5.62573">
        <ele>1101</ele>
        <time>2011-07-24T15:12:10Z</time>
      </trkpt>
      <trkpt lat="45.0786" lon="5.62571">
        <ele>1100.8</ele>
        <time>2011-07-24T15:12:11Z</time>
      </trkpt>
      <trkpt lat="45.07857" lon="5.62568">
        <ele>1100.2</ele>
        <time>2011-07-24T15:12:13Z</time>
      </trkpt>
      <trkpt lat="45.07855" lon="5.62565">
        <ele>1099.8</ele>
        <time>2011-07-24T15:12:15Z</time>
      </trkpt>
      <trkpt lat="45.07849" lon="5.62556">
        <ele>1098.6</ele>
        <time>2011-07-24T15:12:20Z</time>
      </trkpt>
      <trkpt lat="45.07846" lon="5.62551">
        <ele>1098</ele>
        <time>2011-07-24T15:12:22Z</time>
      </trkpt>
      <trkpt lat="45.07847" lon="5.6254">
        <ele>1096.8</ele>
        <time>2011-07-24T15:12:26Z</time>
      </trkpt>
      <trkpt lat="45.07845" lon="5.62535">
        <ele>1095.6</ele>
        <time>2011-07-24T15:12:30Z</time>
      </trkpt>
      <trkpt lat="45.07844" lon="5.62531">
        <ele>1094.4</ele>
        <time>2011-07-24T15:12:34Z</time>
      </trkpt>
      <trkpt lat="45.0784" lon="5.62528">
        <ele>1092.2</ele>
        <time>2011-07-24T15:12:42Z</time>
      </trkpt>
      <trkpt lat="45.07836" lon="5.62523">
        <ele>1091.4</ele>
        <time>2011-07-24T15:12:45Z</time>
      </trkpt>
      <trkpt lat="45.07835" lon="5.62522">
        <ele>1091</ele>
        <time>2011-07-24T15:12:46Z</time>
      </trkpt>
      <trkpt lat="45.07834" lon="5.62519">
        <ele>1090.2</ele>
        <time>2011-07-24T15:12:49Z</time>
      </trkpt>
      <trkpt lat="45.07831" lon="5.62518">
        <ele>1088.4</ele>
        <time>2011-07-24T15:12:55Z</time>
      </trkpt>
      <trkpt lat="45.07826" lon="5.62516">
        <ele>1087.6</ele>
        <time>2011-07-24T15:12:58Z</time>
      </trkpt>
      <trkpt lat="45.07824" lon="5.62514">
        <ele>1086</ele>
        <time>2011-07-24T15:13:04Z</time>
      </trkpt>
      <trkpt lat="45.07818" lon="5.62513">
        <ele>1084</ele>
        <time>2011-07-24T15:13:11Z</time>
      </trkpt>
      <trkpt lat="45.07812" lon="5.62511">
        <ele>1083.2</ele>
        <time>2011-07-24T15:13:14Z</time>
      </trkpt>
      <trkpt lat="45.07808" lon="5.62505">
        <ele>1081.6</ele>
        <time>2011-07-24T15:13:20Z</time>
      </trkpt>
      <trkpt lat="45.07796" lon="5.62489">
        <ele>1078</ele>
        <time>2011-07-24T15:13:39Z</time>
      </trkpt>
      <trkpt lat="45.07793" lon="5.62485">
        <ele>1076.8</ele>
        <time>2011-07-24T15:13:45Z</time>
      </trkpt>
      <trkpt lat="45.07789" lon="5.62484">
        <ele>1076.2</ele>
        <time>2011-07-24T15:13:48Z</time>
      </trkpt>
      <trkpt lat="45.07785" lon="5.62483">
        <ele>1075.8</ele>
        <time>2011-07-24T15:13:50Z</time>
      </trkpt>
      <trkpt lat="45.07775" lon="5.6248">
        <ele>1075.4</ele>
        <time>2011-07-24T15:13:54Z</time>
      </trkpt>
      <trkpt lat="45.07772" lon="5.6248">
        <ele>1075.4</ele>
        <time>2011-07-24T15:13:55Z</time>
      </trkpt>
      <trkpt lat="45.07766" lon="5.62477">
        <ele>1075.2</ele>
        <time>2011-07-24T15:13:57Z</time>
      </trkpt>
      <trkpt lat="45.07764" lon="5.62474">
        <ele>1075</ele>
        <time>2011-07-24T15:13:59Z</time>
      </trkpt>
      <trkpt lat="45.07756" lon="5.62472">
        <ele>1074.8</ele>
        <time>2011-07-24T15:14:03Z</time>
      </trkpt>
      <trkpt lat="45.07752" lon="5.62473">
        <ele>1074.8</ele>
        <time>2011-07-24T15:14:04Z</time>
      </trkpt>
      <trkpt lat="45.07748" lon="5.62471">
        <ele>1074.4</ele>
        <time>2011-07-24T15:14:07Z</time>
      </trkpt>
      <trkpt lat="45.07747" lon="5.6247">
        <ele>1074.2</ele>
        <time>2011-07-24T15:14:08Z</time>
      </trkpt>
      <trkpt lat="45.07745" lon="5.62466">
        <ele>1073.6</ele>
        <time>2011-07-24T15:14:11Z</time>
      </trkpt>
      <trkpt lat="45.07745" lon="5.62465">
        <ele>1073.4</ele>
        <time>2011-07-24T15:14:12Z</time>
      </trkpt>
      <trkpt lat="45.07754" lon="5.62456">
        <ele>1068.2</ele>
        <time>2011-07-24T15:14:24Z</time>
      </trkpt>
      <trkpt lat="45.07751" lon="5.62454">
        <ele>1066.8</ele>
        <time>2011-07-24T15:14:27Z</time>
      </trkpt>
      <trkpt lat="45.07749" lon="5.62452">
        <ele>1066.4</ele>
        <time>2011-07-24T15:14:28Z</time>
      </trkpt>
      <trkpt lat="45.07743" lon="5.62449">
        <ele>1065.6</ele>
        <time>2011-07-24T15:14:30Z</time>
      </trkpt>
      <trkpt lat="45.07743" lon="5.62449">
        <ele>1065.6</ele>
        <time>2011-07-24T15:14:30Z</time>
      </trkpt>
      <trkpt lat="45.07739" lon="5.6245">
        <ele>1064.8</ele>
        <time>2011-07-24T15:14:32Z</time>
      </trkpt>
      <trkpt lat="45.07737" lon="5.62451">
        <ele>1063.6</ele>
        <time>2011-07-24T15:14:35Z</time>
      </trkpt>
      <trkpt lat="45.07738" lon="5.62451">
        <ele>1063.4</ele>
        <time>2011-07-24T15:14:36Z</time>
      </trkpt>
      <trkpt lat="45.07738" lon="5.6245">
        <ele>1062.4</ele>
        <time>2011-07-24T15:14:38Z</time>
      </trkpt>
      <trkpt lat="45.0774" lon="5.62447">
        <ele>1057.6</ele>
        <time>2011-07-24T15:14:49Z</time>
      </trkpt>
      <trkpt lat="45.07744" lon="5.62449">
        <ele>1054.6</ele>
        <time>2011-07-24T15:14:55Z</time>
      </trkpt>
      <trkpt lat="45.07748" lon="5.6245">
        <ele>1053.6</ele>
        <time>2011-07-24T15:14:57Z</time>
      </trkpt>
      <trkpt lat="45.07749" lon="5.62454">
        <ele>1051.6</ele>
        <time>2011-07-24T15:15:01Z</time>
      </trkpt>
      <trkpt lat="45.0775" lon="5.6245">
        <ele>1048.8</ele>
        <time>2011-07-24T15:15:06Z</time>
      </trkpt>
      <trkpt lat="45.07735" lon="5.62446">
        <ele>1045</ele>
        <time>2011-07-24T15:15:15Z</time>
      </trkpt>
      <trkpt lat="45.0773" lon="5.62445">
        <ele>1044.2</ele>
        <time>2011-07-24T15:15:17Z</time>
      </trkpt>
      <trkpt lat="45.07732" lon="5.62445">
        <ele>1043.4</ele>
        <time>2011-07-24T15:15:19Z</time>
      </trkpt>
      <trkpt lat="45.07732" lon="5.62447">
        <ele>1042.6</ele>
        <time>2011-07-24T15:15:21Z</time>
      </trkpt>
      <trkpt lat="45.07736" lon="5.62457">
        <ele>1040</ele>
        <time>2011-07-24T15:15:27Z</time>
      </trkpt>
      <trkpt lat="45.07738" lon="5.6246">
        <ele>1038.8</ele>
        <time>2011-07-24T15:15:30Z</time>
      </trkpt>
      <trkpt lat="45.07741" lon="5.62462">
        <ele>1037</ele>
        <time>2011-07-24T15:15:34Z</time>
      </trkpt>
      <trkpt lat="45.07735" lon="5.62465">
        <ele>1035.6</ele>
        <time>2011-07-24T15:15:37Z</time>
      </trkpt>
      <trkpt lat="45.07732" lon="5.62471">
        <ele>1033.8</ele>
        <time>2011-07-24T15:15:41Z</time>
      </trkpt>
      <trkpt lat="45.07731" lon="5.62473">
        <ele>1031.4</ele>
        <time>2011-07-24T15:15:46Z</time>
      </trkpt>
      <trkpt lat="45.07721" lon="5.62459">
        <ele>1013.2</ele>
        <time>2011-07-24T15:16:32Z</time>
      </trkpt>
      <trkpt lat="45.07724" lon="5.62473">
        <ele>1007.4</ele>
        <time>2011-07-24T15:16:53Z</time>
      </trkpt>
      <trkpt lat="45.07721" lon="5.62485">
        <ele>1005.8</ele>
        <time>2011-07-24T15:17:00Z</time>
      </trkpt>
      <trkpt lat="45.0772" lon="5.6249">
        <ele>1005.4</ele>
        <time>2011-07-24T15:17:03Z</time>
      </trkpt>
      <trkpt lat="45.07722" lon="5.62495">
        <ele>1001</ele>
        <time>2011-07-24T15:17:19Z</time>
      </trkpt>
      <trkpt lat="45.07722" lon="5.62496">
        <ele>1000.8</ele>
        <time>2011-07-24T15:17:20Z</time>
      </trkpt>
      <trkpt lat="45.07719" lon="5.62504">
        <ele>999.6</ele>
        <time>2011-07-24T15:17:24Z</time>
      </trkpt>
      <trkpt lat="45.0772" lon="5.62506">
        <ele>999.2</ele>
        <time>2011-07-24T15:17:25Z</time>
      </trkpt>
      <trkpt lat="45.07721" lon="5.62508">
        <ele>998.4</ele>
        <time>2011-07-24T15:17:27Z</time>
      </trkpt>
      <trkpt lat="45.07723" lon="5.62516">
        <ele>997.2</ele>
        <time>2011-07-24T15:17:31Z</time>
      </trkpt>
      <trkpt lat="45.07723" lon="5.62524">
        <ele>995.8</ele>
        <time>2011-07-24T15:17:35Z</time>
      </trkpt>
      <trkpt lat="45.07723" lon="5.62528">
        <ele>995.2</ele>
        <time>2011-07-24T15:17:37Z</time>
      </trkpt>
      <trkpt lat="45.07722" lon="5.62534">
        <ele>994.2</ele>
        <time>2011-07-24T15:17:40Z</time>
      </trkpt>
      <trkpt lat="45.07724" lon="5.62539">
        <ele>993</ele>
        <time>2011-07-24T15:17:43Z</time>
      </trkpt>
      <trkpt lat="45.07724" lon="5.6254">
        <ele>992.6</ele>
        <time>2011-07-24T15:17:44Z</time>
      </trkpt>
      <trkpt lat="45.07724" lon="5.62543">
        <ele>992</ele>
        <time>2011-07-24T15:17:46Z</time>
      </trkpt>
      <trkpt lat="45.07724" lon="5.62546">
        <ele>991.4</ele>
        <time>2011-07-24T15:17:48Z</time>
      </trkpt>
      <trkpt lat="45.07725" lon="5.62556">
        <ele>989.6</ele>
        <time>2011-07-24T15:17:54Z</time>
      </trkpt>
      <trkpt lat="45.07726" lon="5.62558">
        <ele>989.2</ele>
        <time>2011-07-24T15:17:55Z</time>
      </trkpt>
      <trkpt lat="45.07726" lon="5.62559">
        <ele>989</ele>
        <time>2011-07-24T15:17:56Z</time>
      </trkpt>
      <trkpt lat="45.07726" lon="5.62565">
        <ele>988.2</ele>
        <time>2011-07-24T15:17:59Z</time>
      </trkpt>
      <trkpt lat="45.07727" lon="5.62573">
        <ele>986.4</ele>
        <time>2011-07-24T15:18:05Z</time>
      </trkpt>
      <trkpt lat="45.07726" lon="5.6258">
        <ele>985.2</ele>
        <time>2011-07-24T15:18:11Z</time>
      </trkpt>
      <trkpt lat="45.07726" lon="5.62586">
        <ele>984</ele>
        <time>2011-07-24T15:18:16Z</time>
      </trkpt>
      <trkpt lat="45.07727" lon="5.62588">
        <ele>983.8</ele>
        <time>2011-07-24T15:18:17Z</time>
      </trkpt>
      <trkpt lat="45.07728" lon="5.62593">
        <ele>983</ele>
        <time>2011-07-24T15:18:20Z</time>
      </trkpt>
      <trkpt lat="45.07727" lon="5.626">
        <ele>982.2</ele>
        <time>2011-07-24T15:18:23Z</time>
      </trkpt>
      <trkpt lat="45.07726" lon="5.6261">
        <ele>981.4</ele>
        <time>2011-07-24T15:18:26Z</time>
      </trkpt>
      <trkpt lat="45.07725" lon="5.62613">
        <ele>981</ele>
        <time>2011-07-24T15:18:27Z</time>
      </trkpt>
      <trkpt lat="45.07724" lon="5.62634">
        <ele>979.2</ele>
        <time>2011-07-24T15:18:33Z</time>
      </trkpt>
      <trkpt lat="45.07724" lon="5.62638">
        <ele>978.8</ele>
        <time>2011-07-24T15:18:34Z</time>
      </trkpt>
      <trkpt lat="45.07724" lon="5.62654">
        <ele>977</ele>
        <time>2011-07-24T15:18:39Z</time>
      </trkpt>
      <trkpt lat="45.07725" lon="5.62661">
        <ele>976.2</ele>
        <time>2011-07-24T15:18:41Z</time>
      </trkpt>
      <trkpt lat="45.07727" lon="5.62665">
        <ele>975.8</ele>
        <time>2011-07-24T15:18:42Z</time>
      </trkpt>
      <trkpt lat="45.07726" lon="5.62672">
        <ele>975.2</ele>
        <time>2011-07-24T15:18:44Z</time>
      </trkpt>
      <trkpt lat="45.07728" lon="5.62687">
        <ele>973.2</ele>
        <time>2011-07-24T15:18:49Z</time>
      </trkpt>
      <trkpt lat="45.07726" lon="5.62693">
        <ele>972.6</ele>
        <time>2011-07-24T15:18:51Z</time>
      </trkpt>
      <trkpt lat="45.07724" lon="5.62701">
        <ele>971.4</ele>
        <time>2011-07-24T15:18:54Z</time>
      </trkpt>
      <trkpt lat="45.07723" lon="5.62713">
        <ele>969.6</ele>
        <time>2011-07-24T15:18:59Z</time>
      </trkpt>
      <trkpt lat="45.07721" lon="5.62722">
        <ele>968.8</ele>
        <time>2011-07-24T15:19:02Z</time>
      </trkpt>
      <trkpt lat="45.07721" lon="5.62724">
        <ele>968.4</ele>
        <time>2011-07-24T15:19:03Z</time>
      </trkpt>
      <trkpt lat="45.07721" lon="5.62725">
        <ele>968</ele>
        <time>2011-07-24T15:19:04Z</time>
      </trkpt>
      <trkpt lat="45.07723" lon="5.62731">
        <ele>966.4</ele>
        <time>2011-07-24T15:19:08Z</time>
      </trkpt>
      <trkpt lat="45.07723" lon="5.62732">
        <ele>966.2</ele>
        <time>2011-07-24T15:19:09Z</time>
      </trkpt>
      <trkpt lat="45.07725" lon="5.62738">
        <ele>965</ele>
        <time>2011-07-24T15:19:12Z</time>
      </trkpt>
      <trkpt lat="45.07722" lon="5.62744">
        <ele>964</ele>
        <time>2011-07-24T15:19:15Z</time>
      </trkpt>
      <trkpt lat="45.07723" lon="5.62749">
        <ele>963.2</ele>
        <time>2011-07-24T15:19:17Z</time>
      </trkpt>
      <trkpt lat="45.07724" lon="5.62754">
        <ele>962.4</ele>
        <time>2011-07-24T15:19:19Z</time>
      </trkpt>
      <trkpt lat="45.07725" lon="5.62759">
        <ele>961.6</ele>
        <time>2011-07-24T15:19:21Z</time>
      </trkpt>
      <trkpt lat="45.07725" lon="5.62761">
        <ele>961.2</ele>
        <time>2011-07-24T15:19:22Z</time>
      </trkpt>
      <trkpt lat="45.07727" lon="5.62769">
        <ele>959.8</ele>
        <time>2011-07-24T15:19:25Z</time>
      </trkpt>
      <trkpt lat="45.07728" lon="5.62772">
        <ele>959.4</ele>
        <time>2011-07-24T15:19:26Z</time>
      </trkpt>
      <trkpt lat="45.07728" lon="5.62776">
        <ele>959</ele>
        <time>2011-07-24T15:19:27Z</time>
      </trkpt>
      <trkpt lat="45.07732" lon="5.62787">
        <ele>957.6</ele>
        <time>2011-07-24T15:19:30Z</time>
      </trkpt>
      <trkpt lat="45.07732" lon="5.62792">
        <ele>956.8</ele>
        <time>2011-07-24T15:19:32Z</time>
      </trkpt>
      <trkpt lat="45.07735" lon="5.62797">
        <ele>955.8</ele>
        <time>2011-07-24T15:19:34Z</time>
      </trkpt>
      <trkpt lat="45.07737" lon="5.62804">
        <ele>955</ele>
        <time>2011-07-24T15:19:36Z</time>
      </trkpt>
      <trkpt lat="45.0774" lon="5.62811">
        <ele>954.2</ele>
        <time>2011-07-24T15:19:38Z</time>
      </trkpt>
      <trkpt lat="45.07747" lon="5.62821">
        <ele>952.4</ele>
        <time>2011-07-24T15:19:42Z</time>
      </trkpt>
      <trkpt lat="45.0775" lon="5.62828">
        <ele>951.6</ele>
        <time>2011-07-24T15:19:44Z</time>
      </trkpt>
      <trkpt lat="45.07755" lon="5.62839">
        <ele>950.4</ele>
        <time>2011-07-24T15:19:47Z</time>
      </trkpt>
      <trkpt lat="45.07759" lon="5.62847">
        <ele>949</ele>
        <time>2011-07-24T15:19:51Z</time>
      </trkpt>
      <trkpt lat="45.0776" lon="5.62852">
        <ele>948.2</ele>
        <time>2011-07-24T15:19:53Z</time>
      </trkpt>
      <trkpt lat="45.07762" lon="5.62856">
        <ele>947.6</ele>
        <time>2011-07-24T15:19:55Z</time>
      </trkpt>
      <trkpt lat="45.07763" lon="5.62859">
        <ele>946.8</ele>
        <time>2011-07-24T15:19:58Z</time>
      </trkpt>
      <trkpt lat="45.07766" lon="5.62862">
        <ele>946.4</ele>
        <time>2011-07-24T15:20:00Z</time>
      </trkpt>
      <trkpt lat="45.07768" lon="5.62866">
        <ele>945.2</ele>
        <time>2011-07-24T15:20:04Z</time>
      </trkpt>
      <trkpt lat="45.0777" lon="5.6287">
        <ele>944.4</ele>
        <time>2011-07-24T15:20:07Z</time>
      </trkpt>
      <trkpt lat="45.07771" lon="5.62874">
        <ele>943.8</ele>
        <time>2011-07-24T15:20:09Z</time>
      </trkpt>
      <trkpt lat="45.07772" lon="5.62878">
        <ele>943.2</ele>
        <time>2011-07-24T15:20:12Z</time>
      </trkpt>
      <trkpt lat="45.07772" lon="5.6288">
        <ele>943</ele>
        <time>2011-07-24T15:20:13Z</time>
      </trkpt>
      <trkpt lat="45.07774" lon="5.6289">
        <ele>942</ele>
        <time>2011-07-24T15:20:17Z</time>
      </trkpt>
      <trkpt lat="45.07774" lon="5.62891">
        <ele>941.6</ele>
        <time>2011-07-24T15:20:18Z</time>
      </trkpt>
      <trkpt lat="45.07775" lon="5.62899">
        <ele>940.8</ele>
        <time>2011-07-24T15:20:22Z</time>
      </trkpt>
      <trkpt lat="45.07776" lon="5.62901">
        <ele>940.6</ele>
        <time>2011-07-24T15:20:23Z</time>
      </trkpt>
      <trkpt lat="45.07777" lon="5.62903">
        <ele>940.4</ele>
        <time>2011-07-24T15:20:24Z</time>
      </trkpt>
      <trkpt lat="45.07779" lon="5.62907">
        <ele>940</ele>
        <time>2011-07-24T15:20:26Z</time>
      </trkpt>
      <trkpt lat="45.07781" lon="5.62917">
        <ele>939</ele>
        <time>2011-07-24T15:20:31Z</time>
      </trkpt>
      <trkpt lat="45.07782" lon="5.62922">
        <ele>938.6</ele>
        <time>2011-07-24T15:20:33Z</time>
      </trkpt>
      <trkpt lat="45.07785" lon="5.62929">
        <ele>937.8</ele>
        <time>2011-07-24T15:20:36Z</time>
      </trkpt>
      <trkpt lat="45.07787" lon="5.62948">
        <ele>936.8</ele>
        <time>2011-07-24T15:20:41Z</time>
      </trkpt>
      <trkpt lat="45.0779" lon="5.62961">
        <ele>936</ele>
        <time>2011-07-24T15:20:45Z</time>
      </trkpt>
      <trkpt lat="45.07797" lon="5.62972">
        <ele>935.2</ele>
        <time>2011-07-24T15:20:49Z</time>
      </trkpt>
      <trkpt lat="45.07799" lon="5.62975">
        <ele>934.8</ele>
        <time>2011-07-24T15:20:50Z</time>
      </trkpt>
      <trkpt lat="45.07803" lon="5.6299">
        <ele>934</ele>
        <time>2011-07-24T15:20:55Z</time>
      </trkpt>
      <trkpt lat="45.07806" lon="5.62997">
        <ele>933.6</ele>
        <time>2011-07-24T15:20:57Z</time>
      </trkpt>
      <trkpt lat="45.0781" lon="5.63002">
        <ele>933</ele>
        <time>2011-07-24T15:20:59Z</time>
      </trkpt>
      <trkpt lat="45.07815" lon="5.63017">
        <ele>932</ele>
        <time>2011-07-24T15:21:04Z</time>
      </trkpt>
      <trkpt lat="45.07817" lon="5.63021">
        <ele>931.6</ele>
        <time>2011-07-24T15:21:05Z</time>
      </trkpt>
      <trkpt lat="45.07822" lon="5.63034">
        <ele>930.8</ele>
        <time>2011-07-24T15:21:08Z</time>
      </trkpt>
      <trkpt lat="45.07828" lon="5.63044">
        <ele>929.8</ele>
        <time>2011-07-24T15:21:12Z</time>
      </trkpt>
      <trkpt lat="45.07835" lon="5.63057">
        <ele>928.2</ele>
        <time>2011-07-24T15:21:17Z</time>
      </trkpt>
      <trkpt lat="45.0784" lon="5.63065">
        <ele>927.2</ele>
        <time>2011-07-24T15:21:20Z</time>
      </trkpt>
      <trkpt lat="45.07843" lon="5.63076">
        <ele>926.2</ele>
        <time>2011-07-24T15:21:23Z</time>
      </trkpt>
      <trkpt lat="45.07846" lon="5.63092">
        <ele>924.4</ele>
        <time>2011-07-24T15:21:28Z</time>
      </trkpt>
      <trkpt lat="45.07846" lon="5.63094">
        <ele>924</ele>
        <time>2011-07-24T15:21:29Z</time>
      </trkpt>
      <trkpt lat="45.07848" lon="5.63103">
        <ele>922.8</ele>
        <time>2011-07-24T15:21:32Z</time>
      </trkpt>
      <trkpt lat="45.07849" lon="5.63109">
        <ele>922</ele>
        <time>2011-07-24T15:21:34Z</time>
      </trkpt>
      <trkpt lat="45.0785" lon="5.63117">
        <ele>920.8</ele>
        <time>2011-07-24T15:21:37Z</time>
      </trkpt>
      <trkpt lat="45.07851" lon="5.63127">
        <ele>919.2</ele>
        <time>2011-07-24T15:21:41Z</time>
      </trkpt>
      <trkpt lat="45.07851" lon="5.63129">
        <ele>918.8</ele>
        <time>2011-07-24T15:21:42Z</time>
      </trkpt>
      <trkpt lat="45.07854" lon="5.63138">
        <ele>916.8</ele>
        <time>2011-07-24T15:21:47Z</time>
      </trkpt>
      <trkpt lat="45.07855" lon="5.63144">
        <ele>915.8</ele>
        <time>2011-07-24T15:21:50Z</time>
      </trkpt>
      <trkpt lat="45.07855" lon="5.63146">
        <ele>915.4</ele>
        <time>2011-07-24T15:21:51Z</time>
      </trkpt>
      <trkpt lat="45.07856" lon="5.63148">
        <ele>915</ele>
        <time>2011-07-24T15:21:52Z</time>
      </trkpt>
      <trkpt lat="45.07855" lon="5.6315">
        <ele>914.6</ele>
        <time>2011-07-24T15:21:53Z</time>
      </trkpt>
      <trkpt lat="45.07855" lon="5.63155">
        <ele>913.8</ele>
        <time>2011-07-24T15:21:55Z</time>
      </trkpt>
      <trkpt lat="45.07854" lon="5.63169">
        <ele>912</ele>
        <time>2011-07-24T15:22:00Z</time>
      </trkpt>
      <trkpt lat="45.07856" lon="5.63179">
        <ele>910.4</ele>
        <time>2011-07-24T15:22:04Z</time>
      </trkpt>
      <trkpt lat="45.07855" lon="5.63181">
        <ele>910</ele>
        <time>2011-07-24T15:22:05Z</time>
      </trkpt>
      <trkpt lat="45.07855" lon="5.63187">
        <ele>908.8</ele>
        <time>2011-07-24T15:22:08Z</time>
      </trkpt>
      <trkpt lat="45.07854" lon="5.63189">
        <ele>908.4</ele>
        <time>2011-07-24T15:22:09Z</time>
      </trkpt>
      <trkpt lat="45.07853" lon="5.63195">
        <ele>907.6</ele>
        <time>2011-07-24T15:22:11Z</time>
      </trkpt>
      <trkpt lat="45.07852" lon="5.632">
        <ele>906.8</ele>
        <time>2011-07-24T15:22:13Z</time>
      </trkpt>
      <trkpt lat="45.07851" lon="5.63203">
        <ele>906.4</ele>
        <time>2011-07-24T15:22:14Z</time>
      </trkpt>
      <trkpt lat="45.07852" lon="5.63205">
        <ele>906</ele>
        <time>2011-07-24T15:22:15Z</time>
      </trkpt>
      <trkpt lat="45.07851" lon="5.63211">
        <ele>905</ele>
        <time>2011-07-24T15:22:18Z</time>
      </trkpt>
      <trkpt lat="45.0785" lon="5.63222">
        <ele>903</ele>
        <time>2011-07-24T15:22:23Z</time>
      </trkpt>
      <trkpt lat="45.07849" lon="5.63229">
        <ele>901.8</ele>
        <time>2011-07-24T15:22:26Z</time>
      </trkpt>
      <trkpt lat="45.07849" lon="5.63237">
        <ele>901.2</ele>
        <time>2011-07-24T15:22:28Z</time>
      </trkpt>
      <trkpt lat="45.07851" lon="5.63247">
        <ele>899.8</ele>
        <time>2011-07-24T15:22:31Z</time>
      </trkpt>
      <trkpt lat="45.07853" lon="5.63254">
        <ele>899.2</ele>
        <time>2011-07-24T15:22:33Z</time>
      </trkpt>
      <trkpt lat="45.07855" lon="5.63269">
        <ele>897.2</ele>
        <time>2011-07-24T15:22:38Z</time>
      </trkpt>
      <trkpt lat="45.07857" lon="5.63274">
        <ele>896.4</ele>
        <time>2011-07-24T15:22:40Z</time>
      </trkpt>
      <trkpt lat="45.07862" lon="5.63281">
        <ele>895.2</ele>
        <time>2011-07-24T15:22:43Z</time>
      </trkpt>
      <trkpt lat="45.07863" lon="5.63283">
        <ele>894.8</ele>
        <time>2011-07-24T15:22:44Z</time>
      </trkpt>
      <trkpt lat="45.07864" lon="5.63287">
        <ele>894</ele>
        <time>2011-07-24T15:22:46Z</time>
      </trkpt>
      <trkpt lat="45.07864" lon="5.63292">
        <ele>893.2</ele>
        <time>2011-07-24T15:22:48Z</time>
      </trkpt>
      <trkpt lat="45.07864" lon="5.63295">
        <ele>892.2</ele>
        <time>2011-07-24T15:22:51Z</time>
      </trkpt>
      <trkpt lat="45.07864" lon="5.63297">
        <ele>891.8</ele>
        <time>2011-07-24T15:22:52Z</time>
      </trkpt>
      <trkpt lat="45.07866" lon="5.63303">
        <ele>890.2</ele>
        <time>2011-07-24T15:22:56Z</time>
      </trkpt>
      <trkpt lat="45.07865" lon="5.63304">
        <ele>889.6</ele>
        <time>2011-07-24T15:22:58Z</time>
      </trkpt>
      <trkpt lat="45.0787" lon="5.63307">
        <ele>879.4</ele>
        <time>2011-07-24T15:23:28Z</time>
      </trkpt>
      <trkpt lat="45.0787" lon="5.63309">
        <ele>879</ele>
        <time>2011-07-24T15:23:29Z</time>
      </trkpt>
      <trkpt lat="45.07871" lon="5.63319">
        <ele>877.8</ele>
        <time>2011-07-24T15:23:34Z</time>
      </trkpt>
      <trkpt lat="45.07872" lon="5.63323">
        <ele>877.2</ele>
        <time>2011-07-24T15:23:36Z</time>
      </trkpt>
      <trkpt lat="45.07874" lon="5.63331">
        <ele>875.8</ele>
        <time>2011-07-24T15:23:42Z</time>
      </trkpt>
      <trkpt lat="45.07874" lon="5.63333">
        <ele>875.6</ele>
        <time>2011-07-24T15:23:43Z</time>
      </trkpt>
      <trkpt lat="45.07876" lon="5.63339">
        <ele>874.8</ele>
        <time>2011-07-24T15:23:46Z</time>
      </trkpt>
      <trkpt lat="45.07877" lon="5.63343">
        <ele>874.4</ele>
        <time>2011-07-24T15:23:48Z</time>
      </trkpt>
      <trkpt lat="45.07878" lon="5.63345">
        <ele>874.2</ele>
        <time>2011-07-24T15:23:49Z</time>
      </trkpt>
      <trkpt lat="45.07878" lon="5.6335">
        <ele>873.6</ele>
        <time>2011-07-24T15:23:51Z</time>
      </trkpt>
      <trkpt lat="45.07878" lon="5.63355">
        <ele>872.8</ele>
        <time>2011-07-24T15:23:54Z</time>
      </trkpt>
      <trkpt lat="45.07878" lon="5.6336">
        <ele>872.4</ele>
        <time>2011-07-24T15:23:56Z</time>
      </trkpt>
      <trkpt lat="45.07878" lon="5.63369">
        <ele>871.4</ele>
        <time>2011-07-24T15:23:59Z</time>
      </trkpt>
      <trkpt lat="45.0788" lon="5.63375">
        <ele>870.8</ele>
        <time>2011-07-24T15:24:01Z</time>
      </trkpt>
      <trkpt lat="45.07882" lon="5.63384">
        <ele>869.6</ele>
        <time>2011-07-24T15:24:05Z</time>
      </trkpt>
      <trkpt lat="45.07881" lon="5.63393">
        <ele>868.2</ele>
        <time>2011-07-24T15:24:09Z</time>
      </trkpt>
      <trkpt lat="45.07881" lon="5.63397">
        <ele>867.8</ele>
        <time>2011-07-24T15:24:10Z</time>
      </trkpt>
      <trkpt lat="45.07881" lon="5.63397">
        <ele>867.6</ele>
        <time>2011-07-24T15:24:11Z</time>
      </trkpt>
      <trkpt lat="45.07882" lon="5.63399">
        <ele>867.2</ele>
        <time>2011-07-24T15:24:12Z</time>
      </trkpt>
      <trkpt lat="45.07883" lon="5.63403">
        <ele>866.4</ele>
        <time>2011-07-24T15:24:14Z</time>
      </trkpt>
      <trkpt lat="45.07889" lon="5.63417">
        <ele>864.4</ele>
        <time>2011-07-24T15:24:20Z</time>
      </trkpt>
      <trkpt lat="45.07892" lon="5.63419">
        <ele>863.8</ele>
        <time>2011-07-24T15:24:21Z</time>
      </trkpt>
      <trkpt lat="45.07894" lon="5.63428">
        <ele>862.8</ele>
        <time>2011-07-24T15:24:24Z</time>
      </trkpt>
      <trkpt lat="45.07894" lon="5.63438">
        <ele>861.8</ele>
        <time>2011-07-24T15:24:27Z</time>
      </trkpt>
      <trkpt lat="45.07895" lon="5.63444">
        <ele>861</ele>
        <time>2011-07-24T15:24:29Z</time>
      </trkpt>
      <trkpt lat="45.07895" lon="5.63446">
        <ele>860.6</ele>
        <time>2011-07-24T15:24:30Z</time>
      </trkpt>
      <trkpt lat="45.07893" lon="5.63463">
        <ele>858.2</ele>
        <time>2011-07-24T15:24:36Z</time>
      </trkpt>
      <trkpt lat="45.07891" lon="5.63468">
        <ele>857</ele>
        <time>2011-07-24T15:24:39Z</time>
      </trkpt>
      <trkpt lat="45.07889" lon="5.63466">
        <ele>856.6</ele>
        <time>2011-07-24T15:24:40Z</time>
      </trkpt>
      <trkpt lat="45.07885" lon="5.63463">
        <ele>856</ele>
        <time>2011-07-24T15:24:42Z</time>
      </trkpt>
      <trkpt lat="45.07883" lon="5.63461">
        <ele>855.6</ele>
        <time>2011-07-24T15:24:43Z</time>
      </trkpt>
      <trkpt lat="45.07879" lon="5.63454">
        <ele>854.6</ele>
        <time>2011-07-24T15:24:46Z</time>
      </trkpt>
      <trkpt lat="45.07876" lon="5.63448">
        <ele>854</ele>
        <time>2011-07-24T15:24:48Z</time>
      </trkpt>
      <trkpt lat="45.07873" lon="5.63441">
        <ele>853.4</ele>
        <time>2011-07-24T15:24:50Z</time>
      </trkpt>
      <trkpt lat="45.07867" lon="5.63436">
        <ele>852.4</ele>
        <time>2011-07-24T15:24:53Z</time>
      </trkpt>
      <trkpt lat="45.07863" lon="5.63434">
        <ele>851.8</ele>
        <time>2011-07-24T15:24:55Z</time>
      </trkpt>
      <trkpt lat="45.0786" lon="5.63434">
        <ele>851.4</ele>
        <time>2011-07-24T15:24:56Z</time>
      </trkpt>
      <trkpt lat="45.07854" lon="5.63433">
        <ele>850.8</ele>
        <time>2011-07-24T15:24:58Z</time>
      </trkpt>
      <trkpt lat="45.07842" lon="5.63427">
        <ele>849</ele>
        <time>2011-07-24T15:25:03Z</time>
      </trkpt>
      <trkpt lat="45.0784" lon="5.63426">
        <ele>848.6</ele>
        <time>2011-07-24T15:25:04Z</time>
      </trkpt>
      <trkpt lat="45.07835" lon="5.63427">
        <ele>848</ele>
        <time>2011-07-24T15:25:06Z</time>
      </trkpt>
      <trkpt lat="45.0783" lon="5.63427">
        <ele>847</ele>
        <time>2011-07-24T15:25:09Z</time>
      </trkpt>
      <trkpt lat="45.07827" lon="5.63418">
        <ele>845.4</ele>
        <time>2011-07-24T15:25:13Z</time>
      </trkpt>
      <trkpt lat="45.07827" lon="5.63414">
        <ele>845.2</ele>
        <time>2011-07-24T15:25:14Z</time>
      </trkpt>
      <trkpt lat="45.07827" lon="5.63414">
        <ele>845.2</ele>
        <time>2011-07-24T15:25:14Z</time>
      </trkpt>
      <trkpt lat="45.07828" lon="5.63412">
        <ele>844.8</ele>
        <time>2011-07-24T15:25:15Z</time>
      </trkpt>
      <trkpt lat="45.07831" lon="5.63406">
        <ele>844</ele>
        <time>2011-07-24T15:25:17Z</time>
      </trkpt>
      <trkpt lat="45.07832" lon="5.63401">
        <ele>843.2</ele>
        <time>2011-07-24T15:25:19Z</time>
      </trkpt>
      <trkpt lat="45.0783" lon="5.63396">
        <ele>842.4</ele>
        <time>2011-07-24T15:25:21Z</time>
      </trkpt>
      <trkpt lat="45.07827" lon="5.63389">
        <ele>840.8</ele>
        <time>2011-07-24T15:25:25Z</time>
      </trkpt>
      <trkpt lat="45.07826" lon="5.63384">
        <ele>840</ele>
        <time>2011-07-24T15:25:27Z</time>
      </trkpt>
      <trkpt lat="45.07825" lon="5.63382">
        <ele>839.6</ele>
        <time>2011-07-24T15:25:28Z</time>
      </trkpt>
      <trkpt lat="45.07824" lon="5.63382">
        <ele>839.2</ele>
        <time>2011-07-24T15:25:29Z</time>
      </trkpt>
      <trkpt lat="45.07823" lon="5.63384">
        <ele>838.2</ele>
        <time>2011-07-24T15:25:31Z</time>
      </trkpt>
      <trkpt lat="45.07823" lon="5.63387">
        <ele>837.8</ele>
        <time>2011-07-24T15:25:32Z</time>
      </trkpt>
      <trkpt lat="45.07818" lon="5.63396">
        <ele>836.2</ele>
        <time>2011-07-24T15:25:36Z</time>
      </trkpt>
      <trkpt lat="45.07816" lon="5.63397">
        <ele>835.8</ele>
        <time>2011-07-24T15:25:37Z</time>
      </trkpt>
      <trkpt lat="45.0781" lon="5.63399">
        <ele>835</ele>
        <time>2011-07-24T15:25:39Z</time>
      </trkpt>
      <trkpt lat="45.07805" lon="5.634">
        <ele>834.2</ele>
        <time>2011-07-24T15:25:41Z</time>
      </trkpt>
      <trkpt lat="45.07804" lon="5.63402">
        <ele>833.8</ele>
        <time>2011-07-24T15:25:42Z</time>
      </trkpt>
      <trkpt lat="45.07801" lon="5.63406">
        <ele>832.8</ele>
        <time>2011-07-24T15:25:44Z</time>
      </trkpt>
      <trkpt lat="45.078" lon="5.63408">
        <ele>832.4</ele>
        <time>2011-07-24T15:25:45Z</time>
      </trkpt>
      <trkpt lat="45.07796" lon="5.63421">
        <ele>830.6</ele>
        <time>2011-07-24T15:25:49Z</time>
      </trkpt>
      <trkpt lat="45.07795" lon="5.63425">
        <ele>830.2</ele>
        <time>2011-07-24T15:25:50Z</time>
      </trkpt>
      <trkpt lat="45.07793" lon="5.63427">
        <ele>829.8</ele>
        <time>2011-07-24T15:25:51Z</time>
      </trkpt>
      <trkpt lat="45.0779" lon="5.63435">
        <ele>828.4</ele>
        <time>2011-07-24T15:25:54Z</time>
      </trkpt>
      <trkpt lat="45.07787" lon="5.63438">
        <ele>827.6</ele>
        <time>2011-07-24T15:25:56Z</time>
      </trkpt>
      <trkpt lat="45.07788" lon="5.63443">
        <ele>826.6</ele>
        <time>2011-07-24T15:25:58Z</time>
      </trkpt>
      <trkpt lat="45.07787" lon="5.6345">
        <ele>825.4</ele>
        <time>2011-07-24T15:26:01Z</time>
      </trkpt>
      <trkpt lat="45.07786" lon="5.63455">
        <ele>824.4</ele>
        <time>2011-07-24T15:26:03Z</time>
      </trkpt>
      <trkpt lat="45.07788" lon="5.63464">
        <ele>822.4</ele>
        <time>2011-07-24T15:26:07Z</time>
      </trkpt>
      <trkpt lat="45.07788" lon="5.63476">
        <ele>820</ele>
        <time>2011-07-24T15:26:12Z</time>
      </trkpt>
      <trkpt lat="45.07787" lon="5.63478">
        <ele>819</ele>
        <time>2011-07-24T15:26:14Z</time>
      </trkpt>
      <trkpt lat="45.07786" lon="5.63478">
        <ele>818.6</ele>
        <time>2011-07-24T15:26:15Z</time>
      </trkpt>
      <trkpt lat="45.07784" lon="5.63476">
        <ele>818</ele>
        <time>2011-07-24T15:26:16Z</time>
      </trkpt>
      <trkpt lat="45.07775" lon="5.63475">
        <ele>815.8</ele>
        <time>2011-07-24T15:26:20Z</time>
      </trkpt>
      <trkpt lat="45.0777" lon="5.63475">
        <ele>814.8</ele>
        <time>2011-07-24T15:26:22Z</time>
      </trkpt>
      <trkpt lat="45.07767" lon="5.63477">
        <ele>813.8</ele>
        <time>2011-07-24T15:26:24Z</time>
      </trkpt>
      <trkpt lat="45.07767" lon="5.63478">
        <ele>810.6</ele>
        <time>2011-07-24T15:26:31Z</time>
      </trkpt>
      <trkpt lat="45.07766" lon="5.6348">
        <ele>805.4</ele>
        <time>2011-07-24T15:26:43Z</time>
      </trkpt>
      <trkpt lat="45.07768" lon="5.63476">
        <ele>796</ele>
        <time>2011-07-24T15:27:09Z</time>
      </trkpt>
      <trkpt lat="45.0777" lon="5.63474">
        <ele>794</ele>
        <time>2011-07-24T15:27:16Z</time>
      </trkpt>
      <trkpt lat="45.07769" lon="5.63471">
        <ele>792.8</ele>
        <time>2011-07-24T15:27:20Z</time>
      </trkpt>
      <trkpt lat="45.07767" lon="5.63467">
        <ele>792</ele>
        <time>2011-07-24T15:27:23Z</time>
      </trkpt>
      <trkpt lat="45.07766" lon="5.63466">
        <ele>791.6</ele>
        <time>2011-07-24T15:27:24Z</time>
      </trkpt>
      <trkpt lat="45.07765" lon="5.63465">
        <ele>791.4</ele>
        <time>2011-07-24T15:27:25Z</time>
      </trkpt>
      <trkpt lat="45.07762" lon="5.63459">
        <ele>789.6</ele>
        <time>2011-07-24T15:27:30Z</time>
      </trkpt>
      <trkpt lat="45.07762" lon="5.63458">
        <ele>789.2</ele>
        <time>2011-07-24T15:27:31Z</time>
      </trkpt>
      <trkpt lat="45.07759" lon="5.63457">
        <ele>788.4</ele>
        <time>2011-07-24T15:27:34Z</time>
      </trkpt>
      <trkpt lat="45.07758" lon="5.63458">
        <ele>788.2</ele>
        <time>2011-07-24T15:27:35Z</time>
      </trkpt>
      <trkpt lat="45.07758" lon="5.63461">
        <ele>787.2</ele>
        <time>2011-07-24T15:27:38Z</time>
      </trkpt>
      <trkpt lat="45.07758" lon="5.63463">
        <ele>786.6</ele>
        <time>2011-07-24T15:27:40Z</time>
      </trkpt>
      <trkpt lat="45.07757" lon="5.63466">
        <ele>786.2</ele>
        <time>2011-07-24T15:27:42Z</time>
      </trkpt>
      <trkpt lat="45.07757" lon="5.63468">
        <ele>785.8</ele>
        <time>2011-07-24T15:27:43Z</time>
      </trkpt>
      <trkpt lat="45.07757" lon="5.63471">
        <ele>785.4</ele>
        <time>2011-07-24T15:27:45Z</time>
      </trkpt>
      <trkpt lat="45.07756" lon="5.63473">
        <ele>785</ele>
        <time>2011-07-24T15:27:46Z</time>
      </trkpt>
      <trkpt lat="45.07754" lon="5.63478">
        <ele>784.4</ele>
        <time>2011-07-24T15:27:49Z</time>
      </trkpt>
      <trkpt lat="45.0775" lon="5.63489">
        <ele>783</ele>
        <time>2011-07-24T15:27:55Z</time>
      </trkpt>
      <trkpt lat="45.07749" lon="5.6349">
        <ele>782.8</ele>
        <time>2011-07-24T15:27:56Z</time>
      </trkpt>
      <trkpt lat="45.07746" lon="5.63502">
        <ele>781</ele>
        <time>2011-07-24T15:28:03Z</time>
      </trkpt>
      <trkpt lat="45.07743" lon="5.63514">
        <ele>779.8</ele>
        <time>2011-07-24T15:28:08Z</time>
      </trkpt>
      <trkpt lat="45.07743" lon="5.63516">
        <ele>779.4</ele>
        <time>2011-07-24T15:28:09Z</time>
      </trkpt>
      <trkpt lat="45.07744" lon="5.63522">
        <ele>778.6</ele>
        <time>2011-07-24T15:28:12Z</time>
      </trkpt>
      <trkpt lat="45.07742" lon="5.63525">
        <ele>778</ele>
        <time>2011-07-24T15:28:14Z</time>
      </trkpt>
      <trkpt lat="45.07737" lon="5.63526">
        <ele>776.6</ele>
        <time>2011-07-24T15:28:18Z</time>
      </trkpt>
      <trkpt lat="45.07737" lon="5.63526">
        <ele>776.4</ele>
        <time>2011-07-24T15:28:19Z</time>
      </trkpt>
      <trkpt lat="45.07734" lon="5.63526">
        <ele>775.6</ele>
        <time>2011-07-24T15:28:21Z</time>
      </trkpt>
      <trkpt lat="45.07733" lon="5.63526">
        <ele>775.4</ele>
        <time>2011-07-24T15:28:22Z</time>
      </trkpt>
      <trkpt lat="45.07728" lon="5.63525">
        <ele>774.2</ele>
        <time>2011-07-24T15:28:25Z</time>
      </trkpt>
      <trkpt lat="45.07727" lon="5.63525">
        <ele>774</ele>
        <time>2011-07-24T15:28:26Z</time>
      </trkpt>
      <trkpt lat="45.07726" lon="5.63518">
        <ele>772.4</ele>
        <time>2011-07-24T15:28:30Z</time>
      </trkpt>
      <trkpt lat="45.07727" lon="5.63515">
        <ele>771.6</ele>
        <time>2011-07-24T15:28:32Z</time>
      </trkpt>
      <trkpt lat="45.07727" lon="5.63512">
        <ele>771</ele>
        <time>2011-07-24T15:28:34Z</time>
      </trkpt>
      <trkpt lat="45.07726" lon="5.63508">
        <ele>770.2</ele>
        <time>2011-07-24T15:28:36Z</time>
      </trkpt>
      <trkpt lat="45.07726" lon="5.63507">
        <ele>769.8</ele>
        <time>2011-07-24T15:28:37Z</time>
      </trkpt>
      <trkpt lat="45.07726" lon="5.63505">
        <ele>769.4</ele>
        <time>2011-07-24T15:28:38Z</time>
      </trkpt>
      <trkpt lat="45.07728" lon="5.63498">
        <ele>767.8</ele>
        <time>2011-07-24T15:28:42Z</time>
      </trkpt>
      <trkpt lat="45.07726" lon="5.63488">
        <ele>765.8</ele>
        <time>2011-07-24T15:28:47Z</time>
      </trkpt>
      <trkpt lat="45.07726" lon="5.63487">
        <ele>765.4</ele>
        <time>2011-07-24T15:28:48Z</time>
      </trkpt>
      <trkpt lat="45.07725" lon="5.63487">
        <ele>764.6</ele>
        <time>2011-07-24T15:28:50Z</time>
      </trkpt>
      <trkpt lat="45.07725" lon="5.63488">
        <ele>764.2</ele>
        <time>2011-07-24T15:28:51Z</time>
      </trkpt>
      <trkpt lat="45.07724" lon="5.6349">
        <ele>763.8</ele>
        <time>2011-07-24T15:28:52Z</time>
      </trkpt>
      <trkpt lat="45.07722" lon="5.63493">
        <ele>763</ele>
        <time>2011-07-24T15:28:54Z</time>
      </trkpt>
      <trkpt lat="45.07719" lon="5.63495">
        <ele>762.4</ele>
        <time>2011-07-24T15:28:56Z</time>
      </trkpt>
      <trkpt lat="45.07714" lon="5.63492">
        <ele>760.6</ele>
        <time>2011-07-24T15:29:00Z</time>
      </trkpt>
      <trkpt lat="45.07713" lon="5.63488">
        <ele>759.8</ele>
        <time>2011-07-24T15:29:02Z</time>
      </trkpt>
      <trkpt lat="45.07712" lon="5.63484">
        <ele>759</ele>
        <time>2011-07-24T15:29:04Z</time>
      </trkpt>
      <trkpt lat="45.0771" lon="5.63481">
        <ele>758</ele>
        <time>2011-07-24T15:29:06Z</time>
      </trkpt>
      <trkpt lat="45.07706" lon="5.63479">
        <ele>756.6</ele>
        <time>2011-07-24T15:29:09Z</time>
      </trkpt>
      <trkpt lat="45.07704" lon="5.63474">
        <ele>755.6</ele>
        <time>2011-07-24T15:29:11Z</time>
      </trkpt>
      <trkpt lat="45.07701" lon="5.63469">
        <ele>754.6</ele>
        <time>2011-07-24T15:29:13Z</time>
      </trkpt>
      <trkpt lat="45.077" lon="5.63467">
        <ele>754.2</ele>
        <time>2011-07-24T15:29:14Z</time>
      </trkpt>
      <trkpt lat="45.07697" lon="5.63463">
        <ele>753.2</ele>
        <time>2011-07-24T15:29:16Z</time>
      </trkpt>
      <trkpt lat="45.07696" lon="5.63461">
        <ele>752.6</ele>
        <time>2011-07-24T15:29:17Z</time>
      </trkpt>
      <trkpt lat="45.0769" lon="5.63451">
        <ele>750.2</ele>
        <time>2011-07-24T15:29:22Z</time>
      </trkpt>
      <trkpt lat="45.07689" lon="5.63445">
        <ele>748.2</ele>
        <time>2011-07-24T15:29:26Z</time>
      </trkpt>
      <trkpt lat="45.07688" lon="5.63443">
        <ele>747</ele>
        <time>2011-07-24T15:29:28Z</time>
      </trkpt>
      <trkpt lat="45.07688" lon="5.63441">
        <ele>746.6</ele>
        <time>2011-07-24T15:29:29Z</time>
      </trkpt>
      <trkpt lat="45.07685" lon="5.63436">
        <ele>744.6</ele>
        <time>2011-07-24T15:29:33Z</time>
      </trkpt>
      <trkpt lat="45.07681" lon="5.63435">
        <ele>742.8</ele>
        <time>2011-07-24T15:29:37Z</time>
      </trkpt>
      <trkpt lat="45.07677" lon="5.63436">
        <ele>741.6</ele>
        <time>2011-07-24T15:29:40Z</time>
      </trkpt>
      <trkpt lat="45.07673" lon="5.63436">
        <ele>740.8</ele>
        <time>2011-07-24T15:29:42Z</time>
      </trkpt>
      <trkpt lat="45.07671" lon="5.63432">
        <ele>739.4</ele>
        <time>2011-07-24T15:29:45Z</time>
      </trkpt>
      <trkpt lat="45.07668" lon="5.63424">
        <ele>736.6</ele>
        <time>2011-07-24T15:29:51Z</time>
      </trkpt>
      <trkpt lat="45.07663" lon="5.63422">
        <ele>733.6</ele>
        <time>2011-07-24T15:29:57Z</time>
      </trkpt>
      <trkpt lat="45.07663" lon="5.63424">
        <ele>733.2</ele>
        <time>2011-07-24T15:29:58Z</time>
      </trkpt>
      <trkpt lat="45.0766" lon="5.6343">
        <ele>730.8</ele>
        <time>2011-07-24T15:30:03Z</time>
      </trkpt>
      <trkpt lat="45.07657" lon="5.63424">
        <ele>728.8</ele>
        <time>2011-07-24T15:30:07Z</time>
      </trkpt>
      <trkpt lat="45.07651" lon="5.6342">
        <ele>726.4</ele>
        <time>2011-07-24T15:30:12Z</time>
      </trkpt>
      <trkpt lat="45.0765" lon="5.63418">
        <ele>726</ele>
        <time>2011-07-24T15:30:13Z</time>
      </trkpt>
      <trkpt lat="45.07644" lon="5.63409">
        <ele>723.6</ele>
        <time>2011-07-24T15:30:18Z</time>
      </trkpt>
      <trkpt lat="45.07644" lon="5.63408">
        <ele>723</ele>
        <time>2011-07-24T15:30:19Z</time>
      </trkpt>
      <trkpt lat="45.07642" lon="5.63403">
        <ele>721.6</ele>
        <time>2011-07-24T15:30:22Z</time>
      </trkpt>
      <trkpt lat="45.07642" lon="5.63401">
        <ele>721.2</ele>
        <time>2011-07-24T15:30:23Z</time>
      </trkpt>
      <trkpt lat="45.07641" lon="5.63399">
        <ele>720.6</ele>
        <time>2011-07-24T15:30:24Z</time>
      </trkpt>
      <trkpt lat="45.07638" lon="5.63393">
        <ele>718.8</ele>
        <time>2011-07-24T15:30:28Z</time>
      </trkpt>
      <trkpt lat="45.07638" lon="5.63392">
        <ele>718.2</ele>
        <time>2011-07-24T15:30:29Z</time>
      </trkpt>
      <trkpt lat="45.07636" lon="5.63391">
        <ele>716.8</ele>
        <time>2011-07-24T15:30:32Z</time>
      </trkpt>
      <trkpt lat="45.07635" lon="5.6339">
        <ele>716.2</ele>
        <time>2011-07-24T15:30:33Z</time>
      </trkpt>
      <trkpt lat="45.07633" lon="5.6339">
        <ele>715.4</ele>
        <time>2011-07-24T15:30:35Z</time>
      </trkpt>
      <trkpt lat="45.07632" lon="5.63391">
        <ele>714.8</ele>
        <time>2011-07-24T15:30:36Z</time>
      </trkpt>
      <trkpt lat="45.07631" lon="5.63394">
        <ele>713.4</ele>
        <time>2011-07-24T15:30:39Z</time>
      </trkpt>
      <trkpt lat="45.0763" lon="5.63396">
        <ele>712.8</ele>
        <time>2011-07-24T15:30:40Z</time>
      </trkpt>
      <trkpt lat="45.07629" lon="5.63397">
        <ele>712.4</ele>
        <time>2011-07-24T15:30:41Z</time>
      </trkpt>
      <trkpt lat="45.07626" lon="5.63399">
        <ele>711.6</ele>
        <time>2011-07-24T15:30:43Z</time>
      </trkpt>
      <trkpt lat="45.07625" lon="5.634">
        <ele>711.2</ele>
        <time>2011-07-24T15:30:44Z</time>
      </trkpt>
      <trkpt lat="45.07617" lon="5.634">
        <ele>708.8</ele>
        <time>2011-07-24T15:30:49Z</time>
      </trkpt>
      <trkpt lat="45.07612" lon="5.63397">
        <ele>707.8</ele>
        <time>2011-07-24T15:30:51Z</time>
      </trkpt>
      <trkpt lat="45.07605" lon="5.63399">
        <ele>706.8</ele>
        <time>2011-07-24T15:30:54Z</time>
      </trkpt>
      <trkpt lat="45.076" lon="5.6341">
        <ele>704.8</ele>
        <time>2011-07-24T15:30:59Z</time>
      </trkpt>
      <trkpt lat="45.07599" lon="5.63412">
        <ele>704.4</ele>
        <time>2011-07-24T15:31:00Z</time>
      </trkpt>
      <trkpt lat="45.07594" lon="5.63422">
        <ele>703</ele>
        <time>2011-07-24T15:31:04Z</time>
      </trkpt>
      <trkpt lat="45.07591" lon="5.63436">
        <ele>700.8</ele>
        <time>2011-07-24T15:31:10Z</time>
      </trkpt>
      <trkpt lat="45.0759" lon="5.63446">
        <ele>698.8</ele>
        <time>2011-07-24T15:31:15Z</time>
      </trkpt>
      <trkpt lat="45.07587" lon="5.63461">
        <ele>696</ele>
        <time>2011-07-24T15:31:22Z</time>
      </trkpt>
      <trkpt lat="45.07583" lon="5.63471">
        <ele>694</ele>
        <time>2011-07-24T15:31:27Z</time>
      </trkpt>
      <trkpt lat="45.07579" lon="5.63482">
        <ele>692</ele>
        <time>2011-07-24T15:31:32Z</time>
      </trkpt>
      <trkpt lat="45.07579" lon="5.63484">
        <ele>691.8</ele>
        <time>2011-07-24T15:31:33Z</time>
      </trkpt>
      <trkpt lat="45.07577" lon="5.63494">
        <ele>690.2</ele>
        <time>2011-07-24T15:31:37Z</time>
      </trkpt>
      <trkpt lat="45.07573" lon="5.63509">
        <ele>687.8</ele>
        <time>2011-07-24T15:31:43Z</time>
      </trkpt>
      <trkpt lat="45.07568" lon="5.63521">
        <ele>685.4</ele>
        <time>2011-07-24T15:31:49Z</time>
      </trkpt>
      <trkpt lat="45.07567" lon="5.63532">
        <ele>683.4</ele>
        <time>2011-07-24T15:31:54Z</time>
      </trkpt>
      <trkpt lat="45.07567" lon="5.6355">
        <ele>679.8</ele>
        <time>2011-07-24T15:32:02Z</time>
      </trkpt>
      <trkpt lat="45.07566" lon="5.63557">
        <ele>678.4</ele>
        <time>2011-07-24T15:32:05Z</time>
      </trkpt>
      <trkpt lat="45.07564" lon="5.63567">
        <ele>676.6</ele>
        <time>2011-07-24T15:32:09Z</time>
      </trkpt>
      <trkpt lat="45.07566" lon="5.63576">
        <ele>674.8</ele>
        <time>2011-07-24T15:32:13Z</time>
      </trkpt>
      <trkpt lat="45.07567" lon="5.6358">
        <ele>674</ele>
        <time>2011-07-24T15:32:15Z</time>
      </trkpt>
      <trkpt lat="45.07569" lon="5.63582">
        <ele>673.4</ele>
        <time>2011-07-24T15:32:16Z</time>
      </trkpt>
      <trkpt lat="45.07572" lon="5.63594">
        <ele>671.6</ele>
        <time>2011-07-24T15:32:20Z</time>
      </trkpt>
      <trkpt lat="45.07573" lon="5.63606">
        <ele>669.4</ele>
        <time>2011-07-24T15:32:25Z</time>
      </trkpt>
      <trkpt lat="45.07574" lon="5.63609">
        <ele>669</ele>
        <time>2011-07-24T15:32:26Z</time>
      </trkpt>
      <trkpt lat="45.07573" lon="5.63616">
        <ele>667.6</ele>
        <time>2011-07-24T15:32:29Z</time>
      </trkpt>
      <trkpt lat="45.07571" lon="5.6362">
        <ele>666.6</ele>
        <time>2011-07-24T15:32:31Z</time>
      </trkpt>
      <trkpt lat="45.07569" lon="5.63627">
        <ele>665.2</ele>
        <time>2011-07-24T15:32:34Z</time>
      </trkpt>
      <trkpt lat="45.07567" lon="5.63634">
        <ele>663.8</ele>
        <time>2011-07-24T15:32:37Z</time>
      </trkpt>
      <trkpt lat="45.07568" lon="5.63641">
        <ele>662.4</ele>
        <time>2011-07-24T15:32:40Z</time>
      </trkpt>
      <trkpt lat="45.07568" lon="5.63643">
        <ele>662</ele>
        <time>2011-07-24T15:32:41Z</time>
      </trkpt>
      <trkpt lat="45.07568" lon="5.63646">
        <ele>661.4</ele>
        <time>2011-07-24T15:32:42Z</time>
      </trkpt>
      <trkpt lat="45.07566" lon="5.63651">
        <ele>660</ele>
        <time>2011-07-24T15:32:45Z</time>
      </trkpt>
      <trkpt lat="45.07564" lon="5.63658">
        <ele>657.8</ele>
        <time>2011-07-24T15:32:49Z</time>
      </trkpt>
      <trkpt lat="45.07558" lon="5.63667">
        <ele>655.2</ele>
        <time>2011-07-24T15:32:54Z</time>
      </trkpt>
      <trkpt lat="45.07557" lon="5.6367">
        <ele>654.2</ele>
        <time>2011-07-24T15:32:56Z</time>
      </trkpt>
      <trkpt lat="45.07556" lon="5.63674">
        <ele>653.2</ele>
        <time>2011-07-24T15:32:58Z</time>
      </trkpt>
      <trkpt lat="45.07557" lon="5.6368">
        <ele>651.6</ele>
        <time>2011-07-24T15:33:01Z</time>
      </trkpt>
      <trkpt lat="45.07558" lon="5.63682">
        <ele>651</ele>
        <time>2011-07-24T15:33:02Z</time>
      </trkpt>
      <trkpt lat="45.07557" lon="5.63684">
        <ele>650.4</ele>
        <time>2011-07-24T15:33:03Z</time>
      </trkpt>
      <trkpt lat="45.07556" lon="5.637">
        <ele>647.8</ele>
        <time>2011-07-24T15:33:08Z</time>
      </trkpt>
      <trkpt lat="45.07556" lon="5.63705">
        <ele>647.2</ele>
        <time>2011-07-24T15:33:09Z</time>
      </trkpt>
      <trkpt lat="45.07557" lon="5.63708">
        <ele>646.6</ele>
        <time>2011-07-24T15:33:10Z</time>
      </trkpt>
      <trkpt lat="45.07562" lon="5.63713">
        <ele>645.6</ele>
        <time>2011-07-24T15:33:12Z</time>
      </trkpt>
      <trkpt lat="45.07571" lon="5.63722">
        <ele>643.2</ele>
        <time>2011-07-24T15:33:17Z</time>
      </trkpt>
      <trkpt lat="45.07572" lon="5.63723">
        <ele>642.6</ele>
        <time>2011-07-24T15:33:18Z</time>
      </trkpt>
      <trkpt lat="45.07581" lon="5.6373">
        <ele>639.6</ele>
        <time>2011-07-24T15:33:24Z</time>
      </trkpt>
      <trkpt lat="45.07587" lon="5.63733">
        <ele>638.2</ele>
        <time>2011-07-24T15:33:27Z</time>
      </trkpt>
      <trkpt lat="45.07593" lon="5.63737">
        <ele>636.8</ele>
        <time>2011-07-24T15:33:30Z</time>
      </trkpt>
      <trkpt lat="45.07604" lon="5.63741">
        <ele>635.4</ele>
        <time>2011-07-24T15:33:34Z</time>
      </trkpt>
      <trkpt lat="45.07608" lon="5.63744">
        <ele>634.6</ele>
        <time>2011-07-24T15:33:36Z</time>
      </trkpt>
      <trkpt lat="45.07619" lon="5.63752">
        <ele>632.2</ele>
        <time>2011-07-24T15:33:42Z</time>
      </trkpt>
      <trkpt lat="45.07621" lon="5.63752">
        <ele>631.8</ele>
        <time>2011-07-24T15:33:43Z</time>
      </trkpt>
      <trkpt lat="45.07626" lon="5.63754">
        <ele>630.8</ele>
        <time>2011-07-24T15:33:46Z</time>
      </trkpt>
      <trkpt lat="45.0763" lon="5.63754">
        <ele>630.2</ele>
        <time>2011-07-24T15:33:48Z</time>
      </trkpt>
      <trkpt lat="45.07639" lon="5.63751">
        <ele>627.6</ele>
        <time>2011-07-24T15:33:55Z</time>
      </trkpt>
      <trkpt lat="45.0764" lon="5.63751">
        <ele>627.4</ele>
        <time>2011-07-24T15:33:56Z</time>
      </trkpt>
      <trkpt lat="45.07649" lon="5.63752">
        <ele>624.6</ele>
        <time>2011-07-24T15:34:04Z</time>
      </trkpt>
      <trkpt lat="45.07657" lon="5.63753">
        <ele>623</ele>
        <time>2011-07-24T15:34:09Z</time>
      </trkpt>
      <trkpt lat="45.07659" lon="5.63753">
        <ele>622.4</ele>
        <time>2011-07-24T15:34:11Z</time>
      </trkpt>
      <trkpt lat="45.07665" lon="5.63753">
        <ele>620.8</ele>
        <time>2011-07-24T15:34:16Z</time>
      </trkpt>
      <trkpt lat="45.07673" lon="5.63756">
        <ele>619</ele>
        <time>2011-07-24T15:34:23Z</time>
      </trkpt>
      <trkpt lat="45.07676" lon="5.63757">
        <ele>618.6</ele>
        <time>2011-07-24T15:34:25Z</time>
      </trkpt>
      <trkpt lat="45.07681" lon="5.63758">
        <ele>617.4</ele>
        <time>2011-07-24T15:34:29Z</time>
      </trkpt>
      <trkpt lat="45.07684" lon="5.63759">
        <ele>617</ele>
        <time>2011-07-24T15:34:31Z</time>
      </trkpt>
      <trkpt lat="45.0769" lon="5.63761">
        <ele>616</ele>
        <time>2011-07-24T15:34:35Z</time>
      </trkpt>
      <trkpt lat="45.07694" lon="5.63764">
        <ele>615.6</ele>
        <time>2011-07-24T15:34:37Z</time>
      </trkpt>
      <trkpt lat="45.07701" lon="5.63767">
        <ele>614.6</ele>
        <time>2011-07-24T15:34:41Z</time>
      </trkpt>
      <trkpt lat="45.07707" lon="5.63771">
        <ele>613.2</ele>
        <time>2011-07-24T15:34:47Z</time>
      </trkpt>
      <trkpt lat="45.07708" lon="5.63772">
        <ele>613</ele>
        <time>2011-07-24T15:34:48Z</time>
      </trkpt>
      <trkpt lat="45.07709" lon="5.63776">
        <ele>612.4</ele>
        <time>2011-07-24T15:34:51Z</time>
      </trkpt>
      <trkpt lat="45.07711" lon="5.63783">
        <ele>611.6</ele>
        <time>2011-07-24T15:34:55Z</time>
      </trkpt>
      <trkpt lat="45.07713" lon="5.63789">
        <ele>611</ele>
        <time>2011-07-24T15:34:58Z</time>
      </trkpt>
      <trkpt lat="45.07716" lon="5.63791">
        <ele>610.6</ele>
        <time>2011-07-24T15:35:01Z</time>
      </trkpt>
      <trkpt lat="45.07717" lon="5.63792">
        <ele>610.4</ele>
        <time>2011-07-24T15:35:02Z</time>
      </trkpt>
      <trkpt lat="45.0772" lon="5.63795">
        <ele>610</ele>
        <time>2011-07-24T15:35:04Z</time>
      </trkpt>
      <trkpt lat="45.07724" lon="5.63798">
        <ele>609.8</ele>
        <time>2011-07-24T15:35:06Z</time>
      </trkpt>
      <trkpt lat="45.0773" lon="5.63804">
        <ele>609.4</ele>
        <time>2011-07-24T15:35:09Z</time>
      </trkpt>
      <trkpt lat="45.07733" lon="5.63808">
        <ele>609.2</ele>
        <time>2011-07-24T15:35:11Z</time>
      </trkpt>
      <trkpt lat="45.07735" lon="5.6381">
        <ele>609</ele>
        <time>2011-07-24T15:35:12Z</time>
      </trkpt>
      <trkpt lat="45.07737" lon="5.63811">
        <ele>609</ele>
        <time>2011-07-24T15:35:13Z</time>
      </trkpt>
      <trkpt lat="45.07741" lon="5.63822">
        <ele>608.8</ele>
        <time>2011-07-24T15:35:16Z</time>
      </trkpt>
      <trkpt lat="45.07743" lon="5.63826">
        <ele>608.8</ele>
        <time>2011-07-24T15:35:17Z</time>
      </trkpt>
      <trkpt lat="45.07745" lon="5.6383">
        <ele>608.6</ele>
        <time>2011-07-24T15:35:18Z</time>
      </trkpt>
      <trkpt lat="45.07745" lon="5.6383">
        <ele>608.6</ele>
        <time>2011-07-24T15:35:18Z</time>
      </trkpt>
      <trkpt lat="45.07748" lon="5.63843">
        <ele>608.4</ele>
        <time>2011-07-24T15:35:22Z</time>
      </trkpt>
      <trkpt lat="45.07747" lon="5.63847">
        <ele>608.4</ele>
        <time>2011-07-24T15:35:23Z</time>
      </trkpt>
      <trkpt lat="45.07745" lon="5.63853">
        <ele>608.2</ele>
        <time>2011-07-24T15:35:25Z</time>
      </trkpt>
      <trkpt lat="45.07743" lon="5.63857">
        <ele>608.2</ele>
        <time>2011-07-24T15:35:26Z</time>
      </trkpt>
      <trkpt lat="45.07743" lon="5.63863">
        <ele>607.8</ele>
        <time>2011-07-24T15:35:28Z</time>
      </trkpt>
      <trkpt lat="45.07746" lon="5.63867">
        <ele>607.6</ele>
        <time>2011-07-24T15:35:30Z</time>
      </trkpt>
      <trkpt lat="45.07754" lon="5.63871">
        <ele>607.2</ele>
        <time>2011-07-24T15:35:33Z</time>
      </trkpt>
      <trkpt lat="45.07759" lon="5.63872">
        <ele>607</ele>
        <time>2011-07-24T15:35:35Z</time>
      </trkpt>
      <trkpt lat="45.07764" lon="5.63875">
        <ele>606.6</ele>
        <time>2011-07-24T15:35:37Z</time>
      </trkpt>
      <trkpt lat="45.07768" lon="5.63878">
        <ele>606.4</ele>
        <time>2011-07-24T15:35:39Z</time>
      </trkpt>
      <trkpt lat="45.0777" lon="5.63881">
        <ele>606</ele>
        <time>2011-07-24T15:35:41Z</time>
      </trkpt>
      <trkpt lat="45.07771" lon="5.63882">
        <ele>605.8</ele>
        <time>2011-07-24T15:35:42Z</time>
      </trkpt>
      <trkpt lat="45.07771" lon="5.63883">
        <ele>605.8</ele>
        <time>2011-07-24T15:35:43Z</time>
      </trkpt>
      <trkpt lat="45.07772" lon="5.63886">
        <ele>605.4</ele>
        <time>2011-07-24T15:35:45Z</time>
      </trkpt>
      <trkpt lat="45.07777" lon="5.63891">
        <ele>605</ele>
        <time>2011-07-24T15:35:48Z</time>
      </trkpt>
      <trkpt lat="45.07779" lon="5.63893">
        <ele>605</ele>
        <time>2011-07-24T15:35:49Z</time>
      </trkpt>
      <trkpt lat="45.0778" lon="5.63895">
        <ele>604.8</ele>
        <time>2011-07-24T15:35:50Z</time>
      </trkpt>
      <trkpt lat="45.07784" lon="5.639">
        <ele>604.4</ele>
        <time>2011-07-24T15:35:52Z</time>
      </trkpt>
      <trkpt lat="45.07786" lon="5.63902">
        <ele>604.4</ele>
        <time>2011-07-24T15:35:53Z</time>
      </trkpt>
      <trkpt lat="45.07787" lon="5.63905">
        <ele>604.2</ele>
        <time>2011-07-24T15:35:54Z</time>
      </trkpt>
      <trkpt lat="45.0779" lon="5.63918">
        <ele>603.6</ele>
        <time>2011-07-24T15:35:58Z</time>
      </trkpt>
      <trkpt lat="45.07791" lon="5.63922">
        <ele>603.2</ele>
        <time>2011-07-24T15:36:00Z</time>
      </trkpt>
      <trkpt lat="45.07791" lon="5.63928">
        <ele>602.8</ele>
        <time>2011-07-24T15:36:02Z</time>
      </trkpt>
      <trkpt lat="45.07793" lon="5.63947">
        <ele>602</ele>
        <time>2011-07-24T15:36:07Z</time>
      </trkpt>
      <trkpt lat="45.07793" lon="5.63951">
        <ele>601.8</ele>
        <time>2011-07-24T15:36:08Z</time>
      </trkpt>
      <trkpt lat="45.07791" lon="5.63962">
        <ele>601.2</ele>
        <time>2011-07-24T15:36:11Z</time>
      </trkpt>
      <trkpt lat="45.07788" lon="5.63977">
        <ele>600.6</ele>
        <time>2011-07-24T15:36:14Z</time>
      </trkpt>
      <trkpt lat="45.07787" lon="5.6398">
        <ele>600.4</ele>
        <time>2011-07-24T15:36:15Z</time>
      </trkpt>
      <trkpt lat="45.07782" lon="5.63997">
        <ele>598.8</ele>
        <time>2011-07-24T15:36:21Z</time>
      </trkpt>
      <trkpt lat="45.07783" lon="5.64004">
        <ele>598.2</ele>
        <time>2011-07-24T15:36:24Z</time>
      </trkpt>
      <trkpt lat="45.07785" lon="5.64009">
        <ele>597.6</ele>
        <time>2011-07-24T15:36:26Z</time>
      </trkpt>
      <trkpt lat="45.07787" lon="5.64023">
        <ele>596.4</ele>
        <time>2011-07-24T15:36:30Z</time>
      </trkpt>
      <trkpt lat="45.07788" lon="5.64028">
        <ele>596.2</ele>
        <time>2011-07-24T15:36:31Z</time>
      </trkpt>
      <trkpt lat="45.07792" lon="5.64041">
        <ele>594.8</ele>
        <time>2011-07-24T15:36:35Z</time>
      </trkpt>
      <trkpt lat="45.07794" lon="5.64052">
        <ele>593.8</ele>
        <time>2011-07-24T15:36:38Z</time>
      </trkpt>
      <trkpt lat="45.07794" lon="5.64055">
        <ele>593.4</ele>
        <time>2011-07-24T15:36:39Z</time>
      </trkpt>
      <trkpt lat="45.07799" lon="5.64064">
        <ele>592.2</ele>
        <time>2011-07-24T15:36:42Z</time>
      </trkpt>
      <trkpt lat="45.07803" lon="5.6407">
        <ele>591.4</ele>
        <time>2011-07-24T15:36:44Z</time>
      </trkpt>
      <trkpt lat="45.07804" lon="5.64077">
        <ele>590.6</ele>
        <time>2011-07-24T15:36:46Z</time>
      </trkpt>
      <trkpt lat="45.07804" lon="5.64088">
        <ele>589.4</ele>
        <time>2011-07-24T15:36:49Z</time>
      </trkpt>
      <trkpt lat="45.07799" lon="5.64104">
        <ele>586.8</ele>
        <time>2011-07-24T15:36:55Z</time>
      </trkpt>
      <trkpt lat="45.07798" lon="5.64106">
        <ele>586.4</ele>
        <time>2011-07-24T15:36:56Z</time>
      </trkpt>
      <trkpt lat="45.07794" lon="5.64117">
        <ele>584.8</ele>
        <time>2011-07-24T15:37:00Z</time>
      </trkpt>
      <trkpt lat="45.0779" lon="5.64127">
        <ele>583.2</ele>
        <time>2011-07-24T15:37:04Z</time>
      </trkpt>
      <trkpt lat="45.07787" lon="5.64132">
        <ele>582.2</ele>
        <time>2011-07-24T15:37:06Z</time>
      </trkpt>
      <trkpt lat="45.07786" lon="5.64135">
        <ele>581.8</ele>
        <time>2011-07-24T15:37:07Z</time>
      </trkpt>
      <trkpt lat="45.07779" lon="5.64147">
        <ele>579.8</ele>
        <time>2011-07-24T15:37:12Z</time>
      </trkpt>
      <trkpt lat="45.07777" lon="5.6415">
        <ele>579.4</ele>
        <time>2011-07-24T15:37:13Z</time>
      </trkpt>
      <trkpt lat="45.07769" lon="5.64171">
        <ele>576.6</ele>
        <time>2011-07-24T15:37:19Z</time>
      </trkpt>
      <trkpt lat="45.07765" lon="5.64187">
        <ele>574.6</ele>
        <time>2011-07-24T15:37:24Z</time>
      </trkpt>
      <trkpt lat="45.07766" lon="5.64196">
        <ele>573.4</ele>
        <time>2011-07-24T15:37:27Z</time>
      </trkpt>
      <trkpt lat="45.07764" lon="5.64207">
        <ele>571.6</ele>
        <time>2011-07-24T15:37:31Z</time>
      </trkpt>
      <trkpt lat="45.07764" lon="5.64222">
        <ele>569</ele>
        <time>2011-07-24T15:37:37Z</time>
      </trkpt>
      <trkpt lat="45.07765" lon="5.64225">
        <ele>568.6</ele>
        <time>2011-07-24T15:37:38Z</time>
      </trkpt>
      <trkpt lat="45.07767" lon="5.64232">
        <ele>567.2</ele>
        <time>2011-07-24T15:37:41Z</time>
      </trkpt>
      <trkpt lat="45.0777" lon="5.64235">
        <ele>566.4</ele>
        <time>2011-07-24T15:37:43Z</time>
      </trkpt>
      <trkpt lat="45.07775" lon="5.64242">
        <ele>564.6</ele>
        <time>2011-07-24T15:37:47Z</time>
      </trkpt>
      <trkpt lat="45.07778" lon="5.64242">
        <ele>564</ele>
        <time>2011-07-24T15:37:48Z</time>
      </trkpt>
      <trkpt lat="45.07786" lon="5.64243">
        <ele>562.2</ele>
        <time>2011-07-24T15:37:52Z</time>
      </trkpt>
      <trkpt lat="45.07793" lon="5.64247">
        <ele>561</ele>
        <time>2011-07-24T15:37:55Z</time>
      </trkpt>
      <trkpt lat="45.07801" lon="5.64254">
        <ele>559.2</ele>
        <time>2011-07-24T15:37:59Z</time>
      </trkpt>
      <trkpt lat="45.07806" lon="5.64264">
        <ele>558.2</ele>
        <time>2011-07-24T15:38:02Z</time>
      </trkpt>
      <trkpt lat="45.07807" lon="5.64268">
        <ele>557.8</ele>
        <time>2011-07-24T15:38:03Z</time>
      </trkpt>
      <trkpt lat="45.07812" lon="5.64291">
        <ele>555.6</ele>
        <time>2011-07-24T15:38:09Z</time>
      </trkpt>
      <trkpt lat="45.07817" lon="5.64308">
        <ele>553.8</ele>
        <time>2011-07-24T15:38:14Z</time>
      </trkpt>
      <trkpt lat="45.07816" lon="5.64314">
        <ele>553</ele>
        <time>2011-07-24T15:38:16Z</time>
      </trkpt>
      <trkpt lat="45.07813" lon="5.64324">
        <ele>551.4</ele>
        <time>2011-07-24T15:38:20Z</time>
      </trkpt>
      <trkpt lat="45.07814" lon="5.6434">
        <ele>548.8</ele>
        <time>2011-07-24T15:38:26Z</time>
      </trkpt>
      <trkpt lat="45.07813" lon="5.64351">
        <ele>546.8</ele>
        <time>2011-07-24T15:38:30Z</time>
      </trkpt>
      <trkpt lat="45.07807" lon="5.64357">
        <ele>545</ele>
        <time>2011-07-24T15:38:34Z</time>
      </trkpt>
      <trkpt lat="45.07805" lon="5.64358">
        <ele>544.4</ele>
        <time>2011-07-24T15:38:35Z</time>
      </trkpt>
      <trkpt lat="45.078" lon="5.64357">
        <ele>543.4</ele>
        <time>2011-07-24T15:38:37Z</time>
      </trkpt>
      <trkpt lat="45.07796" lon="5.64354">
        <ele>542.4</ele>
        <time>2011-07-24T15:38:39Z</time>
      </trkpt>
      <trkpt lat="45.07789" lon="5.64348">
        <ele>540.4</ele>
        <time>2011-07-24T15:38:43Z</time>
      </trkpt>
      <trkpt lat="45.07787" lon="5.64348">
        <ele>539.8</ele>
        <time>2011-07-24T15:38:44Z</time>
      </trkpt>
      <trkpt lat="45.07782" lon="5.64347">
        <ele>538.2</ele>
        <time>2011-07-24T15:38:47Z</time>
      </trkpt>
      <trkpt lat="45.07775" lon="5.64348">
        <ele>536.6</ele>
        <time>2011-07-24T15:38:50Z</time>
      </trkpt>
      <trkpt lat="45.07768" lon="5.64348">
        <ele>534.6</ele>
        <time>2011-07-24T15:38:54Z</time>
      </trkpt>
      <trkpt lat="45.07766" lon="5.64348">
        <ele>534</ele>
        <time>2011-07-24T15:38:55Z</time>
      </trkpt>
      <trkpt lat="45.07754" lon="5.64346">
        <ele>530.6</ele>
        <time>2011-07-24T15:39:01Z</time>
      </trkpt>
      <trkpt lat="45.07749" lon="5.64342">
        <ele>528.8</ele>
        <time>2011-07-24T15:39:04Z</time>
      </trkpt>
      <trkpt lat="45.07747" lon="5.6434">
        <ele>527.8</ele>
        <time>2011-07-24T15:39:06Z</time>
      </trkpt>
      <trkpt lat="45.07746" lon="5.64341">
        <ele>527.2</ele>
        <time>2011-07-24T15:39:07Z</time>
      </trkpt>
      <trkpt lat="45.07744" lon="5.64344">
        <ele>525.2</ele>
        <time>2011-07-24T15:39:11Z</time>
      </trkpt>
      <trkpt lat="45.07743" lon="5.64346">
        <ele>524.6</ele>
        <time>2011-07-24T15:39:12Z</time>
      </trkpt>
      <trkpt lat="45.07739" lon="5.64353">
        <ele>522</ele>
        <time>2011-07-24T15:39:17Z</time>
      </trkpt>
      <trkpt lat="45.07738" lon="5.64355">
        <ele>521.6</ele>
        <time>2011-07-24T15:39:18Z</time>
      </trkpt>
      <trkpt lat="45.07737" lon="5.64356">
        <ele>521</ele>
        <time>2011-07-24T15:39:19Z</time>
      </trkpt>
      <trkpt lat="45.0773" lon="5.64362">
        <ele>518.6</ele>
        <time>2011-07-24T15:39:24Z</time>
      </trkpt>
      <trkpt lat="45.07725" lon="5.64368">
        <ele>516.2</ele>
        <time>2011-07-24T15:39:29Z</time>
      </trkpt>
      <trkpt lat="45.07723" lon="5.64373">
        <ele>514.6</ele>
        <time>2011-07-24T15:39:32Z</time>
      </trkpt>
      <trkpt lat="45.07722" lon="5.64379">
        <ele>513.2</ele>
        <time>2011-07-24T15:39:35Z</time>
      </trkpt>
      <trkpt lat="45.07718" lon="5.64392">
        <ele>509.8</ele>
        <time>2011-07-24T15:39:42Z</time>
      </trkpt>
      <trkpt lat="45.07717" lon="5.64399">
        <ele>508.6</ele>
        <time>2011-07-24T15:39:45Z</time>
      </trkpt>
      <trkpt lat="45.07716" lon="5.64404">
        <ele>507.2</ele>
        <time>2011-07-24T15:39:48Z</time>
      </trkpt>
      <trkpt lat="45.07718" lon="5.64414">
        <ele>504.6</ele>
        <time>2011-07-24T15:39:54Z</time>
      </trkpt>
      <trkpt lat="45.07719" lon="5.64416">
        <ele>504</ele>
        <time>2011-07-24T15:39:56Z</time>
      </trkpt>
      <trkpt lat="45.07722" lon="5.64421">
        <ele>502</ele>
        <time>2011-07-24T15:40:01Z</time>
      </trkpt>
      <trkpt lat="45.07723" lon="5.64422">
        <ele>501.4</ele>
        <time>2011-07-24T15:40:03Z</time>
      </trkpt>
      <trkpt lat="45.07727" lon="5.64429">
        <ele>499.2</ele>
        <time>2011-07-24T15:40:09Z</time>
      </trkpt>
      <trkpt lat="45.07734" lon="5.64439">
        <ele>497.2</ele>
        <time>2011-07-24T15:40:16Z</time>
      </trkpt>
      <trkpt lat="45.07735" lon="5.64442">
        <ele>496.6</ele>
        <time>2011-07-24T15:40:18Z</time>
      </trkpt>
      <trkpt lat="45.07738" lon="5.64447">
        <ele>495.8</ele>
        <time>2011-07-24T15:40:21Z</time>
      </trkpt>
      <trkpt lat="45.0774" lon="5.64452">
        <ele>495.2</ele>
        <time>2011-07-24T15:40:24Z</time>
      </trkpt>
      <trkpt lat="45.07741" lon="5.64453">
        <ele>495</ele>
        <time>2011-07-24T15:40:25Z</time>
      </trkpt>
      <trkpt lat="45.07742" lon="5.64454">
        <ele>494.8</ele>
        <time>2011-07-24T15:40:26Z</time>
      </trkpt>
      <trkpt lat="45.07744" lon="5.64461">
        <ele>494</ele>
        <time>2011-07-24T15:40:29Z</time>
      </trkpt>
      <trkpt lat="45.07745" lon="5.64463">
        <ele>493.8</ele>
        <time>2011-07-24T15:40:30Z</time>
      </trkpt>
      <trkpt lat="45.07746" lon="5.64465">
        <ele>493.6</ele>
        <time>2011-07-24T15:40:31Z</time>
      </trkpt>
      <trkpt lat="45.07748" lon="5.64468">
        <ele>493</ele>
        <time>2011-07-24T15:40:33Z</time>
      </trkpt>
      <trkpt lat="45.07749" lon="5.64468">
        <ele>492.8</ele>
        <time>2011-07-24T15:40:34Z</time>
      </trkpt>
      <trkpt lat="45.07751" lon="5.64469">
        <ele>492.4</ele>
        <time>2011-07-24T15:40:36Z</time>
      </trkpt>
      <trkpt lat="45.07759" lon="5.64471">
        <ele>490.8</ele>
        <time>2011-07-24T15:40:43Z</time>
      </trkpt>
      <trkpt lat="45.0776" lon="5.64472">
        <ele>490.6</ele>
        <time>2011-07-24T15:40:44Z</time>
      </trkpt>
      <trkpt lat="45.07766" lon="5.64476">
        <ele>489.6</ele>
        <time>2011-07-24T15:40:48Z</time>
      </trkpt>
      <trkpt lat="45.07768" lon="5.64478">
        <ele>489</ele>
        <time>2011-07-24T15:40:50Z</time>
      </trkpt>
      <trkpt lat="45.0777" lon="5.64483">
        <ele>488.4</ele>
        <time>2011-07-24T15:40:53Z</time>
      </trkpt>
      <trkpt lat="45.07771" lon="5.64485">
        <ele>488</ele>
        <time>2011-07-24T15:40:54Z</time>
      </trkpt>
      <trkpt lat="45.0777" lon="5.64486">
        <ele>487.8</ele>
        <time>2011-07-24T15:40:55Z</time>
      </trkpt>
      <trkpt lat="45.07767" lon="5.64494">
        <ele>487</ele>
        <time>2011-07-24T15:40:58Z</time>
      </trkpt>
      <trkpt lat="45.07767" lon="5.64502">
        <ele>486.4</ele>
        <time>2011-07-24T15:41:00Z</time>
      </trkpt>
      <trkpt lat="45.07766" lon="5.6451">
        <ele>486</ele>
        <time>2011-07-24T15:41:02Z</time>
      </trkpt>
      <trkpt lat="45.07767" lon="5.64512">
        <ele>485.6</ele>
        <time>2011-07-24T15:41:03Z</time>
      </trkpt>
      <trkpt lat="45.07768" lon="5.64512">
        <ele>485.4</ele>
        <time>2011-07-24T15:41:04Z</time>
      </trkpt>
      <trkpt lat="45.07769" lon="5.64512">
        <ele>485</ele>
        <time>2011-07-24T15:41:05Z</time>
      </trkpt>
      <trkpt lat="45.07775" lon="5.64512">
        <ele>484</ele>
        <time>2011-07-24T15:41:10Z</time>
      </trkpt>
      <trkpt lat="45.07776" lon="5.64513">
        <ele>483.8</ele>
        <time>2011-07-24T15:41:11Z</time>
      </trkpt>
      <trkpt lat="45.0778" lon="5.64512">
        <ele>483.2</ele>
        <time>2011-07-24T15:41:14Z</time>
      </trkpt>
      <trkpt lat="45.07782" lon="5.64512">
        <ele>483</ele>
        <time>2011-07-24T15:41:16Z</time>
      </trkpt>
      <trkpt lat="45.07786" lon="5.64507">
        <ele>482.2</ele>
        <time>2011-07-24T15:41:21Z</time>
      </trkpt>
      <trkpt lat="45.07788" lon="5.64505">
        <ele>482</ele>
        <time>2011-07-24T15:41:24Z</time>
      </trkpt>
      <trkpt lat="45.07789" lon="5.64505">
        <ele>481.8</ele>
        <time>2011-07-24T15:41:25Z</time>
      </trkpt>
      <trkpt lat="45.07795" lon="5.64507">
        <ele>481.6</ele>
        <time>2011-07-24T15:41:31Z</time>
      </trkpt>
      <trkpt lat="45.07796" lon="5.64508">
        <ele>481.6</ele>
        <time>2011-07-24T15:41:32Z</time>
      </trkpt>
      <trkpt lat="45.07797" lon="5.64509">
        <ele>481.6</ele>
        <time>2011-07-24T15:41:33Z</time>
      </trkpt>
      <trkpt lat="45.078" lon="5.64514">
        <ele>481.4</ele>
        <time>2011-07-24T15:41:36Z</time>
      </trkpt>
      <trkpt lat="45.07804" lon="5.64516">
        <ele>481.2</ele>
        <time>2011-07-24T15:41:38Z</time>
      </trkpt>
      <trkpt lat="45.07809" lon="5.64518">
        <ele>481</ele>
        <time>2011-07-24T15:41:42Z</time>
      </trkpt>
      <trkpt lat="45.0781" lon="5.64525">
        <ele>481</ele>
        <time>2011-07-24T15:41:46Z</time>
      </trkpt>
      <trkpt lat="45.0781" lon="5.64528">
        <ele>480.8</ele>
        <time>2011-07-24T15:41:47Z</time>
      </trkpt>
      <trkpt lat="45.07812" lon="5.64532">
        <ele>480.8</ele>
        <time>2011-07-24T15:41:49Z</time>
      </trkpt>
      <trkpt lat="45.07812" lon="5.64537">
        <ele>481</ele>
        <time>2011-07-24T15:41:52Z</time>
      </trkpt>
      <trkpt lat="45.07811" lon="5.64542">
        <ele>481.8</ele>
        <time>2011-07-24T15:41:55Z</time>
      </trkpt>
      <trkpt lat="45.0781" lon="5.6455">
        <ele>482.4</ele>
        <time>2011-07-24T15:41:59Z</time>
      </trkpt>
      <trkpt lat="45.07809" lon="5.64557">
        <ele>482.6</ele>
        <time>2011-07-24T15:42:01Z</time>
      </trkpt>
      <trkpt lat="45.07812" lon="5.64563">
        <ele>482.4</ele>
        <time>2011-07-24T15:42:03Z</time>
      </trkpt>
      <trkpt lat="45.07816" lon="5.64565">
        <ele>482</ele>
        <time>2011-07-24T15:42:04Z</time>
      </trkpt>
      <trkpt lat="45.0782" lon="5.64568">
        <ele>482</ele>
        <time>2011-07-24T15:42:07Z</time>
      </trkpt>
      <trkpt lat="45.07821" lon="5.64569">
        <ele>482</ele>
        <time>2011-07-24T15:42:08Z</time>
      </trkpt>
      <trkpt lat="45.07819" lon="5.64575">
        <ele>481.6</ele>
        <time>2011-07-24T15:42:13Z</time>
      </trkpt>
      <trkpt lat="45.07819" lon="5.64582">
        <ele>481</ele>
        <time>2011-07-24T15:42:18Z</time>
      </trkpt>
      <trkpt lat="45.07814" lon="5.6459">
        <ele>480.4</ele>
        <time>2011-07-24T15:42:22Z</time>
      </trkpt>
      <trkpt lat="45.07813" lon="5.64592">
        <ele>480.2</ele>
        <time>2011-07-24T15:42:23Z</time>
      </trkpt>
      <trkpt lat="45.07806" lon="5.64598">
        <ele>479.8</ele>
        <time>2011-07-24T15:42:27Z</time>
      </trkpt>
      <trkpt lat="45.07799" lon="5.64606">
        <ele>479.2</ele>
        <time>2011-07-24T15:42:31Z</time>
      </trkpt>
      <trkpt lat="45.07798" lon="5.64608">
        <ele>479</ele>
        <time>2011-07-24T15:42:32Z</time>
      </trkpt>
      <trkpt lat="45.07792" lon="5.64616">
        <ele>477.8</ele>
        <time>2011-07-24T15:42:38Z</time>
      </trkpt>
      <trkpt lat="45.0779" lon="5.64619">
        <ele>476.6</ele>
        <time>2011-07-24T15:42:45Z</time>
      </trkpt>
      <trkpt lat="45.07789" lon="5.6462">
        <ele>476</ele>
        <time>2011-07-24T15:42:48Z</time>
      </trkpt>
      <trkpt lat="45.07788" lon="5.64622">
        <ele>475.4</ele>
        <time>2011-07-24T15:42:51Z</time>
      </trkpt>
      <trkpt lat="45.07789" lon="5.64625">
        <ele>475</ele>
        <time>2011-07-24T15:42:53Z</time>
      </trkpt>
      <trkpt lat="45.07794" lon="5.64636">
        <ele>474.4</ele>
        <time>2011-07-24T15:42:56Z</time>
      </trkpt>
      <trkpt lat="45.078" lon="5.64645">
        <ele>474</ele>
        <time>2011-07-24T15:42:59Z</time>
      </trkpt>
      <trkpt lat="45.07805" lon="5.64655">
        <ele>473.4</ele>
        <time>2011-07-24T15:43:02Z</time>
      </trkpt>
      <trkpt lat="45.07808" lon="5.64667">
        <ele>473</ele>
        <time>2011-07-24T15:43:05Z</time>
      </trkpt>
      <trkpt lat="45.07812" lon="5.64678">
        <ele>472.4</ele>
        <time>2011-07-24T15:43:08Z</time>
      </trkpt>
      <trkpt lat="45.07819" lon="5.6469">
        <ele>471.8</ele>
        <time>2011-07-24T15:43:12Z</time>
      </trkpt>
      <trkpt lat="45.0782" lon="5.64693">
        <ele>471.8</ele>
        <time>2011-07-24T15:43:13Z</time>
      </trkpt>
      <trkpt lat="45.07824" lon="5.64708">
        <ele>471</ele>
        <time>2011-07-24T15:43:18Z</time>
      </trkpt>
      <trkpt lat="45.07826" lon="5.64716">
        <ele>470.6</ele>
        <time>2011-07-24T15:43:20Z</time>
      </trkpt>
      <trkpt lat="45.07827" lon="5.64719">
        <ele>470.4</ele>
        <time>2011-07-24T15:43:22Z</time>
      </trkpt>
      <trkpt lat="45.07827" lon="5.64719">
        <ele>470.4</ele>
        <time>2011-07-24T15:43:22Z</time>
      </trkpt>
      <trkpt lat="45.0783" lon="5.64726">
        <ele>470</ele>
        <time>2011-07-24T15:43:23Z</time>
      </trkpt>
      <trkpt lat="45.07837" lon="5.64742">
        <ele>469.2</ele>
        <time>2011-07-24T15:43:27Z</time>
      </trkpt>
      <trkpt lat="45.07838" lon="5.64745">
        <ele>469</ele>
        <time>2011-07-24T15:43:28Z</time>
      </trkpt>
      <trkpt lat="45.0784" lon="5.64763">
        <ele>468</ele>
        <time>2011-07-24T15:43:32Z</time>
      </trkpt>
      <trkpt lat="45.07841" lon="5.64767">
        <ele>467.8</ele>
        <time>2011-07-24T15:43:33Z</time>
      </trkpt>
      <trkpt lat="45.07841" lon="5.64779">
        <ele>467.2</ele>
        <time>2011-07-24T15:43:36Z</time>
      </trkpt>
      <trkpt lat="45.07846" lon="5.64792">
        <ele>466.4</ele>
        <time>2011-07-24T15:43:40Z</time>
      </trkpt>
      <trkpt lat="45.0785" lon="5.64798">
        <ele>466</ele>
        <time>2011-07-24T15:43:42Z</time>
      </trkpt>
      <trkpt lat="45.07858" lon="5.64813">
        <ele>465.2</ele>
        <time>2011-07-24T15:43:46Z</time>
      </trkpt>
      <trkpt lat="45.07865" lon="5.64827">
        <ele>464</ele>
        <time>2011-07-24T15:43:51Z</time>
      </trkpt>
      <trkpt lat="45.07869" lon="5.64835">
        <ele>463.2</ele>
        <time>2011-07-24T15:43:54Z</time>
      </trkpt>
      <trkpt lat="45.07875" lon="5.64844">
        <ele>462.6</ele>
        <time>2011-07-24T15:43:57Z</time>
      </trkpt>
      <trkpt lat="45.07881" lon="5.64855">
        <ele>461.6</ele>
        <time>2011-07-24T15:44:01Z</time>
      </trkpt>
      <trkpt lat="45.07882" lon="5.64858">
        <ele>461.2</ele>
        <time>2011-07-24T15:44:02Z</time>
      </trkpt>
      <trkpt lat="45.07885" lon="5.64869">
        <ele>460.4</ele>
        <time>2011-07-24T15:44:06Z</time>
      </trkpt>
      <trkpt lat="45.07886" lon="5.64874">
        <ele>459.8</ele>
        <time>2011-07-24T15:44:08Z</time>
      </trkpt>
      <trkpt lat="45.07886" lon="5.64881">
        <ele>459.4</ele>
        <time>2011-07-24T15:44:10Z</time>
      </trkpt>
      <trkpt lat="45.07888" lon="5.64888">
        <ele>458.8</ele>
        <time>2011-07-24T15:44:12Z</time>
      </trkpt>
      <trkpt lat="45.0789" lon="5.649">
        <ele>458.2</ele>
        <time>2011-07-24T15:44:15Z</time>
      </trkpt>
      <trkpt lat="45.07891" lon="5.64907">
        <ele>457.8</ele>
        <time>2011-07-24T15:44:17Z</time>
      </trkpt>
      <trkpt lat="45.0789" lon="5.64929">
        <ele>456.4</ele>
        <time>2011-07-24T15:44:23Z</time>
      </trkpt>
      <trkpt lat="45.0789" lon="5.64931">
        <ele>456.2</ele>
        <time>2011-07-24T15:44:24Z</time>
      </trkpt>
      <trkpt lat="45.07889" lon="5.64932">
        <ele>455.4</ele>
        <time>2011-07-24T15:44:27Z</time>
      </trkpt>
      <trkpt lat="45.07887" lon="5.64932">
        <ele>453.8</ele>
        <time>2011-07-24T15:44:34Z</time>
      </trkpt>
      <trkpt lat="45.07888" lon="5.64933">
        <ele>449.4</ele>
        <time>2011-07-24T15:44:56Z</time>
      </trkpt>
      <trkpt lat="45.07891" lon="5.64937">
        <ele>448.4</ele>
        <time>2011-07-24T15:45:00Z</time>
      </trkpt>
      <trkpt lat="45.07895" lon="5.64945">
        <ele>447.6</ele>
        <time>2011-07-24T15:45:04Z</time>
      </trkpt>
      <trkpt lat="45.07895" lon="5.6495">
        <ele>447</ele>
        <time>2011-07-24T15:45:06Z</time>
      </trkpt>
      <trkpt lat="45.07894" lon="5.64953">
        <ele>446.6</ele>
        <time>2011-07-24T15:45:08Z</time>
      </trkpt>
      <trkpt lat="45.07893" lon="5.64961">
        <ele>445.6</ele>
        <time>2011-07-24T15:45:12Z</time>
      </trkpt>
      <trkpt lat="45.07893" lon="5.64963">
        <ele>445.4</ele>
        <time>2011-07-24T15:45:13Z</time>
      </trkpt>
      <trkpt lat="45.07891" lon="5.64975">
        <ele>444.6</ele>
        <time>2011-07-24T15:45:17Z</time>
      </trkpt>
      <trkpt lat="45.0789" lon="5.64978">
        <ele>444.2</ele>
        <time>2011-07-24T15:45:18Z</time>
      </trkpt>
      <trkpt lat="45.07891" lon="5.65">
        <ele>442.2</ele>
        <time>2011-07-24T15:45:26Z</time>
      </trkpt>
      <trkpt lat="45.07891" lon="5.65002">
        <ele>442</ele>
        <time>2011-07-24T15:45:27Z</time>
      </trkpt>
      <trkpt lat="45.07891" lon="5.65016">
        <ele>440.6</ele>
        <time>2011-07-24T15:45:32Z</time>
      </trkpt>
      <trkpt lat="45.07887" lon="5.65027">
        <ele>439.4</ele>
        <time>2011-07-24T15:45:36Z</time>
      </trkpt>
      <trkpt lat="45.07885" lon="5.65029">
        <ele>439.2</ele>
        <time>2011-07-24T15:45:37Z</time>
      </trkpt>
      <trkpt lat="45.07878" lon="5.65046">
        <ele>437.4</ele>
        <time>2011-07-24T15:45:43Z</time>
      </trkpt>
      <trkpt lat="45.07876" lon="5.65048">
        <ele>437.2</ele>
        <time>2011-07-24T15:45:44Z</time>
      </trkpt>
      <trkpt lat="45.07866" lon="5.65056">
        <ele>435.8</ele>
        <time>2011-07-24T15:45:49Z</time>
      </trkpt>
      <trkpt lat="45.0786" lon="5.65062">
        <ele>435</ele>
        <time>2011-07-24T15:45:52Z</time>
      </trkpt>
      <trkpt lat="45.07855" lon="5.65068">
        <ele>434.2</ele>
        <time>2011-07-24T15:45:55Z</time>
      </trkpt>
      <trkpt lat="45.07844" lon="5.65079">
        <ele>432.8</ele>
        <time>2011-07-24T15:46:00Z</time>
      </trkpt>
      <trkpt lat="45.07842" lon="5.65081">
        <ele>432.6</ele>
        <time>2011-07-24T15:46:01Z</time>
      </trkpt>
      <trkpt lat="45.07833" lon="5.65089">
        <ele>430.8</ele>
        <time>2011-07-24T15:46:06Z</time>
      </trkpt>
      <trkpt lat="45.07829" lon="5.65096">
        <ele>429.8</ele>
        <time>2011-07-24T15:46:09Z</time>
      </trkpt>
      <trkpt lat="45.07826" lon="5.65101">
        <ele>429.2</ele>
        <time>2011-07-24T15:46:11Z</time>
      </trkpt>
      <trkpt lat="45.07813" lon="5.6511">
        <ele>427</ele>
        <time>2011-07-24T15:46:17Z</time>
      </trkpt>
      <trkpt lat="45.078" lon="5.65107">
        <ele>424.8</ele>
        <time>2011-07-24T15:46:23Z</time>
      </trkpt>
      <trkpt lat="45.07795" lon="5.65107">
        <ele>424</ele>
        <time>2011-07-24T15:46:25Z</time>
      </trkpt>
      <trkpt lat="45.07782" lon="5.65109">
        <ele>422.2</ele>
        <time>2011-07-24T15:46:30Z</time>
      </trkpt>
      <trkpt lat="45.07775" lon="5.6511">
        <ele>421</ele>
        <time>2011-07-24T15:46:33Z</time>
      </trkpt>
      <trkpt lat="45.07765" lon="5.65113">
        <ele>419.4</ele>
        <time>2011-07-24T15:46:37Z</time>
      </trkpt>
      <trkpt lat="45.07755" lon="5.65113">
        <ele>418</ele>
        <time>2011-07-24T15:46:41Z</time>
      </trkpt>
      <trkpt lat="45.07752" lon="5.65112">
        <ele>417.6</ele>
        <time>2011-07-24T15:46:42Z</time>
      </trkpt>
      <trkpt lat="45.07741" lon="5.65107">
        <ele>415.6</ele>
        <time>2011-07-24T15:46:47Z</time>
      </trkpt>
      <trkpt lat="45.07737" lon="5.65106">
        <ele>414.8</ele>
        <time>2011-07-24T15:46:49Z</time>
      </trkpt>
      <trkpt lat="45.07727" lon="5.65101">
        <ele>413.2</ele>
        <time>2011-07-24T15:46:53Z</time>
      </trkpt>
      <trkpt lat="45.0772" lon="5.65096">
        <ele>412</ele>
        <time>2011-07-24T15:46:56Z</time>
      </trkpt>
      <trkpt lat="45.07714" lon="5.65095">
        <ele>411.4</ele>
        <time>2011-07-24T15:46:58Z</time>
      </trkpt>
      <trkpt lat="45.07705" lon="5.65089">
        <ele>409.8</ele>
        <time>2011-07-24T15:47:02Z</time>
      </trkpt>
      <trkpt lat="45.07703" lon="5.65087">
        <ele>409.4</ele>
        <time>2011-07-24T15:47:03Z</time>
      </trkpt>
      <trkpt lat="45.07694" lon="5.65079">
        <ele>408</ele>
        <time>2011-07-24T15:47:07Z</time>
      </trkpt>
      <trkpt lat="45.07689" lon="5.65072">
        <ele>407</ele>
        <time>2011-07-24T15:47:10Z</time>
      </trkpt>
      <trkpt lat="45.07687" lon="5.6507">
        <ele>406.6</ele>
        <time>2011-07-24T15:47:11Z</time>
      </trkpt>
      <trkpt lat="45.07674" lon="5.65064">
        <ele>405</ele>
        <time>2011-07-24T15:47:16Z</time>
      </trkpt>
      <trkpt lat="45.07669" lon="5.65061">
        <ele>404.4</ele>
        <time>2011-07-24T15:47:18Z</time>
      </trkpt>
      <trkpt lat="45.07661" lon="5.65058">
        <ele>403.4</ele>
        <time>2011-07-24T15:47:21Z</time>
      </trkpt>
      <trkpt lat="45.0765" lon="5.65053">
        <ele>402</ele>
        <time>2011-07-24T15:47:26Z</time>
      </trkpt>
      <trkpt lat="45.07638" lon="5.65045">
        <ele>400.6</ele>
        <time>2011-07-24T15:47:31Z</time>
      </trkpt>
      <trkpt lat="45.07633" lon="5.65043">
        <ele>400</ele>
        <time>2011-07-24T15:47:33Z</time>
      </trkpt>
      <trkpt lat="45.07629" lon="5.65042">
        <ele>399.4</ele>
        <time>2011-07-24T15:47:35Z</time>
      </trkpt>
      <trkpt lat="45.07615" lon="5.65039">
        <ele>397.8</ele>
        <time>2011-07-24T15:47:41Z</time>
      </trkpt>
      <trkpt lat="45.07596" lon="5.65032">
        <ele>395.8</ele>
        <time>2011-07-24T15:47:49Z</time>
      </trkpt>
      <trkpt lat="45.07582" lon="5.65026">
        <ele>394.2</ele>
        <time>2011-07-24T15:47:55Z</time>
      </trkpt>
      <trkpt lat="45.07577" lon="5.65024">
        <ele>393.8</ele>
        <time>2011-07-24T15:47:57Z</time>
      </trkpt>
      <trkpt lat="45.07568" lon="5.6502">
        <ele>392.8</ele>
        <time>2011-07-24T15:48:01Z</time>
      </trkpt>
      <trkpt lat="45.07559" lon="5.6502">
        <ele>391.8</ele>
        <time>2011-07-24T15:48:05Z</time>
      </trkpt>
      <trkpt lat="45.07554" lon="5.6502">
        <ele>391.4</ele>
        <time>2011-07-24T15:48:07Z</time>
      </trkpt>
      <trkpt lat="45.0754" lon="5.65021">
        <ele>390</ele>
        <time>2011-07-24T15:48:13Z</time>
      </trkpt>
      <trkpt lat="45.07527" lon="5.65022">
        <ele>388.6</ele>
        <time>2011-07-24T15:48:19Z</time>
      </trkpt>
      <trkpt lat="45.07522" lon="5.65021">
        <ele>388.2</ele>
        <time>2011-07-24T15:48:21Z</time>
      </trkpt>
      <trkpt lat="45.07515" lon="5.65018">
        <ele>387.4</ele>
        <time>2011-07-24T15:48:24Z</time>
      </trkpt>
      <trkpt lat="45.07504" lon="5.65012">
        <ele>386.2</ele>
        <time>2011-07-24T15:48:29Z</time>
      </trkpt>
      <trkpt lat="45.07502" lon="5.65011">
        <ele>386</ele>
        <time>2011-07-24T15:48:30Z</time>
      </trkpt>
      <trkpt lat="45.07488" lon="5.65014">
        <ele>384.6</ele>
        <time>2011-07-24T15:48:36Z</time>
      </trkpt>
      <trkpt lat="45.07485" lon="5.65015">
        <ele>384.4</ele>
        <time>2011-07-24T15:48:37Z</time>
      </trkpt>
      <trkpt lat="45.07472" lon="5.65019">
        <ele>383.2</ele>
        <time>2011-07-24T15:48:42Z</time>
      </trkpt>
      <trkpt lat="45.07466" lon="5.65024">
        <ele>382.4</ele>
        <time>2011-07-24T15:48:45Z</time>
      </trkpt>
      <trkpt lat="45.07461" lon="5.65031">
        <ele>381.8</ele>
        <time>2011-07-24T15:48:48Z</time>
      </trkpt>
      <trkpt lat="45.07461" lon="5.65035">
        <ele>381.4</ele>
        <time>2011-07-24T15:48:50Z</time>
      </trkpt>
      <trkpt lat="45.07464" lon="5.65041">
        <ele>381</ele>
        <time>2011-07-24T15:48:52Z</time>
      </trkpt>
      <trkpt lat="45.07465" lon="5.65044">
        <ele>380.8</ele>
        <time>2011-07-24T15:48:53Z</time>
      </trkpt>
      <trkpt lat="45.07467" lon="5.65049">
        <ele>380.4</ele>
        <time>2011-07-24T15:48:55Z</time>
      </trkpt>
      <trkpt lat="45.07468" lon="5.65052">
        <ele>380</ele>
        <time>2011-07-24T15:48:57Z</time>
      </trkpt>
      <trkpt lat="45.07473" lon="5.65066">
        <ele>378.2</ele>
        <time>2011-07-24T15:49:05Z</time>
      </trkpt>
      <trkpt lat="45.07474" lon="5.65068">
        <ele>378</ele>
        <time>2011-07-24T15:49:06Z</time>
      </trkpt>
      <trkpt lat="45.07477" lon="5.6508">
        <ele>377</ele>
        <time>2011-07-24T15:49:12Z</time>
      </trkpt>
      <trkpt lat="45.07473" lon="5.6509">
        <ele>376</ele>
        <time>2011-07-24T15:49:17Z</time>
      </trkpt>
      <trkpt lat="45.07471" lon="5.65092">
        <ele>375.8</ele>
        <time>2011-07-24T15:49:18Z</time>
      </trkpt>
      <trkpt lat="45.07461" lon="5.65105">
        <ele>374.8</ele>
        <time>2011-07-24T15:49:23Z</time>
      </trkpt>
      <trkpt lat="45.07459" lon="5.65106">
        <ele>374.6</ele>
        <time>2011-07-24T15:49:24Z</time>
      </trkpt>
      <trkpt lat="45.07449" lon="5.65118">
        <ele>373.6</ele>
        <time>2011-07-24T15:49:29Z</time>
      </trkpt>
      <trkpt lat="45.07446" lon="5.65124">
        <ele>373.2</ele>
        <time>2011-07-24T15:49:31Z</time>
      </trkpt>
      <trkpt lat="45.07441" lon="5.65135">
        <ele>372.4</ele>
        <time>2011-07-24T15:49:35Z</time>
      </trkpt>
      <trkpt lat="45.07441" lon="5.65137">
        <ele>372.2</ele>
        <time>2011-07-24T15:49:36Z</time>
      </trkpt>
      <trkpt lat="45.07439" lon="5.65148">
        <ele>371.6</ele>
        <time>2011-07-24T15:49:39Z</time>
      </trkpt>
      <trkpt lat="45.07439" lon="5.6517">
        <ele>370.2</ele>
        <time>2011-07-24T15:49:45Z</time>
      </trkpt>
      <trkpt lat="45.07439" lon="5.65174">
        <ele>370</ele>
        <time>2011-07-24T15:49:46Z</time>
      </trkpt>
      <trkpt lat="45.07439" lon="5.65182">
        <ele>369.8</ele>
        <time>2011-07-24T15:49:48Z</time>
      </trkpt>
      <trkpt lat="45.07438" lon="5.65193">
        <ele>369.2</ele>
        <time>2011-07-24T15:49:51Z</time>
      </trkpt>
      <trkpt lat="45.07436" lon="5.65201">
        <ele>368.8</ele>
        <time>2011-07-24T15:49:53Z</time>
      </trkpt>
      <trkpt lat="45.0743" lon="5.65214">
        <ele>368</ele>
        <time>2011-07-24T15:49:57Z</time>
      </trkpt>
      <trkpt lat="45.07424" lon="5.65222">
        <ele>367.4</ele>
        <time>2011-07-24T15:50:00Z</time>
      </trkpt>
      <trkpt lat="45.07419" lon="5.65232">
        <ele>366.8</ele>
        <time>2011-07-24T15:50:03Z</time>
      </trkpt>
      <trkpt lat="45.07416" lon="5.65244">
        <ele>366.2</ele>
        <time>2011-07-24T15:50:06Z</time>
      </trkpt>
      <trkpt lat="45.07415" lon="5.65248">
        <ele>366</ele>
        <time>2011-07-24T15:50:08Z</time>
      </trkpt>
      <trkpt lat="45.07415" lon="5.65248">
        <ele>366</ele>
        <time>2011-07-24T15:50:08Z</time>
      </trkpt>
      <trkpt lat="45.07413" lon="5.65256">
        <ele>365.6</ele>
        <time>2011-07-24T15:50:09Z</time>
      </trkpt>
      <trkpt lat="45.0741" lon="5.6527">
        <ele>364.8</ele>
        <time>2011-07-24T15:50:13Z</time>
      </trkpt>
      <trkpt lat="45.07408" lon="5.65277">
        <ele>364.4</ele>
        <time>2011-07-24T15:50:15Z</time>
      </trkpt>
      <trkpt lat="45.07405" lon="5.65296">
        <ele>363.4</ele>
        <time>2011-07-24T15:50:20Z</time>
      </trkpt>
      <trkpt lat="45.07404" lon="5.65303">
        <ele>363</ele>
        <time>2011-07-24T15:50:22Z</time>
      </trkpt>
      <trkpt lat="45.074" lon="5.65322">
        <ele>362</ele>
        <time>2011-07-24T15:50:27Z</time>
      </trkpt>
      <trkpt lat="45.07398" lon="5.6533">
        <ele>361.6</ele>
        <time>2011-07-24T15:50:29Z</time>
      </trkpt>
      <trkpt lat="45.07395" lon="5.65342">
        <ele>360.8</ele>
        <time>2011-07-24T15:50:33Z</time>
      </trkpt>
      <trkpt lat="45.07393" lon="5.65348">
        <ele>360.4</ele>
        <time>2011-07-24T15:50:35Z</time>
      </trkpt>
      <trkpt lat="45.07387" lon="5.6536">
        <ele>359.6</ele>
        <time>2011-07-24T15:50:39Z</time>
      </trkpt>
      <trkpt lat="45.07382" lon="5.65371">
        <ele>358.8</ele>
        <time>2011-07-24T15:50:43Z</time>
      </trkpt>
      <trkpt lat="45.07379" lon="5.65377">
        <ele>358.4</ele>
        <time>2011-07-24T15:50:45Z</time>
      </trkpt>
      <trkpt lat="45.07374" lon="5.65389">
        <ele>357.6</ele>
        <time>2011-07-24T15:50:49Z</time>
      </trkpt>
      <trkpt lat="45.07372" lon="5.65395">
        <ele>357.2</ele>
        <time>2011-07-24T15:50:51Z</time>
      </trkpt>
      <trkpt lat="45.07368" lon="5.65404">
        <ele>356.6</ele>
        <time>2011-07-24T15:50:54Z</time>
      </trkpt>
      <trkpt lat="45.07364" lon="5.6542">
        <ele>355.6</ele>
        <time>2011-07-24T15:50:59Z</time>
      </trkpt>
      <trkpt lat="45.07363" lon="5.65423">
        <ele>355.6</ele>
        <time>2011-07-24T15:51:00Z</time>
      </trkpt>
      <trkpt lat="45.07355" lon="5.6544">
        <ele>354.4</ele>
        <time>2011-07-24T15:51:06Z</time>
      </trkpt>
      <trkpt lat="45.07354" lon="5.65443">
        <ele>354.4</ele>
        <time>2011-07-24T15:51:07Z</time>
      </trkpt>
      <trkpt lat="45.0735" lon="5.6545">
        <ele>353.8</ele>
        <time>2011-07-24T15:51:10Z</time>
      </trkpt>
      <trkpt lat="45.07347" lon="5.65456">
        <ele>353.4</ele>
        <time>2011-07-24T15:51:12Z</time>
      </trkpt>
      <trkpt lat="45.07344" lon="5.65462">
        <ele>353.2</ele>
        <time>2011-07-24T15:51:14Z</time>
      </trkpt>
      <trkpt lat="45.07343" lon="5.65465">
        <ele>353</ele>
        <time>2011-07-24T15:51:15Z</time>
      </trkpt>
      <trkpt lat="45.07337" lon="5.65477">
        <ele>352.4</ele>
        <time>2011-07-24T15:51:19Z</time>
      </trkpt>
      <trkpt lat="45.07331" lon="5.65488">
        <ele>352</ele>
        <time>2011-07-24T15:51:23Z</time>
      </trkpt>
      <trkpt lat="45.0733" lon="5.65493">
        <ele>351.8</ele>
        <time>2011-07-24T15:51:25Z</time>
      </trkpt>
      <trkpt lat="45.07328" lon="5.65512">
        <ele>351.2</ele>
        <time>2011-07-24T15:51:31Z</time>
      </trkpt>
      <trkpt lat="45.07328" lon="5.65515">
        <ele>351.2</ele>
        <time>2011-07-24T15:51:32Z</time>
      </trkpt>
      <trkpt lat="45.07326" lon="5.65528">
        <ele>350.8</ele>
        <time>2011-07-24T15:51:36Z</time>
      </trkpt>
      <trkpt lat="45.07323" lon="5.6554">
        <ele>350.2</ele>
        <time>2011-07-24T15:51:40Z</time>
      </trkpt>
      <trkpt lat="45.0732" lon="5.65546">
        <ele>350</ele>
        <time>2011-07-24T15:51:42Z</time>
      </trkpt>
      <trkpt lat="45.07315" lon="5.6556">
        <ele>349.4</ele>
        <time>2011-07-24T15:51:47Z</time>
      </trkpt>
      <trkpt lat="45.07313" lon="5.65564">
        <ele>349.4</ele>
        <time>2011-07-24T15:51:48Z</time>
      </trkpt>
      <trkpt lat="45.07309" lon="5.65575">
        <ele>348.8</ele>
        <time>2011-07-24T15:51:52Z</time>
      </trkpt>
      <trkpt lat="45.0731" lon="5.65588">
        <ele>348.4</ele>
        <time>2011-07-24T15:51:56Z</time>
      </trkpt>
      <trkpt lat="45.07311" lon="5.65591">
        <ele>348.2</ele>
        <time>2011-07-24T15:51:57Z</time>
      </trkpt>
      <trkpt lat="45.07319" lon="5.65602">
        <ele>347.6</ele>
        <time>2011-07-24T15:52:02Z</time>
      </trkpt>
      <trkpt lat="45.07323" lon="5.65606">
        <ele>347.4</ele>
        <time>2011-07-24T15:52:04Z</time>
      </trkpt>
      <trkpt lat="45.07331" lon="5.65618">
        <ele>347</ele>
        <time>2011-07-24T15:52:09Z</time>
      </trkpt>
      <trkpt lat="45.07335" lon="5.65627">
        <ele>346.4</ele>
        <time>2011-07-24T15:52:13Z</time>
      </trkpt>
      <trkpt lat="45.07336" lon="5.65629">
        <ele>346.4</ele>
        <time>2011-07-24T15:52:14Z</time>
      </trkpt>
      <trkpt lat="45.07345" lon="5.65648">
        <ele>345.8</ele>
        <time>2011-07-24T15:52:21Z</time>
      </trkpt>
      <trkpt lat="45.07351" lon="5.65669">
        <ele>345</ele>
        <time>2011-07-24T15:52:28Z</time>
      </trkpt>
      <trkpt lat="45.07352" lon="5.65672">
        <ele>345</ele>
        <time>2011-07-24T15:52:29Z</time>
      </trkpt>
      <trkpt lat="45.07356" lon="5.65694">
        <ele>344.4</ele>
        <time>2011-07-24T15:52:36Z</time>
      </trkpt>
      <trkpt lat="45.07355" lon="5.65699">
        <ele>344.4</ele>
        <time>2011-07-24T15:52:38Z</time>
      </trkpt>
      <trkpt lat="45.07354" lon="5.65702">
        <ele>344.2</ele>
        <time>2011-07-24T15:52:40Z</time>
      </trkpt>
    </trkseg>
  </trk>
</gpx>